<?xml version="1.0" encoding="UTF-8" standalone="no" ?>
<gpx xmlns="http://www.topografix.com/GPX/1/1" xmlns:xsi="http://www.w3.org/2001/XMLSchema-instance" xsi:schemaLocation="http://www.topografix.com/GPX/1/1 http://www.topografix.com/GPX/1/1/gpx.xsd" version="1.1" creator="VisuGPX - https://www.visugpx.com">
  <metadata>
    <name>Pornichet 22/08/2021</name>
    <desc><![CDATA[Sortie VTT dimanche 22 août 2021]]></desc>
  </metadata>
  <trk>
    <name><![CDATA[Pornichet Cyclisme]]></name>
    <trkseg>
      <trkpt lat="47.26412" lon="-2.31533">
        <ele>10.6</ele>
        <time>2021-08-22T06:54:48.000Z</time>
      </trkpt>
      <trkpt lat="47.26412" lon="-2.31533">
        <ele>10.6</ele>
        <time>2021-08-22T06:54:49.000Z</time>
      </trkpt>
      <trkpt lat="47.2642" lon="-2.31533">
        <ele>11</ele>
        <time>2021-08-22T06:56:16.000Z</time>
      </trkpt>
      <trkpt lat="47.26417" lon="-2.31534">
        <ele>10.8</ele>
        <time>2021-08-22T06:56:19.000Z</time>
      </trkpt>
      <trkpt lat="47.26418" lon="-2.31534">
        <ele>10.8</ele>
        <time>2021-08-22T06:56:21.000Z</time>
      </trkpt>
      <trkpt lat="47.26415" lon="-2.31536">
        <ele>10.6</ele>
        <time>2021-08-22T06:56:58.000Z</time>
      </trkpt>
      <trkpt lat="47.26411" lon="-2.31538">
        <ele>10.4</ele>
        <time>2021-08-22T06:56:59.000Z</time>
      </trkpt>
      <trkpt lat="47.26407" lon="-2.31545">
        <ele>10</ele>
        <time>2021-08-22T06:57:01.000Z</time>
      </trkpt>
      <trkpt lat="47.26407" lon="-2.31556">
        <ele>9.6</ele>
        <time>2021-08-22T06:57:03.000Z</time>
      </trkpt>
      <trkpt lat="47.26407" lon="-2.31568">
        <ele>9.7</ele>
        <time>2021-08-22T06:57:05.000Z</time>
      </trkpt>
      <trkpt lat="47.26407" lon="-2.31591">
        <ele>9.7</ele>
        <time>2021-08-22T06:57:09.000Z</time>
      </trkpt>
      <trkpt lat="47.26407" lon="-2.31627">
        <ele>9.3</ele>
        <time>2021-08-22T06:57:15.000Z</time>
      </trkpt>
      <trkpt lat="47.26408" lon="-2.31647">
        <ele>8.7</ele>
        <time>2021-08-22T06:57:18.000Z</time>
      </trkpt>
      <trkpt lat="47.264" lon="-2.31657">
        <ele>8.4</ele>
        <time>2021-08-22T06:57:21.000Z</time>
      </trkpt>
      <trkpt lat="47.26393" lon="-2.31659">
        <ele>8.3</ele>
        <time>2021-08-22T06:57:23.000Z</time>
      </trkpt>
      <trkpt lat="47.26388" lon="-2.31662">
        <ele>-0.40000000596046</ele>
        <time>2021-08-22T06:57:24.000Z</time>
      </trkpt>
      <trkpt lat="47.26384" lon="-2.31663">
        <ele>-0.80000001192093</ele>
        <time>2021-08-22T06:57:25.000Z</time>
      </trkpt>
      <trkpt lat="47.26379" lon="-2.31666">
        <ele>-1.2000000476837</ele>
        <time>2021-08-22T06:57:26.000Z</time>
      </trkpt>
      <trkpt lat="47.26373" lon="-2.31669">
        <ele>-1.6000000238419</ele>
        <time>2021-08-22T06:57:27.000Z</time>
      </trkpt>
      <trkpt lat="47.26368" lon="-2.31673">
        <ele>-2</ele>
        <time>2021-08-22T06:57:28.000Z</time>
      </trkpt>
      <trkpt lat="47.26336" lon="-2.3169">
        <ele>-2</ele>
        <time>2021-08-22T06:57:34.000Z</time>
      </trkpt>
      <trkpt lat="47.26312" lon="-2.31703">
        <ele>-2.4000000953674</ele>
        <time>2021-08-22T06:57:38.000Z</time>
      </trkpt>
      <trkpt lat="47.26308" lon="-2.31705">
        <ele>-2.7999999523163</ele>
        <time>2021-08-22T06:57:39.000Z</time>
      </trkpt>
      <trkpt lat="47.26305" lon="-2.3171">
        <ele>-3.2000000476837</ele>
        <time>2021-08-22T06:57:40.000Z</time>
      </trkpt>
      <trkpt lat="47.26301" lon="-2.31715">
        <ele>-3.5999999046326</ele>
        <time>2021-08-22T06:57:41.000Z</time>
      </trkpt>
      <trkpt lat="47.263" lon="-2.3172">
        <ele>-4.1999998092651</ele>
        <time>2021-08-22T06:57:42.000Z</time>
      </trkpt>
      <trkpt lat="47.26301" lon="-2.31727">
        <ele>-4.1999998092651</ele>
        <time>2021-08-22T06:57:43.000Z</time>
      </trkpt>
      <trkpt lat="47.26302" lon="-2.3174">
        <ele>-4.1999998092651</ele>
        <time>2021-08-22T06:57:45.000Z</time>
      </trkpt>
      <trkpt lat="47.26304" lon="-2.31773">
        <ele>-4.1999998092651</ele>
        <time>2021-08-22T06:57:50.000Z</time>
      </trkpt>
      <trkpt lat="47.26301" lon="-2.31819">
        <ele>-4.1999998092651</ele>
        <time>2021-08-22T06:57:57.000Z</time>
      </trkpt>
      <trkpt lat="47.26297" lon="-2.31856">
        <ele>-4.1999998092651</ele>
        <time>2021-08-22T06:58:02.000Z</time>
      </trkpt>
      <trkpt lat="47.26297" lon="-2.31862">
        <ele>-4.1999998092651</ele>
        <time>2021-08-22T06:58:03.000Z</time>
      </trkpt>
      <trkpt lat="47.26295" lon="-2.31873">
        <ele>-4.5999999046326</ele>
        <time>2021-08-22T06:58:05.000Z</time>
      </trkpt>
      <trkpt lat="47.26294" lon="-2.31877">
        <ele>-5</ele>
        <time>2021-08-22T06:58:06.000Z</time>
      </trkpt>
      <trkpt lat="47.26291" lon="-2.3188">
        <ele>-5.4000000953674</ele>
        <time>2021-08-22T06:58:07.000Z</time>
      </trkpt>
      <trkpt lat="47.26288" lon="-2.31883">
        <ele>-5.8000001907349</ele>
        <time>2021-08-22T06:58:08.000Z</time>
      </trkpt>
      <trkpt lat="47.26285" lon="-2.31886">
        <ele>-6.1999998092651</ele>
        <time>2021-08-22T06:58:09.000Z</time>
      </trkpt>
      <trkpt lat="47.2628" lon="-2.31897">
        <ele>-6.1999998092651</ele>
        <time>2021-08-22T06:58:11.000Z</time>
      </trkpt>
      <trkpt lat="47.26266" lon="-2.31921">
        <ele>-6.1999998092651</ele>
        <time>2021-08-22T06:58:16.000Z</time>
      </trkpt>
      <trkpt lat="47.26253" lon="-2.31948">
        <ele>-6.1999998092651</ele>
        <time>2021-08-22T06:58:21.000Z</time>
      </trkpt>
      <trkpt lat="47.26238" lon="-2.31965">
        <ele>-6.1999998092651</ele>
        <time>2021-08-22T06:58:26.000Z</time>
      </trkpt>
      <trkpt lat="47.26234" lon="-2.31965">
        <ele>-6.1999998092651</ele>
        <time>2021-08-22T06:58:27.000Z</time>
      </trkpt>
      <trkpt lat="47.2623" lon="-2.31969">
        <ele>-6.1999998092651</ele>
        <time>2021-08-22T06:58:29.000Z</time>
      </trkpt>
      <trkpt lat="47.26225" lon="-2.31974">
        <ele>-6.1999998092651</ele>
        <time>2021-08-22T06:58:31.000Z</time>
      </trkpt>
      <trkpt lat="47.26205" lon="-2.31993">
        <ele>-6.1999998092651</ele>
        <time>2021-08-22T06:58:39.000Z</time>
      </trkpt>
      <trkpt lat="47.26202" lon="-2.32005">
        <ele>-6.1999998092651</ele>
        <time>2021-08-22T06:58:43.000Z</time>
      </trkpt>
      <trkpt lat="47.262" lon="-2.32006">
        <ele>-6.1999998092651</ele>
        <time>2021-08-22T06:58:44.000Z</time>
      </trkpt>
      <trkpt lat="47.26184" lon="-2.32006">
        <ele>-6.1999998092651</ele>
        <time>2021-08-22T06:58:50.000Z</time>
      </trkpt>
      <trkpt lat="47.26165" lon="-2.32019">
        <ele>-6.1999998092651</ele>
        <time>2021-08-22T06:58:55.000Z</time>
      </trkpt>
      <trkpt lat="47.26162" lon="-2.32024">
        <ele>-6.1999998092651</ele>
        <time>2021-08-22T06:58:56.000Z</time>
      </trkpt>
      <trkpt lat="47.26158" lon="-2.32036">
        <ele>-6.1999998092651</ele>
        <time>2021-08-22T06:58:58.000Z</time>
      </trkpt>
      <trkpt lat="47.26143" lon="-2.32078">
        <ele>-6.1999998092651</ele>
        <time>2021-08-22T06:59:05.000Z</time>
      </trkpt>
      <trkpt lat="47.26141" lon="-2.3209">
        <ele>-6.1999998092651</ele>
        <time>2021-08-22T06:59:07.000Z</time>
      </trkpt>
      <trkpt lat="47.26133" lon="-2.32124">
        <ele>-6.1999998092651</ele>
        <time>2021-08-22T06:59:13.000Z</time>
      </trkpt>
      <trkpt lat="47.2613" lon="-2.3213">
        <ele>-6.1999998092651</ele>
        <time>2021-08-22T06:59:14.000Z</time>
      </trkpt>
      <trkpt lat="47.26123" lon="-2.32149">
        <ele>-6.1999998092651</ele>
        <time>2021-08-22T06:59:17.000Z</time>
      </trkpt>
      <trkpt lat="47.26117" lon="-2.32167">
        <ele>-6.1999998092651</ele>
        <time>2021-08-22T06:59:20.000Z</time>
      </trkpt>
      <trkpt lat="47.26106" lon="-2.3219">
        <ele>-6.1999998092651</ele>
        <time>2021-08-22T06:59:24.000Z</time>
      </trkpt>
      <trkpt lat="47.26101" lon="-2.322">
        <ele>-6.1999998092651</ele>
        <time>2021-08-22T06:59:26.000Z</time>
      </trkpt>
      <trkpt lat="47.2609" lon="-2.32216">
        <ele>-6.1999998092651</ele>
        <time>2021-08-22T06:59:29.000Z</time>
      </trkpt>
      <trkpt lat="47.26079" lon="-2.3223">
        <ele>-6.1999998092651</ele>
        <time>2021-08-22T06:59:32.000Z</time>
      </trkpt>
      <trkpt lat="47.2605" lon="-2.32262">
        <ele>-6.1999998092651</ele>
        <time>2021-08-22T06:59:39.000Z</time>
      </trkpt>
      <trkpt lat="47.26016" lon="-2.32303">
        <ele>-6.1999998092651</ele>
        <time>2021-08-22T06:59:48.000Z</time>
      </trkpt>
      <trkpt lat="47.26005" lon="-2.32316">
        <ele>-6.1999998092651</ele>
        <time>2021-08-22T06:59:51.000Z</time>
      </trkpt>
      <trkpt lat="47.25986" lon="-2.32341">
        <ele>-6.1999998092651</ele>
        <time>2021-08-22T06:59:56.000Z</time>
      </trkpt>
      <trkpt lat="47.25967" lon="-2.32367">
        <ele>-6.1999998092651</ele>
        <time>2021-08-22T07:00:01.000Z</time>
      </trkpt>
      <trkpt lat="47.25959" lon="-2.32376">
        <ele>-6.1999998092651</ele>
        <time>2021-08-22T07:00:03.000Z</time>
      </trkpt>
      <trkpt lat="47.25933" lon="-2.3241">
        <ele>-6.1999998092651</ele>
        <time>2021-08-22T07:00:10.000Z</time>
      </trkpt>
      <trkpt lat="47.25907" lon="-2.32444">
        <ele>-6.1999998092651</ele>
        <time>2021-08-22T07:00:17.000Z</time>
      </trkpt>
      <trkpt lat="47.25901" lon="-2.32453">
        <ele>-6.1999998092651</ele>
        <time>2021-08-22T07:00:19.000Z</time>
      </trkpt>
      <trkpt lat="47.25888" lon="-2.32461">
        <ele>-6.1999998092651</ele>
        <time>2021-08-22T07:00:22.000Z</time>
      </trkpt>
      <trkpt lat="47.25879" lon="-2.32466">
        <ele>-6.1999998092651</ele>
        <time>2021-08-22T07:00:24.000Z</time>
      </trkpt>
      <trkpt lat="47.25869" lon="-2.32469">
        <ele>-6.1999998092651</ele>
        <time>2021-08-22T07:00:26.000Z</time>
      </trkpt>
      <trkpt lat="47.25859" lon="-2.3247">
        <ele>-6.1999998092651</ele>
        <time>2021-08-22T07:00:28.000Z</time>
      </trkpt>
      <trkpt lat="47.25834" lon="-2.32464">
        <ele>-6.1999998092651</ele>
        <time>2021-08-22T07:00:33.000Z</time>
      </trkpt>
      <trkpt lat="47.25804" lon="-2.3245">
        <ele>-6.1999998092651</ele>
        <time>2021-08-22T07:00:39.000Z</time>
      </trkpt>
      <trkpt lat="47.25787" lon="-2.32451">
        <ele>-6.1999998092651</ele>
        <time>2021-08-22T07:00:43.000Z</time>
      </trkpt>
      <trkpt lat="47.25777" lon="-2.32441">
        <ele>-6.1999998092651</ele>
        <time>2021-08-22T07:00:46.000Z</time>
      </trkpt>
      <trkpt lat="47.25763" lon="-2.32421">
        <ele>-6.1999998092651</ele>
        <time>2021-08-22T07:00:50.000Z</time>
      </trkpt>
      <trkpt lat="47.25748" lon="-2.32418">
        <ele>-6.1999998092651</ele>
        <time>2021-08-22T07:00:53.000Z</time>
      </trkpt>
      <trkpt lat="47.25742" lon="-2.32418">
        <ele>-6.1999998092651</ele>
        <time>2021-08-22T07:00:54.000Z</time>
      </trkpt>
      <trkpt lat="47.25702" lon="-2.32416">
        <ele>-6.1999998092651</ele>
        <time>2021-08-22T07:01:01.000Z</time>
      </trkpt>
      <trkpt lat="47.2567" lon="-2.32413">
        <ele>-6.1999998092651</ele>
        <time>2021-08-22T07:01:07.000Z</time>
      </trkpt>
      <trkpt lat="47.25666" lon="-2.32414">
        <ele>-6.1999998092651</ele>
        <time>2021-08-22T07:01:08.000Z</time>
      </trkpt>
      <trkpt lat="47.2566" lon="-2.32423">
        <ele>-6.1999998092651</ele>
        <time>2021-08-22T07:01:10.000Z</time>
      </trkpt>
      <trkpt lat="47.2566" lon="-2.32443">
        <ele>-6.1999998092651</ele>
        <time>2021-08-22T07:01:13.000Z</time>
      </trkpt>
      <trkpt lat="47.25664" lon="-2.32455">
        <ele>-5.8000001907349</ele>
        <time>2021-08-22T07:01:15.000Z</time>
      </trkpt>
      <trkpt lat="47.25667" lon="-2.32461">
        <ele>-5.4000000953674</ele>
        <time>2021-08-22T07:01:16.000Z</time>
      </trkpt>
      <trkpt lat="47.25668" lon="-2.32467">
        <ele>-4.5999999046326</ele>
        <time>2021-08-22T07:01:17.000Z</time>
      </trkpt>
      <trkpt lat="47.2567" lon="-2.32473">
        <ele>-4.1999998092651</ele>
        <time>2021-08-22T07:01:18.000Z</time>
      </trkpt>
      <trkpt lat="47.25676" lon="-2.32489">
        <ele>-4.1999998092651</ele>
        <time>2021-08-22T07:01:21.000Z</time>
      </trkpt>
      <trkpt lat="47.25679" lon="-2.32501">
        <ele>-4.1999998092651</ele>
        <time>2021-08-22T07:01:23.000Z</time>
      </trkpt>
      <trkpt lat="47.25693" lon="-2.32544">
        <ele>-3.7999999523163</ele>
        <time>2021-08-22T07:01:31.000Z</time>
      </trkpt>
      <trkpt lat="47.25695" lon="-2.32549">
        <ele>-3.2000000476837</ele>
        <time>2021-08-22T07:01:32.000Z</time>
      </trkpt>
      <trkpt lat="47.25697" lon="-2.32556">
        <ele>-2.7999999523163</ele>
        <time>2021-08-22T07:01:33.000Z</time>
      </trkpt>
      <trkpt lat="47.25698" lon="-2.32562">
        <ele>-2.4000000953674</ele>
        <time>2021-08-22T07:01:34.000Z</time>
      </trkpt>
      <trkpt lat="47.257" lon="-2.32568">
        <ele>-2</ele>
        <time>2021-08-22T07:01:35.000Z</time>
      </trkpt>
      <trkpt lat="47.25707" lon="-2.32592">
        <ele>-2</ele>
        <time>2021-08-22T07:01:39.000Z</time>
      </trkpt>
      <trkpt lat="47.2571" lon="-2.3261">
        <ele>-2</ele>
        <time>2021-08-22T07:01:42.000Z</time>
      </trkpt>
      <trkpt lat="47.25705" lon="-2.32621">
        <ele>-2</ele>
        <time>2021-08-22T07:01:44.000Z</time>
      </trkpt>
      <trkpt lat="47.25696" lon="-2.32627">
        <ele>-2</ele>
        <time>2021-08-22T07:01:47.000Z</time>
      </trkpt>
      <trkpt lat="47.25692" lon="-2.32629">
        <ele>-2</ele>
        <time>2021-08-22T07:01:48.000Z</time>
      </trkpt>
      <trkpt lat="47.25684" lon="-2.32631">
        <ele>-1.6000000238419</ele>
        <time>2021-08-22T07:01:50.000Z</time>
      </trkpt>
      <trkpt lat="47.2568" lon="-2.32633">
        <ele>-1.2000000476837</ele>
        <time>2021-08-22T07:01:51.000Z</time>
      </trkpt>
      <trkpt lat="47.25676" lon="-2.32634">
        <ele>-0.80000001192093</ele>
        <time>2021-08-22T07:01:52.000Z</time>
      </trkpt>
      <trkpt lat="47.25673" lon="-2.32636">
        <ele>-0.20000000298023</ele>
        <time>2021-08-22T07:01:53.000Z</time>
      </trkpt>
      <trkpt lat="47.25669" lon="-2.32638">
        <ele>0.20000000298023</ele>
        <time>2021-08-22T07:01:54.000Z</time>
      </trkpt>
      <trkpt lat="47.25647" lon="-2.32648">
        <ele>0.20000000298023</ele>
        <time>2021-08-22T07:02:00.000Z</time>
      </trkpt>
      <trkpt lat="47.25639" lon="-2.32651">
        <ele>0.20000000298023</ele>
        <time>2021-08-22T07:02:02.000Z</time>
      </trkpt>
      <trkpt lat="47.25628" lon="-2.32655">
        <ele>0.20000000298023</ele>
        <time>2021-08-22T07:02:05.000Z</time>
      </trkpt>
      <trkpt lat="47.25608" lon="-2.32664">
        <ele>0.60000002384186</ele>
        <time>2021-08-22T07:02:10.000Z</time>
      </trkpt>
      <trkpt lat="47.25604" lon="-2.32666">
        <ele>1</ele>
        <time>2021-08-22T07:02:11.000Z</time>
      </trkpt>
      <trkpt lat="47.256" lon="-2.32668">
        <ele>1.3999999761581</ele>
        <time>2021-08-22T07:02:12.000Z</time>
      </trkpt>
      <trkpt lat="47.25596" lon="-2.3267">
        <ele>1.7999999523163</ele>
        <time>2021-08-22T07:02:13.000Z</time>
      </trkpt>
      <trkpt lat="47.25593" lon="-2.32671">
        <ele>2.2000000476837</ele>
        <time>2021-08-22T07:02:14.000Z</time>
      </trkpt>
      <trkpt lat="47.25574" lon="-2.32678">
        <ele>2.2000000476837</ele>
        <time>2021-08-22T07:02:18.000Z</time>
      </trkpt>
      <trkpt lat="47.25542" lon="-2.32691">
        <ele>2.2000000476837</ele>
        <time>2021-08-22T07:02:25.000Z</time>
      </trkpt>
      <trkpt lat="47.25523" lon="-2.32696">
        <ele>2.2000000476837</ele>
        <time>2021-08-22T07:02:29.000Z</time>
      </trkpt>
      <trkpt lat="47.25507" lon="-2.32698">
        <ele>2.2000000476837</ele>
        <time>2021-08-22T07:02:32.000Z</time>
      </trkpt>
      <trkpt lat="47.25488" lon="-2.32702">
        <ele>2.2000000476837</ele>
        <time>2021-08-22T07:02:36.000Z</time>
      </trkpt>
      <trkpt lat="47.25479" lon="-2.32708">
        <ele>2.2000000476837</ele>
        <time>2021-08-22T07:02:38.000Z</time>
      </trkpt>
      <trkpt lat="47.25472" lon="-2.32717">
        <ele>2.2000000476837</ele>
        <time>2021-08-22T07:02:40.000Z</time>
      </trkpt>
      <trkpt lat="47.25457" lon="-2.32737">
        <ele>2.2000000476837</ele>
        <time>2021-08-22T07:02:44.000Z</time>
      </trkpt>
      <trkpt lat="47.25439" lon="-2.32763">
        <ele>2.2000000476837</ele>
        <time>2021-08-22T07:02:49.000Z</time>
      </trkpt>
      <trkpt lat="47.25436" lon="-2.32769">
        <ele>2.2000000476837</ele>
        <time>2021-08-22T07:02:50.000Z</time>
      </trkpt>
      <trkpt lat="47.25426" lon="-2.32791">
        <ele>2.2000000476837</ele>
        <time>2021-08-22T07:02:54.000Z</time>
      </trkpt>
      <trkpt lat="47.25419" lon="-2.32801">
        <ele>2.2000000476837</ele>
        <time>2021-08-22T07:02:56.000Z</time>
      </trkpt>
      <trkpt lat="47.25408" lon="-2.32817">
        <ele>2.2000000476837</ele>
        <time>2021-08-22T07:02:59.000Z</time>
      </trkpt>
      <trkpt lat="47.25391" lon="-2.32839">
        <ele>1.7999999523163</ele>
        <time>2021-08-22T07:03:03.000Z</time>
      </trkpt>
      <trkpt lat="47.25387" lon="-2.32844">
        <ele>1.3999999761581</ele>
        <time>2021-08-22T07:03:04.000Z</time>
      </trkpt>
      <trkpt lat="47.25383" lon="-2.32849">
        <ele>1</ele>
        <time>2021-08-22T07:03:05.000Z</time>
      </trkpt>
      <trkpt lat="47.25378" lon="-2.32854">
        <ele>0.40000000596046</ele>
        <time>2021-08-22T07:03:06.000Z</time>
      </trkpt>
      <trkpt lat="47.25374" lon="-2.32859">
        <ele>9.6</ele>
        <time>2021-08-22T07:03:07.000Z</time>
      </trkpt>
      <trkpt lat="47.2537" lon="-2.32863">
        <ele>9.6</ele>
        <time>2021-08-22T07:03:08.000Z</time>
      </trkpt>
      <trkpt lat="47.2533" lon="-2.32899">
        <ele>8.9</ele>
        <time>2021-08-22T07:03:17.000Z</time>
      </trkpt>
      <trkpt lat="47.25311" lon="-2.32923">
        <ele>9</ele>
        <time>2021-08-22T07:03:22.000Z</time>
      </trkpt>
      <trkpt lat="47.25309" lon="-2.32929">
        <ele>9</ele>
        <time>2021-08-22T07:03:23.000Z</time>
      </trkpt>
      <trkpt lat="47.25309" lon="-2.32951">
        <ele>9</ele>
        <time>2021-08-22T07:03:26.000Z</time>
      </trkpt>
      <trkpt lat="47.25311" lon="-2.32957">
        <ele>9</ele>
        <time>2021-08-22T07:03:27.000Z</time>
      </trkpt>
      <trkpt lat="47.25322" lon="-2.32989">
        <ele>8.8</ele>
        <time>2021-08-22T07:03:32.000Z</time>
      </trkpt>
      <trkpt lat="47.25332" lon="-2.33013">
        <ele>8.9</ele>
        <time>2021-08-22T07:03:36.000Z</time>
      </trkpt>
      <trkpt lat="47.25338" lon="-2.33033">
        <ele>8.5</ele>
        <time>2021-08-22T07:03:39.000Z</time>
      </trkpt>
      <trkpt lat="47.25354" lon="-2.33076">
        <ele>7.9</ele>
        <time>2021-08-22T07:03:46.000Z</time>
      </trkpt>
      <trkpt lat="47.25368" lon="-2.33107">
        <ele>-0.40000000596046</ele>
        <time>2021-08-22T07:03:52.000Z</time>
      </trkpt>
      <trkpt lat="47.2537" lon="-2.3311">
        <ele>-0.80000001192093</ele>
        <time>2021-08-22T07:03:53.000Z</time>
      </trkpt>
      <trkpt lat="47.25371" lon="-2.33112">
        <ele>-1.2000000476837</ele>
        <time>2021-08-22T07:03:54.000Z</time>
      </trkpt>
      <trkpt lat="47.25371" lon="-2.33115">
        <ele>-1.6000000238419</ele>
        <time>2021-08-22T07:03:55.000Z</time>
      </trkpt>
      <trkpt lat="47.25372" lon="-2.33118">
        <ele>-2</ele>
        <time>2021-08-22T07:03:56.000Z</time>
      </trkpt>
      <trkpt lat="47.25372" lon="-2.33119">
        <ele>-2</ele>
        <time>2021-08-22T07:03:57.000Z</time>
      </trkpt>
      <trkpt lat="47.25371" lon="-2.33119">
        <ele>-2</ele>
        <time>2021-08-22T07:04:02.000Z</time>
      </trkpt>
      <trkpt lat="47.25371" lon="-2.33119">
        <ele>-2</ele>
        <time>2021-08-22T07:04:04.000Z</time>
      </trkpt>
      <trkpt lat="47.25379" lon="-2.33121">
        <ele>-4</ele>
        <time>2021-08-22T07:09:48.000Z</time>
      </trkpt>
      <trkpt lat="47.25384" lon="-2.33136">
        <ele>-4</ele>
        <time>2021-08-22T07:09:54.000Z</time>
      </trkpt>
      <trkpt lat="47.25392" lon="-2.33136">
        <ele>-4</ele>
        <time>2021-08-22T07:09:57.000Z</time>
      </trkpt>
      <trkpt lat="47.25399" lon="-2.33131">
        <ele>-4</ele>
        <time>2021-08-22T07:09:59.000Z</time>
      </trkpt>
      <trkpt lat="47.25411" lon="-2.33125">
        <ele>-4</ele>
        <time>2021-08-22T07:10:02.000Z</time>
      </trkpt>
      <trkpt lat="47.25429" lon="-2.33118">
        <ele>-4</ele>
        <time>2021-08-22T07:10:06.000Z</time>
      </trkpt>
      <trkpt lat="47.25437" lon="-2.33115">
        <ele>-4</ele>
        <time>2021-08-22T07:10:08.000Z</time>
      </trkpt>
      <trkpt lat="47.25457" lon="-2.33106">
        <ele>-4</ele>
        <time>2021-08-22T07:10:13.000Z</time>
      </trkpt>
      <trkpt lat="47.25461" lon="-2.33103">
        <ele>-4</ele>
        <time>2021-08-22T07:10:14.000Z</time>
      </trkpt>
      <trkpt lat="47.25483" lon="-2.33089">
        <ele>-4</ele>
        <time>2021-08-22T07:10:19.000Z</time>
      </trkpt>
      <trkpt lat="47.25487" lon="-2.33086">
        <ele>-4.4000000953674</ele>
        <time>2021-08-22T07:10:20.000Z</time>
      </trkpt>
      <trkpt lat="47.2549" lon="-2.33082">
        <ele>-5.1999998092651</ele>
        <time>2021-08-22T07:10:21.000Z</time>
      </trkpt>
      <trkpt lat="47.25493" lon="-2.33079">
        <ele>-5.5999999046326</ele>
        <time>2021-08-22T07:10:22.000Z</time>
      </trkpt>
      <trkpt lat="47.25497" lon="-2.3308">
        <ele>-6</ele>
        <time>2021-08-22T07:10:23.000Z</time>
      </trkpt>
      <trkpt lat="47.25501" lon="-2.33092">
        <ele>-6</ele>
        <time>2021-08-22T07:10:26.000Z</time>
      </trkpt>
      <trkpt lat="47.25502" lon="-2.33105">
        <ele>-6</ele>
        <time>2021-08-22T07:10:28.000Z</time>
      </trkpt>
      <trkpt lat="47.25504" lon="-2.33125">
        <ele>-6</ele>
        <time>2021-08-22T07:10:31.000Z</time>
      </trkpt>
      <trkpt lat="47.25511" lon="-2.33186">
        <ele>-6</ele>
        <time>2021-08-22T07:10:39.000Z</time>
      </trkpt>
      <trkpt lat="47.25519" lon="-2.33256">
        <ele>-6</ele>
        <time>2021-08-22T07:10:48.000Z</time>
      </trkpt>
      <trkpt lat="47.25527" lon="-2.33321">
        <ele>-6</ele>
        <time>2021-08-22T07:10:56.000Z</time>
      </trkpt>
      <trkpt lat="47.25539" lon="-2.33403">
        <ele>-6</ele>
        <time>2021-08-22T07:11:06.000Z</time>
      </trkpt>
      <trkpt lat="47.25543" lon="-2.33419">
        <ele>-6</ele>
        <time>2021-08-22T07:11:08.000Z</time>
      </trkpt>
      <trkpt lat="47.25553" lon="-2.3345">
        <ele>-6</ele>
        <time>2021-08-22T07:11:12.000Z</time>
      </trkpt>
      <trkpt lat="47.25559" lon="-2.33466">
        <ele>-6</ele>
        <time>2021-08-22T07:11:14.000Z</time>
      </trkpt>
      <trkpt lat="47.2557" lon="-2.33486">
        <ele>-6</ele>
        <time>2021-08-22T07:11:17.000Z</time>
      </trkpt>
      <trkpt lat="47.256" lon="-2.33528">
        <ele>-6</ele>
        <time>2021-08-22T07:11:24.000Z</time>
      </trkpt>
      <trkpt lat="47.25618" lon="-2.33548">
        <ele>-6</ele>
        <time>2021-08-22T07:11:28.000Z</time>
      </trkpt>
      <trkpt lat="47.25633" lon="-2.33561">
        <ele>-6</ele>
        <time>2021-08-22T07:11:31.000Z</time>
      </trkpt>
      <trkpt lat="47.25673" lon="-2.33577">
        <ele>-6</ele>
        <time>2021-08-22T07:11:38.000Z</time>
      </trkpt>
      <trkpt lat="47.25709" lon="-2.3358">
        <ele>-6</ele>
        <time>2021-08-22T07:11:44.000Z</time>
      </trkpt>
      <trkpt lat="47.25757" lon="-2.33576">
        <ele>-6</ele>
        <time>2021-08-22T07:11:52.000Z</time>
      </trkpt>
      <trkpt lat="47.25812" lon="-2.33573">
        <ele>-6</ele>
        <time>2021-08-22T07:12:01.000Z</time>
      </trkpt>
      <trkpt lat="47.25848" lon="-2.3357">
        <ele>-6</ele>
        <time>2021-08-22T07:12:07.000Z</time>
      </trkpt>
      <trkpt lat="47.2586" lon="-2.3357">
        <ele>-6</ele>
        <time>2021-08-22T07:12:09.000Z</time>
      </trkpt>
      <trkpt lat="47.25872" lon="-2.33568">
        <ele>-6</ele>
        <time>2021-08-22T07:12:11.000Z</time>
      </trkpt>
      <trkpt lat="47.25883" lon="-2.33563">
        <ele>-6</ele>
        <time>2021-08-22T07:12:13.000Z</time>
      </trkpt>
      <trkpt lat="47.25894" lon="-2.33558">
        <ele>-6</ele>
        <time>2021-08-22T07:12:15.000Z</time>
      </trkpt>
      <trkpt lat="47.25906" lon="-2.33548">
        <ele>-6.4000000953674</ele>
        <time>2021-08-22T07:12:17.000Z</time>
      </trkpt>
      <trkpt lat="47.25911" lon="-2.33543">
        <ele>-6.8000001907349</ele>
        <time>2021-08-22T07:12:18.000Z</time>
      </trkpt>
      <trkpt lat="47.25917" lon="-2.33538">
        <ele>-7.1999998092651</ele>
        <time>2021-08-22T07:12:19.000Z</time>
      </trkpt>
      <trkpt lat="47.25923" lon="-2.33534">
        <ele>-7.5999999046326</ele>
        <time>2021-08-22T07:12:20.000Z</time>
      </trkpt>
      <trkpt lat="47.25928" lon="-2.33529">
        <ele>-8</ele>
        <time>2021-08-22T07:12:21.000Z</time>
      </trkpt>
      <trkpt lat="47.25958" lon="-2.33503">
        <ele>-8</ele>
        <time>2021-08-22T07:12:26.000Z</time>
      </trkpt>
      <trkpt lat="47.2597" lon="-2.33494">
        <ele>-8</ele>
        <time>2021-08-22T07:12:28.000Z</time>
      </trkpt>
      <trkpt lat="47.25983" lon="-2.33492">
        <ele>-8</ele>
        <time>2021-08-22T07:12:30.000Z</time>
      </trkpt>
      <trkpt lat="47.26001" lon="-2.3349">
        <ele>-8</ele>
        <time>2021-08-22T07:12:33.000Z</time>
      </trkpt>
      <trkpt lat="47.26006" lon="-2.33489">
        <ele>-8</ele>
        <time>2021-08-22T07:12:34.000Z</time>
      </trkpt>
      <trkpt lat="47.26025" lon="-2.33484">
        <ele>-8.3999996185303</ele>
        <time>2021-08-22T07:12:37.000Z</time>
      </trkpt>
      <trkpt lat="47.2603" lon="-2.33481">
        <ele>-8.8000001907349</ele>
        <time>2021-08-22T07:12:38.000Z</time>
      </trkpt>
      <trkpt lat="47.26035" lon="-2.33477">
        <ele>-9.3999996185303</ele>
        <time>2021-08-22T07:12:39.000Z</time>
      </trkpt>
      <trkpt lat="47.26039" lon="-2.33472">
        <ele>-9.8000001907349</ele>
        <time>2021-08-22T07:12:40.000Z</time>
      </trkpt>
      <trkpt lat="47.26043" lon="-2.33466">
        <ele>-10.199999809265</ele>
        <time>2021-08-22T07:12:41.000Z</time>
      </trkpt>
      <trkpt lat="47.26047" lon="-2.33459">
        <ele>-10.199999809265</ele>
        <time>2021-08-22T07:12:42.000Z</time>
      </trkpt>
      <trkpt lat="47.26055" lon="-2.33446">
        <ele>-10.199999809265</ele>
        <time>2021-08-22T07:12:44.000Z</time>
      </trkpt>
      <trkpt lat="47.26068" lon="-2.33427">
        <ele>-10.199999809265</ele>
        <time>2021-08-22T07:12:47.000Z</time>
      </trkpt>
      <trkpt lat="47.26075" lon="-2.33414">
        <ele>-10.199999809265</ele>
        <time>2021-08-22T07:12:49.000Z</time>
      </trkpt>
      <trkpt lat="47.26094" lon="-2.33399">
        <ele>-10.199999809265</ele>
        <time>2021-08-22T07:12:53.000Z</time>
      </trkpt>
      <trkpt lat="47.2611" lon="-2.33407">
        <ele>-10.199999809265</ele>
        <time>2021-08-22T07:12:56.000Z</time>
      </trkpt>
      <trkpt lat="47.26123" lon="-2.33426">
        <ele>-10.199999809265</ele>
        <time>2021-08-22T07:12:59.000Z</time>
      </trkpt>
      <trkpt lat="47.26127" lon="-2.33431">
        <ele>-10.199999809265</ele>
        <time>2021-08-22T07:13:00.000Z</time>
      </trkpt>
      <trkpt lat="47.26132" lon="-2.33435">
        <ele>-10.199999809265</ele>
        <time>2021-08-22T07:13:01.000Z</time>
      </trkpt>
      <trkpt lat="47.26147" lon="-2.3343">
        <ele>-10.199999809265</ele>
        <time>2021-08-22T07:13:04.000Z</time>
      </trkpt>
      <trkpt lat="47.26163" lon="-2.33435">
        <ele>-10.199999809265</ele>
        <time>2021-08-22T07:13:07.000Z</time>
      </trkpt>
      <trkpt lat="47.26191" lon="-2.33443">
        <ele>-10.199999809265</ele>
        <time>2021-08-22T07:13:12.000Z</time>
      </trkpt>
      <trkpt lat="47.26197" lon="-2.33442">
        <ele>-10.199999809265</ele>
        <time>2021-08-22T07:13:13.000Z</time>
      </trkpt>
      <trkpt lat="47.26241" lon="-2.33433">
        <ele>-10.199999809265</ele>
        <time>2021-08-22T07:13:20.000Z</time>
      </trkpt>
      <trkpt lat="47.2629" lon="-2.33424">
        <ele>-10.199999809265</ele>
        <time>2021-08-22T07:13:28.000Z</time>
      </trkpt>
      <trkpt lat="47.26307" lon="-2.3342">
        <ele>-10.199999809265</ele>
        <time>2021-08-22T07:13:31.000Z</time>
      </trkpt>
      <trkpt lat="47.26318" lon="-2.33412">
        <ele>-10.199999809265</ele>
        <time>2021-08-22T07:13:33.000Z</time>
      </trkpt>
      <trkpt lat="47.26335" lon="-2.33398">
        <ele>-10.199999809265</ele>
        <time>2021-08-22T07:13:36.000Z</time>
      </trkpt>
      <trkpt lat="47.26346" lon="-2.33392">
        <ele>-10.199999809265</ele>
        <time>2021-08-22T07:13:38.000Z</time>
      </trkpt>
      <trkpt lat="47.2638" lon="-2.33373">
        <ele>-10.199999809265</ele>
        <time>2021-08-22T07:13:44.000Z</time>
      </trkpt>
      <trkpt lat="47.26421" lon="-2.33343">
        <ele>-10.199999809265</ele>
        <time>2021-08-22T07:13:52.000Z</time>
      </trkpt>
      <trkpt lat="47.26462" lon="-2.33313">
        <ele>-10.199999809265</ele>
        <time>2021-08-22T07:14:00.000Z</time>
      </trkpt>
      <trkpt lat="47.2648" lon="-2.33296">
        <ele>-10.199999809265</ele>
        <time>2021-08-22T07:14:04.000Z</time>
      </trkpt>
      <trkpt lat="47.26487" lon="-2.33285">
        <ele>-10.199999809265</ele>
        <time>2021-08-22T07:14:06.000Z</time>
      </trkpt>
      <trkpt lat="47.26495" lon="-2.33274">
        <ele>-10.199999809265</ele>
        <time>2021-08-22T07:14:08.000Z</time>
      </trkpt>
      <trkpt lat="47.26498" lon="-2.33267">
        <ele>-10.199999809265</ele>
        <time>2021-08-22T07:14:09.000Z</time>
      </trkpt>
      <trkpt lat="47.26499" lon="-2.33259">
        <ele>-10.199999809265</ele>
        <time>2021-08-22T07:14:10.000Z</time>
      </trkpt>
      <trkpt lat="47.26503" lon="-2.33243">
        <ele>-10.199999809265</ele>
        <time>2021-08-22T07:14:12.000Z</time>
      </trkpt>
      <trkpt lat="47.26512" lon="-2.33231">
        <ele>-10.199999809265</ele>
        <time>2021-08-22T07:14:14.000Z</time>
      </trkpt>
      <trkpt lat="47.26531" lon="-2.33217">
        <ele>-10.199999809265</ele>
        <time>2021-08-22T07:14:18.000Z</time>
      </trkpt>
      <trkpt lat="47.26569" lon="-2.33196">
        <ele>-10.199999809265</ele>
        <time>2021-08-22T07:14:26.000Z</time>
      </trkpt>
      <trkpt lat="47.26578" lon="-2.3319">
        <ele>-10.60000038147</ele>
        <time>2021-08-22T07:14:28.000Z</time>
      </trkpt>
      <trkpt lat="47.26581" lon="-2.33186">
        <ele>-11</ele>
        <time>2021-08-22T07:14:29.000Z</time>
      </trkpt>
      <trkpt lat="47.26584" lon="-2.33181">
        <ele>-11.39999961853</ele>
        <time>2021-08-22T07:14:30.000Z</time>
      </trkpt>
      <trkpt lat="47.26586" lon="-2.33175">
        <ele>-11.800000190735</ele>
        <time>2021-08-22T07:14:31.000Z</time>
      </trkpt>
      <trkpt lat="47.26588" lon="-2.33168">
        <ele>-12.199999809265</ele>
        <time>2021-08-22T07:14:32.000Z</time>
      </trkpt>
      <trkpt lat="47.26592" lon="-2.33149">
        <ele>-12.199999809265</ele>
        <time>2021-08-22T07:14:35.000Z</time>
      </trkpt>
      <trkpt lat="47.26601" lon="-2.3314">
        <ele>-12.199999809265</ele>
        <time>2021-08-22T07:14:38.000Z</time>
      </trkpt>
      <trkpt lat="47.26613" lon="-2.33144">
        <ele>-12.199999809265</ele>
        <time>2021-08-22T07:14:41.000Z</time>
      </trkpt>
      <trkpt lat="47.26627" lon="-2.33148">
        <ele>-12.199999809265</ele>
        <time>2021-08-22T07:14:44.000Z</time>
      </trkpt>
      <trkpt lat="47.26638" lon="-2.33145">
        <ele>-12.199999809265</ele>
        <time>2021-08-22T07:14:46.000Z</time>
      </trkpt>
      <trkpt lat="47.26647" lon="-2.33138">
        <ele>-12.199999809265</ele>
        <time>2021-08-22T07:14:48.000Z</time>
      </trkpt>
      <trkpt lat="47.26661" lon="-2.33128">
        <ele>-12.199999809265</ele>
        <time>2021-08-22T07:14:51.000Z</time>
      </trkpt>
      <trkpt lat="47.26692" lon="-2.33101">
        <ele>-12.199999809265</ele>
        <time>2021-08-22T07:14:58.000Z</time>
      </trkpt>
      <trkpt lat="47.2672" lon="-2.33071">
        <ele>-12.199999809265</ele>
        <time>2021-08-22T07:15:05.000Z</time>
      </trkpt>
      <trkpt lat="47.26724" lon="-2.33066">
        <ele>-12.199999809265</ele>
        <time>2021-08-22T07:15:06.000Z</time>
      </trkpt>
      <trkpt lat="47.26733" lon="-2.33043">
        <ele>-12.199999809265</ele>
        <time>2021-08-22T07:15:10.000Z</time>
      </trkpt>
      <trkpt lat="47.26734" lon="-2.33032">
        <ele>-12.199999809265</ele>
        <time>2021-08-22T07:15:12.000Z</time>
      </trkpt>
      <trkpt lat="47.26734" lon="-2.33015">
        <ele>-12.199999809265</ele>
        <time>2021-08-22T07:15:15.000Z</time>
      </trkpt>
      <trkpt lat="47.26733" lon="-2.33002">
        <ele>-12.199999809265</ele>
        <time>2021-08-22T07:15:17.000Z</time>
      </trkpt>
      <trkpt lat="47.26736" lon="-2.32989">
        <ele>-12.199999809265</ele>
        <time>2021-08-22T07:15:19.000Z</time>
      </trkpt>
      <trkpt lat="47.2675" lon="-2.32965">
        <ele>-12.199999809265</ele>
        <time>2021-08-22T07:15:23.000Z</time>
      </trkpt>
      <trkpt lat="47.26754" lon="-2.3296">
        <ele>-12.199999809265</ele>
        <time>2021-08-22T07:15:24.000Z</time>
      </trkpt>
      <trkpt lat="47.26781" lon="-2.32929">
        <ele>-12.199999809265</ele>
        <time>2021-08-22T07:15:30.000Z</time>
      </trkpt>
      <trkpt lat="47.26791" lon="-2.3292">
        <ele>-12.199999809265</ele>
        <time>2021-08-22T07:15:32.000Z</time>
      </trkpt>
      <trkpt lat="47.26806" lon="-2.3291">
        <ele>-12.199999809265</ele>
        <time>2021-08-22T07:15:35.000Z</time>
      </trkpt>
      <trkpt lat="47.26816" lon="-2.32903">
        <ele>-12.199999809265</ele>
        <time>2021-08-22T07:15:37.000Z</time>
      </trkpt>
      <trkpt lat="47.26829" lon="-2.32889">
        <ele>-12.199999809265</ele>
        <time>2021-08-22T07:15:40.000Z</time>
      </trkpt>
      <trkpt lat="47.26839" lon="-2.32882">
        <ele>-12.199999809265</ele>
        <time>2021-08-22T07:15:42.000Z</time>
      </trkpt>
      <trkpt lat="47.26844" lon="-2.3288">
        <ele>-12.199999809265</ele>
        <time>2021-08-22T07:15:43.000Z</time>
      </trkpt>
      <trkpt lat="47.26849" lon="-2.32879">
        <ele>-12.199999809265</ele>
        <time>2021-08-22T07:15:44.000Z</time>
      </trkpt>
      <trkpt lat="47.26864" lon="-2.32863">
        <ele>-12.199999809265</ele>
        <time>2021-08-22T07:15:48.000Z</time>
      </trkpt>
      <trkpt lat="47.26859" lon="-2.32847">
        <ele>-12.199999809265</ele>
        <time>2021-08-22T07:15:51.000Z</time>
      </trkpt>
      <trkpt lat="47.26854" lon="-2.32834">
        <ele>-11.800000190735</ele>
        <time>2021-08-22T07:15:54.000Z</time>
      </trkpt>
      <trkpt lat="47.26853" lon="-2.32829">
        <ele>-11.199999809265</ele>
        <time>2021-08-22T07:15:55.000Z</time>
      </trkpt>
      <trkpt lat="47.26851" lon="-2.32825">
        <ele>-10.800000190735</ele>
        <time>2021-08-22T07:15:56.000Z</time>
      </trkpt>
      <trkpt lat="47.2685" lon="-2.32822">
        <ele>-10.39999961853</ele>
        <time>2021-08-22T07:15:57.000Z</time>
      </trkpt>
      <trkpt lat="47.26848" lon="-2.32818">
        <ele>-10</ele>
        <time>2021-08-22T07:15:58.000Z</time>
      </trkpt>
      <trkpt lat="47.26845" lon="-2.32811">
        <ele>-9.6000003814697</ele>
        <time>2021-08-22T07:16:00.000Z</time>
      </trkpt>
      <trkpt lat="47.26843" lon="-2.32807">
        <ele>-9.1999998092651</ele>
        <time>2021-08-22T07:16:01.000Z</time>
      </trkpt>
      <trkpt lat="47.26842" lon="-2.32804">
        <ele>-8.8000001907349</ele>
        <time>2021-08-22T07:16:02.000Z</time>
      </trkpt>
      <trkpt lat="47.26841" lon="-2.328">
        <ele>-8.1999998092651</ele>
        <time>2021-08-22T07:16:03.000Z</time>
      </trkpt>
      <trkpt lat="47.26839" lon="-2.32797">
        <ele>-7.8000001907349</ele>
        <time>2021-08-22T07:16:04.000Z</time>
      </trkpt>
      <trkpt lat="47.26837" lon="-2.32788">
        <ele>-7</ele>
        <time>2021-08-22T07:16:06.000Z</time>
      </trkpt>
      <trkpt lat="47.26837" lon="-2.32784">
        <ele>-6.5999999046326</ele>
        <time>2021-08-22T07:16:07.000Z</time>
      </trkpt>
      <trkpt lat="47.26836" lon="-2.3278">
        <ele>-6.1999998092651</ele>
        <time>2021-08-22T07:16:08.000Z</time>
      </trkpt>
      <trkpt lat="47.26835" lon="-2.32776">
        <ele>-5.8000001907349</ele>
        <time>2021-08-22T07:16:09.000Z</time>
      </trkpt>
      <trkpt lat="47.26832" lon="-2.32766">
        <ele>-5.4000000953674</ele>
        <time>2021-08-22T07:16:12.000Z</time>
      </trkpt>
      <trkpt lat="47.26832" lon="-2.32762">
        <ele>-5</ele>
        <time>2021-08-22T07:16:13.000Z</time>
      </trkpt>
      <trkpt lat="47.2683" lon="-2.32758">
        <ele>-4.5999999046326</ele>
        <time>2021-08-22T07:16:14.000Z</time>
      </trkpt>
      <trkpt lat="47.26829" lon="-2.32754">
        <ele>-4.1999998092651</ele>
        <time>2021-08-22T07:16:15.000Z</time>
      </trkpt>
      <trkpt lat="47.26827" lon="-2.3275">
        <ele>-3.7999999523163</ele>
        <time>2021-08-22T07:16:16.000Z</time>
      </trkpt>
      <trkpt lat="47.26821" lon="-2.32736">
        <ele>-3.4000000953674</ele>
        <time>2021-08-22T07:16:20.000Z</time>
      </trkpt>
      <trkpt lat="47.26819" lon="-2.32732">
        <ele>-2.7999999523163</ele>
        <time>2021-08-22T07:16:21.000Z</time>
      </trkpt>
      <trkpt lat="47.26818" lon="-2.32728">
        <ele>-2.4000000953674</ele>
        <time>2021-08-22T07:16:22.000Z</time>
      </trkpt>
      <trkpt lat="47.26816" lon="-2.32724">
        <ele>-2</ele>
        <time>2021-08-22T07:16:23.000Z</time>
      </trkpt>
      <trkpt lat="47.26815" lon="-2.3272">
        <ele>-1.6000000238419</ele>
        <time>2021-08-22T07:16:24.000Z</time>
      </trkpt>
      <trkpt lat="47.26807" lon="-2.32704">
        <ele>-1.6000000238419</ele>
        <time>2021-08-22T07:16:28.000Z</time>
      </trkpt>
      <trkpt lat="47.26801" lon="-2.3268">
        <ele>-1.2000000476837</ele>
        <time>2021-08-22T07:16:33.000Z</time>
      </trkpt>
      <trkpt lat="47.26802" lon="-2.32675">
        <ele>-0.80000001192093</ele>
        <time>2021-08-22T07:16:34.000Z</time>
      </trkpt>
      <trkpt lat="47.26804" lon="-2.32671">
        <ele>-0.40000000596046</ele>
        <time>2021-08-22T07:16:35.000Z</time>
      </trkpt>
      <trkpt lat="47.26806" lon="-2.32666">
        <ele>17.9</ele>
        <time>2021-08-22T07:16:36.000Z</time>
      </trkpt>
      <trkpt lat="47.26809" lon="-2.32661">
        <ele>0.40000000596046</ele>
        <time>2021-08-22T07:16:37.000Z</time>
      </trkpt>
      <trkpt lat="47.26809" lon="-2.32642">
        <ele>0.40000000596046</ele>
        <time>2021-08-22T07:16:40.000Z</time>
      </trkpt>
      <trkpt lat="47.26808" lon="-2.32636">
        <ele>0.40000000596046</ele>
        <time>2021-08-22T07:16:41.000Z</time>
      </trkpt>
      <trkpt lat="47.26802" lon="-2.32588">
        <ele>0.40000000596046</ele>
        <time>2021-08-22T07:16:48.000Z</time>
      </trkpt>
      <trkpt lat="47.26799" lon="-2.32566">
        <ele>0.40000000596046</ele>
        <time>2021-08-22T07:16:51.000Z</time>
      </trkpt>
      <trkpt lat="47.26799" lon="-2.32551">
        <ele>0.40000000596046</ele>
        <time>2021-08-22T07:16:53.000Z</time>
      </trkpt>
      <trkpt lat="47.26796" lon="-2.32506">
        <ele>0.40000000596046</ele>
        <time>2021-08-22T07:17:00.000Z</time>
      </trkpt>
      <trkpt lat="47.26791" lon="-2.32462">
        <ele>0.40000000596046</ele>
        <time>2021-08-22T07:17:07.000Z</time>
      </trkpt>
      <trkpt lat="47.26784" lon="-2.32414">
        <ele>0.40000000596046</ele>
        <time>2021-08-22T07:17:15.000Z</time>
      </trkpt>
      <trkpt lat="47.26778" lon="-2.32378">
        <ele>0.40000000596046</ele>
        <time>2021-08-22T07:17:22.000Z</time>
      </trkpt>
      <trkpt lat="47.2678" lon="-2.32369">
        <ele>0.40000000596046</ele>
        <time>2021-08-22T07:17:26.000Z</time>
      </trkpt>
      <trkpt lat="47.26782" lon="-2.32366">
        <ele>0.40000000596046</ele>
        <time>2021-08-22T07:17:29.000Z</time>
      </trkpt>
      <trkpt lat="47.26785" lon="-2.32366">
        <ele>0.40000000596046</ele>
        <time>2021-08-22T07:18:50.000Z</time>
      </trkpt>
      <trkpt lat="47.26787" lon="-2.32365">
        <ele>0.40000000596046</ele>
        <time>2021-08-22T07:18:51.000Z</time>
      </trkpt>
      <trkpt lat="47.26787" lon="-2.32365">
        <ele>0.40000000596046</ele>
        <time>2021-08-22T07:18:53.000Z</time>
      </trkpt>
      <trkpt lat="47.26789" lon="-2.32365">
        <ele>-3.5999999046326</ele>
        <time>2021-08-22T07:28:03.000Z</time>
      </trkpt>
      <trkpt lat="47.2679" lon="-2.32364">
        <ele>-3.5999999046326</ele>
        <time>2021-08-22T07:28:04.000Z</time>
      </trkpt>
      <trkpt lat="47.26796" lon="-2.32361">
        <ele>-3.5999999046326</ele>
        <time>2021-08-22T07:28:07.000Z</time>
      </trkpt>
      <trkpt lat="47.26805" lon="-2.32358">
        <ele>-3.5999999046326</ele>
        <time>2021-08-22T07:28:10.000Z</time>
      </trkpt>
      <trkpt lat="47.26827" lon="-2.32355">
        <ele>-3.5999999046326</ele>
        <time>2021-08-22T07:28:15.000Z</time>
      </trkpt>
      <trkpt lat="47.26838" lon="-2.32353">
        <ele>-4.1999998092651</ele>
        <time>2021-08-22T07:28:17.000Z</time>
      </trkpt>
      <trkpt lat="47.26844" lon="-2.32353">
        <ele>-4.5999999046326</ele>
        <time>2021-08-22T07:28:18.000Z</time>
      </trkpt>
      <trkpt lat="47.26851" lon="-2.32352">
        <ele>-5</ele>
        <time>2021-08-22T07:28:19.000Z</time>
      </trkpt>
      <trkpt lat="47.26859" lon="-2.3235">
        <ele>-5.4000000953674</ele>
        <time>2021-08-22T07:28:20.000Z</time>
      </trkpt>
      <trkpt lat="47.26866" lon="-2.32348">
        <ele>-5.8000001907349</ele>
        <time>2021-08-22T07:28:21.000Z</time>
      </trkpt>
      <trkpt lat="47.26879" lon="-2.32344">
        <ele>-6.4000000953674</ele>
        <time>2021-08-22T07:28:23.000Z</time>
      </trkpt>
      <trkpt lat="47.26884" lon="-2.32342">
        <ele>-6.8000001907349</ele>
        <time>2021-08-22T07:28:24.000Z</time>
      </trkpt>
      <trkpt lat="47.26889" lon="-2.32341">
        <ele>-7.5999999046326</ele>
        <time>2021-08-22T07:28:25.000Z</time>
      </trkpt>
      <trkpt lat="47.26893" lon="-2.32339">
        <ele>-8.1999998092651</ele>
        <time>2021-08-22T07:28:26.000Z</time>
      </trkpt>
      <trkpt lat="47.26897" lon="-2.32338">
        <ele>-8.8000001907349</ele>
        <time>2021-08-22T07:28:27.000Z</time>
      </trkpt>
      <trkpt lat="47.26901" lon="-2.32336">
        <ele>-9.1999998092651</ele>
        <time>2021-08-22T07:28:28.000Z</time>
      </trkpt>
      <trkpt lat="47.26904" lon="-2.32335">
        <ele>-9.8000001907349</ele>
        <time>2021-08-22T07:28:29.000Z</time>
      </trkpt>
      <trkpt lat="47.26906" lon="-2.32334">
        <ele>-10.199999809265</ele>
        <time>2021-08-22T07:28:30.000Z</time>
      </trkpt>
      <trkpt lat="47.26912" lon="-2.32333">
        <ele>-10.60000038147</ele>
        <time>2021-08-22T07:28:33.000Z</time>
      </trkpt>
      <trkpt lat="47.26914" lon="-2.32332">
        <ele>-11</ele>
        <time>2021-08-22T07:28:34.000Z</time>
      </trkpt>
      <trkpt lat="47.26915" lon="-2.32333">
        <ele>-11.60000038147</ele>
        <time>2021-08-22T07:28:35.000Z</time>
      </trkpt>
      <trkpt lat="47.26916" lon="-2.32333">
        <ele>-12</ele>
        <time>2021-08-22T07:28:36.000Z</time>
      </trkpt>
      <trkpt lat="47.26916" lon="-2.32334">
        <ele>-12.39999961853</ele>
        <time>2021-08-22T07:28:37.000Z</time>
      </trkpt>
      <trkpt lat="47.26916" lon="-2.32334">
        <ele>-12.39999961853</ele>
        <time>2021-08-22T07:28:38.000Z</time>
      </trkpt>
      <trkpt lat="47.26918" lon="-2.32324">
        <ele>-12.39999961853</ele>
        <time>2021-08-22T07:29:03.000Z</time>
      </trkpt>
      <trkpt lat="47.26915" lon="-2.32307">
        <ele>-12.39999961853</ele>
        <time>2021-08-22T07:29:07.000Z</time>
      </trkpt>
      <trkpt lat="47.26905" lon="-2.32286">
        <ele>-12.39999961853</ele>
        <time>2021-08-22T07:29:12.000Z</time>
      </trkpt>
      <trkpt lat="47.26891" lon="-2.32258">
        <ele>-12.39999961853</ele>
        <time>2021-08-22T07:29:18.000Z</time>
      </trkpt>
      <trkpt lat="47.2687" lon="-2.32226">
        <ele>-12.39999961853</ele>
        <time>2021-08-22T07:29:25.000Z</time>
      </trkpt>
      <trkpt lat="47.26867" lon="-2.32221">
        <ele>-12</ele>
        <time>2021-08-22T07:29:26.000Z</time>
      </trkpt>
      <trkpt lat="47.26865" lon="-2.32216">
        <ele>-11.60000038147</ele>
        <time>2021-08-22T07:29:27.000Z</time>
      </trkpt>
      <trkpt lat="47.26863" lon="-2.32211">
        <ele>-11.199999809265</ele>
        <time>2021-08-22T07:29:28.000Z</time>
      </trkpt>
      <trkpt lat="47.26861" lon="-2.32206">
        <ele>-10.800000190735</ele>
        <time>2021-08-22T07:29:29.000Z</time>
      </trkpt>
      <trkpt lat="47.26859" lon="-2.322">
        <ele>-10.39999961853</ele>
        <time>2021-08-22T07:29:30.000Z</time>
      </trkpt>
      <trkpt lat="47.26857" lon="-2.32195">
        <ele>-10.39999961853</ele>
        <time>2021-08-22T07:29:31.000Z</time>
      </trkpt>
      <trkpt lat="47.26843" lon="-2.32161">
        <ele>-10.39999961853</ele>
        <time>2021-08-22T07:29:37.000Z</time>
      </trkpt>
      <trkpt lat="47.26841" lon="-2.32155">
        <ele>-9.8000001907349</ele>
        <time>2021-08-22T07:29:38.000Z</time>
      </trkpt>
      <trkpt lat="47.26839" lon="-2.32148">
        <ele>-9.3999996185303</ele>
        <time>2021-08-22T07:29:39.000Z</time>
      </trkpt>
      <trkpt lat="47.26838" lon="-2.32142">
        <ele>-8.6000003814697</ele>
        <time>2021-08-22T07:29:40.000Z</time>
      </trkpt>
      <trkpt lat="47.26836" lon="-2.32135">
        <ele>-8.1999998092651</ele>
        <time>2021-08-22T07:29:41.000Z</time>
      </trkpt>
      <trkpt lat="47.26832" lon="-2.32122">
        <ele>-8.1999998092651</ele>
        <time>2021-08-22T07:29:43.000Z</time>
      </trkpt>
      <trkpt lat="47.26823" lon="-2.32083">
        <ele>-8.1999998092651</ele>
        <time>2021-08-22T07:29:49.000Z</time>
      </trkpt>
      <trkpt lat="47.26811" lon="-2.32037">
        <ele>-8.1999998092651</ele>
        <time>2021-08-22T07:29:56.000Z</time>
      </trkpt>
      <trkpt lat="47.26801" lon="-2.32007">
        <ele>-8.1999998092651</ele>
        <time>2021-08-22T07:30:01.000Z</time>
      </trkpt>
      <trkpt lat="47.26798" lon="-2.32003">
        <ele>-7.8000001907349</ele>
        <time>2021-08-22T07:30:02.000Z</time>
      </trkpt>
      <trkpt lat="47.26796" lon="-2.31998">
        <ele>-7.4000000953674</ele>
        <time>2021-08-22T07:30:03.000Z</time>
      </trkpt>
      <trkpt lat="47.26793" lon="-2.31993">
        <ele>-6.5999999046326</ele>
        <time>2021-08-22T07:30:04.000Z</time>
      </trkpt>
      <trkpt lat="47.2679" lon="-2.31989">
        <ele>-6.1999998092651</ele>
        <time>2021-08-22T07:30:05.000Z</time>
      </trkpt>
      <trkpt lat="47.26781" lon="-2.31971">
        <ele>-6.1999998092651</ele>
        <time>2021-08-22T07:30:09.000Z</time>
      </trkpt>
      <trkpt lat="47.2677" lon="-2.31954">
        <ele>-5.8000001907349</ele>
        <time>2021-08-22T07:30:14.000Z</time>
      </trkpt>
      <trkpt lat="47.26768" lon="-2.31949">
        <ele>-5.4000000953674</ele>
        <time>2021-08-22T07:30:15.000Z</time>
      </trkpt>
      <trkpt lat="47.26766" lon="-2.31947">
        <ele>-5</ele>
        <time>2021-08-22T07:30:16.000Z</time>
      </trkpt>
      <trkpt lat="47.26763" lon="-2.31946">
        <ele>-4.5999999046326</ele>
        <time>2021-08-22T07:30:17.000Z</time>
      </trkpt>
      <trkpt lat="47.26761" lon="-2.31947">
        <ele>-4.1999998092651</ele>
        <time>2021-08-22T07:30:18.000Z</time>
      </trkpt>
      <trkpt lat="47.26759" lon="-2.3195">
        <ele>-4.1999998092651</ele>
        <time>2021-08-22T07:30:19.000Z</time>
      </trkpt>
      <trkpt lat="47.26753" lon="-2.31966">
        <ele>-4.1999998092651</ele>
        <time>2021-08-22T07:30:23.000Z</time>
      </trkpt>
      <trkpt lat="47.26737" lon="-2.31985">
        <ele>-4.1999998092651</ele>
        <time>2021-08-22T07:30:30.000Z</time>
      </trkpt>
      <trkpt lat="47.26716" lon="-2.31999">
        <ele>-3.5999999046326</ele>
        <time>2021-08-22T07:30:37.000Z</time>
      </trkpt>
      <trkpt lat="47.26712" lon="-2.32001">
        <ele>-3.2000000476837</ele>
        <time>2021-08-22T07:30:38.000Z</time>
      </trkpt>
      <trkpt lat="47.26709" lon="-2.32004">
        <ele>-2.7999999523163</ele>
        <time>2021-08-22T07:30:39.000Z</time>
      </trkpt>
      <trkpt lat="47.26707" lon="-2.32007">
        <ele>-2.4000000953674</ele>
        <time>2021-08-22T07:30:40.000Z</time>
      </trkpt>
      <trkpt lat="47.26704" lon="-2.3201">
        <ele>-2</ele>
        <time>2021-08-22T07:30:41.000Z</time>
      </trkpt>
      <trkpt lat="47.267" lon="-2.32016">
        <ele>-2</ele>
        <time>2021-08-22T07:30:43.000Z</time>
      </trkpt>
      <trkpt lat="47.26688" lon="-2.32041">
        <ele>-2</ele>
        <time>2021-08-22T07:30:49.000Z</time>
      </trkpt>
      <trkpt lat="47.26687" lon="-2.3206">
        <ele>-2</ele>
        <time>2021-08-22T07:30:53.000Z</time>
      </trkpt>
      <trkpt lat="47.26686" lon="-2.32093">
        <ele>-2</ele>
        <time>2021-08-22T07:30:58.000Z</time>
      </trkpt>
      <trkpt lat="47.2668" lon="-2.32123">
        <ele>-2</ele>
        <time>2021-08-22T07:31:04.000Z</time>
      </trkpt>
      <trkpt lat="47.26673" lon="-2.32118">
        <ele>-2</ele>
        <time>2021-08-22T07:31:07.000Z</time>
      </trkpt>
      <trkpt lat="47.2667" lon="-2.32106">
        <ele>-2</ele>
        <time>2021-08-22T07:31:09.000Z</time>
      </trkpt>
      <trkpt lat="47.26669" lon="-2.32099">
        <ele>-2</ele>
        <time>2021-08-22T07:31:10.000Z</time>
      </trkpt>
      <trkpt lat="47.26663" lon="-2.32073">
        <ele>-2</ele>
        <time>2021-08-22T07:31:14.000Z</time>
      </trkpt>
      <trkpt lat="47.26658" lon="-2.32051">
        <ele>-2</ele>
        <time>2021-08-22T07:31:17.000Z</time>
      </trkpt>
      <trkpt lat="47.26657" lon="-2.32044">
        <ele>-1.3999999761581</ele>
        <time>2021-08-22T07:31:18.000Z</time>
      </trkpt>
      <trkpt lat="47.26655" lon="-2.32037">
        <ele>-0.60000002384186</ele>
        <time>2021-08-22T07:31:19.000Z</time>
      </trkpt>
      <trkpt lat="47.26653" lon="-2.32029">
        <ele>-0.20000000298023</ele>
        <time>2021-08-22T07:31:20.000Z</time>
      </trkpt>
      <trkpt lat="47.26651" lon="-2.32022">
        <ele>0.20000000298023</ele>
        <time>2021-08-22T07:31:21.000Z</time>
      </trkpt>
      <trkpt lat="47.26645" lon="-2.32003">
        <ele>0.20000000298023</ele>
        <time>2021-08-22T07:31:24.000Z</time>
      </trkpt>
      <trkpt lat="47.26632" lon="-2.32004">
        <ele>0.20000000298023</ele>
        <time>2021-08-22T07:31:27.000Z</time>
      </trkpt>
      <trkpt lat="47.26628" lon="-2.32006">
        <ele>0.20000000298023</ele>
        <time>2021-08-22T07:31:28.000Z</time>
      </trkpt>
      <trkpt lat="47.26602" lon="-2.32016">
        <ele>0.20000000298023</ele>
        <time>2021-08-22T07:31:33.000Z</time>
      </trkpt>
      <trkpt lat="47.26556" lon="-2.32033">
        <ele>-0.20000000298023</ele>
        <time>2021-08-22T07:31:41.000Z</time>
      </trkpt>
      <trkpt lat="47.26551" lon="-2.32035">
        <ele>-0.60000002384186</ele>
        <time>2021-08-22T07:31:42.000Z</time>
      </trkpt>
      <trkpt lat="47.26547" lon="-2.32037">
        <ele>-1</ele>
        <time>2021-08-22T07:31:43.000Z</time>
      </trkpt>
      <trkpt lat="47.26544" lon="-2.32036">
        <ele>-1.7999999523163</ele>
        <time>2021-08-22T07:31:44.000Z</time>
      </trkpt>
      <trkpt lat="47.26543" lon="-2.32035">
        <ele>-1.7999999523163</ele>
        <time>2021-08-22T07:31:45.000Z</time>
      </trkpt>
      <trkpt lat="47.26541" lon="-2.32033">
        <ele>-1.7999999523163</ele>
        <time>2021-08-22T07:31:46.000Z</time>
      </trkpt>
      <trkpt lat="47.26539" lon="-2.32024">
        <ele>-2.4000000953674</ele>
        <time>2021-08-22T07:31:48.000Z</time>
      </trkpt>
      <trkpt lat="47.26538" lon="-2.32019">
        <ele>-2.7999999523163</ele>
        <time>2021-08-22T07:31:49.000Z</time>
      </trkpt>
      <trkpt lat="47.26537" lon="-2.32016">
        <ele>-3.2000000476837</ele>
        <time>2021-08-22T07:31:50.000Z</time>
      </trkpt>
      <trkpt lat="47.26535" lon="-2.32013">
        <ele>-3.5999999046326</ele>
        <time>2021-08-22T07:31:51.000Z</time>
      </trkpt>
      <trkpt lat="47.26533" lon="-2.32011">
        <ele>-4</ele>
        <time>2021-08-22T07:31:52.000Z</time>
      </trkpt>
      <trkpt lat="47.2653" lon="-2.32008">
        <ele>-4</ele>
        <time>2021-08-22T07:31:53.000Z</time>
      </trkpt>
      <trkpt lat="47.26512" lon="-2.31998">
        <ele>-4.4000000953674</ele>
        <time>2021-08-22T07:31:59.000Z</time>
      </trkpt>
      <trkpt lat="47.26507" lon="-2.31998">
        <ele>-4.8000001907349</ele>
        <time>2021-08-22T07:32:00.000Z</time>
      </trkpt>
      <trkpt lat="47.26501" lon="-2.31999">
        <ele>-5.1999998092651</ele>
        <time>2021-08-22T07:32:01.000Z</time>
      </trkpt>
      <trkpt lat="47.26495" lon="-2.31999">
        <ele>-5.5999999046326</ele>
        <time>2021-08-22T07:32:02.000Z</time>
      </trkpt>
      <trkpt lat="47.26489" lon="-2.31999">
        <ele>-6</ele>
        <time>2021-08-22T07:32:03.000Z</time>
      </trkpt>
      <trkpt lat="47.26484" lon="-2.31998">
        <ele>-6</ele>
        <time>2021-08-22T07:32:04.000Z</time>
      </trkpt>
      <trkpt lat="47.26478" lon="-2.31999">
        <ele>-6.5999999046326</ele>
        <time>2021-08-22T07:32:05.000Z</time>
      </trkpt>
      <trkpt lat="47.26473" lon="-2.31998">
        <ele>-7</ele>
        <time>2021-08-22T07:32:06.000Z</time>
      </trkpt>
      <trkpt lat="47.26467" lon="-2.31999">
        <ele>-7.5999999046326</ele>
        <time>2021-08-22T07:32:07.000Z</time>
      </trkpt>
      <trkpt lat="47.26462" lon="-2.31999">
        <ele>-8.3999996185303</ele>
        <time>2021-08-22T07:32:08.000Z</time>
      </trkpt>
      <trkpt lat="47.26454" lon="-2.31999">
        <ele>-8.8000001907349</ele>
        <time>2021-08-22T07:32:10.000Z</time>
      </trkpt>
      <trkpt lat="47.26449" lon="-2.31998">
        <ele>-9.3999996185303</ele>
        <time>2021-08-22T07:32:11.000Z</time>
      </trkpt>
      <trkpt lat="47.26444" lon="-2.31998">
        <ele>-9.8000001907349</ele>
        <time>2021-08-22T07:32:12.000Z</time>
      </trkpt>
      <trkpt lat="47.26439" lon="-2.31996">
        <ele>-10.199999809265</ele>
        <time>2021-08-22T07:32:13.000Z</time>
      </trkpt>
      <trkpt lat="47.26434" lon="-2.31995">
        <ele>-10.60000038147</ele>
        <time>2021-08-22T07:32:14.000Z</time>
      </trkpt>
      <trkpt lat="47.26424" lon="-2.31993">
        <ele>-10.60000038147</ele>
        <time>2021-08-22T07:32:16.000Z</time>
      </trkpt>
      <trkpt lat="47.26419" lon="-2.31992">
        <ele>-11</ele>
        <time>2021-08-22T07:32:17.000Z</time>
      </trkpt>
      <trkpt lat="47.26414" lon="-2.31991">
        <ele>-11.39999961853</ele>
        <time>2021-08-22T07:32:18.000Z</time>
      </trkpt>
      <trkpt lat="47.2641" lon="-2.31991">
        <ele>-12</ele>
        <time>2021-08-22T07:32:19.000Z</time>
      </trkpt>
      <trkpt lat="47.26406" lon="-2.31991">
        <ele>-12.39999961853</ele>
        <time>2021-08-22T07:32:20.000Z</time>
      </trkpt>
      <trkpt lat="47.26402" lon="-2.3199">
        <ele>-12.800000190735</ele>
        <time>2021-08-22T07:32:21.000Z</time>
      </trkpt>
      <trkpt lat="47.26398" lon="-2.3199">
        <ele>-12.800000190735</ele>
        <time>2021-08-22T07:32:22.000Z</time>
      </trkpt>
      <trkpt lat="47.26394" lon="-2.31988">
        <ele>-13.199999809265</ele>
        <time>2021-08-22T07:32:23.000Z</time>
      </trkpt>
      <trkpt lat="47.2639" lon="-2.31988">
        <ele>-13.60000038147</ele>
        <time>2021-08-22T07:32:24.000Z</time>
      </trkpt>
      <trkpt lat="47.26386" lon="-2.31989">
        <ele>-14</ele>
        <time>2021-08-22T07:32:25.000Z</time>
      </trkpt>
      <trkpt lat="47.26381" lon="-2.31988">
        <ele>-14.60000038147</ele>
        <time>2021-08-22T07:32:26.000Z</time>
      </trkpt>
      <trkpt lat="47.26377" lon="-2.31988">
        <ele>-15</ele>
        <time>2021-08-22T07:32:27.000Z</time>
      </trkpt>
      <trkpt lat="47.26372" lon="-2.31986">
        <ele>-15</ele>
        <time>2021-08-22T07:32:28.000Z</time>
      </trkpt>
      <trkpt lat="47.26363" lon="-2.31973">
        <ele>-15</ele>
        <time>2021-08-22T07:32:31.000Z</time>
      </trkpt>
      <trkpt lat="47.2636" lon="-2.31967">
        <ele>-15.39999961853</ele>
        <time>2021-08-22T07:32:32.000Z</time>
      </trkpt>
      <trkpt lat="47.26357" lon="-2.3196">
        <ele>-16.200000762939</ele>
        <time>2021-08-22T07:32:33.000Z</time>
      </trkpt>
      <trkpt lat="47.26354" lon="-2.31953">
        <ele>-16.60000038147</ele>
        <time>2021-08-22T07:32:34.000Z</time>
      </trkpt>
      <trkpt lat="47.26351" lon="-2.31947">
        <ele>-17</ele>
        <time>2021-08-22T07:32:35.000Z</time>
      </trkpt>
      <trkpt lat="47.26348" lon="-2.31943">
        <ele>-17</ele>
        <time>2021-08-22T07:32:36.000Z</time>
      </trkpt>
      <trkpt lat="47.26332" lon="-2.31937">
        <ele>-17</ele>
        <time>2021-08-22T07:32:40.000Z</time>
      </trkpt>
      <trkpt lat="47.26313" lon="-2.31934">
        <ele>-17</ele>
        <time>2021-08-22T07:32:45.000Z</time>
      </trkpt>
      <trkpt lat="47.26312" lon="-2.3193">
        <ele>-17</ele>
        <time>2021-08-22T07:32:46.000Z</time>
      </trkpt>
      <trkpt lat="47.2631" lon="-2.31915">
        <ele>-17</ele>
        <time>2021-08-22T07:32:48.000Z</time>
      </trkpt>
      <trkpt lat="47.26305" lon="-2.31868">
        <ele>-17</ele>
        <time>2021-08-22T07:32:53.000Z</time>
      </trkpt>
      <trkpt lat="47.26305" lon="-2.31842">
        <ele>-17</ele>
        <time>2021-08-22T07:32:56.000Z</time>
      </trkpt>
      <trkpt lat="47.26304" lon="-2.31817">
        <ele>-17</ele>
        <time>2021-08-22T07:32:59.000Z</time>
      </trkpt>
      <trkpt lat="47.26303" lon="-2.31767">
        <ele>-17</ele>
        <time>2021-08-22T07:33:05.000Z</time>
      </trkpt>
      <trkpt lat="47.263" lon="-2.31728">
        <ele>-17</ele>
        <time>2021-08-22T07:33:10.000Z</time>
      </trkpt>
      <trkpt lat="47.26303" lon="-2.31723">
        <ele>-17</ele>
        <time>2021-08-22T07:33:11.000Z</time>
      </trkpt>
      <trkpt lat="47.26314" lon="-2.31715">
        <ele>-17</ele>
        <time>2021-08-22T07:33:14.000Z</time>
      </trkpt>
      <trkpt lat="47.26319" lon="-2.31713">
        <ele>-17</ele>
        <time>2021-08-22T07:33:15.000Z</time>
      </trkpt>
      <trkpt lat="47.26334" lon="-2.31702">
        <ele>-17</ele>
        <time>2021-08-22T07:33:18.000Z</time>
      </trkpt>
      <trkpt lat="47.26339" lon="-2.31701">
        <ele>-17</ele>
        <time>2021-08-22T07:33:19.000Z</time>
      </trkpt>
      <trkpt lat="47.26369" lon="-2.31684">
        <ele>-17</ele>
        <time>2021-08-22T07:33:25.000Z</time>
      </trkpt>
      <trkpt lat="47.26394" lon="-2.31668">
        <ele>-16.60000038147</ele>
        <time>2021-08-22T07:33:30.000Z</time>
      </trkpt>
      <trkpt lat="47.26399" lon="-2.31665">
        <ele>-16.200000762939</ele>
        <time>2021-08-22T07:33:31.000Z</time>
      </trkpt>
      <trkpt lat="47.26403" lon="-2.31662">
        <ele>-15.800000190735</ele>
        <time>2021-08-22T07:33:32.000Z</time>
      </trkpt>
      <trkpt lat="47.26408" lon="-2.3166">
        <ele>-15.39999961853</ele>
        <time>2021-08-22T07:33:33.000Z</time>
      </trkpt>
      <trkpt lat="47.26413" lon="-2.31658">
        <ele>-15</ele>
        <time>2021-08-22T07:33:34.000Z</time>
      </trkpt>
      <trkpt lat="47.26435" lon="-2.31654">
        <ele>-15</ele>
        <time>2021-08-22T07:33:38.000Z</time>
      </trkpt>
      <trkpt lat="47.26466" lon="-2.31647">
        <ele>-15</ele>
        <time>2021-08-22T07:33:44.000Z</time>
      </trkpt>
      <trkpt lat="47.26481" lon="-2.31644">
        <ele>-14</ele>
        <time>2021-08-22T07:33:47.000Z</time>
      </trkpt>
      <trkpt lat="47.26486" lon="-2.31643">
        <ele>-13.60000038147</ele>
        <time>2021-08-22T07:33:48.000Z</time>
      </trkpt>
      <trkpt lat="47.26491" lon="-2.31642">
        <ele>-13.199999809265</ele>
        <time>2021-08-22T07:33:49.000Z</time>
      </trkpt>
      <trkpt lat="47.26495" lon="-2.31641">
        <ele>-12.800000190735</ele>
        <time>2021-08-22T07:33:50.000Z</time>
      </trkpt>
      <trkpt lat="47.26504" lon="-2.31638">
        <ele>-12.800000190735</ele>
        <time>2021-08-22T07:33:52.000Z</time>
      </trkpt>
      <trkpt lat="47.26521" lon="-2.31631">
        <ele>-12.39999961853</ele>
        <time>2021-08-22T07:33:56.000Z</time>
      </trkpt>
      <trkpt lat="47.26525" lon="-2.31629">
        <ele>-12</ele>
        <time>2021-08-22T07:33:57.000Z</time>
      </trkpt>
      <trkpt lat="47.26528" lon="-2.31627">
        <ele>-11.60000038147</ele>
        <time>2021-08-22T07:33:58.000Z</time>
      </trkpt>
      <trkpt lat="47.26532" lon="-2.31624">
        <ele>-11</ele>
        <time>2021-08-22T07:33:59.000Z</time>
      </trkpt>
      <trkpt lat="47.26536" lon="-2.31622">
        <ele>-10.60000038147</ele>
        <time>2021-08-22T07:34:00.000Z</time>
      </trkpt>
      <trkpt lat="47.26551" lon="-2.31613">
        <ele>-10.199999809265</ele>
        <time>2021-08-22T07:34:04.000Z</time>
      </trkpt>
      <trkpt lat="47.26555" lon="-2.3161">
        <ele>-9.8000001907349</ele>
        <time>2021-08-22T07:34:05.000Z</time>
      </trkpt>
      <trkpt lat="47.26559" lon="-2.31608">
        <ele>-9.3999996185303</ele>
        <time>2021-08-22T07:34:06.000Z</time>
      </trkpt>
      <trkpt lat="47.26562" lon="-2.31606">
        <ele>-9</ele>
        <time>2021-08-22T07:34:07.000Z</time>
      </trkpt>
      <trkpt lat="47.26566" lon="-2.31604">
        <ele>-8.6000003814697</ele>
        <time>2021-08-22T07:34:08.000Z</time>
      </trkpt>
      <trkpt lat="47.26577" lon="-2.31596">
        <ele>-8.6000003814697</ele>
        <time>2021-08-22T07:34:11.000Z</time>
      </trkpt>
      <trkpt lat="47.26584" lon="-2.31591">
        <ele>-8.1999998092651</ele>
        <time>2021-08-22T07:34:13.000Z</time>
      </trkpt>
      <trkpt lat="47.26588" lon="-2.31588">
        <ele>-7.8000001907349</ele>
        <time>2021-08-22T07:34:14.000Z</time>
      </trkpt>
      <trkpt lat="47.26591" lon="-2.31586">
        <ele>-7.1999998092651</ele>
        <time>2021-08-22T07:34:15.000Z</time>
      </trkpt>
      <trkpt lat="47.26594" lon="-2.31584">
        <ele>-6.8000001907349</ele>
        <time>2021-08-22T07:34:16.000Z</time>
      </trkpt>
      <trkpt lat="47.26597" lon="-2.31582">
        <ele>-6.4000000953674</ele>
        <time>2021-08-22T07:34:17.000Z</time>
      </trkpt>
      <trkpt lat="47.26607" lon="-2.31576">
        <ele>-6</ele>
        <time>2021-08-22T07:34:20.000Z</time>
      </trkpt>
      <trkpt lat="47.2661" lon="-2.31575">
        <ele>-5.5999999046326</ele>
        <time>2021-08-22T07:34:21.000Z</time>
      </trkpt>
      <trkpt lat="47.26614" lon="-2.31572">
        <ele>-5.1999998092651</ele>
        <time>2021-08-22T07:34:22.000Z</time>
      </trkpt>
      <trkpt lat="47.26616" lon="-2.3157">
        <ele>-4.8000001907349</ele>
        <time>2021-08-22T07:34:23.000Z</time>
      </trkpt>
      <trkpt lat="47.26619" lon="-2.31567">
        <ele>-4.4000000953674</ele>
        <time>2021-08-22T07:34:24.000Z</time>
      </trkpt>
      <trkpt lat="47.26629" lon="-2.31557">
        <ele>-4</ele>
        <time>2021-08-22T07:34:28.000Z</time>
      </trkpt>
      <trkpt lat="47.26631" lon="-2.31554">
        <ele>-3.5999999046326</ele>
        <time>2021-08-22T07:34:29.000Z</time>
      </trkpt>
      <trkpt lat="47.2663" lon="-2.31549">
        <ele>-3.2000000476837</ele>
        <time>2021-08-22T07:34:30.000Z</time>
      </trkpt>
      <trkpt lat="47.26629" lon="-2.31545">
        <ele>-2.7999999523163</ele>
        <time>2021-08-22T07:34:31.000Z</time>
      </trkpt>
      <trkpt lat="47.26628" lon="-2.31541">
        <ele>-2.4000000953674</ele>
        <time>2021-08-22T07:34:32.000Z</time>
      </trkpt>
      <trkpt lat="47.26624" lon="-2.31531">
        <ele>-2.4000000953674</ele>
        <time>2021-08-22T07:34:34.000Z</time>
      </trkpt>
      <trkpt lat="47.2662" lon="-2.31522">
        <ele>-2.4000000953674</ele>
        <time>2021-08-22T07:34:36.000Z</time>
      </trkpt>
      <trkpt lat="47.2661" lon="-2.31487">
        <ele>-2.4000000953674</ele>
        <time>2021-08-22T07:34:43.000Z</time>
      </trkpt>
      <trkpt lat="47.26613" lon="-2.31479">
        <ele>-2.4000000953674</ele>
        <time>2021-08-22T07:34:45.000Z</time>
      </trkpt>
      <trkpt lat="47.26619" lon="-2.31472">
        <ele>-2</ele>
        <time>2021-08-22T07:34:47.000Z</time>
      </trkpt>
      <trkpt lat="47.26623" lon="-2.31469">
        <ele>-1.3999999761581</ele>
        <time>2021-08-22T07:34:48.000Z</time>
      </trkpt>
      <trkpt lat="47.26626" lon="-2.31466">
        <ele>-1</ele>
        <time>2021-08-22T07:34:49.000Z</time>
      </trkpt>
      <trkpt lat="47.26629" lon="-2.31464">
        <ele>-0.60000002384186</ele>
        <time>2021-08-22T07:34:50.000Z</time>
      </trkpt>
      <trkpt lat="47.26632" lon="-2.31461">
        <ele>-0.20000000298023</ele>
        <time>2021-08-22T07:34:51.000Z</time>
      </trkpt>
      <trkpt lat="47.26645" lon="-2.31451">
        <ele>-0.20000000298023</ele>
        <time>2021-08-22T07:34:55.000Z</time>
      </trkpt>
      <trkpt lat="47.26656" lon="-2.31441">
        <ele>0.20000000298023</ele>
        <time>2021-08-22T07:34:58.000Z</time>
      </trkpt>
      <trkpt lat="47.2666" lon="-2.31438">
        <ele>1</ele>
        <time>2021-08-22T07:34:59.000Z</time>
      </trkpt>
      <trkpt lat="47.26667" lon="-2.31433">
        <ele>1.7999999523163</ele>
        <time>2021-08-22T07:35:01.000Z</time>
      </trkpt>
      <trkpt lat="47.26698" lon="-2.31418">
        <ele>1.7999999523163</ele>
        <time>2021-08-22T07:35:08.000Z</time>
      </trkpt>
      <trkpt lat="47.26714" lon="-2.31408">
        <ele>2.2000000476837</ele>
        <time>2021-08-22T07:35:12.000Z</time>
      </trkpt>
      <trkpt lat="47.26718" lon="-2.31405">
        <ele>2.5999999046326</ele>
        <time>2021-08-22T07:35:13.000Z</time>
      </trkpt>
      <trkpt lat="47.26722" lon="-2.31403">
        <ele>3</ele>
        <time>2021-08-22T07:35:14.000Z</time>
      </trkpt>
      <trkpt lat="47.26725" lon="-2.314">
        <ele>3.4000000953674</ele>
        <time>2021-08-22T07:35:15.000Z</time>
      </trkpt>
      <trkpt lat="47.26729" lon="-2.31398">
        <ele>3.7999999523163</ele>
        <time>2021-08-22T07:35:16.000Z</time>
      </trkpt>
      <trkpt lat="47.26749" lon="-2.31387">
        <ele>3.7999999523163</ele>
        <time>2021-08-22T07:35:21.000Z</time>
      </trkpt>
      <trkpt lat="47.26757" lon="-2.31381">
        <ele>3.7999999523163</ele>
        <time>2021-08-22T07:35:23.000Z</time>
      </trkpt>
      <trkpt lat="47.26785" lon="-2.31366">
        <ele>3.7999999523163</ele>
        <time>2021-08-22T07:35:30.000Z</time>
      </trkpt>
      <trkpt lat="47.26793" lon="-2.3136">
        <ele>3.7999999523163</ele>
        <time>2021-08-22T07:35:32.000Z</time>
      </trkpt>
      <trkpt lat="47.26818" lon="-2.31341">
        <ele>3.7999999523163</ele>
        <time>2021-08-22T07:35:39.000Z</time>
      </trkpt>
      <trkpt lat="47.26821" lon="-2.31338">
        <ele>4.1999998092651</ele>
        <time>2021-08-22T07:35:40.000Z</time>
      </trkpt>
      <trkpt lat="47.26824" lon="-2.31337">
        <ele>4.5999999046326</ele>
        <time>2021-08-22T07:35:41.000Z</time>
      </trkpt>
      <trkpt lat="47.26828" lon="-2.31334">
        <ele>5.1999998092651</ele>
        <time>2021-08-22T07:35:42.000Z</time>
      </trkpt>
      <trkpt lat="47.26831" lon="-2.3133">
        <ele>5.5999999046326</ele>
        <time>2021-08-22T07:35:43.000Z</time>
      </trkpt>
      <trkpt lat="47.26834" lon="-2.31326">
        <ele>6</ele>
        <time>2021-08-22T07:35:44.000Z</time>
      </trkpt>
      <trkpt lat="47.26842" lon="-2.313">
        <ele>6</ele>
        <time>2021-08-22T07:35:48.000Z</time>
      </trkpt>
      <trkpt lat="47.26848" lon="-2.3126">
        <ele>6</ele>
        <time>2021-08-22T07:35:53.000Z</time>
      </trkpt>
      <trkpt lat="47.26849" lon="-2.31244">
        <ele>6</ele>
        <time>2021-08-22T07:35:55.000Z</time>
      </trkpt>
      <trkpt lat="47.26852" lon="-2.31178">
        <ele>6</ele>
        <time>2021-08-22T07:36:03.000Z</time>
      </trkpt>
      <trkpt lat="47.26854" lon="-2.31107">
        <ele>6</ele>
        <time>2021-08-22T07:36:11.000Z</time>
      </trkpt>
      <trkpt lat="47.26853" lon="-2.31085">
        <ele>6</ele>
        <time>2021-08-22T07:36:15.000Z</time>
      </trkpt>
      <trkpt lat="47.26852" lon="-2.31053">
        <ele>6</ele>
        <time>2021-08-22T07:36:19.000Z</time>
      </trkpt>
      <trkpt lat="47.26847" lon="-2.3098">
        <ele>6</ele>
        <time>2021-08-22T07:36:27.000Z</time>
      </trkpt>
      <trkpt lat="47.26837" lon="-2.30917">
        <ele>6</ele>
        <time>2021-08-22T07:36:35.000Z</time>
      </trkpt>
      <trkpt lat="47.2683" lon="-2.30858">
        <ele>6</ele>
        <time>2021-08-22T07:36:43.000Z</time>
      </trkpt>
      <trkpt lat="47.26829" lon="-2.30809">
        <ele>6</ele>
        <time>2021-08-22T07:36:50.000Z</time>
      </trkpt>
      <trkpt lat="47.2683" lon="-2.30804">
        <ele>6</ele>
        <time>2021-08-22T07:36:51.000Z</time>
      </trkpt>
      <trkpt lat="47.26828" lon="-2.30795">
        <ele>6</ele>
        <time>2021-08-22T07:36:53.000Z</time>
      </trkpt>
      <trkpt lat="47.26826" lon="-2.30793">
        <ele>6</ele>
        <time>2021-08-22T07:36:54.000Z</time>
      </trkpt>
      <trkpt lat="47.26815" lon="-2.30797">
        <ele>6</ele>
        <time>2021-08-22T07:36:58.000Z</time>
      </trkpt>
      <trkpt lat="47.26811" lon="-2.30801">
        <ele>6</ele>
        <time>2021-08-22T07:36:59.000Z</time>
      </trkpt>
      <trkpt lat="47.26787" lon="-2.30828">
        <ele>6</ele>
        <time>2021-08-22T07:37:05.000Z</time>
      </trkpt>
      <trkpt lat="47.26756" lon="-2.30859">
        <ele>6</ele>
        <time>2021-08-22T07:37:12.000Z</time>
      </trkpt>
      <trkpt lat="47.26748" lon="-2.30868">
        <ele>6</ele>
        <time>2021-08-22T07:37:14.000Z</time>
      </trkpt>
      <trkpt lat="47.26739" lon="-2.3087">
        <ele>6</ele>
        <time>2021-08-22T07:37:16.000Z</time>
      </trkpt>
      <trkpt lat="47.26725" lon="-2.30862">
        <ele>6</ele>
        <time>2021-08-22T07:37:19.000Z</time>
      </trkpt>
      <trkpt lat="47.26712" lon="-2.30838">
        <ele>6</ele>
        <time>2021-08-22T07:37:23.000Z</time>
      </trkpt>
      <trkpt lat="47.26709" lon="-2.30831">
        <ele>6</ele>
        <time>2021-08-22T07:37:24.000Z</time>
      </trkpt>
      <trkpt lat="47.26698" lon="-2.30802">
        <ele>5.5999999046326</ele>
        <time>2021-08-22T07:37:28.000Z</time>
      </trkpt>
      <trkpt lat="47.26695" lon="-2.30794">
        <ele>5</ele>
        <time>2021-08-22T07:37:29.000Z</time>
      </trkpt>
      <trkpt lat="47.26691" lon="-2.30787">
        <ele>4.1999998092651</ele>
        <time>2021-08-22T07:37:30.000Z</time>
      </trkpt>
      <trkpt lat="47.26688" lon="-2.30779">
        <ele>3.7999999523163</ele>
        <time>2021-08-22T07:37:31.000Z</time>
      </trkpt>
      <trkpt lat="47.26674" lon="-2.30742">
        <ele>3.7999999523163</ele>
        <time>2021-08-22T07:37:35.000Z</time>
      </trkpt>
      <trkpt lat="47.26671" lon="-2.30733">
        <ele>3.2000000476837</ele>
        <time>2021-08-22T07:37:36.000Z</time>
      </trkpt>
      <trkpt lat="47.26668" lon="-2.30725">
        <ele>2.7999999523163</ele>
        <time>2021-08-22T07:37:37.000Z</time>
      </trkpt>
      <trkpt lat="47.26665" lon="-2.30717">
        <ele>2.4000000953674</ele>
        <time>2021-08-22T07:37:38.000Z</time>
      </trkpt>
      <trkpt lat="47.26662" lon="-2.3071">
        <ele>2</ele>
        <time>2021-08-22T07:37:39.000Z</time>
      </trkpt>
      <trkpt lat="47.2666" lon="-2.30705">
        <ele>1.6000000238419</ele>
        <time>2021-08-22T07:37:40.000Z</time>
      </trkpt>
      <trkpt lat="47.26657" lon="-2.30697">
        <ele>1</ele>
        <time>2021-08-22T07:37:42.000Z</time>
      </trkpt>
      <trkpt lat="47.26655" lon="-2.30696">
        <ele>0.60000002384186</ele>
        <time>2021-08-22T07:37:43.000Z</time>
      </trkpt>
      <trkpt lat="47.26653" lon="-2.30696">
        <ele>0.20000000298023</ele>
        <time>2021-08-22T07:37:44.000Z</time>
      </trkpt>
      <trkpt lat="47.26652" lon="-2.30698">
        <ele>-0.20000000298023</ele>
        <time>2021-08-22T07:37:45.000Z</time>
      </trkpt>
      <trkpt lat="47.2665" lon="-2.30702">
        <ele>-0.60000002384186</ele>
        <time>2021-08-22T07:37:46.000Z</time>
      </trkpt>
      <trkpt lat="47.2665" lon="-2.30706">
        <ele>-0.60000002384186</ele>
        <time>2021-08-22T07:37:47.000Z</time>
      </trkpt>
      <trkpt lat="47.26642" lon="-2.30724">
        <ele>-0.60000002384186</ele>
        <time>2021-08-22T07:37:51.000Z</time>
      </trkpt>
      <trkpt lat="47.26624" lon="-2.30739">
        <ele>-0.60000002384186</ele>
        <time>2021-08-22T07:37:56.000Z</time>
      </trkpt>
      <trkpt lat="47.26621" lon="-2.30748">
        <ele>-0.60000002384186</ele>
        <time>2021-08-22T07:37:58.000Z</time>
      </trkpt>
      <trkpt lat="47.26621" lon="-2.30752">
        <ele>-0.60000002384186</ele>
        <time>2021-08-22T07:37:59.000Z</time>
      </trkpt>
      <trkpt lat="47.26621" lon="-2.30756">
        <ele>-1</ele>
        <time>2021-08-22T07:38:00.000Z</time>
      </trkpt>
      <trkpt lat="47.26619" lon="-2.3076">
        <ele>-1.3999999761581</ele>
        <time>2021-08-22T07:38:01.000Z</time>
      </trkpt>
      <trkpt lat="47.26618" lon="-2.30763">
        <ele>-1.7999999523163</ele>
        <time>2021-08-22T07:38:02.000Z</time>
      </trkpt>
      <trkpt lat="47.26616" lon="-2.30766">
        <ele>-2.2000000476837</ele>
        <time>2021-08-22T07:38:03.000Z</time>
      </trkpt>
      <trkpt lat="47.26613" lon="-2.3077">
        <ele>-2.5999999046326</ele>
        <time>2021-08-22T07:38:04.000Z</time>
      </trkpt>
      <trkpt lat="47.26597" lon="-2.30785">
        <ele>-2.5999999046326</ele>
        <time>2021-08-22T07:38:09.000Z</time>
      </trkpt>
      <trkpt lat="47.26582" lon="-2.30803">
        <ele>-2.5999999046326</ele>
        <time>2021-08-22T07:38:13.000Z</time>
      </trkpt>
      <trkpt lat="47.26579" lon="-2.30808">
        <ele>-2.5999999046326</ele>
        <time>2021-08-22T07:38:14.000Z</time>
      </trkpt>
      <trkpt lat="47.26573" lon="-2.3082">
        <ele>-3</ele>
        <time>2021-08-22T07:38:16.000Z</time>
      </trkpt>
      <trkpt lat="47.26571" lon="-2.30825">
        <ele>-3.4000000953674</ele>
        <time>2021-08-22T07:38:17.000Z</time>
      </trkpt>
      <trkpt lat="47.26568" lon="-2.30828">
        <ele>-3.7999999523163</ele>
        <time>2021-08-22T07:38:18.000Z</time>
      </trkpt>
      <trkpt lat="47.26566" lon="-2.3083">
        <ele>-4.8000001907349</ele>
        <time>2021-08-22T07:38:19.000Z</time>
      </trkpt>
      <trkpt lat="47.26549" lon="-2.30843">
        <ele>-4.8000001907349</ele>
        <time>2021-08-22T07:38:25.000Z</time>
      </trkpt>
      <trkpt lat="47.26546" lon="-2.30847">
        <ele>-4.8000001907349</ele>
        <time>2021-08-22T07:38:26.000Z</time>
      </trkpt>
      <trkpt lat="47.2654" lon="-2.30855">
        <ele>-5.1999998092651</ele>
        <time>2021-08-22T07:38:28.000Z</time>
      </trkpt>
      <trkpt lat="47.26537" lon="-2.30858">
        <ele>-5.5999999046326</ele>
        <time>2021-08-22T07:38:29.000Z</time>
      </trkpt>
      <trkpt lat="47.26533" lon="-2.30862">
        <ele>-6</ele>
        <time>2021-08-22T07:38:30.000Z</time>
      </trkpt>
      <trkpt lat="47.26529" lon="-2.30865">
        <ele>-6.4000000953674</ele>
        <time>2021-08-22T07:38:31.000Z</time>
      </trkpt>
      <trkpt lat="47.26526" lon="-2.30869">
        <ele>-7</ele>
        <time>2021-08-22T07:38:32.000Z</time>
      </trkpt>
      <trkpt lat="47.26513" lon="-2.30878">
        <ele>-7</ele>
        <time>2021-08-22T07:38:36.000Z</time>
      </trkpt>
      <trkpt lat="47.26507" lon="-2.30878">
        <ele>-7</ele>
        <time>2021-08-22T07:38:38.000Z</time>
      </trkpt>
      <trkpt lat="47.26503" lon="-2.30875">
        <ele>-7</ele>
        <time>2021-08-22T07:38:40.000Z</time>
      </trkpt>
      <trkpt lat="47.26489" lon="-2.30861">
        <ele>-6.4000000953674</ele>
        <time>2021-08-22T07:38:45.000Z</time>
      </trkpt>
      <trkpt lat="47.26486" lon="-2.30856">
        <ele>-6</ele>
        <time>2021-08-22T07:38:46.000Z</time>
      </trkpt>
      <trkpt lat="47.26484" lon="-2.30851">
        <ele>-5.5999999046326</ele>
        <time>2021-08-22T07:38:47.000Z</time>
      </trkpt>
      <trkpt lat="47.26481" lon="-2.30847">
        <ele>-5.1999998092651</ele>
        <time>2021-08-22T07:38:48.000Z</time>
      </trkpt>
      <trkpt lat="47.2648" lon="-2.30842">
        <ele>-4.5999999046326</ele>
        <time>2021-08-22T07:38:49.000Z</time>
      </trkpt>
      <trkpt lat="47.26476" lon="-2.30831">
        <ele>-4.5999999046326</ele>
        <time>2021-08-22T07:38:51.000Z</time>
      </trkpt>
      <trkpt lat="47.26472" lon="-2.30814">
        <ele>-4.1999998092651</ele>
        <time>2021-08-22T07:38:54.000Z</time>
      </trkpt>
      <trkpt lat="47.26471" lon="-2.30808">
        <ele>-3.7999999523163</ele>
        <time>2021-08-22T07:38:55.000Z</time>
      </trkpt>
      <trkpt lat="47.26469" lon="-2.30802">
        <ele>-3.4000000953674</ele>
        <time>2021-08-22T07:38:56.000Z</time>
      </trkpt>
      <trkpt lat="47.26467" lon="-2.30796">
        <ele>-3</ele>
        <time>2021-08-22T07:38:57.000Z</time>
      </trkpt>
      <trkpt lat="47.26464" lon="-2.3079">
        <ele>-2.5999999046326</ele>
        <time>2021-08-22T07:38:58.000Z</time>
      </trkpt>
      <trkpt lat="47.26449" lon="-2.30751">
        <ele>-2.5999999046326</ele>
        <time>2021-08-22T07:39:05.000Z</time>
      </trkpt>
      <trkpt lat="47.26445" lon="-2.3074">
        <ele>-2.2000000476837</ele>
        <time>2021-08-22T07:39:07.000Z</time>
      </trkpt>
      <trkpt lat="47.26443" lon="-2.30735">
        <ele>-1.3999999761581</ele>
        <time>2021-08-22T07:39:08.000Z</time>
      </trkpt>
      <trkpt lat="47.26441" lon="-2.3073">
        <ele>-1</ele>
        <time>2021-08-22T07:39:09.000Z</time>
      </trkpt>
      <trkpt lat="47.26438" lon="-2.30725">
        <ele>-0.60000002384186</ele>
        <time>2021-08-22T07:39:10.000Z</time>
      </trkpt>
      <trkpt lat="47.26433" lon="-2.30714">
        <ele>-0.60000002384186</ele>
        <time>2021-08-22T07:39:12.000Z</time>
      </trkpt>
      <trkpt lat="47.2642" lon="-2.30686">
        <ele>-0.60000002384186</ele>
        <time>2021-08-22T07:39:18.000Z</time>
      </trkpt>
      <trkpt lat="47.26405" lon="-2.30674">
        <ele>-0.60000002384186</ele>
        <time>2021-08-22T07:39:22.000Z</time>
      </trkpt>
      <trkpt lat="47.26383" lon="-2.30658">
        <ele>-0.60000002384186</ele>
        <time>2021-08-22T07:39:27.000Z</time>
      </trkpt>
      <trkpt lat="47.26361" lon="-2.30634">
        <ele>-0.20000000298023</ele>
        <time>2021-08-22T07:39:33.000Z</time>
      </trkpt>
      <trkpt lat="47.26358" lon="-2.30629">
        <ele>0.20000000298023</ele>
        <time>2021-08-22T07:39:34.000Z</time>
      </trkpt>
      <trkpt lat="47.26356" lon="-2.30623">
        <ele>0.60000002384186</ele>
        <time>2021-08-22T07:39:35.000Z</time>
      </trkpt>
      <trkpt lat="47.26353" lon="-2.30618">
        <ele>1</ele>
        <time>2021-08-22T07:39:36.000Z</time>
      </trkpt>
      <trkpt lat="47.26351" lon="-2.30611">
        <ele>1.3999999761581</ele>
        <time>2021-08-22T07:39:37.000Z</time>
      </trkpt>
      <trkpt lat="47.26343" lon="-2.30593">
        <ele>1.3999999761581</ele>
        <time>2021-08-22T07:39:41.000Z</time>
      </trkpt>
      <trkpt lat="47.26344" lon="-2.30585">
        <ele>1.3999999761581</ele>
        <time>2021-08-22T07:39:44.000Z</time>
      </trkpt>
      <trkpt lat="47.26342" lon="-2.30581">
        <ele>1.3999999761581</ele>
        <time>2021-08-22T07:40:07.000Z</time>
      </trkpt>
      <trkpt lat="47.26342" lon="-2.30572">
        <ele>1.3999999761581</ele>
        <time>2021-08-22T07:40:10.000Z</time>
      </trkpt>
      <trkpt lat="47.26344" lon="-2.30565">
        <ele>1.3999999761581</ele>
        <time>2021-08-22T07:40:12.000Z</time>
      </trkpt>
      <trkpt lat="47.26342" lon="-2.30553">
        <ele>1.3999999761581</ele>
        <time>2021-08-22T07:40:15.000Z</time>
      </trkpt>
      <trkpt lat="47.2634" lon="-2.30543">
        <ele>1.3999999761581</ele>
        <time>2021-08-22T07:40:17.000Z</time>
      </trkpt>
      <trkpt lat="47.26333" lon="-2.30505">
        <ele>1.3999999761581</ele>
        <time>2021-08-22T07:40:23.000Z</time>
      </trkpt>
      <trkpt lat="47.26326" lon="-2.30461">
        <ele>1.3999999761581</ele>
        <time>2021-08-22T07:40:30.000Z</time>
      </trkpt>
      <trkpt lat="47.26315" lon="-2.30412">
        <ele>1.3999999761581</ele>
        <time>2021-08-22T07:40:38.000Z</time>
      </trkpt>
      <trkpt lat="47.26307" lon="-2.30377">
        <ele>1.3999999761581</ele>
        <time>2021-08-22T07:40:43.000Z</time>
      </trkpt>
      <trkpt lat="47.26306" lon="-2.30361">
        <ele>1.3999999761581</ele>
        <time>2021-08-22T07:40:45.000Z</time>
      </trkpt>
      <trkpt lat="47.26301" lon="-2.30332">
        <ele>1.3999999761581</ele>
        <time>2021-08-22T07:40:49.000Z</time>
      </trkpt>
      <trkpt lat="47.26296" lon="-2.3032">
        <ele>1.3999999761581</ele>
        <time>2021-08-22T07:40:51.000Z</time>
      </trkpt>
      <trkpt lat="47.26283" lon="-2.30279">
        <ele>1.3999999761581</ele>
        <time>2021-08-22T07:40:57.000Z</time>
      </trkpt>
      <trkpt lat="47.26271" lon="-2.30217">
        <ele>1.3999999761581</ele>
        <time>2021-08-22T07:41:05.000Z</time>
      </trkpt>
      <trkpt lat="47.26264" lon="-2.3018">
        <ele>2</ele>
        <time>2021-08-22T07:41:10.000Z</time>
      </trkpt>
      <trkpt lat="47.26262" lon="-2.30173">
        <ele>2.7999999523163</ele>
        <time>2021-08-22T07:41:11.000Z</time>
      </trkpt>
      <trkpt lat="47.2626" lon="-2.30167">
        <ele>3.2000000476837</ele>
        <time>2021-08-22T07:41:12.000Z</time>
      </trkpt>
      <trkpt lat="47.26258" lon="-2.30161">
        <ele>3.5999999046326</ele>
        <time>2021-08-22T07:41:13.000Z</time>
      </trkpt>
      <trkpt lat="47.2625" lon="-2.30139">
        <ele>3.5999999046326</ele>
        <time>2021-08-22T07:41:17.000Z</time>
      </trkpt>
      <trkpt lat="47.26248" lon="-2.30135">
        <ele>3.5999999046326</ele>
        <time>2021-08-22T07:41:18.000Z</time>
      </trkpt>
      <trkpt lat="47.26241" lon="-2.30133">
        <ele>3.5999999046326</ele>
        <time>2021-08-22T07:41:20.000Z</time>
      </trkpt>
      <trkpt lat="47.26223" lon="-2.3014">
        <ele>3.5999999046326</ele>
        <time>2021-08-22T07:41:24.000Z</time>
      </trkpt>
      <trkpt lat="47.26219" lon="-2.30143">
        <ele>3.5999999046326</ele>
        <time>2021-08-22T07:41:25.000Z</time>
      </trkpt>
      <trkpt lat="47.26189" lon="-2.30155">
        <ele>3.5999999046326</ele>
        <time>2021-08-22T07:41:31.000Z</time>
      </trkpt>
      <trkpt lat="47.26175" lon="-2.30158">
        <ele>3.5999999046326</ele>
        <time>2021-08-22T07:41:35.000Z</time>
      </trkpt>
      <trkpt lat="47.26169" lon="-2.30147">
        <ele>3.5999999046326</ele>
        <time>2021-08-22T07:41:39.000Z</time>
      </trkpt>
      <trkpt lat="47.26164" lon="-2.30148">
        <ele>3.2000000476837</ele>
        <time>2021-08-22T07:41:41.000Z</time>
      </trkpt>
      <trkpt lat="47.26161" lon="-2.30149">
        <ele>2.7999999523163</ele>
        <time>2021-08-22T07:41:42.000Z</time>
      </trkpt>
      <trkpt lat="47.26157" lon="-2.3015">
        <ele>2.4000000953674</ele>
        <time>2021-08-22T07:41:43.000Z</time>
      </trkpt>
      <trkpt lat="47.26153" lon="-2.30151">
        <ele>2</ele>
        <time>2021-08-22T07:41:44.000Z</time>
      </trkpt>
      <trkpt lat="47.26149" lon="-2.30152">
        <ele>1.6000000238419</ele>
        <time>2021-08-22T07:41:45.000Z</time>
      </trkpt>
      <trkpt lat="47.26131" lon="-2.30159">
        <ele>1.6000000238419</ele>
        <time>2021-08-22T07:41:49.000Z</time>
      </trkpt>
      <trkpt lat="47.26117" lon="-2.30162">
        <ele>1.2000000476837</ele>
        <time>2021-08-22T07:41:52.000Z</time>
      </trkpt>
      <trkpt lat="47.26114" lon="-2.30164">
        <ele>0.80000001192093</ele>
        <time>2021-08-22T07:41:53.000Z</time>
      </trkpt>
      <trkpt lat="47.2611" lon="-2.30165">
        <ele>0.40000000596046</ele>
        <time>2021-08-22T07:41:54.000Z</time>
      </trkpt>
      <trkpt lat="47.26107" lon="-2.30165">
        <ele>24.7</ele>
        <time>2021-08-22T07:41:55.000Z</time>
      </trkpt>
      <trkpt lat="47.26104" lon="-2.30164">
        <ele>-0.40000000596046</ele>
        <time>2021-08-22T07:41:56.000Z</time>
      </trkpt>
      <trkpt lat="47.26102" lon="-2.30161">
        <ele>-0.40000000596046</ele>
        <time>2021-08-22T07:41:57.000Z</time>
      </trkpt>
      <trkpt lat="47.26095" lon="-2.3015">
        <ele>-0.80000001192093</ele>
        <time>2021-08-22T07:42:00.000Z</time>
      </trkpt>
      <trkpt lat="47.26092" lon="-2.30149">
        <ele>-1.7999999523163</ele>
        <time>2021-08-22T07:42:01.000Z</time>
      </trkpt>
      <trkpt lat="47.26089" lon="-2.30149">
        <ele>-2.2000000476837</ele>
        <time>2021-08-22T07:42:02.000Z</time>
      </trkpt>
      <trkpt lat="47.26086" lon="-2.30149">
        <ele>-2.5999999046326</ele>
        <time>2021-08-22T07:42:03.000Z</time>
      </trkpt>
      <trkpt lat="47.26072" lon="-2.30148">
        <ele>-2.5999999046326</ele>
        <time>2021-08-22T07:42:07.000Z</time>
      </trkpt>
      <trkpt lat="47.26069" lon="-2.30146">
        <ele>-2.5999999046326</ele>
        <time>2021-08-22T07:42:08.000Z</time>
      </trkpt>
      <trkpt lat="47.2606" lon="-2.30137">
        <ele>-2.5999999046326</ele>
        <time>2021-08-22T07:42:11.000Z</time>
      </trkpt>
      <trkpt lat="47.26056" lon="-2.30136">
        <ele>-2.5999999046326</ele>
        <time>2021-08-22T07:42:12.000Z</time>
      </trkpt>
      <trkpt lat="47.26053" lon="-2.30134">
        <ele>-3</ele>
        <time>2021-08-22T07:42:13.000Z</time>
      </trkpt>
      <trkpt lat="47.2605" lon="-2.30134">
        <ele>-3.4000000953674</ele>
        <time>2021-08-22T07:42:14.000Z</time>
      </trkpt>
      <trkpt lat="47.26046" lon="-2.30133">
        <ele>-3.7999999523163</ele>
        <time>2021-08-22T07:42:15.000Z</time>
      </trkpt>
      <trkpt lat="47.26042" lon="-2.30132">
        <ele>-4.1999998092651</ele>
        <time>2021-08-22T07:42:16.000Z</time>
      </trkpt>
      <trkpt lat="47.26037" lon="-2.30131">
        <ele>-4.5999999046326</ele>
        <time>2021-08-22T07:42:17.000Z</time>
      </trkpt>
      <trkpt lat="47.26027" lon="-2.30127">
        <ele>-4.5999999046326</ele>
        <time>2021-08-22T07:42:19.000Z</time>
      </trkpt>
      <trkpt lat="47.26017" lon="-2.30129">
        <ele>-4.5999999046326</ele>
        <time>2021-08-22T07:42:21.000Z</time>
      </trkpt>
      <trkpt lat="47.26001" lon="-2.3013">
        <ele>-5</ele>
        <time>2021-08-22T07:42:24.000Z</time>
      </trkpt>
      <trkpt lat="47.25996" lon="-2.30131">
        <ele>-5.8000001907349</ele>
        <time>2021-08-22T07:42:25.000Z</time>
      </trkpt>
      <trkpt lat="47.25991" lon="-2.30131">
        <ele>-6.4000000953674</ele>
        <time>2021-08-22T07:42:26.000Z</time>
      </trkpt>
      <trkpt lat="47.25986" lon="-2.30132">
        <ele>-6.8000001907349</ele>
        <time>2021-08-22T07:42:27.000Z</time>
      </trkpt>
      <trkpt lat="47.25975" lon="-2.30142">
        <ele>-6.8000001907349</ele>
        <time>2021-08-22T07:42:30.000Z</time>
      </trkpt>
      <trkpt lat="47.25972" lon="-2.30147">
        <ele>-7.1999998092651</ele>
        <time>2021-08-22T07:42:31.000Z</time>
      </trkpt>
      <trkpt lat="47.25969" lon="-2.30151">
        <ele>-7.5999999046326</ele>
        <time>2021-08-22T07:42:32.000Z</time>
      </trkpt>
      <trkpt lat="47.25966" lon="-2.30156">
        <ele>-8</ele>
        <time>2021-08-22T07:42:33.000Z</time>
      </trkpt>
      <trkpt lat="47.25962" lon="-2.3016">
        <ele>-8.3999996185303</ele>
        <time>2021-08-22T07:42:34.000Z</time>
      </trkpt>
      <trkpt lat="47.25957" lon="-2.30164">
        <ele>-8.8000001907349</ele>
        <time>2021-08-22T07:42:35.000Z</time>
      </trkpt>
      <trkpt lat="47.25935" lon="-2.30171">
        <ele>-8.8000001907349</ele>
        <time>2021-08-22T07:42:39.000Z</time>
      </trkpt>
      <trkpt lat="47.25929" lon="-2.30172">
        <ele>-8.8000001907349</ele>
        <time>2021-08-22T07:42:40.000Z</time>
      </trkpt>
      <trkpt lat="47.25905" lon="-2.30176">
        <ele>-8.8000001907349</ele>
        <time>2021-08-22T07:42:45.000Z</time>
      </trkpt>
      <trkpt lat="47.25901" lon="-2.30178">
        <ele>-8.8000001907349</ele>
        <time>2021-08-22T07:42:46.000Z</time>
      </trkpt>
      <trkpt lat="47.25897" lon="-2.30182">
        <ele>-8.3999996185303</ele>
        <time>2021-08-22T07:42:47.000Z</time>
      </trkpt>
      <trkpt lat="47.25895" lon="-2.30187">
        <ele>-8</ele>
        <time>2021-08-22T07:42:48.000Z</time>
      </trkpt>
      <trkpt lat="47.25893" lon="-2.30192">
        <ele>-7.5999999046326</ele>
        <time>2021-08-22T07:42:49.000Z</time>
      </trkpt>
      <trkpt lat="47.25893" lon="-2.30199">
        <ele>-6.8000001907349</ele>
        <time>2021-08-22T07:42:50.000Z</time>
      </trkpt>
      <trkpt lat="47.25894" lon="-2.30213">
        <ele>-6.8000001907349</ele>
        <time>2021-08-22T07:42:52.000Z</time>
      </trkpt>
      <trkpt lat="47.25896" lon="-2.30242">
        <ele>-6.8000001907349</ele>
        <time>2021-08-22T07:42:56.000Z</time>
      </trkpt>
      <trkpt lat="47.25897" lon="-2.30282">
        <ele>-6.8000001907349</ele>
        <time>2021-08-22T07:43:02.000Z</time>
      </trkpt>
      <trkpt lat="47.25896" lon="-2.30293">
        <ele>-6.8000001907349</ele>
        <time>2021-08-22T07:43:04.000Z</time>
      </trkpt>
      <trkpt lat="47.25889" lon="-2.30306">
        <ele>-6.8000001907349</ele>
        <time>2021-08-22T07:43:07.000Z</time>
      </trkpt>
      <trkpt lat="47.25875" lon="-2.30304">
        <ele>-6.8000001907349</ele>
        <time>2021-08-22T07:43:10.000Z</time>
      </trkpt>
      <trkpt lat="47.25861" lon="-2.30287">
        <ele>-6.8000001907349</ele>
        <time>2021-08-22T07:43:14.000Z</time>
      </trkpt>
      <trkpt lat="47.25848" lon="-2.30282">
        <ele>-6.8000001907349</ele>
        <time>2021-08-22T07:43:17.000Z</time>
      </trkpt>
      <trkpt lat="47.25839" lon="-2.30276">
        <ele>-6.8000001907349</ele>
        <time>2021-08-22T07:43:19.000Z</time>
      </trkpt>
      <trkpt lat="47.25828" lon="-2.3027">
        <ele>-6.8000001907349</ele>
        <time>2021-08-22T07:43:21.000Z</time>
      </trkpt>
      <trkpt lat="47.25792" lon="-2.30254">
        <ele>-6.8000001907349</ele>
        <time>2021-08-22T07:43:27.000Z</time>
      </trkpt>
      <trkpt lat="47.25755" lon="-2.30235">
        <ele>-6.8000001907349</ele>
        <time>2021-08-22T07:43:33.000Z</time>
      </trkpt>
      <trkpt lat="47.25721" lon="-2.30222">
        <ele>-6.8000001907349</ele>
        <time>2021-08-22T07:43:39.000Z</time>
      </trkpt>
      <trkpt lat="47.25716" lon="-2.30222">
        <ele>-6.8000001907349</ele>
        <time>2021-08-22T07:43:40.000Z</time>
      </trkpt>
      <trkpt lat="47.25702" lon="-2.3023">
        <ele>-6.8000001907349</ele>
        <time>2021-08-22T07:43:43.000Z</time>
      </trkpt>
      <trkpt lat="47.25698" lon="-2.30236">
        <ele>-6.4000000953674</ele>
        <time>2021-08-22T07:43:44.000Z</time>
      </trkpt>
      <trkpt lat="47.25695" lon="-2.30242">
        <ele>-6</ele>
        <time>2021-08-22T07:43:45.000Z</time>
      </trkpt>
      <trkpt lat="47.25693" lon="-2.30249">
        <ele>-5.5999999046326</ele>
        <time>2021-08-22T07:43:46.000Z</time>
      </trkpt>
      <trkpt lat="47.25693" lon="-2.30257">
        <ele>-5</ele>
        <time>2021-08-22T07:43:47.000Z</time>
      </trkpt>
      <trkpt lat="47.25694" lon="-2.30264">
        <ele>-4.5999999046326</ele>
        <time>2021-08-22T07:43:48.000Z</time>
      </trkpt>
      <trkpt lat="47.25696" lon="-2.30275">
        <ele>-4.5999999046326</ele>
        <time>2021-08-22T07:43:50.000Z</time>
      </trkpt>
      <trkpt lat="47.25691" lon="-2.30292">
        <ele>-4.5999999046326</ele>
        <time>2021-08-22T07:43:53.000Z</time>
      </trkpt>
      <trkpt lat="47.25686" lon="-2.30304">
        <ele>-4.5999999046326</ele>
        <time>2021-08-22T07:43:55.000Z</time>
      </trkpt>
      <trkpt lat="47.25683" lon="-2.30309">
        <ele>-4.5999999046326</ele>
        <time>2021-08-22T07:43:56.000Z</time>
      </trkpt>
      <trkpt lat="47.25675" lon="-2.30316">
        <ele>-4.5999999046326</ele>
        <time>2021-08-22T07:43:58.000Z</time>
      </trkpt>
      <trkpt lat="47.25656" lon="-2.30327">
        <ele>-4.5999999046326</ele>
        <time>2021-08-22T07:44:03.000Z</time>
      </trkpt>
      <trkpt lat="47.2564" lon="-2.30344">
        <ele>-4.5999999046326</ele>
        <time>2021-08-22T07:44:09.000Z</time>
      </trkpt>
      <trkpt lat="47.25637" lon="-2.30344">
        <ele>-4.5999999046326</ele>
        <time>2021-08-22T07:44:10.000Z</time>
      </trkpt>
      <trkpt lat="47.25631" lon="-2.30337">
        <ele>-4.5999999046326</ele>
        <time>2021-08-22T07:44:12.000Z</time>
      </trkpt>
      <trkpt lat="47.25626" lon="-2.30313">
        <ele>-4.5999999046326</ele>
        <time>2021-08-22T07:44:16.000Z</time>
      </trkpt>
      <trkpt lat="47.25622" lon="-2.30277">
        <ele>-4.5999999046326</ele>
        <time>2021-08-22T07:44:21.000Z</time>
      </trkpt>
      <trkpt lat="47.25621" lon="-2.30269">
        <ele>-4.5999999046326</ele>
        <time>2021-08-22T07:44:22.000Z</time>
      </trkpt>
      <trkpt lat="47.25606" lon="-2.30216">
        <ele>-4.5999999046326</ele>
        <time>2021-08-22T07:44:29.000Z</time>
      </trkpt>
      <trkpt lat="47.25589" lon="-2.30194">
        <ele>-4.5999999046326</ele>
        <time>2021-08-22T07:44:33.000Z</time>
      </trkpt>
      <trkpt lat="47.25574" lon="-2.30181">
        <ele>-4.5999999046326</ele>
        <time>2021-08-22T07:44:36.000Z</time>
      </trkpt>
      <trkpt lat="47.2557" lon="-2.30176">
        <ele>-4.1999998092651</ele>
        <time>2021-08-22T07:44:37.000Z</time>
      </trkpt>
      <trkpt lat="47.25567" lon="-2.3017">
        <ele>-3.7999999523163</ele>
        <time>2021-08-22T07:44:38.000Z</time>
      </trkpt>
      <trkpt lat="47.25565" lon="-2.30164">
        <ele>-3.4000000953674</ele>
        <time>2021-08-22T07:44:39.000Z</time>
      </trkpt>
      <trkpt lat="47.25565" lon="-2.30157">
        <ele>-3</ele>
        <time>2021-08-22T07:44:40.000Z</time>
      </trkpt>
      <trkpt lat="47.25564" lon="-2.30151">
        <ele>-2.5999999046326</ele>
        <time>2021-08-22T07:44:41.000Z</time>
      </trkpt>
      <trkpt lat="47.25563" lon="-2.30113">
        <ele>-2.5999999046326</ele>
        <time>2021-08-22T07:44:46.000Z</time>
      </trkpt>
      <trkpt lat="47.25567" lon="-2.30099">
        <ele>-2.2000000476837</ele>
        <time>2021-08-22T07:44:48.000Z</time>
      </trkpt>
      <trkpt lat="47.2557" lon="-2.30093">
        <ele>-1.7999999523163</ele>
        <time>2021-08-22T07:44:49.000Z</time>
      </trkpt>
      <trkpt lat="47.25573" lon="-2.30088">
        <ele>-1.3999999761581</ele>
        <time>2021-08-22T07:44:50.000Z</time>
      </trkpt>
      <trkpt lat="47.25577" lon="-2.30083">
        <ele>-1</ele>
        <time>2021-08-22T07:44:51.000Z</time>
      </trkpt>
      <trkpt lat="47.25581" lon="-2.30077">
        <ele>-0.60000002384186</ele>
        <time>2021-08-22T07:44:52.000Z</time>
      </trkpt>
      <trkpt lat="47.256" lon="-2.30054">
        <ele>-0.60000002384186</ele>
        <time>2021-08-22T07:44:56.000Z</time>
      </trkpt>
      <trkpt lat="47.25604" lon="-2.30048">
        <ele>-0.60000002384186</ele>
        <time>2021-08-22T07:44:57.000Z</time>
      </trkpt>
      <trkpt lat="47.25608" lon="-2.30032">
        <ele>-0.60000002384186</ele>
        <time>2021-08-22T07:44:59.000Z</time>
      </trkpt>
      <trkpt lat="47.25605" lon="-2.30009">
        <ele>-0.60000002384186</ele>
        <time>2021-08-22T07:45:02.000Z</time>
      </trkpt>
      <trkpt lat="47.25598" lon="-2.29996">
        <ele>-0.60000002384186</ele>
        <time>2021-08-22T07:45:04.000Z</time>
      </trkpt>
      <trkpt lat="47.25589" lon="-2.2998">
        <ele>-0.60000002384186</ele>
        <time>2021-08-22T07:45:07.000Z</time>
      </trkpt>
      <trkpt lat="47.25583" lon="-2.29969">
        <ele>-0.20000000298023</ele>
        <time>2021-08-22T07:45:09.000Z</time>
      </trkpt>
      <trkpt lat="47.25579" lon="-2.29963">
        <ele>0.20000000298023</ele>
        <time>2021-08-22T07:45:10.000Z</time>
      </trkpt>
      <trkpt lat="47.25576" lon="-2.29957">
        <ele>0.60000002384186</ele>
        <time>2021-08-22T07:45:11.000Z</time>
      </trkpt>
      <trkpt lat="47.25573" lon="-2.29951">
        <ele>1</ele>
        <time>2021-08-22T07:45:12.000Z</time>
      </trkpt>
      <trkpt lat="47.25569" lon="-2.29946">
        <ele>1.3999999761581</ele>
        <time>2021-08-22T07:45:13.000Z</time>
      </trkpt>
      <trkpt lat="47.25547" lon="-2.29909">
        <ele>1.3999999761581</ele>
        <time>2021-08-22T07:45:20.000Z</time>
      </trkpt>
      <trkpt lat="47.25542" lon="-2.29899">
        <ele>1.7999999523163</ele>
        <time>2021-08-22T07:45:22.000Z</time>
      </trkpt>
      <trkpt lat="47.25539" lon="-2.29895">
        <ele>2.2000000476837</ele>
        <time>2021-08-22T07:45:23.000Z</time>
      </trkpt>
      <trkpt lat="47.25537" lon="-2.2989">
        <ele>2.5999999046326</ele>
        <time>2021-08-22T07:45:24.000Z</time>
      </trkpt>
      <trkpt lat="47.25535" lon="-2.29885">
        <ele>3</ele>
        <time>2021-08-22T07:45:25.000Z</time>
      </trkpt>
      <trkpt lat="47.25534" lon="-2.2988">
        <ele>3.4000000953674</ele>
        <time>2021-08-22T07:45:26.000Z</time>
      </trkpt>
      <trkpt lat="47.25535" lon="-2.29874">
        <ele>3.4000000953674</ele>
        <time>2021-08-22T07:45:27.000Z</time>
      </trkpt>
      <trkpt lat="47.2554" lon="-2.29863">
        <ele>3.4000000953674</ele>
        <time>2021-08-22T07:45:29.000Z</time>
      </trkpt>
      <trkpt lat="47.25555" lon="-2.29841">
        <ele>3.4000000953674</ele>
        <time>2021-08-22T07:45:33.000Z</time>
      </trkpt>
      <trkpt lat="47.25559" lon="-2.29835">
        <ele>3.4000000953674</ele>
        <time>2021-08-22T07:45:34.000Z</time>
      </trkpt>
      <trkpt lat="47.25573" lon="-2.29815">
        <ele>3.4000000953674</ele>
        <time>2021-08-22T07:45:38.000Z</time>
      </trkpt>
      <trkpt lat="47.25576" lon="-2.29805">
        <ele>3.4000000953674</ele>
        <time>2021-08-22T07:45:40.000Z</time>
      </trkpt>
      <trkpt lat="47.25574" lon="-2.29793">
        <ele>3</ele>
        <time>2021-08-22T07:45:42.000Z</time>
      </trkpt>
      <trkpt lat="47.25571" lon="-2.29789">
        <ele>2.5999999046326</ele>
        <time>2021-08-22T07:45:43.000Z</time>
      </trkpt>
      <trkpt lat="47.25568" lon="-2.29785">
        <ele>2.2000000476837</ele>
        <time>2021-08-22T07:45:44.000Z</time>
      </trkpt>
      <trkpt lat="47.25565" lon="-2.29781">
        <ele>1.7999999523163</ele>
        <time>2021-08-22T07:45:45.000Z</time>
      </trkpt>
      <trkpt lat="47.25561" lon="-2.29776">
        <ele>1.2000000476837</ele>
        <time>2021-08-22T07:45:46.000Z</time>
      </trkpt>
      <trkpt lat="47.2555" lon="-2.29762">
        <ele>1.2000000476837</ele>
        <time>2021-08-22T07:45:49.000Z</time>
      </trkpt>
      <trkpt lat="47.25532" lon="-2.29743">
        <ele>1.2000000476837</ele>
        <time>2021-08-22T07:45:54.000Z</time>
      </trkpt>
      <trkpt lat="47.2553" lon="-2.2974">
        <ele>1.7999999523163</ele>
        <time>2021-08-22T07:45:55.000Z</time>
      </trkpt>
      <trkpt lat="47.25527" lon="-2.29738">
        <ele>2.2000000476837</ele>
        <time>2021-08-22T07:45:56.000Z</time>
      </trkpt>
      <trkpt lat="47.25525" lon="-2.29736">
        <ele>2.5999999046326</ele>
        <time>2021-08-22T07:45:57.000Z</time>
      </trkpt>
      <trkpt lat="47.25523" lon="-2.29732">
        <ele>3</ele>
        <time>2021-08-22T07:45:58.000Z</time>
      </trkpt>
      <trkpt lat="47.25523" lon="-2.2973">
        <ele>3.4000000953674</ele>
        <time>2021-08-22T07:45:59.000Z</time>
      </trkpt>
      <trkpt lat="47.25529" lon="-2.29725">
        <ele>3.4000000953674</ele>
        <time>2021-08-22T07:46:02.000Z</time>
      </trkpt>
      <trkpt lat="47.25551" lon="-2.29716">
        <ele>3.4000000953674</ele>
        <time>2021-08-22T07:46:07.000Z</time>
      </trkpt>
      <trkpt lat="47.25566" lon="-2.29709">
        <ele>3.4000000953674</ele>
        <time>2021-08-22T07:46:10.000Z</time>
      </trkpt>
      <trkpt lat="47.25578" lon="-2.29706">
        <ele>3.4000000953674</ele>
        <time>2021-08-22T07:46:12.000Z</time>
      </trkpt>
      <trkpt lat="47.25597" lon="-2.29702">
        <ele>3.4000000953674</ele>
        <time>2021-08-22T07:46:15.000Z</time>
      </trkpt>
      <trkpt lat="47.25615" lon="-2.297">
        <ele>3.4000000953674</ele>
        <time>2021-08-22T07:46:18.000Z</time>
      </trkpt>
      <trkpt lat="47.2562" lon="-2.29699">
        <ele>3</ele>
        <time>2021-08-22T07:46:19.000Z</time>
      </trkpt>
      <trkpt lat="47.25626" lon="-2.29698">
        <ele>2.5999999046326</ele>
        <time>2021-08-22T07:46:20.000Z</time>
      </trkpt>
      <trkpt lat="47.25631" lon="-2.29698">
        <ele>2</ele>
        <time>2021-08-22T07:46:21.000Z</time>
      </trkpt>
      <trkpt lat="47.25637" lon="-2.29698">
        <ele>1.6000000238419</ele>
        <time>2021-08-22T07:46:22.000Z</time>
      </trkpt>
      <trkpt lat="47.25642" lon="-2.29697">
        <ele>1.2000000476837</ele>
        <time>2021-08-22T07:46:23.000Z</time>
      </trkpt>
      <trkpt lat="47.25648" lon="-2.29696">
        <ele>1.2000000476837</ele>
        <time>2021-08-22T07:46:24.000Z</time>
      </trkpt>
      <trkpt lat="47.2568" lon="-2.29697">
        <ele>0.80000001192093</ele>
        <time>2021-08-22T07:46:30.000Z</time>
      </trkpt>
      <trkpt lat="47.25685" lon="-2.29697">
        <ele>0.20000000298023</ele>
        <time>2021-08-22T07:46:31.000Z</time>
      </trkpt>
      <trkpt lat="47.25689" lon="-2.29697">
        <ele>-0.60000002384186</ele>
        <time>2021-08-22T07:46:32.000Z</time>
      </trkpt>
      <trkpt lat="47.25695" lon="-2.29696">
        <ele>-1.2000000476837</ele>
        <time>2021-08-22T07:46:33.000Z</time>
      </trkpt>
      <trkpt lat="47.25706" lon="-2.29694">
        <ele>-1.2000000476837</ele>
        <time>2021-08-22T07:46:35.000Z</time>
      </trkpt>
      <trkpt lat="47.25718" lon="-2.2969">
        <ele>-1.2000000476837</ele>
        <time>2021-08-22T07:46:37.000Z</time>
      </trkpt>
      <trkpt lat="47.25738" lon="-2.2968">
        <ele>-1.2000000476837</ele>
        <time>2021-08-22T07:46:40.000Z</time>
      </trkpt>
      <trkpt lat="47.25745" lon="-2.29677">
        <ele>-1.6000000238419</ele>
        <time>2021-08-22T07:46:41.000Z</time>
      </trkpt>
      <trkpt lat="47.25751" lon="-2.29674">
        <ele>-2</ele>
        <time>2021-08-22T07:46:42.000Z</time>
      </trkpt>
      <trkpt lat="47.25757" lon="-2.29672">
        <ele>-2.4000000953674</ele>
        <time>2021-08-22T07:46:43.000Z</time>
      </trkpt>
      <trkpt lat="47.25763" lon="-2.2967">
        <ele>-2.7999999523163</ele>
        <time>2021-08-22T07:46:44.000Z</time>
      </trkpt>
      <trkpt lat="47.25769" lon="-2.29667">
        <ele>-3.2000000476837</ele>
        <time>2021-08-22T07:46:45.000Z</time>
      </trkpt>
      <trkpt lat="47.25775" lon="-2.29665">
        <ele>-3.2000000476837</ele>
        <time>2021-08-22T07:46:46.000Z</time>
      </trkpt>
      <trkpt lat="47.25818" lon="-2.29645">
        <ele>-3.2000000476837</ele>
        <time>2021-08-22T07:46:53.000Z</time>
      </trkpt>
      <trkpt lat="47.25854" lon="-2.29627">
        <ele>-3.2000000476837</ele>
        <time>2021-08-22T07:47:00.000Z</time>
      </trkpt>
      <trkpt lat="47.2588" lon="-2.29614">
        <ele>-3.2000000476837</ele>
        <time>2021-08-22T07:47:06.000Z</time>
      </trkpt>
      <trkpt lat="47.25896" lon="-2.29606">
        <ele>-3.2000000476837</ele>
        <time>2021-08-22T07:47:11.000Z</time>
      </trkpt>
      <trkpt lat="47.25904" lon="-2.2959">
        <ele>-3.2000000476837</ele>
        <time>2021-08-22T07:47:15.000Z</time>
      </trkpt>
      <trkpt lat="47.2591" lon="-2.2955">
        <ele>-3.2000000476837</ele>
        <time>2021-08-22T07:47:21.000Z</time>
      </trkpt>
      <trkpt lat="47.25913" lon="-2.29528">
        <ele>-2.7999999523163</ele>
        <time>2021-08-22T07:47:24.000Z</time>
      </trkpt>
      <trkpt lat="47.25914" lon="-2.29521">
        <ele>-2.4000000953674</ele>
        <time>2021-08-22T07:47:25.000Z</time>
      </trkpt>
      <trkpt lat="47.25916" lon="-2.29514">
        <ele>-2</ele>
        <time>2021-08-22T07:47:26.000Z</time>
      </trkpt>
      <trkpt lat="47.25917" lon="-2.29506">
        <ele>-1.6000000238419</ele>
        <time>2021-08-22T07:47:27.000Z</time>
      </trkpt>
      <trkpt lat="47.25918" lon="-2.29499">
        <ele>-1.2000000476837</ele>
        <time>2021-08-22T07:47:28.000Z</time>
      </trkpt>
      <trkpt lat="47.25919" lon="-2.29492">
        <ele>-1.2000000476837</ele>
        <time>2021-08-22T07:47:29.000Z</time>
      </trkpt>
      <trkpt lat="47.25924" lon="-2.29447">
        <ele>-0.80000001192093</ele>
        <time>2021-08-22T07:47:35.000Z</time>
      </trkpt>
      <trkpt lat="47.25924" lon="-2.2944">
        <ele>-0.40000000596046</ele>
        <time>2021-08-22T07:47:36.000Z</time>
      </trkpt>
      <trkpt lat="47.25925" lon="-2.29432">
        <ele>0.20000000298023</ele>
        <time>2021-08-22T07:47:37.000Z</time>
      </trkpt>
      <trkpt lat="47.25926" lon="-2.29424">
        <ele>0.60000002384186</ele>
        <time>2021-08-22T07:47:38.000Z</time>
      </trkpt>
      <trkpt lat="47.25927" lon="-2.29416">
        <ele>1</ele>
        <time>2021-08-22T07:47:39.000Z</time>
      </trkpt>
      <trkpt lat="47.25931" lon="-2.29378">
        <ele>1.3999999761581</ele>
        <time>2021-08-22T07:47:44.000Z</time>
      </trkpt>
      <trkpt lat="47.25932" lon="-2.29371">
        <ele>1.7999999523163</ele>
        <time>2021-08-22T07:47:45.000Z</time>
      </trkpt>
      <trkpt lat="47.25932" lon="-2.29363">
        <ele>2.5999999046326</ele>
        <time>2021-08-22T07:47:46.000Z</time>
      </trkpt>
      <trkpt lat="47.25933" lon="-2.29356">
        <ele>3</ele>
        <time>2021-08-22T07:47:47.000Z</time>
      </trkpt>
      <trkpt lat="47.25938" lon="-2.29318">
        <ele>3</ele>
        <time>2021-08-22T07:47:52.000Z</time>
      </trkpt>
      <trkpt lat="47.2594" lon="-2.29303">
        <ele>3.4000000953674</ele>
        <time>2021-08-22T07:47:54.000Z</time>
      </trkpt>
      <trkpt lat="47.25941" lon="-2.29295">
        <ele>3.7999999523163</ele>
        <time>2021-08-22T07:47:55.000Z</time>
      </trkpt>
      <trkpt lat="47.25941" lon="-2.29288">
        <ele>4.1999998092651</ele>
        <time>2021-08-22T07:47:56.000Z</time>
      </trkpt>
      <trkpt lat="47.25942" lon="-2.2928">
        <ele>4.5999999046326</ele>
        <time>2021-08-22T07:47:57.000Z</time>
      </trkpt>
      <trkpt lat="47.25943" lon="-2.29273">
        <ele>5</ele>
        <time>2021-08-22T07:47:58.000Z</time>
      </trkpt>
      <trkpt lat="47.25944" lon="-2.29266">
        <ele>5</ele>
        <time>2021-08-22T07:47:59.000Z</time>
      </trkpt>
      <trkpt lat="47.25948" lon="-2.29228">
        <ele>5.5999999046326</ele>
        <time>2021-08-22T07:48:04.000Z</time>
      </trkpt>
      <trkpt lat="47.25949" lon="-2.29221">
        <ele>6</ele>
        <time>2021-08-22T07:48:05.000Z</time>
      </trkpt>
      <trkpt lat="47.25949" lon="-2.29214">
        <ele>6.4000000953674</ele>
        <time>2021-08-22T07:48:06.000Z</time>
      </trkpt>
      <trkpt lat="47.2595" lon="-2.29206">
        <ele>6.8000001907349</ele>
        <time>2021-08-22T07:48:07.000Z</time>
      </trkpt>
      <trkpt lat="47.2595" lon="-2.29199">
        <ele>7.1999998092651</ele>
        <time>2021-08-22T07:48:08.000Z</time>
      </trkpt>
      <trkpt lat="47.25953" lon="-2.29154">
        <ele>7.5999999046326</ele>
        <time>2021-08-22T07:48:14.000Z</time>
      </trkpt>
      <trkpt lat="47.25953" lon="-2.29146">
        <ele>8</ele>
        <time>2021-08-22T07:48:15.000Z</time>
      </trkpt>
      <trkpt lat="47.25953" lon="-2.29139">
        <ele>8.3999996185303</ele>
        <time>2021-08-22T07:48:16.000Z</time>
      </trkpt>
      <trkpt lat="47.25952" lon="-2.29131">
        <ele>8.8000001907349</ele>
        <time>2021-08-22T07:48:17.000Z</time>
      </trkpt>
      <trkpt lat="47.25952" lon="-2.29124">
        <ele>9.1999998092651</ele>
        <time>2021-08-22T07:48:18.000Z</time>
      </trkpt>
      <trkpt lat="47.25952" lon="-2.29078">
        <ele>9.1999998092651</ele>
        <time>2021-08-22T07:48:24.000Z</time>
      </trkpt>
      <trkpt lat="47.25951" lon="-2.29062">
        <ele>9.6000003814697</ele>
        <time>2021-08-22T07:48:26.000Z</time>
      </trkpt>
      <trkpt lat="47.25951" lon="-2.29054">
        <ele>10.199999809265</ele>
        <time>2021-08-22T07:48:27.000Z</time>
      </trkpt>
      <trkpt lat="47.2595" lon="-2.29046">
        <ele>10.60000038147</ele>
        <time>2021-08-22T07:48:28.000Z</time>
      </trkpt>
      <trkpt lat="47.2595" lon="-2.29038">
        <ele>11</ele>
        <time>2021-08-22T07:48:29.000Z</time>
      </trkpt>
      <trkpt lat="47.25949" lon="-2.2903">
        <ele>11.39999961853</ele>
        <time>2021-08-22T07:48:30.000Z</time>
      </trkpt>
      <trkpt lat="47.25947" lon="-2.29008">
        <ele>11.39999961853</ele>
        <time>2021-08-22T07:48:33.000Z</time>
      </trkpt>
      <trkpt lat="47.25941" lon="-2.28953">
        <ele>11.39999961853</ele>
        <time>2021-08-22T07:48:40.000Z</time>
      </trkpt>
      <trkpt lat="47.25939" lon="-2.28929">
        <ele>11.800000190735</ele>
        <time>2021-08-22T07:48:43.000Z</time>
      </trkpt>
      <trkpt lat="47.25938" lon="-2.28921">
        <ele>12.199999809265</ele>
        <time>2021-08-22T07:48:44.000Z</time>
      </trkpt>
      <trkpt lat="47.25937" lon="-2.28913">
        <ele>12.60000038147</ele>
        <time>2021-08-22T07:48:45.000Z</time>
      </trkpt>
      <trkpt lat="47.25937" lon="-2.28905">
        <ele>13.199999809265</ele>
        <time>2021-08-22T07:48:46.000Z</time>
      </trkpt>
      <trkpt lat="47.25936" lon="-2.28897">
        <ele>13.60000038147</ele>
        <time>2021-08-22T07:48:47.000Z</time>
      </trkpt>
      <trkpt lat="47.25934" lon="-2.28882">
        <ele>13.60000038147</ele>
        <time>2021-08-22T07:48:49.000Z</time>
      </trkpt>
      <trkpt lat="47.25931" lon="-2.28838">
        <ele>13.60000038147</ele>
        <time>2021-08-22T07:48:55.000Z</time>
      </trkpt>
      <trkpt lat="47.25927" lon="-2.28817">
        <ele>13.60000038147</ele>
        <time>2021-08-22T07:48:59.000Z</time>
      </trkpt>
      <trkpt lat="47.25924" lon="-2.28816">
        <ele>13.60000038147</ele>
        <time>2021-08-22T07:49:00.000Z</time>
      </trkpt>
      <trkpt lat="47.25914" lon="-2.28829">
        <ele>13.60000038147</ele>
        <time>2021-08-22T07:49:03.000Z</time>
      </trkpt>
      <trkpt lat="47.2591" lon="-2.28835">
        <ele>13.60000038147</ele>
        <time>2021-08-22T07:49:04.000Z</time>
      </trkpt>
      <trkpt lat="47.25906" lon="-2.2884">
        <ele>13.60000038147</ele>
        <time>2021-08-22T07:49:05.000Z</time>
      </trkpt>
      <trkpt lat="47.2589" lon="-2.28854">
        <ele>13.60000038147</ele>
        <time>2021-08-22T07:49:08.000Z</time>
      </trkpt>
      <trkpt lat="47.25878" lon="-2.28859">
        <ele>13.60000038147</ele>
        <time>2021-08-22T07:49:10.000Z</time>
      </trkpt>
      <trkpt lat="47.25859" lon="-2.28864">
        <ele>13.60000038147</ele>
        <time>2021-08-22T07:49:13.000Z</time>
      </trkpt>
      <trkpt lat="47.25813" lon="-2.28876">
        <ele>13.60000038147</ele>
        <time>2021-08-22T07:49:21.000Z</time>
      </trkpt>
      <trkpt lat="47.25775" lon="-2.28887">
        <ele>13.60000038147</ele>
        <time>2021-08-22T07:49:28.000Z</time>
      </trkpt>
      <trkpt lat="47.25759" lon="-2.28891">
        <ele>13.60000038147</ele>
        <time>2021-08-22T07:49:31.000Z</time>
      </trkpt>
      <trkpt lat="47.25747" lon="-2.28896">
        <ele>13.60000038147</ele>
        <time>2021-08-22T07:49:33.000Z</time>
      </trkpt>
      <trkpt lat="47.25734" lon="-2.28901">
        <ele>13.199999809265</ele>
        <time>2021-08-22T07:49:35.000Z</time>
      </trkpt>
      <trkpt lat="47.25728" lon="-2.28904">
        <ele>12.60000038147</ele>
        <time>2021-08-22T07:49:36.000Z</time>
      </trkpt>
      <trkpt lat="47.25723" lon="-2.28908">
        <ele>12.199999809265</ele>
        <time>2021-08-22T07:49:37.000Z</time>
      </trkpt>
      <trkpt lat="47.25719" lon="-2.28914">
        <ele>11.800000190735</ele>
        <time>2021-08-22T07:49:38.000Z</time>
      </trkpt>
      <trkpt lat="47.25717" lon="-2.2892">
        <ele>11.39999961853</ele>
        <time>2021-08-22T07:49:39.000Z</time>
      </trkpt>
      <trkpt lat="47.25715" lon="-2.28938">
        <ele>11.39999961853</ele>
        <time>2021-08-22T07:49:41.000Z</time>
      </trkpt>
      <trkpt lat="47.25711" lon="-2.28965">
        <ele>11.39999961853</ele>
        <time>2021-08-22T07:49:44.000Z</time>
      </trkpt>
      <trkpt lat="47.25704" lon="-2.28978">
        <ele>11.39999961853</ele>
        <time>2021-08-22T07:49:46.000Z</time>
      </trkpt>
      <trkpt lat="47.25686" lon="-2.28989">
        <ele>11</ele>
        <time>2021-08-22T07:49:49.000Z</time>
      </trkpt>
      <trkpt lat="47.2568" lon="-2.28992">
        <ele>10.199999809265</ele>
        <time>2021-08-22T07:49:50.000Z</time>
      </trkpt>
      <trkpt lat="47.25673" lon="-2.28993">
        <ele>9.8000001907349</ele>
        <time>2021-08-22T07:49:51.000Z</time>
      </trkpt>
      <trkpt lat="47.25666" lon="-2.28994">
        <ele>9.3999996185303</ele>
        <time>2021-08-22T07:49:52.000Z</time>
      </trkpt>
      <trkpt lat="47.25658" lon="-2.28994">
        <ele>9.3999996185303</ele>
        <time>2021-08-22T07:49:53.000Z</time>
      </trkpt>
      <trkpt lat="47.25642" lon="-2.28988">
        <ele>9.3999996185303</ele>
        <time>2021-08-22T07:49:55.000Z</time>
      </trkpt>
      <trkpt lat="47.25627" lon="-2.28981">
        <ele>9.3999996185303</ele>
        <time>2021-08-22T07:49:57.000Z</time>
      </trkpt>
      <trkpt lat="47.25612" lon="-2.28976">
        <ele>8.8000001907349</ele>
        <time>2021-08-22T07:49:59.000Z</time>
      </trkpt>
      <trkpt lat="47.25606" lon="-2.28974">
        <ele>8.3999996185303</ele>
        <time>2021-08-22T07:50:00.000Z</time>
      </trkpt>
      <trkpt lat="47.256" lon="-2.28974">
        <ele>8</ele>
        <time>2021-08-22T07:50:01.000Z</time>
      </trkpt>
      <trkpt lat="47.25593" lon="-2.28977">
        <ele>7.4000000953674</ele>
        <time>2021-08-22T07:50:02.000Z</time>
      </trkpt>
      <trkpt lat="47.25588" lon="-2.28981">
        <ele>7</ele>
        <time>2021-08-22T07:50:03.000Z</time>
      </trkpt>
      <trkpt lat="47.25582" lon="-2.28985">
        <ele>7</ele>
        <time>2021-08-22T07:50:04.000Z</time>
      </trkpt>
      <trkpt lat="47.25577" lon="-2.28989">
        <ele>7</ele>
        <time>2021-08-22T07:50:05.000Z</time>
      </trkpt>
      <trkpt lat="47.25571" lon="-2.28993">
        <ele>7</ele>
        <time>2021-08-22T07:50:06.000Z</time>
      </trkpt>
      <trkpt lat="47.25553" lon="-2.29002">
        <ele>7</ele>
        <time>2021-08-22T07:50:09.000Z</time>
      </trkpt>
      <trkpt lat="47.25548" lon="-2.29006">
        <ele>7</ele>
        <time>2021-08-22T07:50:10.000Z</time>
      </trkpt>
      <trkpt lat="47.25541" lon="-2.29018">
        <ele>7</ele>
        <time>2021-08-22T07:50:12.000Z</time>
      </trkpt>
      <trkpt lat="47.25539" lon="-2.29043">
        <ele>7</ele>
        <time>2021-08-22T07:50:15.000Z</time>
      </trkpt>
      <trkpt lat="47.25541" lon="-2.29062">
        <ele>7</ele>
        <time>2021-08-22T07:50:17.000Z</time>
      </trkpt>
      <trkpt lat="47.25543" lon="-2.29081">
        <ele>7</ele>
        <time>2021-08-22T07:50:19.000Z</time>
      </trkpt>
      <trkpt lat="47.25541" lon="-2.2909">
        <ele>7</ele>
        <time>2021-08-22T07:50:20.000Z</time>
      </trkpt>
      <trkpt lat="47.25529" lon="-2.2911">
        <ele>7</ele>
        <time>2021-08-22T07:50:23.000Z</time>
      </trkpt>
      <trkpt lat="47.25517" lon="-2.29116">
        <ele>7</ele>
        <time>2021-08-22T07:50:25.000Z</time>
      </trkpt>
      <trkpt lat="47.25504" lon="-2.2912">
        <ele>7</ele>
        <time>2021-08-22T07:50:27.000Z</time>
      </trkpt>
      <trkpt lat="47.25474" lon="-2.29134">
        <ele>7</ele>
        <time>2021-08-22T07:50:32.000Z</time>
      </trkpt>
      <trkpt lat="47.25468" lon="-2.29138">
        <ele>7.4000000953674</ele>
        <time>2021-08-22T07:50:33.000Z</time>
      </trkpt>
      <trkpt lat="47.25462" lon="-2.29141">
        <ele>7.8000001907349</ele>
        <time>2021-08-22T07:50:34.000Z</time>
      </trkpt>
      <trkpt lat="47.25457" lon="-2.29146">
        <ele>8.1999998092651</ele>
        <time>2021-08-22T07:50:35.000Z</time>
      </trkpt>
      <trkpt lat="47.25452" lon="-2.29152">
        <ele>8.6000003814697</ele>
        <time>2021-08-22T07:50:36.000Z</time>
      </trkpt>
      <trkpt lat="47.25447" lon="-2.29158">
        <ele>9.1999998092651</ele>
        <time>2021-08-22T07:50:37.000Z</time>
      </trkpt>
      <trkpt lat="47.25421" lon="-2.29185">
        <ele>9.1999998092651</ele>
        <time>2021-08-22T07:50:42.000Z</time>
      </trkpt>
      <trkpt lat="47.25399" lon="-2.292">
        <ele>9.1999998092651</ele>
        <time>2021-08-22T07:50:46.000Z</time>
      </trkpt>
      <trkpt lat="47.25395" lon="-2.29205">
        <ele>9.1999998092651</ele>
        <time>2021-08-22T07:50:47.000Z</time>
      </trkpt>
      <trkpt lat="47.25377" lon="-2.29232">
        <ele>9.1999998092651</ele>
        <time>2021-08-22T07:50:52.000Z</time>
      </trkpt>
      <trkpt lat="47.25371" lon="-2.29246">
        <ele>9.1999998092651</ele>
        <time>2021-08-22T07:50:54.000Z</time>
      </trkpt>
      <trkpt lat="47.25366" lon="-2.29261">
        <ele>9.1999998092651</ele>
        <time>2021-08-22T07:50:56.000Z</time>
      </trkpt>
      <trkpt lat="47.25364" lon="-2.29277">
        <ele>9.1999998092651</ele>
        <time>2021-08-22T07:50:58.000Z</time>
      </trkpt>
      <trkpt lat="47.2536" lon="-2.29302">
        <ele>9.1999998092651</ele>
        <time>2021-08-22T07:51:01.000Z</time>
      </trkpt>
      <trkpt lat="47.25355" lon="-2.29334">
        <ele>9.6000003814697</ele>
        <time>2021-08-22T07:51:05.000Z</time>
      </trkpt>
      <trkpt lat="47.25355" lon="-2.29342">
        <ele>10</ele>
        <time>2021-08-22T07:51:06.000Z</time>
      </trkpt>
      <trkpt lat="47.25354" lon="-2.29349">
        <ele>10.39999961853</ele>
        <time>2021-08-22T07:51:07.000Z</time>
      </trkpt>
      <trkpt lat="47.25352" lon="-2.29357">
        <ele>10.800000190735</ele>
        <time>2021-08-22T07:51:08.000Z</time>
      </trkpt>
      <trkpt lat="47.25351" lon="-2.29364">
        <ele>11.199999809265</ele>
        <time>2021-08-22T07:51:09.000Z</time>
      </trkpt>
      <trkpt lat="47.25345" lon="-2.29388">
        <ele>11.199999809265</ele>
        <time>2021-08-22T07:51:12.000Z</time>
      </trkpt>
      <trkpt lat="47.25344" lon="-2.29397">
        <ele>11.199999809265</ele>
        <time>2021-08-22T07:51:13.000Z</time>
      </trkpt>
      <trkpt lat="47.25344" lon="-2.29421">
        <ele>11.199999809265</ele>
        <time>2021-08-22T07:51:16.000Z</time>
      </trkpt>
      <trkpt lat="47.25344" lon="-2.2943">
        <ele>11.199999809265</ele>
        <time>2021-08-22T07:51:17.000Z</time>
      </trkpt>
      <trkpt lat="47.25342" lon="-2.29479">
        <ele>11.199999809265</ele>
        <time>2021-08-22T07:51:23.000Z</time>
      </trkpt>
      <trkpt lat="47.2534" lon="-2.29487">
        <ele>11.199999809265</ele>
        <time>2021-08-22T07:51:24.000Z</time>
      </trkpt>
      <trkpt lat="47.25331" lon="-2.29508">
        <ele>11.199999809265</ele>
        <time>2021-08-22T07:51:27.000Z</time>
      </trkpt>
      <trkpt lat="47.25312" lon="-2.29527">
        <ele>11.199999809265</ele>
        <time>2021-08-22T07:51:31.000Z</time>
      </trkpt>
      <trkpt lat="47.253" lon="-2.29531">
        <ele>11.199999809265</ele>
        <time>2021-08-22T07:51:33.000Z</time>
      </trkpt>
      <trkpt lat="47.25282" lon="-2.29537">
        <ele>11.199999809265</ele>
        <time>2021-08-22T07:51:36.000Z</time>
      </trkpt>
      <trkpt lat="47.25265" lon="-2.29547">
        <ele>11.199999809265</ele>
        <time>2021-08-22T07:51:39.000Z</time>
      </trkpt>
      <trkpt lat="47.25248" lon="-2.2956">
        <ele>11.199999809265</ele>
        <time>2021-08-22T07:51:42.000Z</time>
      </trkpt>
      <trkpt lat="47.2522" lon="-2.29579">
        <ele>11.199999809265</ele>
        <time>2021-08-22T07:51:47.000Z</time>
      </trkpt>
      <trkpt lat="47.25209" lon="-2.29585">
        <ele>11.199999809265</ele>
        <time>2021-08-22T07:51:49.000Z</time>
      </trkpt>
      <trkpt lat="47.25201" lon="-2.29605">
        <ele>11.199999809265</ele>
        <time>2021-08-22T07:51:52.000Z</time>
      </trkpt>
      <trkpt lat="47.25188" lon="-2.29633">
        <ele>11.199999809265</ele>
        <time>2021-08-22T07:51:56.000Z</time>
      </trkpt>
      <trkpt lat="47.25185" lon="-2.29658">
        <ele>11.199999809265</ele>
        <time>2021-08-22T07:51:59.000Z</time>
      </trkpt>
      <trkpt lat="47.25189" lon="-2.29692">
        <ele>11.199999809265</ele>
        <time>2021-08-22T07:52:03.000Z</time>
      </trkpt>
      <trkpt lat="47.2519" lon="-2.29701">
        <ele>11.199999809265</ele>
        <time>2021-08-22T07:52:04.000Z</time>
      </trkpt>
      <trkpt lat="47.25191" lon="-2.2974">
        <ele>10.60000038147</ele>
        <time>2021-08-22T07:52:09.000Z</time>
      </trkpt>
      <trkpt lat="47.2519" lon="-2.29745">
        <ele>10.199999809265</ele>
        <time>2021-08-22T07:52:10.000Z</time>
      </trkpt>
      <trkpt lat="47.25188" lon="-2.29748">
        <ele>9.8000001907349</ele>
        <time>2021-08-22T07:52:11.000Z</time>
      </trkpt>
      <trkpt lat="47.25185" lon="-2.2975">
        <ele>9.3999996185303</ele>
        <time>2021-08-22T07:52:12.000Z</time>
      </trkpt>
      <trkpt lat="47.25181" lon="-2.2975">
        <ele>8.8000001907349</ele>
        <time>2021-08-22T07:52:13.000Z</time>
      </trkpt>
      <trkpt lat="47.25171" lon="-2.29746">
        <ele>8.8000001907349</ele>
        <time>2021-08-22T07:52:15.000Z</time>
      </trkpt>
      <trkpt lat="47.25161" lon="-2.29741">
        <ele>8.8000001907349</ele>
        <time>2021-08-22T07:52:17.000Z</time>
      </trkpt>
      <trkpt lat="47.25124" lon="-2.29725">
        <ele>8.8000001907349</ele>
        <time>2021-08-22T07:52:23.000Z</time>
      </trkpt>
      <trkpt lat="47.25093" lon="-2.29715">
        <ele>8.8000001907349</ele>
        <time>2021-08-22T07:52:28.000Z</time>
      </trkpt>
      <trkpt lat="47.25088" lon="-2.29714">
        <ele>8.8000001907349</ele>
        <time>2021-08-22T07:52:29.000Z</time>
      </trkpt>
      <trkpt lat="47.25073" lon="-2.29712">
        <ele>8.8000001907349</ele>
        <time>2021-08-22T07:52:32.000Z</time>
      </trkpt>
      <trkpt lat="47.25069" lon="-2.29712">
        <ele>8.8000001907349</ele>
        <time>2021-08-22T07:52:33.000Z</time>
      </trkpt>
      <trkpt lat="47.25064" lon="-2.29712">
        <ele>8.8000001907349</ele>
        <time>2021-08-22T07:52:34.000Z</time>
      </trkpt>
      <trkpt lat="47.25022" lon="-2.29721">
        <ele>8.8000001907349</ele>
        <time>2021-08-22T07:52:41.000Z</time>
      </trkpt>
      <trkpt lat="47.24987" lon="-2.29729">
        <ele>8.8000001907349</ele>
        <time>2021-08-22T07:52:47.000Z</time>
      </trkpt>
      <trkpt lat="47.24981" lon="-2.2973">
        <ele>9.1999998092651</ele>
        <time>2021-08-22T07:52:48.000Z</time>
      </trkpt>
      <trkpt lat="47.24976" lon="-2.29732">
        <ele>9.6000003814697</ele>
        <time>2021-08-22T07:52:49.000Z</time>
      </trkpt>
      <trkpt lat="47.24971" lon="-2.29733">
        <ele>10.199999809265</ele>
        <time>2021-08-22T07:52:50.000Z</time>
      </trkpt>
      <trkpt lat="47.24966" lon="-2.29735">
        <ele>10.60000038147</ele>
        <time>2021-08-22T07:52:51.000Z</time>
      </trkpt>
      <trkpt lat="47.24961" lon="-2.29736">
        <ele>11</ele>
        <time>2021-08-22T07:52:52.000Z</time>
      </trkpt>
      <trkpt lat="47.24941" lon="-2.29744">
        <ele>11</ele>
        <time>2021-08-22T07:52:56.000Z</time>
      </trkpt>
      <trkpt lat="47.24901" lon="-2.2976">
        <ele>11</ele>
        <time>2021-08-22T07:53:04.000Z</time>
      </trkpt>
      <trkpt lat="47.24878" lon="-2.29775">
        <ele>11</ele>
        <time>2021-08-22T07:53:09.000Z</time>
      </trkpt>
      <trkpt lat="47.24874" lon="-2.2978">
        <ele>11</ele>
        <time>2021-08-22T07:53:10.000Z</time>
      </trkpt>
      <trkpt lat="47.24866" lon="-2.29809">
        <ele>11</ele>
        <time>2021-08-22T07:53:14.000Z</time>
      </trkpt>
      <trkpt lat="47.24855" lon="-2.29835">
        <ele>11</ele>
        <time>2021-08-22T07:53:18.000Z</time>
      </trkpt>
      <trkpt lat="47.24835" lon="-2.29847">
        <ele>11</ele>
        <time>2021-08-22T07:53:22.000Z</time>
      </trkpt>
      <trkpt lat="47.24806" lon="-2.29855">
        <ele>11</ele>
        <time>2021-08-22T07:53:27.000Z</time>
      </trkpt>
      <trkpt lat="47.2478" lon="-2.29871">
        <ele>11</ele>
        <time>2021-08-22T07:53:31.000Z</time>
      </trkpt>
      <trkpt lat="47.24774" lon="-2.29875">
        <ele>11</ele>
        <time>2021-08-22T07:53:32.000Z</time>
      </trkpt>
      <trkpt lat="47.24749" lon="-2.29896">
        <ele>11</ele>
        <time>2021-08-22T07:53:37.000Z</time>
      </trkpt>
      <trkpt lat="47.24747" lon="-2.29918">
        <ele>11</ele>
        <time>2021-08-22T07:53:40.000Z</time>
      </trkpt>
      <trkpt lat="47.24747" lon="-2.29925">
        <ele>11</ele>
        <time>2021-08-22T07:53:41.000Z</time>
      </trkpt>
      <trkpt lat="47.24744" lon="-2.29976">
        <ele>11</ele>
        <time>2021-08-22T07:53:48.000Z</time>
      </trkpt>
      <trkpt lat="47.24738" lon="-2.29997">
        <ele>11</ele>
        <time>2021-08-22T07:53:51.000Z</time>
      </trkpt>
      <trkpt lat="47.24735" lon="-2.30003">
        <ele>10.60000038147</ele>
        <time>2021-08-22T07:53:52.000Z</time>
      </trkpt>
      <trkpt lat="47.24732" lon="-2.30008">
        <ele>10.199999809265</ele>
        <time>2021-08-22T07:53:53.000Z</time>
      </trkpt>
      <trkpt lat="47.24728" lon="-2.30014">
        <ele>9.8000001907349</ele>
        <time>2021-08-22T07:53:54.000Z</time>
      </trkpt>
      <trkpt lat="47.24724" lon="-2.30019">
        <ele>9.3999996185303</ele>
        <time>2021-08-22T07:53:55.000Z</time>
      </trkpt>
      <trkpt lat="47.2472" lon="-2.30025">
        <ele>9</ele>
        <time>2021-08-22T07:53:56.000Z</time>
      </trkpt>
      <trkpt lat="47.24711" lon="-2.30034">
        <ele>9</ele>
        <time>2021-08-22T07:53:58.000Z</time>
      </trkpt>
      <trkpt lat="47.24707" lon="-2.30038">
        <ele>9</ele>
        <time>2021-08-22T07:53:59.000Z</time>
      </trkpt>
      <trkpt lat="47.24702" lon="-2.30042">
        <ele>9</ele>
        <time>2021-08-22T07:54:00.000Z</time>
      </trkpt>
      <trkpt lat="47.24677" lon="-2.3006">
        <ele>9</ele>
        <time>2021-08-22T07:54:05.000Z</time>
      </trkpt>
      <trkpt lat="47.24655" lon="-2.30078">
        <ele>8.6000003814697</ele>
        <time>2021-08-22T07:54:10.000Z</time>
      </trkpt>
      <trkpt lat="47.24652" lon="-2.30081">
        <ele>8.1999998092651</ele>
        <time>2021-08-22T07:54:11.000Z</time>
      </trkpt>
      <trkpt lat="47.24649" lon="-2.30083">
        <ele>7.8000001907349</ele>
        <time>2021-08-22T07:54:12.000Z</time>
      </trkpt>
      <trkpt lat="47.24646" lon="-2.30086">
        <ele>7.4000000953674</ele>
        <time>2021-08-22T07:54:13.000Z</time>
      </trkpt>
      <trkpt lat="47.24643" lon="-2.30088">
        <ele>7</ele>
        <time>2021-08-22T07:54:14.000Z</time>
      </trkpt>
      <trkpt lat="47.24634" lon="-2.30097">
        <ele>7</ele>
        <time>2021-08-22T07:54:17.000Z</time>
      </trkpt>
      <trkpt lat="47.24616" lon="-2.30112">
        <ele>7</ele>
        <time>2021-08-22T07:54:22.000Z</time>
      </trkpt>
      <trkpt lat="47.24592" lon="-2.30142">
        <ele>7</ele>
        <time>2021-08-22T07:54:28.000Z</time>
      </trkpt>
      <trkpt lat="47.24565" lon="-2.30186">
        <ele>7</ele>
        <time>2021-08-22T07:54:35.000Z</time>
      </trkpt>
      <trkpt lat="47.24539" lon="-2.30217">
        <ele>7</ele>
        <time>2021-08-22T07:54:41.000Z</time>
      </trkpt>
      <trkpt lat="47.2452" lon="-2.30235">
        <ele>6</ele>
        <time>2021-08-22T07:54:45.000Z</time>
      </trkpt>
      <trkpt lat="47.24515" lon="-2.30239">
        <ele>5.5999999046326</ele>
        <time>2021-08-22T07:54:46.000Z</time>
      </trkpt>
      <trkpt lat="47.24509" lon="-2.30244">
        <ele>5.1999998092651</ele>
        <time>2021-08-22T07:54:47.000Z</time>
      </trkpt>
      <trkpt lat="47.24503" lon="-2.30247">
        <ele>4.8000001907349</ele>
        <time>2021-08-22T07:54:48.000Z</time>
      </trkpt>
      <trkpt lat="47.24488" lon="-2.30244">
        <ele>4.8000001907349</ele>
        <time>2021-08-22T07:54:51.000Z</time>
      </trkpt>
      <trkpt lat="47.24478" lon="-2.30224">
        <ele>4.8000001907349</ele>
        <time>2021-08-22T07:54:54.000Z</time>
      </trkpt>
      <trkpt lat="47.24466" lon="-2.30197">
        <ele>4.8000001907349</ele>
        <time>2021-08-22T07:54:58.000Z</time>
      </trkpt>
      <trkpt lat="47.24458" lon="-2.30189">
        <ele>4.8000001907349</ele>
        <time>2021-08-22T07:55:00.000Z</time>
      </trkpt>
      <trkpt lat="47.24449" lon="-2.30182">
        <ele>4.8000001907349</ele>
        <time>2021-08-22T07:55:02.000Z</time>
      </trkpt>
      <trkpt lat="47.24443" lon="-2.3017">
        <ele>4.8000001907349</ele>
        <time>2021-08-22T07:55:04.000Z</time>
      </trkpt>
      <trkpt lat="47.24434" lon="-2.30153">
        <ele>4.8000001907349</ele>
        <time>2021-08-22T07:55:07.000Z</time>
      </trkpt>
      <trkpt lat="47.24426" lon="-2.30146">
        <ele>4.8000001907349</ele>
        <time>2021-08-22T07:55:09.000Z</time>
      </trkpt>
      <trkpt lat="47.24416" lon="-2.30141">
        <ele>4.8000001907349</ele>
        <time>2021-08-22T07:55:11.000Z</time>
      </trkpt>
      <trkpt lat="47.24411" lon="-2.30138">
        <ele>4.8000001907349</ele>
        <time>2021-08-22T07:55:12.000Z</time>
      </trkpt>
      <trkpt lat="47.24403" lon="-2.30126">
        <ele>4.8000001907349</ele>
        <time>2021-08-22T07:55:14.000Z</time>
      </trkpt>
      <trkpt lat="47.24397" lon="-2.30112">
        <ele>4.8000001907349</ele>
        <time>2021-08-22T07:55:16.000Z</time>
      </trkpt>
      <trkpt lat="47.24388" lon="-2.30093">
        <ele>4.8000001907349</ele>
        <time>2021-08-22T07:55:19.000Z</time>
      </trkpt>
      <trkpt lat="47.24374" lon="-2.30087">
        <ele>4.8000001907349</ele>
        <time>2021-08-22T07:55:22.000Z</time>
      </trkpt>
      <trkpt lat="47.24359" lon="-2.30099">
        <ele>4.8000001907349</ele>
        <time>2021-08-22T07:55:25.000Z</time>
      </trkpt>
      <trkpt lat="47.24355" lon="-2.30105">
        <ele>4.8000001907349</ele>
        <time>2021-08-22T07:55:26.000Z</time>
      </trkpt>
      <trkpt lat="47.2435" lon="-2.30109">
        <ele>4.8000001907349</ele>
        <time>2021-08-22T07:55:27.000Z</time>
      </trkpt>
      <trkpt lat="47.24332" lon="-2.30126">
        <ele>4.8000001907349</ele>
        <time>2021-08-22T07:55:31.000Z</time>
      </trkpt>
      <trkpt lat="47.24318" lon="-2.30127">
        <ele>4.8000001907349</ele>
        <time>2021-08-22T07:55:34.000Z</time>
      </trkpt>
      <trkpt lat="47.24313" lon="-2.30125">
        <ele>4.8000001907349</ele>
        <time>2021-08-22T07:55:35.000Z</time>
      </trkpt>
      <trkpt lat="47.24309" lon="-2.30122">
        <ele>4.8000001907349</ele>
        <time>2021-08-22T07:55:36.000Z</time>
      </trkpt>
      <trkpt lat="47.24304" lon="-2.30119">
        <ele>4.4000000953674</ele>
        <time>2021-08-22T07:55:37.000Z</time>
      </trkpt>
      <trkpt lat="47.24299" lon="-2.30117">
        <ele>4</ele>
        <time>2021-08-22T07:55:38.000Z</time>
      </trkpt>
      <trkpt lat="47.24294" lon="-2.30116">
        <ele>3.5999999046326</ele>
        <time>2021-08-22T07:55:39.000Z</time>
      </trkpt>
      <trkpt lat="47.24288" lon="-2.30117">
        <ele>3</ele>
        <time>2021-08-22T07:55:40.000Z</time>
      </trkpt>
      <trkpt lat="47.24283" lon="-2.3012">
        <ele>2.5999999046326</ele>
        <time>2021-08-22T07:55:41.000Z</time>
      </trkpt>
      <trkpt lat="47.24279" lon="-2.30124">
        <ele>2.5999999046326</ele>
        <time>2021-08-22T07:55:42.000Z</time>
      </trkpt>
      <trkpt lat="47.24269" lon="-2.30134">
        <ele>2.5999999046326</ele>
        <time>2021-08-22T07:55:44.000Z</time>
      </trkpt>
      <trkpt lat="47.24255" lon="-2.30151">
        <ele>2.5999999046326</ele>
        <time>2021-08-22T07:55:47.000Z</time>
      </trkpt>
      <trkpt lat="47.24245" lon="-2.30165">
        <ele>2.5999999046326</ele>
        <time>2021-08-22T07:55:49.000Z</time>
      </trkpt>
      <trkpt lat="47.24238" lon="-2.30182">
        <ele>2.2000000476837</ele>
        <time>2021-08-22T07:55:51.000Z</time>
      </trkpt>
      <trkpt lat="47.24235" lon="-2.3019">
        <ele>1.7999999523163</ele>
        <time>2021-08-22T07:55:52.000Z</time>
      </trkpt>
      <trkpt lat="47.24232" lon="-2.30198">
        <ele>1.3999999761581</ele>
        <time>2021-08-22T07:55:53.000Z</time>
      </trkpt>
      <trkpt lat="47.24228" lon="-2.30206">
        <ele>1</ele>
        <time>2021-08-22T07:55:54.000Z</time>
      </trkpt>
      <trkpt lat="47.24224" lon="-2.30212">
        <ele>0.60000002384186</ele>
        <time>2021-08-22T07:55:55.000Z</time>
      </trkpt>
      <trkpt lat="47.24219" lon="-2.30216">
        <ele>0.60000002384186</ele>
        <time>2021-08-22T07:55:56.000Z</time>
      </trkpt>
      <trkpt lat="47.24214" lon="-2.3022">
        <ele>25.4</ele>
        <time>2021-08-22T07:55:57.000Z</time>
      </trkpt>
      <trkpt lat="47.24207" lon="-2.30224">
        <ele>-0.40000000596046</ele>
        <time>2021-08-22T07:55:58.000Z</time>
      </trkpt>
      <trkpt lat="47.24201" lon="-2.30227">
        <ele>-1.2000000476837</ele>
        <time>2021-08-22T07:55:59.000Z</time>
      </trkpt>
      <trkpt lat="47.24196" lon="-2.30229">
        <ele>-1.6000000238419</ele>
        <time>2021-08-22T07:56:00.000Z</time>
      </trkpt>
      <trkpt lat="47.24192" lon="-2.30232">
        <ele>-2.2000000476837</ele>
        <time>2021-08-22T07:56:01.000Z</time>
      </trkpt>
      <trkpt lat="47.2419" lon="-2.30236">
        <ele>-2.7999999523163</ele>
        <time>2021-08-22T07:56:02.000Z</time>
      </trkpt>
      <trkpt lat="47.24189" lon="-2.30242">
        <ele>-3.2000000476837</ele>
        <time>2021-08-22T07:56:03.000Z</time>
      </trkpt>
      <trkpt lat="47.2419" lon="-2.30248">
        <ele>-3.7999999523163</ele>
        <time>2021-08-22T07:56:04.000Z</time>
      </trkpt>
      <trkpt lat="47.24191" lon="-2.30254">
        <ele>-4.4000000953674</ele>
        <time>2021-08-22T07:56:05.000Z</time>
      </trkpt>
      <trkpt lat="47.24193" lon="-2.30261">
        <ele>-4.8000001907349</ele>
        <time>2021-08-22T07:56:06.000Z</time>
      </trkpt>
      <trkpt lat="47.24194" lon="-2.30269">
        <ele>-5.4000000953674</ele>
        <time>2021-08-22T07:56:07.000Z</time>
      </trkpt>
      <trkpt lat="47.24195" lon="-2.30276">
        <ele>-5.8000001907349</ele>
        <time>2021-08-22T07:56:08.000Z</time>
      </trkpt>
      <trkpt lat="47.24197" lon="-2.30284">
        <ele>-6.4000000953674</ele>
        <time>2021-08-22T07:56:09.000Z</time>
      </trkpt>
      <trkpt lat="47.24204" lon="-2.30325">
        <ele>-6.4000000953674</ele>
        <time>2021-08-22T07:56:15.000Z</time>
      </trkpt>
      <trkpt lat="47.24211" lon="-2.30332">
        <ele>-6.4000000953674</ele>
        <time>2021-08-22T07:56:18.000Z</time>
      </trkpt>
      <trkpt lat="47.24217" lon="-2.3033">
        <ele>-6</ele>
        <time>2021-08-22T07:56:20.000Z</time>
      </trkpt>
      <trkpt lat="47.2422" lon="-2.3033">
        <ele>-5.5999999046326</ele>
        <time>2021-08-22T07:56:21.000Z</time>
      </trkpt>
      <trkpt lat="47.24223" lon="-2.3033">
        <ele>-5.1999998092651</ele>
        <time>2021-08-22T07:56:22.000Z</time>
      </trkpt>
      <trkpt lat="47.24225" lon="-2.30329">
        <ele>-4.5999999046326</ele>
        <time>2021-08-22T07:56:23.000Z</time>
      </trkpt>
      <trkpt lat="47.24228" lon="-2.30328">
        <ele>-3.7999999523163</ele>
        <time>2021-08-22T07:56:24.000Z</time>
      </trkpt>
      <trkpt lat="47.24229" lon="-2.30327">
        <ele>-3.4000000953674</ele>
        <time>2021-08-22T07:56:25.000Z</time>
      </trkpt>
      <trkpt lat="47.2423" lon="-2.30326">
        <ele>-3</ele>
        <time>2021-08-22T07:56:26.000Z</time>
      </trkpt>
      <trkpt lat="47.2423" lon="-2.30326">
        <ele>-2.5999999046326</ele>
        <time>2021-08-22T07:56:27.000Z</time>
      </trkpt>
      <trkpt lat="47.2423" lon="-2.30325">
        <ele>-2.2000000476837</ele>
        <time>2021-08-22T07:56:28.000Z</time>
      </trkpt>
      <trkpt lat="47.2423" lon="-2.30324">
        <ele>-2.2000000476837</ele>
        <time>2021-08-22T07:56:29.000Z</time>
      </trkpt>
      <trkpt lat="47.24233" lon="-2.30324">
        <ele>-2.2000000476837</ele>
        <time>2021-08-22T07:56:38.000Z</time>
      </trkpt>
      <trkpt lat="47.24238" lon="-2.30328">
        <ele>-2.2000000476837</ele>
        <time>2021-08-22T07:56:40.000Z</time>
      </trkpt>
      <trkpt lat="47.24253" lon="-2.30351">
        <ele>-2.2000000476837</ele>
        <time>2021-08-22T07:56:46.000Z</time>
      </trkpt>
      <trkpt lat="47.24255" lon="-2.30354">
        <ele>-1.7999999523163</ele>
        <time>2021-08-22T07:56:47.000Z</time>
      </trkpt>
      <trkpt lat="47.24258" lon="-2.30358">
        <ele>-1</ele>
        <time>2021-08-22T07:56:48.000Z</time>
      </trkpt>
      <trkpt lat="47.2426" lon="-2.30363">
        <ele>-0.40000000596046</ele>
        <time>2021-08-22T07:56:49.000Z</time>
      </trkpt>
      <trkpt lat="47.24263" lon="-2.30367">
        <ele>29.2</ele>
        <time>2021-08-22T07:56:50.000Z</time>
      </trkpt>
      <trkpt lat="47.24268" lon="-2.30376">
        <ele>29.2</ele>
        <time>2021-08-22T07:56:52.000Z</time>
      </trkpt>
      <trkpt lat="47.24284" lon="-2.30401">
        <ele>28.9</ele>
        <time>2021-08-22T07:56:58.000Z</time>
      </trkpt>
      <trkpt lat="47.24302" lon="-2.30419">
        <ele>28.6</ele>
        <time>2021-08-22T07:57:04.000Z</time>
      </trkpt>
      <trkpt lat="47.24318" lon="-2.30428">
        <ele>28</ele>
        <time>2021-08-22T07:57:08.000Z</time>
      </trkpt>
      <trkpt lat="47.24323" lon="-2.30431">
        <ele>27.8</ele>
        <time>2021-08-22T07:57:09.000Z</time>
      </trkpt>
      <trkpt lat="47.24341" lon="-2.30442">
        <ele>27.2</ele>
        <time>2021-08-22T07:57:13.000Z</time>
      </trkpt>
      <trkpt lat="47.24346" lon="-2.30445">
        <ele>27</ele>
        <time>2021-08-22T07:57:14.000Z</time>
      </trkpt>
      <trkpt lat="47.2435" lon="-2.30445">
        <ele>26.9</ele>
        <time>2021-08-22T07:57:15.000Z</time>
      </trkpt>
      <trkpt lat="47.2436" lon="-2.30445">
        <ele>-0.40000000596046</ele>
        <time>2021-08-22T07:57:17.000Z</time>
      </trkpt>
      <trkpt lat="47.24365" lon="-2.30444">
        <ele>-0.80000001192093</ele>
        <time>2021-08-22T07:57:18.000Z</time>
      </trkpt>
      <trkpt lat="47.24369" lon="-2.30443">
        <ele>-1.2000000476837</ele>
        <time>2021-08-22T07:57:19.000Z</time>
      </trkpt>
      <trkpt lat="47.24373" lon="-2.30445">
        <ele>-1.6000000238419</ele>
        <time>2021-08-22T07:57:20.000Z</time>
      </trkpt>
      <trkpt lat="47.24375" lon="-2.30448">
        <ele>-2.2000000476837</ele>
        <time>2021-08-22T07:57:21.000Z</time>
      </trkpt>
      <trkpt lat="47.24376" lon="-2.30452">
        <ele>-2.2000000476837</ele>
        <time>2021-08-22T07:57:22.000Z</time>
      </trkpt>
      <trkpt lat="47.24373" lon="-2.30471">
        <ele>-2.2000000476837</ele>
        <time>2021-08-22T07:57:25.000Z</time>
      </trkpt>
      <trkpt lat="47.24368" lon="-2.30494">
        <ele>-2.5999999046326</ele>
        <time>2021-08-22T07:57:28.000Z</time>
      </trkpt>
      <trkpt lat="47.24367" lon="-2.305">
        <ele>-3</ele>
        <time>2021-08-22T07:57:29.000Z</time>
      </trkpt>
      <trkpt lat="47.24365" lon="-2.30505">
        <ele>-3.4000000953674</ele>
        <time>2021-08-22T07:57:30.000Z</time>
      </trkpt>
      <trkpt lat="47.24364" lon="-2.30511">
        <ele>-3.7999999523163</ele>
        <time>2021-08-22T07:57:31.000Z</time>
      </trkpt>
      <trkpt lat="47.24363" lon="-2.30516">
        <ele>-4.4000000953674</ele>
        <time>2021-08-22T07:57:32.000Z</time>
      </trkpt>
      <trkpt lat="47.24363" lon="-2.30522">
        <ele>-4.8000001907349</ele>
        <time>2021-08-22T07:57:33.000Z</time>
      </trkpt>
      <trkpt lat="47.24363" lon="-2.30528">
        <ele>-5.4000000953674</ele>
        <time>2021-08-22T07:57:34.000Z</time>
      </trkpt>
      <trkpt lat="47.24363" lon="-2.30535">
        <ele>-5.8000001907349</ele>
        <time>2021-08-22T07:57:35.000Z</time>
      </trkpt>
      <trkpt lat="47.24364" lon="-2.30543">
        <ele>-6.4000000953674</ele>
        <time>2021-08-22T07:57:36.000Z</time>
      </trkpt>
      <trkpt lat="47.24366" lon="-2.30549">
        <ele>-6.8000001907349</ele>
        <time>2021-08-22T07:57:37.000Z</time>
      </trkpt>
      <trkpt lat="47.24368" lon="-2.30554">
        <ele>-7.1999998092651</ele>
        <time>2021-08-22T07:57:38.000Z</time>
      </trkpt>
      <trkpt lat="47.24371" lon="-2.30559">
        <ele>-7.8000001907349</ele>
        <time>2021-08-22T07:57:39.000Z</time>
      </trkpt>
      <trkpt lat="47.24375" lon="-2.30563">
        <ele>-8.1999998092651</ele>
        <time>2021-08-22T07:57:40.000Z</time>
      </trkpt>
      <trkpt lat="47.24379" lon="-2.30568">
        <ele>-8.6000003814697</ele>
        <time>2021-08-22T07:57:41.000Z</time>
      </trkpt>
      <trkpt lat="47.24383" lon="-2.3057">
        <ele>-8.6000003814697</ele>
        <time>2021-08-22T07:57:42.000Z</time>
      </trkpt>
      <trkpt lat="47.24406" lon="-2.30574">
        <ele>-8.6000003814697</ele>
        <time>2021-08-22T07:57:46.000Z</time>
      </trkpt>
      <trkpt lat="47.24431" lon="-2.30566">
        <ele>-8.6000003814697</ele>
        <time>2021-08-22T07:57:50.000Z</time>
      </trkpt>
      <trkpt lat="47.24442" lon="-2.30561">
        <ele>-8.6000003814697</ele>
        <time>2021-08-22T07:57:52.000Z</time>
      </trkpt>
      <trkpt lat="47.24447" lon="-2.30557">
        <ele>-8.1999998092651</ele>
        <time>2021-08-22T07:57:53.000Z</time>
      </trkpt>
      <trkpt lat="47.24451" lon="-2.30554">
        <ele>-7.8000001907349</ele>
        <time>2021-08-22T07:57:54.000Z</time>
      </trkpt>
      <trkpt lat="47.24455" lon="-2.3055">
        <ele>-7.4000000953674</ele>
        <time>2021-08-22T07:57:55.000Z</time>
      </trkpt>
      <trkpt lat="47.24459" lon="-2.30547">
        <ele>-6.8000001907349</ele>
        <time>2021-08-22T07:57:56.000Z</time>
      </trkpt>
      <trkpt lat="47.24462" lon="-2.30547">
        <ele>-6.4000000953674</ele>
        <time>2021-08-22T07:57:57.000Z</time>
      </trkpt>
      <trkpt lat="47.24464" lon="-2.30548">
        <ele>-6.4000000953674</ele>
        <time>2021-08-22T07:57:58.000Z</time>
      </trkpt>
      <trkpt lat="47.24469" lon="-2.3056">
        <ele>-5.5999999046326</ele>
        <time>2021-08-22T07:58:02.000Z</time>
      </trkpt>
      <trkpt lat="47.24469" lon="-2.30565">
        <ele>-5.1999998092651</ele>
        <time>2021-08-22T07:58:03.000Z</time>
      </trkpt>
      <trkpt lat="47.24468" lon="-2.30571">
        <ele>-4.8000001907349</ele>
        <time>2021-08-22T07:58:04.000Z</time>
      </trkpt>
      <trkpt lat="47.24467" lon="-2.30575">
        <ele>-4.4000000953674</ele>
        <time>2021-08-22T07:58:05.000Z</time>
      </trkpt>
      <trkpt lat="47.24466" lon="-2.30579">
        <ele>-4.4000000953674</ele>
        <time>2021-08-22T07:58:06.000Z</time>
      </trkpt>
      <trkpt lat="47.2446" lon="-2.30591">
        <ele>-4.4000000953674</ele>
        <time>2021-08-22T07:58:09.000Z</time>
      </trkpt>
      <trkpt lat="47.24457" lon="-2.30598">
        <ele>-4.4000000953674</ele>
        <time>2021-08-22T07:58:11.000Z</time>
      </trkpt>
      <trkpt lat="47.24443" lon="-2.30613">
        <ele>-4.4000000953674</ele>
        <time>2021-08-22T07:58:16.000Z</time>
      </trkpt>
      <trkpt lat="47.24439" lon="-2.30615">
        <ele>-4</ele>
        <time>2021-08-22T07:58:17.000Z</time>
      </trkpt>
      <trkpt lat="47.24436" lon="-2.30619">
        <ele>-3.5999999046326</ele>
        <time>2021-08-22T07:58:18.000Z</time>
      </trkpt>
      <trkpt lat="47.24433" lon="-2.30621">
        <ele>-3.2000000476837</ele>
        <time>2021-08-22T07:58:19.000Z</time>
      </trkpt>
      <trkpt lat="47.2443" lon="-2.30625">
        <ele>-2.7999999523163</ele>
        <time>2021-08-22T07:58:20.000Z</time>
      </trkpt>
      <trkpt lat="47.24427" lon="-2.30628">
        <ele>-2.4000000953674</ele>
        <time>2021-08-22T07:58:21.000Z</time>
      </trkpt>
      <trkpt lat="47.24425" lon="-2.30632">
        <ele>-2.4000000953674</ele>
        <time>2021-08-22T07:58:22.000Z</time>
      </trkpt>
      <trkpt lat="47.24416" lon="-2.30656">
        <ele>-2.4000000953674</ele>
        <time>2021-08-22T07:58:27.000Z</time>
      </trkpt>
      <trkpt lat="47.24405" lon="-2.30701">
        <ele>-2.4000000953674</ele>
        <time>2021-08-22T07:58:34.000Z</time>
      </trkpt>
      <trkpt lat="47.24402" lon="-2.30732">
        <ele>-2.4000000953674</ele>
        <time>2021-08-22T07:58:40.000Z</time>
      </trkpt>
      <trkpt lat="47.2439" lon="-2.30749">
        <ele>-2.4000000953674</ele>
        <time>2021-08-22T07:58:45.000Z</time>
      </trkpt>
      <trkpt lat="47.24386" lon="-2.30756">
        <ele>-2.4000000953674</ele>
        <time>2021-08-22T07:58:46.000Z</time>
      </trkpt>
      <trkpt lat="47.24373" lon="-2.30773">
        <ele>-2.4000000953674</ele>
        <time>2021-08-22T07:58:49.000Z</time>
      </trkpt>
      <trkpt lat="47.24368" lon="-2.30778">
        <ele>-2.4000000953674</ele>
        <time>2021-08-22T07:58:50.000Z</time>
      </trkpt>
      <trkpt lat="47.24347" lon="-2.30789">
        <ele>-2.4000000953674</ele>
        <time>2021-08-22T07:58:53.000Z</time>
      </trkpt>
      <trkpt lat="47.24339" lon="-2.30792">
        <ele>-2.4000000953674</ele>
        <time>2021-08-22T07:58:54.000Z</time>
      </trkpt>
      <trkpt lat="47.24332" lon="-2.30795">
        <ele>-2.7999999523163</ele>
        <time>2021-08-22T07:58:55.000Z</time>
      </trkpt>
      <trkpt lat="47.24326" lon="-2.30798">
        <ele>-3.2000000476837</ele>
        <time>2021-08-22T07:58:56.000Z</time>
      </trkpt>
      <trkpt lat="47.24319" lon="-2.30802">
        <ele>-3.7999999523163</ele>
        <time>2021-08-22T07:58:57.000Z</time>
      </trkpt>
      <trkpt lat="47.24312" lon="-2.30805">
        <ele>-4.1999998092651</ele>
        <time>2021-08-22T07:58:58.000Z</time>
      </trkpt>
      <trkpt lat="47.24306" lon="-2.3081">
        <ele>-4.5999999046326</ele>
        <time>2021-08-22T07:58:59.000Z</time>
      </trkpt>
      <trkpt lat="47.24302" lon="-2.30815">
        <ele>-4.5999999046326</ele>
        <time>2021-08-22T07:59:00.000Z</time>
      </trkpt>
      <trkpt lat="47.24289" lon="-2.30843">
        <ele>-4.5999999046326</ele>
        <time>2021-08-22T07:59:04.000Z</time>
      </trkpt>
      <trkpt lat="47.24286" lon="-2.3086">
        <ele>-5.1999998092651</ele>
        <time>2021-08-22T07:59:06.000Z</time>
      </trkpt>
      <trkpt lat="47.24285" lon="-2.30869">
        <ele>-5.5999999046326</ele>
        <time>2021-08-22T07:59:07.000Z</time>
      </trkpt>
      <trkpt lat="47.24285" lon="-2.30878">
        <ele>-6</ele>
        <time>2021-08-22T07:59:08.000Z</time>
      </trkpt>
      <trkpt lat="47.24286" lon="-2.30888">
        <ele>-6.4000000953674</ele>
        <time>2021-08-22T07:59:09.000Z</time>
      </trkpt>
      <trkpt lat="47.24287" lon="-2.30898">
        <ele>-6.8000001907349</ele>
        <time>2021-08-22T07:59:10.000Z</time>
      </trkpt>
      <trkpt lat="47.24289" lon="-2.30907">
        <ele>-6.8000001907349</ele>
        <time>2021-08-22T07:59:11.000Z</time>
      </trkpt>
      <trkpt lat="47.24291" lon="-2.30928">
        <ele>-6.8000001907349</ele>
        <time>2021-08-22T07:59:13.000Z</time>
      </trkpt>
      <trkpt lat="47.2429" lon="-2.30938">
        <ele>-6.8000001907349</ele>
        <time>2021-08-22T07:59:14.000Z</time>
      </trkpt>
      <trkpt lat="47.24288" lon="-2.30959">
        <ele>-7.5999999046326</ele>
        <time>2021-08-22T07:59:16.000Z</time>
      </trkpt>
      <trkpt lat="47.24286" lon="-2.3097">
        <ele>-8</ele>
        <time>2021-08-22T07:59:17.000Z</time>
      </trkpt>
      <trkpt lat="47.24284" lon="-2.30982">
        <ele>-8.3999996185303</ele>
        <time>2021-08-22T07:59:18.000Z</time>
      </trkpt>
      <trkpt lat="47.24282" lon="-2.30993">
        <ele>-9</ele>
        <time>2021-08-22T07:59:19.000Z</time>
      </trkpt>
      <trkpt lat="47.24279" lon="-2.31003">
        <ele>-9.3999996185303</ele>
        <time>2021-08-22T07:59:20.000Z</time>
      </trkpt>
      <trkpt lat="47.24278" lon="-2.31012">
        <ele>-9.8000001907349</ele>
        <time>2021-08-22T07:59:21.000Z</time>
      </trkpt>
      <trkpt lat="47.24277" lon="-2.31019">
        <ele>-10.60000038147</ele>
        <time>2021-08-22T07:59:22.000Z</time>
      </trkpt>
      <trkpt lat="47.24277" lon="-2.31024">
        <ele>-11.199999809265</ele>
        <time>2021-08-22T07:59:23.000Z</time>
      </trkpt>
      <trkpt lat="47.24278" lon="-2.31029">
        <ele>-11.800000190735</ele>
        <time>2021-08-22T07:59:24.000Z</time>
      </trkpt>
      <trkpt lat="47.24281" lon="-2.31034">
        <ele>-12.60000038147</ele>
        <time>2021-08-22T07:59:25.000Z</time>
      </trkpt>
      <trkpt lat="47.24284" lon="-2.31035">
        <ele>-13.199999809265</ele>
        <time>2021-08-22T07:59:26.000Z</time>
      </trkpt>
      <trkpt lat="47.24286" lon="-2.31036">
        <ele>-13.60000038147</ele>
        <time>2021-08-22T07:59:27.000Z</time>
      </trkpt>
      <trkpt lat="47.2429" lon="-2.31035">
        <ele>-14.199999809265</ele>
        <time>2021-08-22T07:59:28.000Z</time>
      </trkpt>
      <trkpt lat="47.24294" lon="-2.31035">
        <ele>-14.800000190735</ele>
        <time>2021-08-22T07:59:29.000Z</time>
      </trkpt>
      <trkpt lat="47.24299" lon="-2.31036">
        <ele>-15.39999961853</ele>
        <time>2021-08-22T07:59:30.000Z</time>
      </trkpt>
      <trkpt lat="47.24311" lon="-2.31037">
        <ele>-15.39999961853</ele>
        <time>2021-08-22T07:59:33.000Z</time>
      </trkpt>
      <trkpt lat="47.24315" lon="-2.31038">
        <ele>-15</ele>
        <time>2021-08-22T07:59:34.000Z</time>
      </trkpt>
      <trkpt lat="47.24318" lon="-2.31038">
        <ele>-14.60000038147</ele>
        <time>2021-08-22T07:59:35.000Z</time>
      </trkpt>
      <trkpt lat="47.24322" lon="-2.31039">
        <ele>-14.199999809265</ele>
        <time>2021-08-22T07:59:36.000Z</time>
      </trkpt>
      <trkpt lat="47.24324" lon="-2.31041">
        <ele>-13.800000190735</ele>
        <time>2021-08-22T07:59:37.000Z</time>
      </trkpt>
      <trkpt lat="47.24327" lon="-2.31044">
        <ele>-13.39999961853</ele>
        <time>2021-08-22T07:59:38.000Z</time>
      </trkpt>
      <trkpt lat="47.24341" lon="-2.3107">
        <ele>-13.39999961853</ele>
        <time>2021-08-22T07:59:44.000Z</time>
      </trkpt>
      <trkpt lat="47.24343" lon="-2.31075">
        <ele>-13.39999961853</ele>
        <time>2021-08-22T07:59:45.000Z</time>
      </trkpt>
      <trkpt lat="47.24357" lon="-2.31115">
        <ele>-13.39999961853</ele>
        <time>2021-08-22T07:59:52.000Z</time>
      </trkpt>
      <trkpt lat="47.24367" lon="-2.31139">
        <ele>-13.39999961853</ele>
        <time>2021-08-22T07:59:56.000Z</time>
      </trkpt>
      <trkpt lat="47.2437" lon="-2.31144">
        <ele>-13.39999961853</ele>
        <time>2021-08-22T07:59:57.000Z</time>
      </trkpt>
      <trkpt lat="47.24381" lon="-2.31161">
        <ele>-13.39999961853</ele>
        <time>2021-08-22T08:00:00.000Z</time>
      </trkpt>
      <trkpt lat="47.24389" lon="-2.31169">
        <ele>-13.39999961853</ele>
        <time>2021-08-22T08:00:02.000Z</time>
      </trkpt>
      <trkpt lat="47.24402" lon="-2.31181">
        <ele>-13.39999961853</ele>
        <time>2021-08-22T08:00:07.000Z</time>
      </trkpt>
      <trkpt lat="47.24408" lon="-2.31186">
        <ele>-13.39999961853</ele>
        <time>2021-08-22T08:00:12.000Z</time>
      </trkpt>
      <trkpt lat="47.24411" lon="-2.31191">
        <ele>-13.39999961853</ele>
        <time>2021-08-22T08:00:15.000Z</time>
      </trkpt>
      <trkpt lat="47.24416" lon="-2.31204">
        <ele>-13.39999961853</ele>
        <time>2021-08-22T08:00:18.000Z</time>
      </trkpt>
      <trkpt lat="47.24419" lon="-2.3121">
        <ele>-13.800000190735</ele>
        <time>2021-08-22T08:00:19.000Z</time>
      </trkpt>
      <trkpt lat="47.24421" lon="-2.31214">
        <ele>-14.199999809265</ele>
        <time>2021-08-22T08:00:20.000Z</time>
      </trkpt>
      <trkpt lat="47.24424" lon="-2.31216">
        <ele>-14.60000038147</ele>
        <time>2021-08-22T08:00:21.000Z</time>
      </trkpt>
      <trkpt lat="47.24426" lon="-2.31218">
        <ele>-15</ele>
        <time>2021-08-22T08:00:22.000Z</time>
      </trkpt>
      <trkpt lat="47.24429" lon="-2.31219">
        <ele>-15.39999961853</ele>
        <time>2021-08-22T08:00:23.000Z</time>
      </trkpt>
      <trkpt lat="47.24435" lon="-2.31219">
        <ele>-15.39999961853</ele>
        <time>2021-08-22T08:00:25.000Z</time>
      </trkpt>
      <trkpt lat="47.24447" lon="-2.3123">
        <ele>-15.39999961853</ele>
        <time>2021-08-22T08:00:29.000Z</time>
      </trkpt>
      <trkpt lat="47.24448" lon="-2.31234">
        <ele>-14.60000038147</ele>
        <time>2021-08-22T08:00:30.000Z</time>
      </trkpt>
      <trkpt lat="47.2445" lon="-2.31237">
        <ele>-14.199999809265</ele>
        <time>2021-08-22T08:00:31.000Z</time>
      </trkpt>
      <trkpt lat="47.24451" lon="-2.31239">
        <ele>-13.60000038147</ele>
        <time>2021-08-22T08:00:32.000Z</time>
      </trkpt>
      <trkpt lat="47.24452" lon="-2.31242">
        <ele>-13.199999809265</ele>
        <time>2021-08-22T08:00:33.000Z</time>
      </trkpt>
      <trkpt lat="47.24456" lon="-2.3125">
        <ele>-13.199999809265</ele>
        <time>2021-08-22T08:00:36.000Z</time>
      </trkpt>
      <trkpt lat="47.24455" lon="-2.31256">
        <ele>-13.199999809265</ele>
        <time>2021-08-22T08:00:38.000Z</time>
      </trkpt>
      <trkpt lat="47.24453" lon="-2.31262">
        <ele>-13.199999809265</ele>
        <time>2021-08-22T08:00:40.000Z</time>
      </trkpt>
      <trkpt lat="47.24439" lon="-2.31278">
        <ele>-13.199999809265</ele>
        <time>2021-08-22T08:00:44.000Z</time>
      </trkpt>
      <trkpt lat="47.24423" lon="-2.31292">
        <ele>-13.60000038147</ele>
        <time>2021-08-22T08:00:48.000Z</time>
      </trkpt>
      <trkpt lat="47.24419" lon="-2.31297">
        <ele>-14</ele>
        <time>2021-08-22T08:00:49.000Z</time>
      </trkpt>
      <trkpt lat="47.24414" lon="-2.31301">
        <ele>-14.39999961853</ele>
        <time>2021-08-22T08:00:50.000Z</time>
      </trkpt>
      <trkpt lat="47.24409" lon="-2.31306">
        <ele>-14.800000190735</ele>
        <time>2021-08-22T08:00:51.000Z</time>
      </trkpt>
      <trkpt lat="47.24404" lon="-2.3131">
        <ele>-15.199999809265</ele>
        <time>2021-08-22T08:00:52.000Z</time>
      </trkpt>
      <trkpt lat="47.24386" lon="-2.31325">
        <ele>-15.800000190735</ele>
        <time>2021-08-22T08:00:56.000Z</time>
      </trkpt>
      <trkpt lat="47.24382" lon="-2.31329">
        <ele>-16.200000762939</ele>
        <time>2021-08-22T08:00:57.000Z</time>
      </trkpt>
      <trkpt lat="47.24378" lon="-2.31333">
        <ele>-16.60000038147</ele>
        <time>2021-08-22T08:00:58.000Z</time>
      </trkpt>
      <trkpt lat="47.24375" lon="-2.31335">
        <ele>-17</ele>
        <time>2021-08-22T08:00:59.000Z</time>
      </trkpt>
      <trkpt lat="47.24372" lon="-2.31337">
        <ele>-17.60000038147</ele>
        <time>2021-08-22T08:01:00.000Z</time>
      </trkpt>
      <trkpt lat="47.24368" lon="-2.3134">
        <ele>-17.60000038147</ele>
        <time>2021-08-22T08:01:02.000Z</time>
      </trkpt>
      <trkpt lat="47.24357" lon="-2.31335">
        <ele>-17.60000038147</ele>
        <time>2021-08-22T08:01:06.000Z</time>
      </trkpt>
      <trkpt lat="47.24348" lon="-2.3131">
        <ele>-17.60000038147</ele>
        <time>2021-08-22T08:01:10.000Z</time>
      </trkpt>
      <trkpt lat="47.2433" lon="-2.3126">
        <ele>-17.60000038147</ele>
        <time>2021-08-22T08:01:17.000Z</time>
      </trkpt>
      <trkpt lat="47.24318" lon="-2.31237">
        <ele>-17.60000038147</ele>
        <time>2021-08-22T08:01:22.000Z</time>
      </trkpt>
      <trkpt lat="47.243" lon="-2.31238">
        <ele>-17.60000038147</ele>
        <time>2021-08-22T08:01:26.000Z</time>
      </trkpt>
      <trkpt lat="47.24295" lon="-2.3124">
        <ele>-17.60000038147</ele>
        <time>2021-08-22T08:01:27.000Z</time>
      </trkpt>
      <trkpt lat="47.24285" lon="-2.31244">
        <ele>-18</ele>
        <time>2021-08-22T08:01:29.000Z</time>
      </trkpt>
      <trkpt lat="47.2428" lon="-2.31246">
        <ele>-18.39999961853</ele>
        <time>2021-08-22T08:01:30.000Z</time>
      </trkpt>
      <trkpt lat="47.24276" lon="-2.31248">
        <ele>-18.799999237061</ele>
        <time>2021-08-22T08:01:31.000Z</time>
      </trkpt>
      <trkpt lat="47.2427" lon="-2.31251">
        <ele>-19.200000762939</ele>
        <time>2021-08-22T08:01:32.000Z</time>
      </trkpt>
      <trkpt lat="47.24265" lon="-2.31253">
        <ele>-19.60000038147</ele>
        <time>2021-08-22T08:01:33.000Z</time>
      </trkpt>
      <trkpt lat="47.24251" lon="-2.3126">
        <ele>-19.60000038147</ele>
        <time>2021-08-22T08:01:36.000Z</time>
      </trkpt>
      <trkpt lat="47.24242" lon="-2.31256">
        <ele>-19.60000038147</ele>
        <time>2021-08-22T08:01:38.000Z</time>
      </trkpt>
      <trkpt lat="47.24232" lon="-2.31239">
        <ele>-19.60000038147</ele>
        <time>2021-08-22T08:01:41.000Z</time>
      </trkpt>
      <trkpt lat="47.24229" lon="-2.31232">
        <ele>-19.60000038147</ele>
        <time>2021-08-22T08:01:42.000Z</time>
      </trkpt>
      <trkpt lat="47.24209" lon="-2.31191">
        <ele>-19.60000038147</ele>
        <time>2021-08-22T08:01:48.000Z</time>
      </trkpt>
      <trkpt lat="47.24199" lon="-2.31171">
        <ele>-19.60000038147</ele>
        <time>2021-08-22T08:01:51.000Z</time>
      </trkpt>
      <trkpt lat="47.24189" lon="-2.31151">
        <ele>-19.60000038147</ele>
        <time>2021-08-22T08:01:54.000Z</time>
      </trkpt>
      <trkpt lat="47.24164" lon="-2.31106">
        <ele>-19.60000038147</ele>
        <time>2021-08-22T08:02:01.000Z</time>
      </trkpt>
      <trkpt lat="47.24145" lon="-2.31071">
        <ele>-19.60000038147</ele>
        <time>2021-08-22T08:02:07.000Z</time>
      </trkpt>
      <trkpt lat="47.24124" lon="-2.31036">
        <ele>-19.60000038147</ele>
        <time>2021-08-22T08:02:13.000Z</time>
      </trkpt>
      <trkpt lat="47.24121" lon="-2.3103">
        <ele>-19.60000038147</ele>
        <time>2021-08-22T08:02:14.000Z</time>
      </trkpt>
      <trkpt lat="47.24123" lon="-2.3101">
        <ele>-19.60000038147</ele>
        <time>2021-08-22T08:02:17.000Z</time>
      </trkpt>
      <trkpt lat="47.24132" lon="-2.30993">
        <ele>-19.60000038147</ele>
        <time>2021-08-22T08:02:20.000Z</time>
      </trkpt>
      <trkpt lat="47.24139" lon="-2.30981">
        <ele>-19.60000038147</ele>
        <time>2021-08-22T08:02:22.000Z</time>
      </trkpt>
      <trkpt lat="47.2416" lon="-2.30938">
        <ele>-19.60000038147</ele>
        <time>2021-08-22T08:02:29.000Z</time>
      </trkpt>
      <trkpt lat="47.24165" lon="-2.30926">
        <ele>-19.60000038147</ele>
        <time>2021-08-22T08:02:31.000Z</time>
      </trkpt>
      <trkpt lat="47.24173" lon="-2.30915">
        <ele>-19.60000038147</ele>
        <time>2021-08-22T08:02:34.000Z</time>
      </trkpt>
      <trkpt lat="47.24178" lon="-2.309">
        <ele>-19.60000038147</ele>
        <time>2021-08-22T08:02:39.000Z</time>
      </trkpt>
      <trkpt lat="47.24187" lon="-2.30875">
        <ele>-19.60000038147</ele>
        <time>2021-08-22T08:02:44.000Z</time>
      </trkpt>
      <trkpt lat="47.24198" lon="-2.30856">
        <ele>-19</ele>
        <time>2021-08-22T08:02:48.000Z</time>
      </trkpt>
      <trkpt lat="47.24201" lon="-2.30851">
        <ele>-18.60000038147</ele>
        <time>2021-08-22T08:02:49.000Z</time>
      </trkpt>
      <trkpt lat="47.24204" lon="-2.30846">
        <ele>-18.200000762939</ele>
        <time>2021-08-22T08:02:50.000Z</time>
      </trkpt>
      <trkpt lat="47.24207" lon="-2.3084">
        <ele>-17.799999237061</ele>
        <time>2021-08-22T08:02:51.000Z</time>
      </trkpt>
      <trkpt lat="47.2421" lon="-2.30836">
        <ele>-17.200000762939</ele>
        <time>2021-08-22T08:02:52.000Z</time>
      </trkpt>
      <trkpt lat="47.24212" lon="-2.30831">
        <ele>-16.799999237061</ele>
        <time>2021-08-22T08:02:53.000Z</time>
      </trkpt>
      <trkpt lat="47.24215" lon="-2.30826">
        <ele>-16.39999961853</ele>
        <time>2021-08-22T08:02:54.000Z</time>
      </trkpt>
      <trkpt lat="47.24218" lon="-2.30821">
        <ele>-16</ele>
        <time>2021-08-22T08:02:55.000Z</time>
      </trkpt>
      <trkpt lat="47.24221" lon="-2.30816">
        <ele>-15.60000038147</ele>
        <time>2021-08-22T08:02:56.000Z</time>
      </trkpt>
      <trkpt lat="47.24223" lon="-2.30809">
        <ele>-15.199999809265</ele>
        <time>2021-08-22T08:02:57.000Z</time>
      </trkpt>
      <trkpt lat="47.24225" lon="-2.30802">
        <ele>-14.60000038147</ele>
        <time>2021-08-22T08:02:58.000Z</time>
      </trkpt>
      <trkpt lat="47.24227" lon="-2.30796">
        <ele>-14.199999809265</ele>
        <time>2021-08-22T08:02:59.000Z</time>
      </trkpt>
      <trkpt lat="47.2423" lon="-2.30789">
        <ele>-13.800000190735</ele>
        <time>2021-08-22T08:03:00.000Z</time>
      </trkpt>
      <trkpt lat="47.24233" lon="-2.30782">
        <ele>-13.39999961853</ele>
        <time>2021-08-22T08:03:01.000Z</time>
      </trkpt>
      <trkpt lat="47.24236" lon="-2.30775">
        <ele>-12.800000190735</ele>
        <time>2021-08-22T08:03:02.000Z</time>
      </trkpt>
      <trkpt lat="47.2424" lon="-2.30762">
        <ele>-12.39999961853</ele>
        <time>2021-08-22T08:03:04.000Z</time>
      </trkpt>
      <trkpt lat="47.24242" lon="-2.30756">
        <ele>-12</ele>
        <time>2021-08-22T08:03:05.000Z</time>
      </trkpt>
      <trkpt lat="47.24245" lon="-2.30749">
        <ele>-11.60000038147</ele>
        <time>2021-08-22T08:03:06.000Z</time>
      </trkpt>
      <trkpt lat="47.24247" lon="-2.30744">
        <ele>-11.199999809265</ele>
        <time>2021-08-22T08:03:07.000Z</time>
      </trkpt>
      <trkpt lat="47.24249" lon="-2.30739">
        <ele>-10.800000190735</ele>
        <time>2021-08-22T08:03:08.000Z</time>
      </trkpt>
      <trkpt lat="47.24252" lon="-2.30734">
        <ele>-10.800000190735</ele>
        <time>2021-08-22T08:03:09.000Z</time>
      </trkpt>
      <trkpt lat="47.24267" lon="-2.30717">
        <ele>-10.39999961853</ele>
        <time>2021-08-22T08:03:14.000Z</time>
      </trkpt>
      <trkpt lat="47.24271" lon="-2.30714">
        <ele>-10</ele>
        <time>2021-08-22T08:03:15.000Z</time>
      </trkpt>
      <trkpt lat="47.24276" lon="-2.30711">
        <ele>-9.6000003814697</ele>
        <time>2021-08-22T08:03:16.000Z</time>
      </trkpt>
      <trkpt lat="47.24281" lon="-2.30709">
        <ele>-9.1999998092651</ele>
        <time>2021-08-22T08:03:17.000Z</time>
      </trkpt>
      <trkpt lat="47.24287" lon="-2.30707">
        <ele>-8.8000001907349</ele>
        <time>2021-08-22T08:03:18.000Z</time>
      </trkpt>
      <trkpt lat="47.24291" lon="-2.30704">
        <ele>-8.8000001907349</ele>
        <time>2021-08-22T08:03:19.000Z</time>
      </trkpt>
      <trkpt lat="47.2431" lon="-2.30696">
        <ele>-8.8000001907349</ele>
        <time>2021-08-22T08:03:23.000Z</time>
      </trkpt>
      <trkpt lat="47.24322" lon="-2.30689">
        <ele>-8.3999996185303</ele>
        <time>2021-08-22T08:03:26.000Z</time>
      </trkpt>
      <trkpt lat="47.24326" lon="-2.30687">
        <ele>-8</ele>
        <time>2021-08-22T08:03:27.000Z</time>
      </trkpt>
      <trkpt lat="47.24329" lon="-2.30684">
        <ele>-7.4000000953674</ele>
        <time>2021-08-22T08:03:28.000Z</time>
      </trkpt>
      <trkpt lat="47.24333" lon="-2.30681">
        <ele>-7</ele>
        <time>2021-08-22T08:03:29.000Z</time>
      </trkpt>
      <trkpt lat="47.24338" lon="-2.30679">
        <ele>-6.5999999046326</ele>
        <time>2021-08-22T08:03:30.000Z</time>
      </trkpt>
      <trkpt lat="47.24347" lon="-2.30671">
        <ele>-6.5999999046326</ele>
        <time>2021-08-22T08:03:33.000Z</time>
      </trkpt>
      <trkpt lat="47.2435" lon="-2.30669">
        <ele>-6.1999998092651</ele>
        <time>2021-08-22T08:03:34.000Z</time>
      </trkpt>
      <trkpt lat="47.24354" lon="-2.30666">
        <ele>-5.8000001907349</ele>
        <time>2021-08-22T08:03:35.000Z</time>
      </trkpt>
      <trkpt lat="47.24357" lon="-2.30663">
        <ele>-5.4000000953674</ele>
        <time>2021-08-22T08:03:36.000Z</time>
      </trkpt>
      <trkpt lat="47.24361" lon="-2.30659">
        <ele>-5</ele>
        <time>2021-08-22T08:03:37.000Z</time>
      </trkpt>
      <trkpt lat="47.24365" lon="-2.30657">
        <ele>-4.5999999046326</ele>
        <time>2021-08-22T08:03:38.000Z</time>
      </trkpt>
      <trkpt lat="47.24369" lon="-2.30654">
        <ele>-4.5999999046326</ele>
        <time>2021-08-22T08:03:39.000Z</time>
      </trkpt>
      <trkpt lat="47.24393" lon="-2.30641">
        <ele>-4.5999999046326</ele>
        <time>2021-08-22T08:03:45.000Z</time>
      </trkpt>
      <trkpt lat="47.24417" lon="-2.30624">
        <ele>-4.5999999046326</ele>
        <time>2021-08-22T08:03:51.000Z</time>
      </trkpt>
      <trkpt lat="47.24441" lon="-2.306">
        <ele>-4.5999999046326</ele>
        <time>2021-08-22T08:03:57.000Z</time>
      </trkpt>
      <trkpt lat="47.24452" lon="-2.30585">
        <ele>-4.5999999046326</ele>
        <time>2021-08-22T08:04:00.000Z</time>
      </trkpt>
      <trkpt lat="47.24459" lon="-2.30574">
        <ele>-4.5999999046326</ele>
        <time>2021-08-22T08:04:02.000Z</time>
      </trkpt>
      <trkpt lat="47.24468" lon="-2.30563">
        <ele>-4.5999999046326</ele>
        <time>2021-08-22T08:04:06.000Z</time>
      </trkpt>
      <trkpt lat="47.24472" lon="-2.30547">
        <ele>-4.5999999046326</ele>
        <time>2021-08-22T08:04:10.000Z</time>
      </trkpt>
      <trkpt lat="47.2447" lon="-2.30545">
        <ele>-4.5999999046326</ele>
        <time>2021-08-22T08:04:11.000Z</time>
      </trkpt>
      <trkpt lat="47.24463" lon="-2.3055">
        <ele>-4.5999999046326</ele>
        <time>2021-08-22T08:04:14.000Z</time>
      </trkpt>
      <trkpt lat="47.2446" lon="-2.30553">
        <ele>-4.5999999046326</ele>
        <time>2021-08-22T08:04:15.000Z</time>
      </trkpt>
      <trkpt lat="47.24453" lon="-2.30563">
        <ele>-5</ele>
        <time>2021-08-22T08:04:17.000Z</time>
      </trkpt>
      <trkpt lat="47.24448" lon="-2.30567">
        <ele>-5.4000000953674</ele>
        <time>2021-08-22T08:04:18.000Z</time>
      </trkpt>
      <trkpt lat="47.24444" lon="-2.30571">
        <ele>-5.8000001907349</ele>
        <time>2021-08-22T08:04:19.000Z</time>
      </trkpt>
      <trkpt lat="47.24439" lon="-2.30575">
        <ele>-6.1999998092651</ele>
        <time>2021-08-22T08:04:20.000Z</time>
      </trkpt>
      <trkpt lat="47.24434" lon="-2.30578">
        <ele>-6.5999999046326</ele>
        <time>2021-08-22T08:04:21.000Z</time>
      </trkpt>
      <trkpt lat="47.24424" lon="-2.30583">
        <ele>-6.5999999046326</ele>
        <time>2021-08-22T08:04:23.000Z</time>
      </trkpt>
      <trkpt lat="47.24396" lon="-2.30583">
        <ele>-7</ele>
        <time>2021-08-22T08:04:28.000Z</time>
      </trkpt>
      <trkpt lat="47.24391" lon="-2.3058">
        <ele>-7.5999999046326</ele>
        <time>2021-08-22T08:04:29.000Z</time>
      </trkpt>
      <trkpt lat="47.24385" lon="-2.30575">
        <ele>-8</ele>
        <time>2021-08-22T08:04:30.000Z</time>
      </trkpt>
      <trkpt lat="47.2438" lon="-2.3057">
        <ele>-8.3999996185303</ele>
        <time>2021-08-22T08:04:31.000Z</time>
      </trkpt>
      <trkpt lat="47.24375" lon="-2.30564">
        <ele>-8.8000001907349</ele>
        <time>2021-08-22T08:04:32.000Z</time>
      </trkpt>
      <trkpt lat="47.24371" lon="-2.30559">
        <ele>-8.8000001907349</ele>
        <time>2021-08-22T08:04:33.000Z</time>
      </trkpt>
      <trkpt lat="47.24367" lon="-2.30553">
        <ele>-8.8000001907349</ele>
        <time>2021-08-22T08:04:34.000Z</time>
      </trkpt>
      <trkpt lat="47.24366" lon="-2.30537">
        <ele>-8.8000001907349</ele>
        <time>2021-08-22T08:04:36.000Z</time>
      </trkpt>
      <trkpt lat="47.24366" lon="-2.30514">
        <ele>-8.8000001907349</ele>
        <time>2021-08-22T08:04:40.000Z</time>
      </trkpt>
      <trkpt lat="47.24369" lon="-2.30495">
        <ele>-8.8000001907349</ele>
        <time>2021-08-22T08:04:44.000Z</time>
      </trkpt>
      <trkpt lat="47.24371" lon="-2.30491">
        <ele>-8.3999996185303</ele>
        <time>2021-08-22T08:04:45.000Z</time>
      </trkpt>
      <trkpt lat="47.24373" lon="-2.30486">
        <ele>-7.8000001907349</ele>
        <time>2021-08-22T08:04:46.000Z</time>
      </trkpt>
      <trkpt lat="47.24375" lon="-2.30481">
        <ele>-7.4000000953674</ele>
        <time>2021-08-22T08:04:47.000Z</time>
      </trkpt>
      <trkpt lat="47.24376" lon="-2.30476">
        <ele>-7</ele>
        <time>2021-08-22T08:04:48.000Z</time>
      </trkpt>
      <trkpt lat="47.24377" lon="-2.3047">
        <ele>-6.4000000953674</ele>
        <time>2021-08-22T08:04:49.000Z</time>
      </trkpt>
      <trkpt lat="47.24378" lon="-2.30464">
        <ele>-6.4000000953674</ele>
        <time>2021-08-22T08:04:50.000Z</time>
      </trkpt>
      <trkpt lat="47.24379" lon="-2.30451">
        <ele>-6</ele>
        <time>2021-08-22T08:04:53.000Z</time>
      </trkpt>
      <trkpt lat="47.24377" lon="-2.30449">
        <ele>-5.5999999046326</ele>
        <time>2021-08-22T08:04:54.000Z</time>
      </trkpt>
      <trkpt lat="47.24374" lon="-2.30449">
        <ele>-5.1999998092651</ele>
        <time>2021-08-22T08:04:55.000Z</time>
      </trkpt>
      <trkpt lat="47.24371" lon="-2.30449">
        <ele>-4.8000001907349</ele>
        <time>2021-08-22T08:04:56.000Z</time>
      </trkpt>
      <trkpt lat="47.24367" lon="-2.30451">
        <ele>-4.4000000953674</ele>
        <time>2021-08-22T08:04:57.000Z</time>
      </trkpt>
      <trkpt lat="47.2436" lon="-2.30452">
        <ele>-4.4000000953674</ele>
        <time>2021-08-22T08:04:59.000Z</time>
      </trkpt>
      <trkpt lat="47.24341" lon="-2.30445">
        <ele>-4</ele>
        <time>2021-08-22T08:05:04.000Z</time>
      </trkpt>
      <trkpt lat="47.24336" lon="-2.30443">
        <ele>-3.5999999046326</ele>
        <time>2021-08-22T08:05:05.000Z</time>
      </trkpt>
      <trkpt lat="47.24332" lon="-2.30441">
        <ele>-3.2000000476837</ele>
        <time>2021-08-22T08:05:06.000Z</time>
      </trkpt>
      <trkpt lat="47.24327" lon="-2.30437">
        <ele>-2.7999999523163</ele>
        <time>2021-08-22T08:05:07.000Z</time>
      </trkpt>
      <trkpt lat="47.24323" lon="-2.30434">
        <ele>-2.4000000953674</ele>
        <time>2021-08-22T08:05:08.000Z</time>
      </trkpt>
      <trkpt lat="47.24319" lon="-2.30431">
        <ele>-2.4000000953674</ele>
        <time>2021-08-22T08:05:09.000Z</time>
      </trkpt>
      <trkpt lat="47.24301" lon="-2.30421">
        <ele>-2.4000000953674</ele>
        <time>2021-08-22T08:05:14.000Z</time>
      </trkpt>
      <trkpt lat="47.24273" lon="-2.30394">
        <ele>-2.4000000953674</ele>
        <time>2021-08-22T08:05:21.000Z</time>
      </trkpt>
      <trkpt lat="47.24247" lon="-2.30347">
        <ele>-2.4000000953674</ele>
        <time>2021-08-22T08:05:29.000Z</time>
      </trkpt>
      <trkpt lat="47.24229" lon="-2.30328">
        <ele>-2.4000000953674</ele>
        <time>2021-08-22T08:05:35.000Z</time>
      </trkpt>
      <trkpt lat="47.24212" lon="-2.30333">
        <ele>-2.4000000953674</ele>
        <time>2021-08-22T08:05:38.000Z</time>
      </trkpt>
      <trkpt lat="47.24203" lon="-2.30329">
        <ele>-2.7999999523163</ele>
        <time>2021-08-22T08:05:40.000Z</time>
      </trkpt>
      <trkpt lat="47.24201" lon="-2.30324">
        <ele>-3.2000000476837</ele>
        <time>2021-08-22T08:05:41.000Z</time>
      </trkpt>
      <trkpt lat="47.24199" lon="-2.30316">
        <ele>-3.5999999046326</ele>
        <time>2021-08-22T08:05:42.000Z</time>
      </trkpt>
      <trkpt lat="47.24197" lon="-2.30308">
        <ele>-4</ele>
        <time>2021-08-22T08:05:43.000Z</time>
      </trkpt>
      <trkpt lat="47.24196" lon="-2.30299">
        <ele>-4.5999999046326</ele>
        <time>2021-08-22T08:05:44.000Z</time>
      </trkpt>
      <trkpt lat="47.24189" lon="-2.30247">
        <ele>-5</ele>
        <time>2021-08-22T08:05:50.000Z</time>
      </trkpt>
      <trkpt lat="47.24188" lon="-2.30241">
        <ele>-5.4000000953674</ele>
        <time>2021-08-22T08:05:51.000Z</time>
      </trkpt>
      <trkpt lat="47.24186" lon="-2.30239">
        <ele>-5.8000001907349</ele>
        <time>2021-08-22T08:05:52.000Z</time>
      </trkpt>
      <trkpt lat="47.24184" lon="-2.3024">
        <ele>-6.1999998092651</ele>
        <time>2021-08-22T08:05:53.000Z</time>
      </trkpt>
      <trkpt lat="47.24181" lon="-2.30242">
        <ele>-6.5999999046326</ele>
        <time>2021-08-22T08:05:54.000Z</time>
      </trkpt>
      <trkpt lat="47.24169" lon="-2.30244">
        <ele>-6.5999999046326</ele>
        <time>2021-08-22T08:05:57.000Z</time>
      </trkpt>
      <trkpt lat="47.2416" lon="-2.30236">
        <ele>-6.5999999046326</ele>
        <time>2021-08-22T08:06:00.000Z</time>
      </trkpt>
      <trkpt lat="47.24158" lon="-2.30231">
        <ele>-6.5999999046326</ele>
        <time>2021-08-22T08:06:01.000Z</time>
      </trkpt>
      <trkpt lat="47.24148" lon="-2.3021">
        <ele>-6.5999999046326</ele>
        <time>2021-08-22T08:06:05.000Z</time>
      </trkpt>
      <trkpt lat="47.24139" lon="-2.30185">
        <ele>-6.1999998092651</ele>
        <time>2021-08-22T08:06:10.000Z</time>
      </trkpt>
      <trkpt lat="47.24137" lon="-2.3018">
        <ele>-5.5999999046326</ele>
        <time>2021-08-22T08:06:11.000Z</time>
      </trkpt>
      <trkpt lat="47.24135" lon="-2.30175">
        <ele>-5.1999998092651</ele>
        <time>2021-08-22T08:06:12.000Z</time>
      </trkpt>
      <trkpt lat="47.24134" lon="-2.3017">
        <ele>-4.8000001907349</ele>
        <time>2021-08-22T08:06:13.000Z</time>
      </trkpt>
      <trkpt lat="47.24132" lon="-2.30167">
        <ele>-4.4000000953674</ele>
        <time>2021-08-22T08:06:14.000Z</time>
      </trkpt>
      <trkpt lat="47.24129" lon="-2.30162">
        <ele>-4</ele>
        <time>2021-08-22T08:06:16.000Z</time>
      </trkpt>
      <trkpt lat="47.24128" lon="-2.3016">
        <ele>-3.4000000953674</ele>
        <time>2021-08-22T08:06:17.000Z</time>
      </trkpt>
      <trkpt lat="47.24127" lon="-2.30159">
        <ele>-3</ele>
        <time>2021-08-22T08:06:18.000Z</time>
      </trkpt>
      <trkpt lat="47.24126" lon="-2.30158">
        <ele>-2.5999999046326</ele>
        <time>2021-08-22T08:06:19.000Z</time>
      </trkpt>
      <trkpt lat="47.24126" lon="-2.30157">
        <ele>-2</ele>
        <time>2021-08-22T08:06:20.000Z</time>
      </trkpt>
      <trkpt lat="47.24125" lon="-2.30156">
        <ele>-2</ele>
        <time>2021-08-22T08:06:21.000Z</time>
      </trkpt>
      <trkpt lat="47.24124" lon="-2.30134">
        <ele>-2</ele>
        <time>2021-08-22T08:08:28.000Z</time>
      </trkpt>
      <trkpt lat="47.24124" lon="-2.30127">
        <ele>-2</ele>
        <time>2021-08-22T08:08:31.000Z</time>
      </trkpt>
      <trkpt lat="47.24124" lon="-2.30125">
        <ele>-2</ele>
        <time>2021-08-22T08:08:33.000Z</time>
      </trkpt>
      <trkpt lat="47.2413" lon="-2.30085">
        <ele>30.6</ele>
        <time>2021-08-22T08:09:11.000Z</time>
      </trkpt>
      <trkpt lat="47.24134" lon="-2.30085">
        <ele>30.3</ele>
        <time>2021-08-22T08:09:14.000Z</time>
      </trkpt>
      <trkpt lat="47.24148" lon="-2.30082">
        <ele>29.7</ele>
        <time>2021-08-22T08:09:18.000Z</time>
      </trkpt>
      <trkpt lat="47.24158" lon="-2.30087">
        <ele>29.2</ele>
        <time>2021-08-22T08:09:22.000Z</time>
      </trkpt>
      <trkpt lat="47.2416" lon="-2.30089">
        <ele>-0.40000000596046</ele>
        <time>2021-08-22T08:09:24.000Z</time>
      </trkpt>
      <trkpt lat="47.24161" lon="-2.30089">
        <ele>-0.80000001192093</ele>
        <time>2021-08-22T08:09:25.000Z</time>
      </trkpt>
      <trkpt lat="47.24152" lon="-2.30065">
        <ele>0.40000000596046</ele>
        <time>2021-08-22T08:09:57.000Z</time>
      </trkpt>
      <trkpt lat="47.24155" lon="-2.30057">
        <ele>0.40000000596046</ele>
        <time>2021-08-22T08:10:01.000Z</time>
      </trkpt>
      <trkpt lat="47.24157" lon="-2.30042">
        <ele>0.40000000596046</ele>
        <time>2021-08-22T08:10:08.000Z</time>
      </trkpt>
      <trkpt lat="47.2416" lon="-2.30032">
        <ele>0.40000000596046</ele>
        <time>2021-08-22T08:10:15.000Z</time>
      </trkpt>
      <trkpt lat="47.24158" lon="-2.30021">
        <ele>0.40000000596046</ele>
        <time>2021-08-22T08:10:28.000Z</time>
      </trkpt>
      <trkpt lat="47.24157" lon="-2.30018">
        <ele>0.40000000596046</ele>
        <time>2021-08-22T08:10:29.000Z</time>
      </trkpt>
      <trkpt lat="47.24155" lon="-2.30011">
        <ele>0.80000001192093</ele>
        <time>2021-08-22T08:10:32.000Z</time>
      </trkpt>
      <trkpt lat="47.24155" lon="-2.30009">
        <ele>1.2000000476837</ele>
        <time>2021-08-22T08:10:33.000Z</time>
      </trkpt>
      <trkpt lat="47.24155" lon="-2.30005">
        <ele>1.6000000238419</ele>
        <time>2021-08-22T08:10:34.000Z</time>
      </trkpt>
      <trkpt lat="47.24155" lon="-2.30002">
        <ele>2.4000000953674</ele>
        <time>2021-08-22T08:10:35.000Z</time>
      </trkpt>
      <trkpt lat="47.24155" lon="-2.29999">
        <ele>2.4000000953674</ele>
        <time>2021-08-22T08:10:36.000Z</time>
      </trkpt>
      <trkpt lat="47.2416" lon="-2.29991">
        <ele>2.4000000953674</ele>
        <time>2021-08-22T08:10:41.000Z</time>
      </trkpt>
      <trkpt lat="47.24168" lon="-2.3">
        <ele>2.4000000953674</ele>
        <time>2021-08-22T08:10:47.000Z</time>
      </trkpt>
      <trkpt lat="47.24166" lon="-2.30005">
        <ele>2.4000000953674</ele>
        <time>2021-08-22T08:10:50.000Z</time>
      </trkpt>
      <trkpt lat="47.24161" lon="-2.30008">
        <ele>2.4000000953674</ele>
        <time>2021-08-22T08:10:52.000Z</time>
      </trkpt>
      <trkpt lat="47.24156" lon="-2.30004">
        <ele>2.4000000953674</ele>
        <time>2021-08-22T08:10:55.000Z</time>
      </trkpt>
      <trkpt lat="47.24155" lon="-2.30001">
        <ele>2.4000000953674</ele>
        <time>2021-08-22T08:10:56.000Z</time>
      </trkpt>
      <trkpt lat="47.24155" lon="-2.2998">
        <ele>2.4000000953674</ele>
        <time>2021-08-22T08:11:01.000Z</time>
      </trkpt>
      <trkpt lat="47.24156" lon="-2.29955">
        <ele>2.4000000953674</ele>
        <time>2021-08-22T08:11:06.000Z</time>
      </trkpt>
      <trkpt lat="47.24161" lon="-2.29936">
        <ele>2.4000000953674</ele>
        <time>2021-08-22T08:11:10.000Z</time>
      </trkpt>
      <trkpt lat="47.24168" lon="-2.29919">
        <ele>2.4000000953674</ele>
        <time>2021-08-22T08:11:15.000Z</time>
      </trkpt>
      <trkpt lat="47.24178" lon="-2.29897">
        <ele>2.7999999523163</ele>
        <time>2021-08-22T08:11:22.000Z</time>
      </trkpt>
      <trkpt lat="47.24178" lon="-2.29894">
        <ele>3.2000000476837</ele>
        <time>2021-08-22T08:11:23.000Z</time>
      </trkpt>
      <trkpt lat="47.24178" lon="-2.2989">
        <ele>4</ele>
        <time>2021-08-22T08:11:24.000Z</time>
      </trkpt>
      <trkpt lat="47.24177" lon="-2.29887">
        <ele>4.4000000953674</ele>
        <time>2021-08-22T08:11:25.000Z</time>
      </trkpt>
      <trkpt lat="47.24174" lon="-2.29879">
        <ele>4.4000000953674</ele>
        <time>2021-08-22T08:11:28.000Z</time>
      </trkpt>
      <trkpt lat="47.24173" lon="-2.29874">
        <ele>4.4000000953674</ele>
        <time>2021-08-22T08:11:29.000Z</time>
      </trkpt>
      <trkpt lat="47.24174" lon="-2.29859">
        <ele>4.4000000953674</ele>
        <time>2021-08-22T08:11:32.000Z</time>
      </trkpt>
      <trkpt lat="47.24174" lon="-2.29856">
        <ele>4.4000000953674</ele>
        <time>2021-08-22T08:11:33.000Z</time>
      </trkpt>
      <trkpt lat="47.24174" lon="-2.29845">
        <ele>4.4000000953674</ele>
        <time>2021-08-22T08:11:35.000Z</time>
      </trkpt>
      <trkpt lat="47.2417" lon="-2.29837">
        <ele>4.4000000953674</ele>
        <time>2021-08-22T08:11:37.000Z</time>
      </trkpt>
      <trkpt lat="47.24156" lon="-2.29839">
        <ele>4.4000000953674</ele>
        <time>2021-08-22T08:11:41.000Z</time>
      </trkpt>
      <trkpt lat="47.24152" lon="-2.2984">
        <ele>4.4000000953674</ele>
        <time>2021-08-22T08:11:42.000Z</time>
      </trkpt>
      <trkpt lat="47.24147" lon="-2.2984">
        <ele>4.4000000953674</ele>
        <time>2021-08-22T08:11:43.000Z</time>
      </trkpt>
      <trkpt lat="47.24133" lon="-2.29844">
        <ele>4.4000000953674</ele>
        <time>2021-08-22T08:11:46.000Z</time>
      </trkpt>
      <trkpt lat="47.24118" lon="-2.29848">
        <ele>4.4000000953674</ele>
        <time>2021-08-22T08:11:49.000Z</time>
      </trkpt>
      <trkpt lat="47.24105" lon="-2.29847">
        <ele>4.4000000953674</ele>
        <time>2021-08-22T08:11:52.000Z</time>
      </trkpt>
      <trkpt lat="47.24097" lon="-2.29844">
        <ele>4.4000000953674</ele>
        <time>2021-08-22T08:11:54.000Z</time>
      </trkpt>
      <trkpt lat="47.24084" lon="-2.29841">
        <ele>4.4000000953674</ele>
        <time>2021-08-22T08:11:58.000Z</time>
      </trkpt>
      <trkpt lat="47.24083" lon="-2.29843">
        <ele>4.4000000953674</ele>
        <time>2021-08-22T08:11:59.000Z</time>
      </trkpt>
      <trkpt lat="47.24081" lon="-2.29847">
        <ele>4.4000000953674</ele>
        <time>2021-08-22T08:12:01.000Z</time>
      </trkpt>
      <trkpt lat="47.2408" lon="-2.29853">
        <ele>4.4000000953674</ele>
        <time>2021-08-22T08:12:04.000Z</time>
      </trkpt>
      <trkpt lat="47.24078" lon="-2.2986">
        <ele>4.4000000953674</ele>
        <time>2021-08-22T08:12:06.000Z</time>
      </trkpt>
      <trkpt lat="47.24073" lon="-2.29893">
        <ele>4.4000000953674</ele>
        <time>2021-08-22T08:12:12.000Z</time>
      </trkpt>
      <trkpt lat="47.24068" lon="-2.2992">
        <ele>4.4000000953674</ele>
        <time>2021-08-22T08:12:17.000Z</time>
      </trkpt>
      <trkpt lat="47.24071" lon="-2.29936">
        <ele>4.4000000953674</ele>
        <time>2021-08-22T08:12:22.000Z</time>
      </trkpt>
      <trkpt lat="47.24078" lon="-2.2994">
        <ele>4.4000000953674</ele>
        <time>2021-08-22T08:12:25.000Z</time>
      </trkpt>
      <trkpt lat="47.24081" lon="-2.29941">
        <ele>4.4000000953674</ele>
        <time>2021-08-22T08:12:26.000Z</time>
      </trkpt>
      <trkpt lat="47.24093" lon="-2.2995">
        <ele>4.4000000953674</ele>
        <time>2021-08-22T08:12:30.000Z</time>
      </trkpt>
      <trkpt lat="47.24097" lon="-2.29956">
        <ele>4.4000000953674</ele>
        <time>2021-08-22T08:12:32.000Z</time>
      </trkpt>
      <trkpt lat="47.24105" lon="-2.29978">
        <ele>4.4000000953674</ele>
        <time>2021-08-22T08:12:37.000Z</time>
      </trkpt>
      <trkpt lat="47.24118" lon="-2.29982">
        <ele>4.4000000953674</ele>
        <time>2021-08-22T08:12:42.000Z</time>
      </trkpt>
      <trkpt lat="47.24143" lon="-2.2998">
        <ele>4.4000000953674</ele>
        <time>2021-08-22T08:12:48.000Z</time>
      </trkpt>
      <trkpt lat="47.24164" lon="-2.29975">
        <ele>4.4000000953674</ele>
        <time>2021-08-22T08:12:53.000Z</time>
      </trkpt>
      <trkpt lat="47.24188" lon="-2.29968">
        <ele>4.4000000953674</ele>
        <time>2021-08-22T08:12:58.000Z</time>
      </trkpt>
      <trkpt lat="47.242" lon="-2.29963">
        <ele>4</ele>
        <time>2021-08-22T08:13:00.000Z</time>
      </trkpt>
      <trkpt lat="47.24206" lon="-2.2996">
        <ele>3.2000000476837</ele>
        <time>2021-08-22T08:13:01.000Z</time>
      </trkpt>
      <trkpt lat="47.24211" lon="-2.29958">
        <ele>2.7999999523163</ele>
        <time>2021-08-22T08:13:02.000Z</time>
      </trkpt>
      <trkpt lat="47.24217" lon="-2.29956">
        <ele>2.4000000953674</ele>
        <time>2021-08-22T08:13:03.000Z</time>
      </trkpt>
      <trkpt lat="47.24222" lon="-2.29954">
        <ele>2.4000000953674</ele>
        <time>2021-08-22T08:13:04.000Z</time>
      </trkpt>
      <trkpt lat="47.24243" lon="-2.29943">
        <ele>2.4000000953674</ele>
        <time>2021-08-22T08:13:09.000Z</time>
      </trkpt>
      <trkpt lat="47.24261" lon="-2.29926">
        <ele>2.4000000953674</ele>
        <time>2021-08-22T08:13:13.000Z</time>
      </trkpt>
      <trkpt lat="47.24264" lon="-2.29922">
        <ele>2.4000000953674</ele>
        <time>2021-08-22T08:13:14.000Z</time>
      </trkpt>
      <trkpt lat="47.24305" lon="-2.29887">
        <ele>2.4000000953674</ele>
        <time>2021-08-22T08:13:21.000Z</time>
      </trkpt>
      <trkpt lat="47.24314" lon="-2.29866">
        <ele>2.4000000953674</ele>
        <time>2021-08-22T08:13:24.000Z</time>
      </trkpt>
      <trkpt lat="47.24315" lon="-2.29839">
        <ele>2.4000000953674</ele>
        <time>2021-08-22T08:13:27.000Z</time>
      </trkpt>
      <trkpt lat="47.24316" lon="-2.2983">
        <ele>2.4000000953674</ele>
        <time>2021-08-22T08:13:28.000Z</time>
      </trkpt>
      <trkpt lat="47.24324" lon="-2.29817">
        <ele>2.4000000953674</ele>
        <time>2021-08-22T08:13:30.000Z</time>
      </trkpt>
      <trkpt lat="47.24348" lon="-2.29807">
        <ele>2.4000000953674</ele>
        <time>2021-08-22T08:13:34.000Z</time>
      </trkpt>
      <trkpt lat="47.24354" lon="-2.29804">
        <ele>2.4000000953674</ele>
        <time>2021-08-22T08:13:35.000Z</time>
      </trkpt>
      <trkpt lat="47.24362" lon="-2.29792">
        <ele>2.4000000953674</ele>
        <time>2021-08-22T08:13:37.000Z</time>
      </trkpt>
      <trkpt lat="47.24376" lon="-2.29762">
        <ele>2.4000000953674</ele>
        <time>2021-08-22T08:13:41.000Z</time>
      </trkpt>
      <trkpt lat="47.2438" lon="-2.29753">
        <ele>2.4000000953674</ele>
        <time>2021-08-22T08:13:42.000Z</time>
      </trkpt>
      <trkpt lat="47.24386" lon="-2.29737">
        <ele>2.4000000953674</ele>
        <time>2021-08-22T08:13:44.000Z</time>
      </trkpt>
      <trkpt lat="47.244" lon="-2.29706">
        <ele>2.4000000953674</ele>
        <time>2021-08-22T08:13:48.000Z</time>
      </trkpt>
      <trkpt lat="47.24406" lon="-2.29702">
        <ele>2.7999999523163</ele>
        <time>2021-08-22T08:13:49.000Z</time>
      </trkpt>
      <trkpt lat="47.24411" lon="-2.29698">
        <ele>3.5999999046326</ele>
        <time>2021-08-22T08:13:50.000Z</time>
      </trkpt>
      <trkpt lat="47.24417" lon="-2.29695">
        <ele>4</ele>
        <time>2021-08-22T08:13:51.000Z</time>
      </trkpt>
      <trkpt lat="47.24423" lon="-2.29693">
        <ele>4.4000000953674</ele>
        <time>2021-08-22T08:13:52.000Z</time>
      </trkpt>
      <trkpt lat="47.24429" lon="-2.29692">
        <ele>4.4000000953674</ele>
        <time>2021-08-22T08:13:53.000Z</time>
      </trkpt>
      <trkpt lat="47.24439" lon="-2.29698">
        <ele>4.4000000953674</ele>
        <time>2021-08-22T08:13:55.000Z</time>
      </trkpt>
      <trkpt lat="47.24447" lon="-2.2972">
        <ele>4.4000000953674</ele>
        <time>2021-08-22T08:13:58.000Z</time>
      </trkpt>
      <trkpt lat="47.2445" lon="-2.29728">
        <ele>4.4000000953674</ele>
        <time>2021-08-22T08:13:59.000Z</time>
      </trkpt>
      <trkpt lat="47.24461" lon="-2.29768">
        <ele>4.4000000953674</ele>
        <time>2021-08-22T08:14:04.000Z</time>
      </trkpt>
      <trkpt lat="47.24471" lon="-2.29807">
        <ele>4.4000000953674</ele>
        <time>2021-08-22T08:14:09.000Z</time>
      </trkpt>
      <trkpt lat="47.24474" lon="-2.29815">
        <ele>4.4000000953674</ele>
        <time>2021-08-22T08:14:10.000Z</time>
      </trkpt>
      <trkpt lat="47.24495" lon="-2.29845">
        <ele>4.4000000953674</ele>
        <time>2021-08-22T08:14:15.000Z</time>
      </trkpt>
      <trkpt lat="47.24516" lon="-2.2986">
        <ele>4.4000000953674</ele>
        <time>2021-08-22T08:14:19.000Z</time>
      </trkpt>
      <trkpt lat="47.24522" lon="-2.29862">
        <ele>4.4000000953674</ele>
        <time>2021-08-22T08:14:20.000Z</time>
      </trkpt>
      <trkpt lat="47.24554" lon="-2.29873">
        <ele>4.4000000953674</ele>
        <time>2021-08-22T08:14:26.000Z</time>
      </trkpt>
      <trkpt lat="47.24569" lon="-2.29888">
        <ele>4.4000000953674</ele>
        <time>2021-08-22T08:14:30.000Z</time>
      </trkpt>
      <trkpt lat="47.24572" lon="-2.29892">
        <ele>4.4000000953674</ele>
        <time>2021-08-22T08:14:31.000Z</time>
      </trkpt>
      <trkpt lat="47.24574" lon="-2.29896">
        <ele>4.4000000953674</ele>
        <time>2021-08-22T08:14:32.000Z</time>
      </trkpt>
      <trkpt lat="47.24582" lon="-2.29915">
        <ele>4.4000000953674</ele>
        <time>2021-08-22T08:14:35.000Z</time>
      </trkpt>
      <trkpt lat="47.24598" lon="-2.29941">
        <ele>4.4000000953674</ele>
        <time>2021-08-22T08:14:40.000Z</time>
      </trkpt>
      <trkpt lat="47.24603" lon="-2.29942">
        <ele>4.4000000953674</ele>
        <time>2021-08-22T08:14:41.000Z</time>
      </trkpt>
      <trkpt lat="47.24617" lon="-2.29939">
        <ele>4.4000000953674</ele>
        <time>2021-08-22T08:14:44.000Z</time>
      </trkpt>
      <trkpt lat="47.24621" lon="-2.2994">
        <ele>4.4000000953674</ele>
        <time>2021-08-22T08:14:45.000Z</time>
      </trkpt>
      <trkpt lat="47.24631" lon="-2.29937">
        <ele>4.4000000953674</ele>
        <time>2021-08-22T08:14:48.000Z</time>
      </trkpt>
      <trkpt lat="47.24634" lon="-2.29936">
        <ele>4.4000000953674</ele>
        <time>2021-08-22T08:14:49.000Z</time>
      </trkpt>
      <trkpt lat="47.24648" lon="-2.29929">
        <ele>4.4000000953674</ele>
        <time>2021-08-22T08:14:56.000Z</time>
      </trkpt>
      <trkpt lat="47.2465" lon="-2.29927">
        <ele>4.4000000953674</ele>
        <time>2021-08-22T08:16:38.000Z</time>
      </trkpt>
      <trkpt lat="47.24654" lon="-2.29925">
        <ele>4.4000000953674</ele>
        <time>2021-08-22T08:16:40.000Z</time>
      </trkpt>
      <trkpt lat="47.24671" lon="-2.29919">
        <ele>4.4000000953674</ele>
        <time>2021-08-22T08:16:45.000Z</time>
      </trkpt>
      <trkpt lat="47.24689" lon="-2.29913">
        <ele>4.8000001907349</ele>
        <time>2021-08-22T08:16:51.000Z</time>
      </trkpt>
      <trkpt lat="47.24692" lon="-2.29912">
        <ele>5.1999998092651</ele>
        <time>2021-08-22T08:16:52.000Z</time>
      </trkpt>
      <trkpt lat="47.24694" lon="-2.29911">
        <ele>5.5999999046326</ele>
        <time>2021-08-22T08:16:53.000Z</time>
      </trkpt>
      <trkpt lat="47.24696" lon="-2.29911">
        <ele>6</ele>
        <time>2021-08-22T08:16:54.000Z</time>
      </trkpt>
      <trkpt lat="47.24698" lon="-2.2991">
        <ele>6.4000000953674</ele>
        <time>2021-08-22T08:16:55.000Z</time>
      </trkpt>
      <trkpt lat="47.24703" lon="-2.2991">
        <ele>6.4000000953674</ele>
        <time>2021-08-22T08:16:59.000Z</time>
      </trkpt>
      <trkpt lat="47.24703" lon="-2.29911">
        <ele>6.4000000953674</ele>
        <time>2021-08-22T08:17:01.000Z</time>
      </trkpt>
      <trkpt lat="47.24706" lon="-2.29909">
        <ele>6.4000000953674</ele>
        <time>2021-08-22T08:17:13.000Z</time>
      </trkpt>
      <trkpt lat="47.24708" lon="-2.29907">
        <ele>6.4000000953674</ele>
        <time>2021-08-22T08:17:14.000Z</time>
      </trkpt>
      <trkpt lat="47.24716" lon="-2.29905">
        <ele>6.4000000953674</ele>
        <time>2021-08-22T08:17:17.000Z</time>
      </trkpt>
      <trkpt lat="47.24726" lon="-2.29902">
        <ele>6.4000000953674</ele>
        <time>2021-08-22T08:17:20.000Z</time>
      </trkpt>
      <trkpt lat="47.24746" lon="-2.29894">
        <ele>6.4000000953674</ele>
        <time>2021-08-22T08:17:26.000Z</time>
      </trkpt>
      <trkpt lat="47.24772" lon="-2.29875">
        <ele>6.4000000953674</ele>
        <time>2021-08-22T08:17:34.000Z</time>
      </trkpt>
      <trkpt lat="47.24796" lon="-2.29857">
        <ele>6.4000000953674</ele>
        <time>2021-08-22T08:17:41.000Z</time>
      </trkpt>
      <trkpt lat="47.24808" lon="-2.29851">
        <ele>6.8000001907349</ele>
        <time>2021-08-22T08:17:44.000Z</time>
      </trkpt>
      <trkpt lat="47.24811" lon="-2.2985">
        <ele>7.1999998092651</ele>
        <time>2021-08-22T08:17:45.000Z</time>
      </trkpt>
      <trkpt lat="47.24815" lon="-2.29849">
        <ele>7.5999999046326</ele>
        <time>2021-08-22T08:17:46.000Z</time>
      </trkpt>
      <trkpt lat="47.24819" lon="-2.29847">
        <ele>8</ele>
        <time>2021-08-22T08:17:47.000Z</time>
      </trkpt>
      <trkpt lat="47.24823" lon="-2.29847">
        <ele>8.3999996185303</ele>
        <time>2021-08-22T08:17:48.000Z</time>
      </trkpt>
      <trkpt lat="47.24846" lon="-2.29839">
        <ele>8.3999996185303</ele>
        <time>2021-08-22T08:17:54.000Z</time>
      </trkpt>
      <trkpt lat="47.24864" lon="-2.2983">
        <ele>8.3999996185303</ele>
        <time>2021-08-22T08:17:59.000Z</time>
      </trkpt>
      <trkpt lat="47.24867" lon="-2.29831">
        <ele>8.3999996185303</ele>
        <time>2021-08-22T08:18:00.000Z</time>
      </trkpt>
      <trkpt lat="47.2487" lon="-2.29846">
        <ele>8.3999996185303</ele>
        <time>2021-08-22T08:18:03.000Z</time>
      </trkpt>
      <trkpt lat="47.24871" lon="-2.29853">
        <ele>8.3999996185303</ele>
        <time>2021-08-22T08:18:04.000Z</time>
      </trkpt>
      <trkpt lat="47.24877" lon="-2.2989">
        <ele>8.3999996185303</ele>
        <time>2021-08-22T08:18:09.000Z</time>
      </trkpt>
      <trkpt lat="47.24882" lon="-2.29935">
        <ele>8.3999996185303</ele>
        <time>2021-08-22T08:18:14.000Z</time>
      </trkpt>
      <trkpt lat="47.24885" lon="-2.29944">
        <ele>8.3999996185303</ele>
        <time>2021-08-22T08:18:15.000Z</time>
      </trkpt>
      <trkpt lat="47.249" lon="-2.30006">
        <ele>8.3999996185303</ele>
        <time>2021-08-22T08:18:22.000Z</time>
      </trkpt>
      <trkpt lat="47.24905" lon="-2.30038">
        <ele>8.3999996185303</ele>
        <time>2021-08-22T08:18:26.000Z</time>
      </trkpt>
      <trkpt lat="47.24905" lon="-2.30051">
        <ele>8.3999996185303</ele>
        <time>2021-08-22T08:18:28.000Z</time>
      </trkpt>
      <trkpt lat="47.24914" lon="-2.30058">
        <ele>8.3999996185303</ele>
        <time>2021-08-22T08:18:31.000Z</time>
      </trkpt>
      <trkpt lat="47.24922" lon="-2.30057">
        <ele>8.3999996185303</ele>
        <time>2021-08-22T08:18:33.000Z</time>
      </trkpt>
      <trkpt lat="47.24937" lon="-2.30056">
        <ele>8.3999996185303</ele>
        <time>2021-08-22T08:18:36.000Z</time>
      </trkpt>
      <trkpt lat="47.24969" lon="-2.30056">
        <ele>8.3999996185303</ele>
        <time>2021-08-22T08:18:42.000Z</time>
      </trkpt>
      <trkpt lat="47.25003" lon="-2.30052">
        <ele>8.3999996185303</ele>
        <time>2021-08-22T08:18:49.000Z</time>
      </trkpt>
      <trkpt lat="47.25008" lon="-2.30052">
        <ele>8.3999996185303</ele>
        <time>2021-08-22T08:18:50.000Z</time>
      </trkpt>
      <trkpt lat="47.25022" lon="-2.30052">
        <ele>8.3999996185303</ele>
        <time>2021-08-22T08:18:53.000Z</time>
      </trkpt>
      <trkpt lat="47.25027" lon="-2.30052">
        <ele>8.3999996185303</ele>
        <time>2021-08-22T08:18:54.000Z</time>
      </trkpt>
      <trkpt lat="47.25057" lon="-2.30055">
        <ele>8.3999996185303</ele>
        <time>2021-08-22T08:19:00.000Z</time>
      </trkpt>
      <trkpt lat="47.25067" lon="-2.30056">
        <ele>8.3999996185303</ele>
        <time>2021-08-22T08:19:02.000Z</time>
      </trkpt>
      <trkpt lat="47.25071" lon="-2.30057">
        <ele>8</ele>
        <time>2021-08-22T08:19:03.000Z</time>
      </trkpt>
      <trkpt lat="47.25073" lon="-2.30061">
        <ele>7.5999999046326</ele>
        <time>2021-08-22T08:19:04.000Z</time>
      </trkpt>
      <trkpt lat="47.25073" lon="-2.30066">
        <ele>7.1999998092651</ele>
        <time>2021-08-22T08:19:05.000Z</time>
      </trkpt>
      <trkpt lat="47.25071" lon="-2.30072">
        <ele>6.8000001907349</ele>
        <time>2021-08-22T08:19:06.000Z</time>
      </trkpt>
      <trkpt lat="47.25071" lon="-2.30079">
        <ele>6.1999998092651</ele>
        <time>2021-08-22T08:19:07.000Z</time>
      </trkpt>
      <trkpt lat="47.2507" lon="-2.30086">
        <ele>6.1999998092651</ele>
        <time>2021-08-22T08:19:08.000Z</time>
      </trkpt>
      <trkpt lat="47.25068" lon="-2.3011">
        <ele>6.1999998092651</ele>
        <time>2021-08-22T08:19:11.000Z</time>
      </trkpt>
      <trkpt lat="47.2507" lon="-2.30136">
        <ele>6.1999998092651</ele>
        <time>2021-08-22T08:19:15.000Z</time>
      </trkpt>
      <trkpt lat="47.25074" lon="-2.30137">
        <ele>6.1999998092651</ele>
        <time>2021-08-22T08:19:16.000Z</time>
      </trkpt>
      <trkpt lat="47.25094" lon="-2.30135">
        <ele>6.1999998092651</ele>
        <time>2021-08-22T08:19:20.000Z</time>
      </trkpt>
      <trkpt lat="47.25118" lon="-2.30129">
        <ele>6.1999998092651</ele>
        <time>2021-08-22T08:19:24.000Z</time>
      </trkpt>
      <trkpt lat="47.25129" lon="-2.30127">
        <ele>6.1999998092651</ele>
        <time>2021-08-22T08:19:26.000Z</time>
      </trkpt>
      <trkpt lat="47.25147" lon="-2.30124">
        <ele>6.1999998092651</ele>
        <time>2021-08-22T08:19:29.000Z</time>
      </trkpt>
      <trkpt lat="47.25164" lon="-2.30119">
        <ele>5.8000001907349</ele>
        <time>2021-08-22T08:19:32.000Z</time>
      </trkpt>
      <trkpt lat="47.25169" lon="-2.30118">
        <ele>5.4000000953674</ele>
        <time>2021-08-22T08:19:33.000Z</time>
      </trkpt>
      <trkpt lat="47.25175" lon="-2.30117">
        <ele>5</ele>
        <time>2021-08-22T08:19:34.000Z</time>
      </trkpt>
      <trkpt lat="47.2518" lon="-2.30116">
        <ele>4.5999999046326</ele>
        <time>2021-08-22T08:19:35.000Z</time>
      </trkpt>
      <trkpt lat="47.25184" lon="-2.30117">
        <ele>4.1999998092651</ele>
        <time>2021-08-22T08:19:36.000Z</time>
      </trkpt>
      <trkpt lat="47.25191" lon="-2.30128">
        <ele>4.1999998092651</ele>
        <time>2021-08-22T08:19:38.000Z</time>
      </trkpt>
      <trkpt lat="47.25203" lon="-2.30146">
        <ele>4.1999998092651</ele>
        <time>2021-08-22T08:19:41.000Z</time>
      </trkpt>
      <trkpt lat="47.25213" lon="-2.30158">
        <ele>4.1999998092651</ele>
        <time>2021-08-22T08:19:43.000Z</time>
      </trkpt>
      <trkpt lat="47.25217" lon="-2.30164">
        <ele>3.7999999523163</ele>
        <time>2021-08-22T08:19:44.000Z</time>
      </trkpt>
      <trkpt lat="47.25222" lon="-2.3017">
        <ele>3.4000000953674</ele>
        <time>2021-08-22T08:19:45.000Z</time>
      </trkpt>
      <trkpt lat="47.25227" lon="-2.30174">
        <ele>3</ele>
        <time>2021-08-22T08:19:46.000Z</time>
      </trkpt>
      <trkpt lat="47.25233" lon="-2.30176">
        <ele>2.5999999046326</ele>
        <time>2021-08-22T08:19:47.000Z</time>
      </trkpt>
      <trkpt lat="47.25239" lon="-2.30179">
        <ele>2.2000000476837</ele>
        <time>2021-08-22T08:19:48.000Z</time>
      </trkpt>
      <trkpt lat="47.25269" lon="-2.30192">
        <ele>1.6000000238419</ele>
        <time>2021-08-22T08:19:53.000Z</time>
      </trkpt>
      <trkpt lat="47.25275" lon="-2.30195">
        <ele>1.2000000476837</ele>
        <time>2021-08-22T08:19:54.000Z</time>
      </trkpt>
      <trkpt lat="47.25281" lon="-2.30198">
        <ele>0.80000001192093</ele>
        <time>2021-08-22T08:19:55.000Z</time>
      </trkpt>
      <trkpt lat="47.25286" lon="-2.30201">
        <ele>0.40000000596046</ele>
        <time>2021-08-22T08:19:56.000Z</time>
      </trkpt>
      <trkpt lat="47.25291" lon="-2.30203">
        <ele>29.5</ele>
        <time>2021-08-22T08:19:57.000Z</time>
      </trkpt>
      <trkpt lat="47.25303" lon="-2.30209">
        <ele>29.1</ele>
        <time>2021-08-22T08:20:00.000Z</time>
      </trkpt>
      <trkpt lat="47.25305" lon="-2.30207">
        <ele>29</ele>
        <time>2021-08-22T08:20:01.000Z</time>
      </trkpt>
      <trkpt lat="47.25308" lon="-2.30201">
        <ele>29</ele>
        <time>2021-08-22T08:20:03.000Z</time>
      </trkpt>
      <trkpt lat="47.2532" lon="-2.30204">
        <ele>28.8</ele>
        <time>2021-08-22T08:20:06.000Z</time>
      </trkpt>
      <trkpt lat="47.25351" lon="-2.30207">
        <ele>-0.40000000596046</ele>
        <time>2021-08-22T08:20:12.000Z</time>
      </trkpt>
      <trkpt lat="47.25355" lon="-2.30207">
        <ele>-0.80000001192093</ele>
        <time>2021-08-22T08:20:13.000Z</time>
      </trkpt>
      <trkpt lat="47.25361" lon="-2.30207">
        <ele>-1.3999999761581</ele>
        <time>2021-08-22T08:20:14.000Z</time>
      </trkpt>
      <trkpt lat="47.25366" lon="-2.30207">
        <ele>-1.7999999523163</ele>
        <time>2021-08-22T08:20:15.000Z</time>
      </trkpt>
      <trkpt lat="47.25372" lon="-2.30208">
        <ele>-2.2000000476837</ele>
        <time>2021-08-22T08:20:16.000Z</time>
      </trkpt>
      <trkpt lat="47.25386" lon="-2.30211">
        <ele>-2.2000000476837</ele>
        <time>2021-08-22T08:20:19.000Z</time>
      </trkpt>
      <trkpt lat="47.25411" lon="-2.30226">
        <ele>-2.2000000476837</ele>
        <time>2021-08-22T08:20:25.000Z</time>
      </trkpt>
      <trkpt lat="47.25424" lon="-2.3023">
        <ele>-2.2000000476837</ele>
        <time>2021-08-22T08:20:28.000Z</time>
      </trkpt>
      <trkpt lat="47.25432" lon="-2.30233">
        <ele>-2.2000000476837</ele>
        <time>2021-08-22T08:20:30.000Z</time>
      </trkpt>
      <trkpt lat="47.25437" lon="-2.30235">
        <ele>-2.5999999046326</ele>
        <time>2021-08-22T08:20:31.000Z</time>
      </trkpt>
      <trkpt lat="47.25441" lon="-2.30236">
        <ele>-3</ele>
        <time>2021-08-22T08:20:32.000Z</time>
      </trkpt>
      <trkpt lat="47.25446" lon="-2.30238">
        <ele>-3.4000000953674</ele>
        <time>2021-08-22T08:20:33.000Z</time>
      </trkpt>
      <trkpt lat="47.25452" lon="-2.3024">
        <ele>-3.7999999523163</ele>
        <time>2021-08-22T08:20:34.000Z</time>
      </trkpt>
      <trkpt lat="47.25457" lon="-2.30241">
        <ele>-4.1999998092651</ele>
        <time>2021-08-22T08:20:35.000Z</time>
      </trkpt>
      <trkpt lat="47.25461" lon="-2.30244">
        <ele>-4.1999998092651</ele>
        <time>2021-08-22T08:20:36.000Z</time>
      </trkpt>
      <trkpt lat="47.25473" lon="-2.30243">
        <ele>-4.1999998092651</ele>
        <time>2021-08-22T08:20:39.000Z</time>
      </trkpt>
      <trkpt lat="47.25476" lon="-2.30239">
        <ele>-4.1999998092651</ele>
        <time>2021-08-22T08:20:40.000Z</time>
      </trkpt>
      <trkpt lat="47.2548" lon="-2.30221">
        <ele>-4.1999998092651</ele>
        <time>2021-08-22T08:20:43.000Z</time>
      </trkpt>
      <trkpt lat="47.2549" lon="-2.30204">
        <ele>-4.1999998092651</ele>
        <time>2021-08-22T08:20:47.000Z</time>
      </trkpt>
      <trkpt lat="47.25497" lon="-2.30199">
        <ele>-4.5999999046326</ele>
        <time>2021-08-22T08:20:49.000Z</time>
      </trkpt>
      <trkpt lat="47.25501" lon="-2.30199">
        <ele>-5</ele>
        <time>2021-08-22T08:20:50.000Z</time>
      </trkpt>
      <trkpt lat="47.25505" lon="-2.30199">
        <ele>-5.8000001907349</ele>
        <time>2021-08-22T08:20:51.000Z</time>
      </trkpt>
      <trkpt lat="47.25508" lon="-2.30199">
        <ele>-6.1999998092651</ele>
        <time>2021-08-22T08:20:52.000Z</time>
      </trkpt>
      <trkpt lat="47.25523" lon="-2.30199">
        <ele>-6.1999998092651</ele>
        <time>2021-08-22T08:20:56.000Z</time>
      </trkpt>
      <trkpt lat="47.25541" lon="-2.3019">
        <ele>-6.1999998092651</ele>
        <time>2021-08-22T08:21:00.000Z</time>
      </trkpt>
      <trkpt lat="47.2555" lon="-2.30186">
        <ele>-6.1999998092651</ele>
        <time>2021-08-22T08:21:02.000Z</time>
      </trkpt>
      <trkpt lat="47.25564" lon="-2.30188">
        <ele>-6.1999998092651</ele>
        <time>2021-08-22T08:21:04.000Z</time>
      </trkpt>
      <trkpt lat="47.25593" lon="-2.30205">
        <ele>-6.1999998092651</ele>
        <time>2021-08-22T08:21:09.000Z</time>
      </trkpt>
      <trkpt lat="47.25597" lon="-2.30209">
        <ele>-6.1999998092651</ele>
        <time>2021-08-22T08:21:10.000Z</time>
      </trkpt>
      <trkpt lat="47.25602" lon="-2.30214">
        <ele>-6.1999998092651</ele>
        <time>2021-08-22T08:21:12.000Z</time>
      </trkpt>
      <trkpt lat="47.25609" lon="-2.30218">
        <ele>-6.5999999046326</ele>
        <time>2021-08-22T08:21:16.000Z</time>
      </trkpt>
      <trkpt lat="47.25611" lon="-2.3022">
        <ele>-7</ele>
        <time>2021-08-22T08:21:17.000Z</time>
      </trkpt>
      <trkpt lat="47.25612" lon="-2.30223">
        <ele>-7.4000000953674</ele>
        <time>2021-08-22T08:21:18.000Z</time>
      </trkpt>
      <trkpt lat="47.25613" lon="-2.30227">
        <ele>-7.8000001907349</ele>
        <time>2021-08-22T08:21:19.000Z</time>
      </trkpt>
      <trkpt lat="47.25615" lon="-2.30232">
        <ele>-8.1999998092651</ele>
        <time>2021-08-22T08:21:20.000Z</time>
      </trkpt>
      <trkpt lat="47.25616" lon="-2.30237">
        <ele>-8.1999998092651</ele>
        <time>2021-08-22T08:21:21.000Z</time>
      </trkpt>
      <trkpt lat="47.25622" lon="-2.30271">
        <ele>-8.1999998092651</ele>
        <time>2021-08-22T08:21:27.000Z</time>
      </trkpt>
      <trkpt lat="47.25627" lon="-2.30314">
        <ele>-8.1999998092651</ele>
        <time>2021-08-22T08:21:34.000Z</time>
      </trkpt>
      <trkpt lat="47.25632" lon="-2.3034">
        <ele>-8.1999998092651</ele>
        <time>2021-08-22T08:21:40.000Z</time>
      </trkpt>
      <trkpt lat="47.25641" lon="-2.30336">
        <ele>-8.1999998092651</ele>
        <time>2021-08-22T08:21:44.000Z</time>
      </trkpt>
      <trkpt lat="47.25646" lon="-2.30327">
        <ele>-8.1999998092651</ele>
        <time>2021-08-22T08:21:46.000Z</time>
      </trkpt>
      <trkpt lat="47.25651" lon="-2.30316">
        <ele>-8.1999998092651</ele>
        <time>2021-08-22T08:21:48.000Z</time>
      </trkpt>
      <trkpt lat="47.25655" lon="-2.30306">
        <ele>-8.1999998092651</ele>
        <time>2021-08-22T08:21:50.000Z</time>
      </trkpt>
      <trkpt lat="47.25657" lon="-2.30286">
        <ele>-8.1999998092651</ele>
        <time>2021-08-22T08:21:53.000Z</time>
      </trkpt>
      <trkpt lat="47.25667" lon="-2.30268">
        <ele>-8.1999998092651</ele>
        <time>2021-08-22T08:21:57.000Z</time>
      </trkpt>
      <trkpt lat="47.25679" lon="-2.30242">
        <ele>-8.1999998092651</ele>
        <time>2021-08-22T08:22:01.000Z</time>
      </trkpt>
      <trkpt lat="47.25686" lon="-2.30228">
        <ele>-8.1999998092651</ele>
        <time>2021-08-22T08:22:03.000Z</time>
      </trkpt>
      <trkpt lat="47.2569" lon="-2.30222">
        <ele>-8.1999998092651</ele>
        <time>2021-08-22T08:22:04.000Z</time>
      </trkpt>
      <trkpt lat="47.257" lon="-2.30212">
        <ele>-8.1999998092651</ele>
        <time>2021-08-22T08:22:06.000Z</time>
      </trkpt>
      <trkpt lat="47.25726" lon="-2.30205">
        <ele>-8.1999998092651</ele>
        <time>2021-08-22T08:22:10.000Z</time>
      </trkpt>
      <trkpt lat="47.25753" lon="-2.30215">
        <ele>-8.1999998092651</ele>
        <time>2021-08-22T08:22:14.000Z</time>
      </trkpt>
      <trkpt lat="47.25759" lon="-2.30218">
        <ele>-8.1999998092651</ele>
        <time>2021-08-22T08:22:15.000Z</time>
      </trkpt>
      <trkpt lat="47.25765" lon="-2.30222">
        <ele>-8.6000003814697</ele>
        <time>2021-08-22T08:22:16.000Z</time>
      </trkpt>
      <trkpt lat="47.25772" lon="-2.30225">
        <ele>-9</ele>
        <time>2021-08-22T08:22:17.000Z</time>
      </trkpt>
      <trkpt lat="47.25779" lon="-2.30228">
        <ele>-9.3999996185303</ele>
        <time>2021-08-22T08:22:18.000Z</time>
      </trkpt>
      <trkpt lat="47.25785" lon="-2.30232">
        <ele>-9.8000001907349</ele>
        <time>2021-08-22T08:22:19.000Z</time>
      </trkpt>
      <trkpt lat="47.25792" lon="-2.30235">
        <ele>-10.39999961853</ele>
        <time>2021-08-22T08:22:20.000Z</time>
      </trkpt>
      <trkpt lat="47.25801" lon="-2.30238">
        <ele>-10.39999961853</ele>
        <time>2021-08-22T08:22:21.000Z</time>
      </trkpt>
      <trkpt lat="47.25808" lon="-2.3024">
        <ele>-10.39999961853</ele>
        <time>2021-08-22T08:22:22.000Z</time>
      </trkpt>
      <trkpt lat="47.25841" lon="-2.30251">
        <ele>-10.39999961853</ele>
        <time>2021-08-22T08:22:27.000Z</time>
      </trkpt>
      <trkpt lat="47.25854" lon="-2.30259">
        <ele>-10.39999961853</ele>
        <time>2021-08-22T08:22:30.000Z</time>
      </trkpt>
      <trkpt lat="47.25863" lon="-2.30263">
        <ele>-10.39999961853</ele>
        <time>2021-08-22T08:22:32.000Z</time>
      </trkpt>
      <trkpt lat="47.25879" lon="-2.30264">
        <ele>-10.39999961853</ele>
        <time>2021-08-22T08:22:36.000Z</time>
      </trkpt>
      <trkpt lat="47.25894" lon="-2.30243">
        <ele>-10.39999961853</ele>
        <time>2021-08-22T08:22:40.000Z</time>
      </trkpt>
      <trkpt lat="47.25895" lon="-2.30218">
        <ele>-10.39999961853</ele>
        <time>2021-08-22T08:22:43.000Z</time>
      </trkpt>
      <trkpt lat="47.25892" lon="-2.30203">
        <ele>-10.39999961853</ele>
        <time>2021-08-22T08:22:45.000Z</time>
      </trkpt>
      <trkpt lat="47.25892" lon="-2.30187">
        <ele>-10.39999961853</ele>
        <time>2021-08-22T08:22:47.000Z</time>
      </trkpt>
      <trkpt lat="47.25902" lon="-2.30172">
        <ele>-10.39999961853</ele>
        <time>2021-08-22T08:22:50.000Z</time>
      </trkpt>
      <trkpt lat="47.25918" lon="-2.30168">
        <ele>-10.39999961853</ele>
        <time>2021-08-22T08:22:53.000Z</time>
      </trkpt>
      <trkpt lat="47.25925" lon="-2.30167">
        <ele>-10.39999961853</ele>
        <time>2021-08-22T08:22:54.000Z</time>
      </trkpt>
      <trkpt lat="47.2595" lon="-2.3016">
        <ele>-10.39999961853</ele>
        <time>2021-08-22T08:22:58.000Z</time>
      </trkpt>
      <trkpt lat="47.25962" lon="-2.30149">
        <ele>-10.39999961853</ele>
        <time>2021-08-22T08:23:00.000Z</time>
      </trkpt>
      <trkpt lat="47.25965" lon="-2.3014">
        <ele>-10.800000190735</ele>
        <time>2021-08-22T08:23:01.000Z</time>
      </trkpt>
      <trkpt lat="47.25968" lon="-2.30131">
        <ele>-11.199999809265</ele>
        <time>2021-08-22T08:23:02.000Z</time>
      </trkpt>
      <trkpt lat="47.2597" lon="-2.30121">
        <ele>-11.60000038147</ele>
        <time>2021-08-22T08:23:03.000Z</time>
      </trkpt>
      <trkpt lat="47.25971" lon="-2.30112">
        <ele>-12</ele>
        <time>2021-08-22T08:23:04.000Z</time>
      </trkpt>
      <trkpt lat="47.25972" lon="-2.30102">
        <ele>-12.39999961853</ele>
        <time>2021-08-22T08:23:05.000Z</time>
      </trkpt>
      <trkpt lat="47.25972" lon="-2.30092">
        <ele>-12.39999961853</ele>
        <time>2021-08-22T08:23:06.000Z</time>
      </trkpt>
      <trkpt lat="47.25972" lon="-2.30074">
        <ele>-12.39999961853</ele>
        <time>2021-08-22T08:23:08.000Z</time>
      </trkpt>
      <trkpt lat="47.25974" lon="-2.30007">
        <ele>-12.39999961853</ele>
        <time>2021-08-22T08:23:16.000Z</time>
      </trkpt>
      <trkpt lat="47.25975" lon="-2.29982">
        <ele>-12.39999961853</ele>
        <time>2021-08-22T08:23:19.000Z</time>
      </trkpt>
      <trkpt lat="47.2598" lon="-2.29951">
        <ele>-12.39999961853</ele>
        <time>2021-08-22T08:23:23.000Z</time>
      </trkpt>
      <trkpt lat="47.25984" lon="-2.29939">
        <ele>-12.39999961853</ele>
        <time>2021-08-22T08:23:25.000Z</time>
      </trkpt>
      <trkpt lat="47.25991" lon="-2.29932">
        <ele>-12.39999961853</ele>
        <time>2021-08-22T08:23:27.000Z</time>
      </trkpt>
      <trkpt lat="47.25993" lon="-2.29921">
        <ele>-12.39999961853</ele>
        <time>2021-08-22T08:23:30.000Z</time>
      </trkpt>
      <trkpt lat="47.25992" lon="-2.2992">
        <ele>-12.39999961853</ele>
        <time>2021-08-22T08:23:31.000Z</time>
      </trkpt>
      <trkpt lat="47.25983" lon="-2.29905">
        <ele>-12.39999961853</ele>
        <time>2021-08-22T08:23:36.000Z</time>
      </trkpt>
      <trkpt lat="47.25974" lon="-2.29888">
        <ele>-12.39999961853</ele>
        <time>2021-08-22T08:23:41.000Z</time>
      </trkpt>
      <trkpt lat="47.25968" lon="-2.29877">
        <ele>-12.39999961853</ele>
        <time>2021-08-22T08:23:45.000Z</time>
      </trkpt>
      <trkpt lat="47.25966" lon="-2.29877">
        <ele>-12.39999961853</ele>
        <time>2021-08-22T08:23:47.000Z</time>
      </trkpt>
      <trkpt lat="47.25959" lon="-2.29867">
        <ele>-12.39999961853</ele>
        <time>2021-08-22T08:24:11.000Z</time>
      </trkpt>
      <trkpt lat="47.25958" lon="-2.29865">
        <ele>-12.39999961853</ele>
        <time>2021-08-22T08:24:12.000Z</time>
      </trkpt>
      <trkpt lat="47.25955" lon="-2.29846">
        <ele>-12.39999961853</ele>
        <time>2021-08-22T08:24:17.000Z</time>
      </trkpt>
      <trkpt lat="47.25953" lon="-2.29826">
        <ele>-12.39999961853</ele>
        <time>2021-08-22T08:24:23.000Z</time>
      </trkpt>
      <trkpt lat="47.25945" lon="-2.298">
        <ele>-12.39999961853</ele>
        <time>2021-08-22T08:24:29.000Z</time>
      </trkpt>
      <trkpt lat="47.25937" lon="-2.29777">
        <ele>-12.39999961853</ele>
        <time>2021-08-22T08:24:35.000Z</time>
      </trkpt>
      <trkpt lat="47.25927" lon="-2.29743">
        <ele>-12.39999961853</ele>
        <time>2021-08-22T08:24:41.000Z</time>
      </trkpt>
      <trkpt lat="47.25926" lon="-2.29738">
        <ele>-12</ele>
        <time>2021-08-22T08:24:42.000Z</time>
      </trkpt>
      <trkpt lat="47.25927" lon="-2.29733">
        <ele>-11.60000038147</ele>
        <time>2021-08-22T08:24:43.000Z</time>
      </trkpt>
      <trkpt lat="47.25927" lon="-2.29728">
        <ele>-11.199999809265</ele>
        <time>2021-08-22T08:24:44.000Z</time>
      </trkpt>
      <trkpt lat="47.25927" lon="-2.2972">
        <ele>-10.800000190735</ele>
        <time>2021-08-22T08:24:45.000Z</time>
      </trkpt>
      <trkpt lat="47.25928" lon="-2.29715">
        <ele>-10.39999961853</ele>
        <time>2021-08-22T08:24:46.000Z</time>
      </trkpt>
      <trkpt lat="47.25932" lon="-2.29675">
        <ele>-9.8000001907349</ele>
        <time>2021-08-22T08:24:53.000Z</time>
      </trkpt>
      <trkpt lat="47.25933" lon="-2.29668">
        <ele>-9.3999996185303</ele>
        <time>2021-08-22T08:24:54.000Z</time>
      </trkpt>
      <trkpt lat="47.25933" lon="-2.2966">
        <ele>-9</ele>
        <time>2021-08-22T08:24:55.000Z</time>
      </trkpt>
      <trkpt lat="47.25934" lon="-2.29654">
        <ele>-8.1999998092651</ele>
        <time>2021-08-22T08:24:56.000Z</time>
      </trkpt>
      <trkpt lat="47.25933" lon="-2.29641">
        <ele>-8.1999998092651</ele>
        <time>2021-08-22T08:24:58.000Z</time>
      </trkpt>
      <trkpt lat="47.25937" lon="-2.29626">
        <ele>-8.1999998092651</ele>
        <time>2021-08-22T08:25:01.000Z</time>
      </trkpt>
      <trkpt lat="47.25942" lon="-2.29626">
        <ele>-8.1999998092651</ele>
        <time>2021-08-22T08:25:02.000Z</time>
      </trkpt>
      <trkpt lat="47.25954" lon="-2.29636">
        <ele>-8.1999998092651</ele>
        <time>2021-08-22T08:25:05.000Z</time>
      </trkpt>
      <trkpt lat="47.25958" lon="-2.29639">
        <ele>-8.1999998092651</ele>
        <time>2021-08-22T08:25:06.000Z</time>
      </trkpt>
      <trkpt lat="47.25962" lon="-2.29641">
        <ele>-8.1999998092651</ele>
        <time>2021-08-22T08:25:07.000Z</time>
      </trkpt>
      <trkpt lat="47.25975" lon="-2.29636">
        <ele>-8.1999998092651</ele>
        <time>2021-08-22T08:25:10.000Z</time>
      </trkpt>
      <trkpt lat="47.25986" lon="-2.29628">
        <ele>-8.1999998092651</ele>
        <time>2021-08-22T08:25:12.000Z</time>
      </trkpt>
      <trkpt lat="47.25991" lon="-2.29626">
        <ele>-8.1999998092651</ele>
        <time>2021-08-22T08:25:13.000Z</time>
      </trkpt>
      <trkpt lat="47.26" lon="-2.29623">
        <ele>-8.1999998092651</ele>
        <time>2021-08-22T08:25:15.000Z</time>
      </trkpt>
      <trkpt lat="47.26025" lon="-2.29616">
        <ele>-8.1999998092651</ele>
        <time>2021-08-22T08:25:20.000Z</time>
      </trkpt>
      <trkpt lat="47.2603" lon="-2.29615">
        <ele>-8.1999998092651</ele>
        <time>2021-08-22T08:25:21.000Z</time>
      </trkpt>
      <trkpt lat="47.2604" lon="-2.29613">
        <ele>-8.1999998092651</ele>
        <time>2021-08-22T08:25:23.000Z</time>
      </trkpt>
      <trkpt lat="47.26049" lon="-2.29612">
        <ele>-7.8000001907349</ele>
        <time>2021-08-22T08:25:25.000Z</time>
      </trkpt>
      <trkpt lat="47.26053" lon="-2.29612">
        <ele>-7.4000000953674</ele>
        <time>2021-08-22T08:25:26.000Z</time>
      </trkpt>
      <trkpt lat="47.26058" lon="-2.29612">
        <ele>-6.8000001907349</ele>
        <time>2021-08-22T08:25:27.000Z</time>
      </trkpt>
      <trkpt lat="47.26062" lon="-2.29613">
        <ele>-6.4000000953674</ele>
        <time>2021-08-22T08:25:28.000Z</time>
      </trkpt>
      <trkpt lat="47.26066" lon="-2.29612">
        <ele>-6</ele>
        <time>2021-08-22T08:25:29.000Z</time>
      </trkpt>
      <trkpt lat="47.26077" lon="-2.29611">
        <ele>-6</ele>
        <time>2021-08-22T08:25:32.000Z</time>
      </trkpt>
      <trkpt lat="47.26083" lon="-2.2961">
        <ele>-5.5999999046326</ele>
        <time>2021-08-22T08:25:34.000Z</time>
      </trkpt>
      <trkpt lat="47.26087" lon="-2.2961">
        <ele>-5</ele>
        <time>2021-08-22T08:25:35.000Z</time>
      </trkpt>
      <trkpt lat="47.26091" lon="-2.2961">
        <ele>-4.5999999046326</ele>
        <time>2021-08-22T08:25:36.000Z</time>
      </trkpt>
      <trkpt lat="47.26094" lon="-2.29609">
        <ele>-4.1999998092651</ele>
        <time>2021-08-22T08:25:37.000Z</time>
      </trkpt>
      <trkpt lat="47.26097" lon="-2.29608">
        <ele>-3.5999999046326</ele>
        <time>2021-08-22T08:25:38.000Z</time>
      </trkpt>
      <trkpt lat="47.261" lon="-2.29607">
        <ele>-3.5999999046326</ele>
        <time>2021-08-22T08:25:39.000Z</time>
      </trkpt>
      <trkpt lat="47.26107" lon="-2.29605">
        <ele>-3.2000000476837</ele>
        <time>2021-08-22T08:25:41.000Z</time>
      </trkpt>
      <trkpt lat="47.26111" lon="-2.29603">
        <ele>-2.7999999523163</ele>
        <time>2021-08-22T08:25:42.000Z</time>
      </trkpt>
      <trkpt lat="47.26114" lon="-2.29601">
        <ele>-2.4000000953674</ele>
        <time>2021-08-22T08:25:43.000Z</time>
      </trkpt>
      <trkpt lat="47.26117" lon="-2.29599">
        <ele>-2</ele>
        <time>2021-08-22T08:25:44.000Z</time>
      </trkpt>
      <trkpt lat="47.26121" lon="-2.29598">
        <ele>-1.6000000238419</ele>
        <time>2021-08-22T08:25:45.000Z</time>
      </trkpt>
      <trkpt lat="47.26139" lon="-2.2959">
        <ele>-1.2000000476837</ele>
        <time>2021-08-22T08:25:50.000Z</time>
      </trkpt>
      <trkpt lat="47.26142" lon="-2.29588">
        <ele>-0.80000001192093</ele>
        <time>2021-08-22T08:25:51.000Z</time>
      </trkpt>
      <trkpt lat="47.26146" lon="-2.29586">
        <ele>-0.40000000596046</ele>
        <time>2021-08-22T08:25:52.000Z</time>
      </trkpt>
      <trkpt lat="47.26149" lon="-2.29584">
        <ele>32.7</ele>
        <time>2021-08-22T08:25:53.000Z</time>
      </trkpt>
      <trkpt lat="47.26153" lon="-2.29583">
        <ele>0.40000000596046</ele>
        <time>2021-08-22T08:25:54.000Z</time>
      </trkpt>
      <trkpt lat="47.26169" lon="-2.29576">
        <ele>0.80000001192093</ele>
        <time>2021-08-22T08:25:59.000Z</time>
      </trkpt>
      <trkpt lat="47.26173" lon="-2.29574">
        <ele>1.2000000476837</ele>
        <time>2021-08-22T08:26:00.000Z</time>
      </trkpt>
      <trkpt lat="47.26176" lon="-2.29574">
        <ele>1.7999999523163</ele>
        <time>2021-08-22T08:26:01.000Z</time>
      </trkpt>
      <trkpt lat="47.26179" lon="-2.29572">
        <ele>2.2000000476837</ele>
        <time>2021-08-22T08:26:02.000Z</time>
      </trkpt>
      <trkpt lat="47.26182" lon="-2.29571">
        <ele>2.5999999046326</ele>
        <time>2021-08-22T08:26:03.000Z</time>
      </trkpt>
      <trkpt lat="47.2619" lon="-2.2956">
        <ele>2.5999999046326</ele>
        <time>2021-08-22T08:26:07.000Z</time>
      </trkpt>
      <trkpt lat="47.26188" lon="-2.29553">
        <ele>3</ele>
        <time>2021-08-22T08:26:09.000Z</time>
      </trkpt>
      <trkpt lat="47.26187" lon="-2.29549">
        <ele>3.7999999523163</ele>
        <time>2021-08-22T08:26:10.000Z</time>
      </trkpt>
      <trkpt lat="47.26185" lon="-2.29544">
        <ele>4.1999998092651</ele>
        <time>2021-08-22T08:26:11.000Z</time>
      </trkpt>
      <trkpt lat="47.26183" lon="-2.2954">
        <ele>4.5999999046326</ele>
        <time>2021-08-22T08:26:12.000Z</time>
      </trkpt>
      <trkpt lat="47.26177" lon="-2.29531">
        <ele>4.5999999046326</ele>
        <time>2021-08-22T08:26:14.000Z</time>
      </trkpt>
      <trkpt lat="47.26174" lon="-2.29527">
        <ele>4.5999999046326</ele>
        <time>2021-08-22T08:26:15.000Z</time>
      </trkpt>
      <trkpt lat="47.2616" lon="-2.29517">
        <ele>4.5999999046326</ele>
        <time>2021-08-22T08:26:18.000Z</time>
      </trkpt>
      <trkpt lat="47.26154" lon="-2.29513">
        <ele>4.5999999046326</ele>
        <time>2021-08-22T08:26:19.000Z</time>
      </trkpt>
      <trkpt lat="47.26149" lon="-2.29507">
        <ele>4.5999999046326</ele>
        <time>2021-08-22T08:26:20.000Z</time>
      </trkpt>
      <trkpt lat="47.26136" lon="-2.29486">
        <ele>4.5999999046326</ele>
        <time>2021-08-22T08:26:23.000Z</time>
      </trkpt>
      <trkpt lat="47.26129" lon="-2.2947">
        <ele>4.5999999046326</ele>
        <time>2021-08-22T08:26:25.000Z</time>
      </trkpt>
      <trkpt lat="47.26124" lon="-2.29451">
        <ele>4.5999999046326</ele>
        <time>2021-08-22T08:26:27.000Z</time>
      </trkpt>
      <trkpt lat="47.26123" lon="-2.29442">
        <ele>4.5999999046326</ele>
        <time>2021-08-22T08:26:28.000Z</time>
      </trkpt>
      <trkpt lat="47.26123" lon="-2.29414">
        <ele>4.5999999046326</ele>
        <time>2021-08-22T08:26:31.000Z</time>
      </trkpt>
      <trkpt lat="47.26123" lon="-2.29405">
        <ele>4.5999999046326</ele>
        <time>2021-08-22T08:26:32.000Z</time>
      </trkpt>
      <trkpt lat="47.26125" lon="-2.29397">
        <ele>4.5999999046326</ele>
        <time>2021-08-22T08:26:33.000Z</time>
      </trkpt>
      <trkpt lat="47.26131" lon="-2.29362">
        <ele>4.5999999046326</ele>
        <time>2021-08-22T08:26:37.000Z</time>
      </trkpt>
      <trkpt lat="47.26135" lon="-2.29349">
        <ele>4.5999999046326</ele>
        <time>2021-08-22T08:26:39.000Z</time>
      </trkpt>
      <trkpt lat="47.26142" lon="-2.29342">
        <ele>4.5999999046326</ele>
        <time>2021-08-22T08:26:41.000Z</time>
      </trkpt>
      <trkpt lat="47.26152" lon="-2.29346">
        <ele>4.5999999046326</ele>
        <time>2021-08-22T08:26:44.000Z</time>
      </trkpt>
      <trkpt lat="47.26156" lon="-2.29347">
        <ele>4.5999999046326</ele>
        <time>2021-08-22T08:26:45.000Z</time>
      </trkpt>
      <trkpt lat="47.26175" lon="-2.29351">
        <ele>4.5999999046326</ele>
        <time>2021-08-22T08:26:50.000Z</time>
      </trkpt>
      <trkpt lat="47.26191" lon="-2.29345">
        <ele>4.5999999046326</ele>
        <time>2021-08-22T08:26:54.000Z</time>
      </trkpt>
      <trkpt lat="47.26195" lon="-2.29342">
        <ele>4.5999999046326</ele>
        <time>2021-08-22T08:26:55.000Z</time>
      </trkpt>
      <trkpt lat="47.26207" lon="-2.29333">
        <ele>5</ele>
        <time>2021-08-22T08:26:58.000Z</time>
      </trkpt>
      <trkpt lat="47.26211" lon="-2.29331">
        <ele>5.8000001907349</ele>
        <time>2021-08-22T08:26:59.000Z</time>
      </trkpt>
      <trkpt lat="47.26215" lon="-2.29327">
        <ele>6.1999998092651</ele>
        <time>2021-08-22T08:27:00.000Z</time>
      </trkpt>
      <trkpt lat="47.26219" lon="-2.29324">
        <ele>6.5999999046326</ele>
        <time>2021-08-22T08:27:01.000Z</time>
      </trkpt>
      <trkpt lat="47.26237" lon="-2.29308">
        <ele>6.5999999046326</ele>
        <time>2021-08-22T08:27:05.000Z</time>
      </trkpt>
      <trkpt lat="47.26249" lon="-2.29299">
        <ele>6.5999999046326</ele>
        <time>2021-08-22T08:27:07.000Z</time>
      </trkpt>
      <trkpt lat="47.26272" lon="-2.29282">
        <ele>6.5999999046326</ele>
        <time>2021-08-22T08:27:11.000Z</time>
      </trkpt>
      <trkpt lat="47.26283" lon="-2.29277">
        <ele>7</ele>
        <time>2021-08-22T08:27:13.000Z</time>
      </trkpt>
      <trkpt lat="47.26288" lon="-2.29275">
        <ele>7.5999999046326</ele>
        <time>2021-08-22T08:27:14.000Z</time>
      </trkpt>
      <trkpt lat="47.26293" lon="-2.29273">
        <ele>8</ele>
        <time>2021-08-22T08:27:15.000Z</time>
      </trkpt>
      <trkpt lat="47.26299" lon="-2.29271">
        <ele>8.3999996185303</ele>
        <time>2021-08-22T08:27:16.000Z</time>
      </trkpt>
      <trkpt lat="47.26304" lon="-2.2927">
        <ele>8.8000001907349</ele>
        <time>2021-08-22T08:27:17.000Z</time>
      </trkpt>
      <trkpt lat="47.2633" lon="-2.29268">
        <ele>8.8000001907349</ele>
        <time>2021-08-22T08:27:22.000Z</time>
      </trkpt>
      <trkpt lat="47.26349" lon="-2.2927">
        <ele>9.1999998092651</ele>
        <time>2021-08-22T08:27:26.000Z</time>
      </trkpt>
      <trkpt lat="47.26354" lon="-2.29272">
        <ele>9.6000003814697</ele>
        <time>2021-08-22T08:27:27.000Z</time>
      </trkpt>
      <trkpt lat="47.26359" lon="-2.29274">
        <ele>10.199999809265</ele>
        <time>2021-08-22T08:27:28.000Z</time>
      </trkpt>
      <trkpt lat="47.26364" lon="-2.29276">
        <ele>10.60000038147</ele>
        <time>2021-08-22T08:27:29.000Z</time>
      </trkpt>
      <trkpt lat="47.26369" lon="-2.29278">
        <ele>11</ele>
        <time>2021-08-22T08:27:30.000Z</time>
      </trkpt>
      <trkpt lat="47.26394" lon="-2.29292">
        <ele>11</ele>
        <time>2021-08-22T08:27:35.000Z</time>
      </trkpt>
      <trkpt lat="47.26429" lon="-2.29313">
        <ele>11</ele>
        <time>2021-08-22T08:27:42.000Z</time>
      </trkpt>
      <trkpt lat="47.26472" lon="-2.29335">
        <ele>11</ele>
        <time>2021-08-22T08:27:50.000Z</time>
      </trkpt>
      <trkpt lat="47.26502" lon="-2.29337">
        <ele>11</ele>
        <time>2021-08-22T08:27:55.000Z</time>
      </trkpt>
      <trkpt lat="47.26507" lon="-2.29334">
        <ele>11</ele>
        <time>2021-08-22T08:27:56.000Z</time>
      </trkpt>
      <trkpt lat="47.2653" lon="-2.29324">
        <ele>11</ele>
        <time>2021-08-22T08:28:00.000Z</time>
      </trkpt>
      <trkpt lat="47.26536" lon="-2.29322">
        <ele>11</ele>
        <time>2021-08-22T08:28:01.000Z</time>
      </trkpt>
      <trkpt lat="47.26584" lon="-2.29293">
        <ele>11</ele>
        <time>2021-08-22T08:28:09.000Z</time>
      </trkpt>
      <trkpt lat="47.26635" lon="-2.29263">
        <ele>11</ele>
        <time>2021-08-22T08:28:17.000Z</time>
      </trkpt>
      <trkpt lat="47.26665" lon="-2.29233">
        <ele>11</ele>
        <time>2021-08-22T08:28:22.000Z</time>
      </trkpt>
      <trkpt lat="47.26703" lon="-2.29196">
        <ele>10.60000038147</ele>
        <time>2021-08-22T08:28:28.000Z</time>
      </trkpt>
      <trkpt lat="47.26709" lon="-2.2919">
        <ele>10.199999809265</ele>
        <time>2021-08-22T08:28:29.000Z</time>
      </trkpt>
      <trkpt lat="47.26715" lon="-2.29186">
        <ele>9.8000001907349</ele>
        <time>2021-08-22T08:28:30.000Z</time>
      </trkpt>
      <trkpt lat="47.26721" lon="-2.2918">
        <ele>9.3999996185303</ele>
        <time>2021-08-22T08:28:31.000Z</time>
      </trkpt>
      <trkpt lat="47.26726" lon="-2.29172">
        <ele>9</ele>
        <time>2021-08-22T08:28:32.000Z</time>
      </trkpt>
      <trkpt lat="47.26733" lon="-2.29166">
        <ele>9</ele>
        <time>2021-08-22T08:28:33.000Z</time>
      </trkpt>
      <trkpt lat="47.26759" lon="-2.29141">
        <ele>8.3999996185303</ele>
        <time>2021-08-22T08:28:37.000Z</time>
      </trkpt>
      <trkpt lat="47.26765" lon="-2.29134">
        <ele>7.5999999046326</ele>
        <time>2021-08-22T08:28:38.000Z</time>
      </trkpt>
      <trkpt lat="47.26771" lon="-2.29128">
        <ele>7</ele>
        <time>2021-08-22T08:28:39.000Z</time>
      </trkpt>
      <trkpt lat="47.26778" lon="-2.29122">
        <ele>6.5999999046326</ele>
        <time>2021-08-22T08:28:40.000Z</time>
      </trkpt>
      <trkpt lat="47.26785" lon="-2.29116">
        <ele>6.1999998092651</ele>
        <time>2021-08-22T08:28:41.000Z</time>
      </trkpt>
      <trkpt lat="47.26791" lon="-2.29109">
        <ele>5.8000001907349</ele>
        <time>2021-08-22T08:28:42.000Z</time>
      </trkpt>
      <trkpt lat="47.26797" lon="-2.29103">
        <ele>5.4000000953674</ele>
        <time>2021-08-22T08:28:43.000Z</time>
      </trkpt>
      <trkpt lat="47.26804" lon="-2.29096">
        <ele>5</ele>
        <time>2021-08-22T08:28:44.000Z</time>
      </trkpt>
      <trkpt lat="47.26811" lon="-2.29089">
        <ele>4.4000000953674</ele>
        <time>2021-08-22T08:28:45.000Z</time>
      </trkpt>
      <trkpt lat="47.26857" lon="-2.29043">
        <ele>4.4000000953674</ele>
        <time>2021-08-22T08:28:52.000Z</time>
      </trkpt>
      <trkpt lat="47.26875" lon="-2.29024">
        <ele>4</ele>
        <time>2021-08-22T08:28:55.000Z</time>
      </trkpt>
      <trkpt lat="47.26881" lon="-2.29017">
        <ele>3.5999999046326</ele>
        <time>2021-08-22T08:28:56.000Z</time>
      </trkpt>
      <trkpt lat="47.26887" lon="-2.29012">
        <ele>3.2000000476837</ele>
        <time>2021-08-22T08:28:57.000Z</time>
      </trkpt>
      <trkpt lat="47.26894" lon="-2.29007">
        <ele>2.7999999523163</ele>
        <time>2021-08-22T08:28:58.000Z</time>
      </trkpt>
      <trkpt lat="47.269" lon="-2.29003">
        <ele>2.4000000953674</ele>
        <time>2021-08-22T08:28:59.000Z</time>
      </trkpt>
      <trkpt lat="47.26913" lon="-2.28997">
        <ele>2.4000000953674</ele>
        <time>2021-08-22T08:29:01.000Z</time>
      </trkpt>
      <trkpt lat="47.26926" lon="-2.28987">
        <ele>2.4000000953674</ele>
        <time>2021-08-22T08:29:04.000Z</time>
      </trkpt>
      <trkpt lat="47.26927" lon="-2.28982">
        <ele>2</ele>
        <time>2021-08-22T08:29:05.000Z</time>
      </trkpt>
      <trkpt lat="47.26925" lon="-2.28977">
        <ele>1.6000000238419</ele>
        <time>2021-08-22T08:29:06.000Z</time>
      </trkpt>
      <trkpt lat="47.26923" lon="-2.28974">
        <ele>1.2000000476837</ele>
        <time>2021-08-22T08:29:07.000Z</time>
      </trkpt>
      <trkpt lat="47.2692" lon="-2.28972">
        <ele>0.80000001192093</ele>
        <time>2021-08-22T08:29:08.000Z</time>
      </trkpt>
      <trkpt lat="47.26917" lon="-2.2897">
        <ele>0.40000000596046</ele>
        <time>2021-08-22T08:29:09.000Z</time>
      </trkpt>
      <trkpt lat="47.26904" lon="-2.28965">
        <ele>0.40000000596046</ele>
        <time>2021-08-22T08:29:12.000Z</time>
      </trkpt>
      <trkpt lat="47.26889" lon="-2.28961">
        <ele>0.40000000596046</ele>
        <time>2021-08-22T08:29:15.000Z</time>
      </trkpt>
      <trkpt lat="47.26878" lon="-2.28956">
        <ele>0.40000000596046</ele>
        <time>2021-08-22T08:29:17.000Z</time>
      </trkpt>
      <trkpt lat="47.26859" lon="-2.28944">
        <ele>0.40000000596046</ele>
        <time>2021-08-22T08:29:21.000Z</time>
      </trkpt>
      <trkpt lat="47.26854" lon="-2.28941">
        <ele>0.40000000596046</ele>
        <time>2021-08-22T08:29:22.000Z</time>
      </trkpt>
      <trkpt lat="47.2684" lon="-2.28932">
        <ele>0.40000000596046</ele>
        <time>2021-08-22T08:29:25.000Z</time>
      </trkpt>
      <trkpt lat="47.26822" lon="-2.28924">
        <ele>0.40000000596046</ele>
        <time>2021-08-22T08:29:29.000Z</time>
      </trkpt>
      <trkpt lat="47.26818" lon="-2.28922">
        <ele>0.40000000596046</ele>
        <time>2021-08-22T08:29:32.000Z</time>
      </trkpt>
      <trkpt lat="47.26807" lon="-2.28917">
        <ele>0.40000000596046</ele>
        <time>2021-08-22T08:29:38.000Z</time>
      </trkpt>
      <trkpt lat="47.26789" lon="-2.2891">
        <ele>0.40000000596046</ele>
        <time>2021-08-22T08:29:43.000Z</time>
      </trkpt>
      <trkpt lat="47.26781" lon="-2.28905">
        <ele>0.40000000596046</ele>
        <time>2021-08-22T08:29:45.000Z</time>
      </trkpt>
      <trkpt lat="47.26768" lon="-2.28894">
        <ele>0.40000000596046</ele>
        <time>2021-08-22T08:29:48.000Z</time>
      </trkpt>
      <trkpt lat="47.26764" lon="-2.28889">
        <ele>0.40000000596046</ele>
        <time>2021-08-22T08:29:49.000Z</time>
      </trkpt>
      <trkpt lat="47.26736" lon="-2.28862">
        <ele>0.80000001192093</ele>
        <time>2021-08-22T08:29:55.000Z</time>
      </trkpt>
      <trkpt lat="47.26731" lon="-2.28858">
        <ele>1.2000000476837</ele>
        <time>2021-08-22T08:29:56.000Z</time>
      </trkpt>
      <trkpt lat="47.26726" lon="-2.28854">
        <ele>1.6000000238419</ele>
        <time>2021-08-22T08:29:57.000Z</time>
      </trkpt>
      <trkpt lat="47.26721" lon="-2.28849">
        <ele>2</ele>
        <time>2021-08-22T08:29:58.000Z</time>
      </trkpt>
      <trkpt lat="47.26716" lon="-2.28845">
        <ele>2.4000000953674</ele>
        <time>2021-08-22T08:29:59.000Z</time>
      </trkpt>
      <trkpt lat="47.26706" lon="-2.28836">
        <ele>2.4000000953674</ele>
        <time>2021-08-22T08:30:01.000Z</time>
      </trkpt>
      <trkpt lat="47.26702" lon="-2.28832">
        <ele>2.4000000953674</ele>
        <time>2021-08-22T08:30:02.000Z</time>
      </trkpt>
      <trkpt lat="47.26684" lon="-2.28816">
        <ele>2.4000000953674</ele>
        <time>2021-08-22T08:30:06.000Z</time>
      </trkpt>
      <trkpt lat="47.26659" lon="-2.28785">
        <ele>2.4000000953674</ele>
        <time>2021-08-22T08:30:12.000Z</time>
      </trkpt>
      <trkpt lat="47.26648" lon="-2.28769">
        <ele>2.4000000953674</ele>
        <time>2021-08-22T08:30:15.000Z</time>
      </trkpt>
      <trkpt lat="47.2664" lon="-2.28762">
        <ele>2.4000000953674</ele>
        <time>2021-08-22T08:30:17.000Z</time>
      </trkpt>
      <trkpt lat="47.26632" lon="-2.28753">
        <ele>2.4000000953674</ele>
        <time>2021-08-22T08:30:19.000Z</time>
      </trkpt>
      <trkpt lat="47.26623" lon="-2.28744">
        <ele>2.7999999523163</ele>
        <time>2021-08-22T08:30:21.000Z</time>
      </trkpt>
      <trkpt lat="47.26619" lon="-2.28739">
        <ele>3.4000000953674</ele>
        <time>2021-08-22T08:30:22.000Z</time>
      </trkpt>
      <trkpt lat="47.26614" lon="-2.28735">
        <ele>3.7999999523163</ele>
        <time>2021-08-22T08:30:23.000Z</time>
      </trkpt>
      <trkpt lat="47.2661" lon="-2.2873">
        <ele>4.1999998092651</ele>
        <time>2021-08-22T08:30:24.000Z</time>
      </trkpt>
      <trkpt lat="47.26605" lon="-2.28725">
        <ele>4.5999999046326</ele>
        <time>2021-08-22T08:30:25.000Z</time>
      </trkpt>
      <trkpt lat="47.26592" lon="-2.2871">
        <ele>4.5999999046326</ele>
        <time>2021-08-22T08:30:28.000Z</time>
      </trkpt>
      <trkpt lat="47.26567" lon="-2.2868">
        <ele>4.5999999046326</ele>
        <time>2021-08-22T08:30:34.000Z</time>
      </trkpt>
      <trkpt lat="47.26537" lon="-2.28653">
        <ele>5</ele>
        <time>2021-08-22T08:30:40.000Z</time>
      </trkpt>
      <trkpt lat="47.26533" lon="-2.28647">
        <ele>5.4000000953674</ele>
        <time>2021-08-22T08:30:41.000Z</time>
      </trkpt>
      <trkpt lat="47.2653" lon="-2.28642">
        <ele>6.4000000953674</ele>
        <time>2021-08-22T08:30:42.000Z</time>
      </trkpt>
      <trkpt lat="47.26526" lon="-2.28637">
        <ele>6.8000001907349</ele>
        <time>2021-08-22T08:30:43.000Z</time>
      </trkpt>
      <trkpt lat="47.26508" lon="-2.28614">
        <ele>6.8000001907349</ele>
        <time>2021-08-22T08:30:48.000Z</time>
      </trkpt>
      <trkpt lat="47.26503" lon="-2.28586">
        <ele>6.8000001907349</ele>
        <time>2021-08-22T08:30:52.000Z</time>
      </trkpt>
      <trkpt lat="47.2649" lon="-2.28548">
        <ele>6.8000001907349</ele>
        <time>2021-08-22T08:30:57.000Z</time>
      </trkpt>
      <trkpt lat="47.26468" lon="-2.28505">
        <ele>6.8000001907349</ele>
        <time>2021-08-22T08:31:03.000Z</time>
      </trkpt>
      <trkpt lat="47.26464" lon="-2.28498">
        <ele>7.1999998092651</ele>
        <time>2021-08-22T08:31:04.000Z</time>
      </trkpt>
      <trkpt lat="47.26461" lon="-2.28491">
        <ele>7.5999999046326</ele>
        <time>2021-08-22T08:31:05.000Z</time>
      </trkpt>
      <trkpt lat="47.26457" lon="-2.28484">
        <ele>8</ele>
        <time>2021-08-22T08:31:06.000Z</time>
      </trkpt>
      <trkpt lat="47.26454" lon="-2.28477">
        <ele>8.3999996185303</ele>
        <time>2021-08-22T08:31:07.000Z</time>
      </trkpt>
      <trkpt lat="47.2645" lon="-2.2847">
        <ele>8.8000001907349</ele>
        <time>2021-08-22T08:31:08.000Z</time>
      </trkpt>
      <trkpt lat="47.26444" lon="-2.28457">
        <ele>8.8000001907349</ele>
        <time>2021-08-22T08:31:10.000Z</time>
      </trkpt>
      <trkpt lat="47.26432" lon="-2.2843">
        <ele>8.8000001907349</ele>
        <time>2021-08-22T08:31:14.000Z</time>
      </trkpt>
      <trkpt lat="47.26425" lon="-2.28416">
        <ele>8.8000001907349</ele>
        <time>2021-08-22T08:31:16.000Z</time>
      </trkpt>
      <trkpt lat="47.26418" lon="-2.28403">
        <ele>9.1999998092651</ele>
        <time>2021-08-22T08:31:18.000Z</time>
      </trkpt>
      <trkpt lat="47.26414" lon="-2.28396">
        <ele>9.6000003814697</ele>
        <time>2021-08-22T08:31:19.000Z</time>
      </trkpt>
      <trkpt lat="47.2641" lon="-2.28388">
        <ele>10.199999809265</ele>
        <time>2021-08-22T08:31:20.000Z</time>
      </trkpt>
      <trkpt lat="47.26406" lon="-2.2838">
        <ele>10.60000038147</ele>
        <time>2021-08-22T08:31:21.000Z</time>
      </trkpt>
      <trkpt lat="47.26402" lon="-2.28372">
        <ele>11</ele>
        <time>2021-08-22T08:31:22.000Z</time>
      </trkpt>
      <trkpt lat="47.26384" lon="-2.28334">
        <ele>11</ele>
        <time>2021-08-22T08:31:27.000Z</time>
      </trkpt>
      <trkpt lat="47.26366" lon="-2.28282">
        <ele>11</ele>
        <time>2021-08-22T08:31:33.000Z</time>
      </trkpt>
      <trkpt lat="47.26353" lon="-2.28225">
        <ele>11</ele>
        <time>2021-08-22T08:31:39.000Z</time>
      </trkpt>
      <trkpt lat="47.26337" lon="-2.2814">
        <ele>11</ele>
        <time>2021-08-22T08:31:48.000Z</time>
      </trkpt>
      <trkpt lat="47.26329" lon="-2.28092">
        <ele>11</ele>
        <time>2021-08-22T08:31:53.000Z</time>
      </trkpt>
      <trkpt lat="47.26315" lon="-2.28034">
        <ele>11</ele>
        <time>2021-08-22T08:31:59.000Z</time>
      </trkpt>
      <trkpt lat="47.26312" lon="-2.28025">
        <ele>11</ele>
        <time>2021-08-22T08:32:00.000Z</time>
      </trkpt>
      <trkpt lat="47.26308" lon="-2.28016">
        <ele>10.60000038147</ele>
        <time>2021-08-22T08:32:01.000Z</time>
      </trkpt>
      <trkpt lat="47.26305" lon="-2.28007">
        <ele>10</ele>
        <time>2021-08-22T08:32:02.000Z</time>
      </trkpt>
      <trkpt lat="47.26301" lon="-2.27999">
        <ele>9.6000003814697</ele>
        <time>2021-08-22T08:32:03.000Z</time>
      </trkpt>
      <trkpt lat="47.26298" lon="-2.27991">
        <ele>9.1999998092651</ele>
        <time>2021-08-22T08:32:04.000Z</time>
      </trkpt>
      <trkpt lat="47.26295" lon="-2.27984">
        <ele>8.8000001907349</ele>
        <time>2021-08-22T08:32:05.000Z</time>
      </trkpt>
      <trkpt lat="47.26293" lon="-2.27978">
        <ele>8.8000001907349</ele>
        <time>2021-08-22T08:32:06.000Z</time>
      </trkpt>
      <trkpt lat="47.26283" lon="-2.27967">
        <ele>8.8000001907349</ele>
        <time>2021-08-22T08:32:10.000Z</time>
      </trkpt>
      <trkpt lat="47.26269" lon="-2.27941">
        <ele>8.8000001907349</ele>
        <time>2021-08-22T08:32:15.000Z</time>
      </trkpt>
      <trkpt lat="47.26245" lon="-2.27893">
        <ele>8.8000001907349</ele>
        <time>2021-08-22T08:32:22.000Z</time>
      </trkpt>
      <trkpt lat="47.26221" lon="-2.27844">
        <ele>8.8000001907349</ele>
        <time>2021-08-22T08:32:29.000Z</time>
      </trkpt>
      <trkpt lat="47.26196" lon="-2.27797">
        <ele>8.8000001907349</ele>
        <time>2021-08-22T08:32:36.000Z</time>
      </trkpt>
      <trkpt lat="47.26179" lon="-2.27754">
        <ele>8.8000001907349</ele>
        <time>2021-08-22T08:32:42.000Z</time>
      </trkpt>
      <trkpt lat="47.2616" lon="-2.27688">
        <ele>8.8000001907349</ele>
        <time>2021-08-22T08:32:51.000Z</time>
      </trkpt>
      <trkpt lat="47.26148" lon="-2.27646">
        <ele>8.8000001907349</ele>
        <time>2021-08-22T08:32:57.000Z</time>
      </trkpt>
      <trkpt lat="47.26144" lon="-2.27624">
        <ele>8.8000001907349</ele>
        <time>2021-08-22T08:33:01.000Z</time>
      </trkpt>
      <trkpt lat="47.2614" lon="-2.276">
        <ele>8.8000001907349</ele>
        <time>2021-08-22T08:33:08.000Z</time>
      </trkpt>
      <trkpt lat="47.26132" lon="-2.27587">
        <ele>8.8000001907349</ele>
        <time>2021-08-22T08:33:12.000Z</time>
      </trkpt>
      <trkpt lat="47.26119" lon="-2.27587">
        <ele>8.8000001907349</ele>
        <time>2021-08-22T08:33:16.000Z</time>
      </trkpt>
      <trkpt lat="47.26108" lon="-2.27593">
        <ele>8.8000001907349</ele>
        <time>2021-08-22T08:33:21.000Z</time>
      </trkpt>
      <trkpt lat="47.26093" lon="-2.27603">
        <ele>8.8000001907349</ele>
        <time>2021-08-22T08:33:26.000Z</time>
      </trkpt>
      <trkpt lat="47.2608" lon="-2.27611">
        <ele>8.8000001907349</ele>
        <time>2021-08-22T08:33:30.000Z</time>
      </trkpt>
      <trkpt lat="47.2606" lon="-2.27622">
        <ele>8.8000001907349</ele>
        <time>2021-08-22T08:33:38.000Z</time>
      </trkpt>
      <trkpt lat="47.26045" lon="-2.27624">
        <ele>8.8000001907349</ele>
        <time>2021-08-22T08:33:44.000Z</time>
      </trkpt>
      <trkpt lat="47.26041" lon="-2.27615">
        <ele>8.8000001907349</ele>
        <time>2021-08-22T08:33:47.000Z</time>
      </trkpt>
      <trkpt lat="47.26038" lon="-2.27604">
        <ele>8.8000001907349</ele>
        <time>2021-08-22T08:33:52.000Z</time>
      </trkpt>
      <trkpt lat="47.26037" lon="-2.27602">
        <ele>8.8000001907349</ele>
        <time>2021-08-22T08:33:53.000Z</time>
      </trkpt>
      <trkpt lat="47.26031" lon="-2.27583">
        <ele>8.8000001907349</ele>
        <time>2021-08-22T08:33:59.000Z</time>
      </trkpt>
      <trkpt lat="47.26025" lon="-2.2756">
        <ele>8.8000001907349</ele>
        <time>2021-08-22T08:34:04.000Z</time>
      </trkpt>
      <trkpt lat="47.26023" lon="-2.27547">
        <ele>8.8000001907349</ele>
        <time>2021-08-22T08:34:06.000Z</time>
      </trkpt>
      <trkpt lat="47.26022" lon="-2.27527">
        <ele>8.8000001907349</ele>
        <time>2021-08-22T08:34:09.000Z</time>
      </trkpt>
      <trkpt lat="47.26025" lon="-2.27491">
        <ele>8.8000001907349</ele>
        <time>2021-08-22T08:34:15.000Z</time>
      </trkpt>
      <trkpt lat="47.26034" lon="-2.27446">
        <ele>8.8000001907349</ele>
        <time>2021-08-22T08:34:22.000Z</time>
      </trkpt>
      <trkpt lat="47.26039" lon="-2.27438">
        <ele>8.8000001907349</ele>
        <time>2021-08-22T08:34:23.000Z</time>
      </trkpt>
      <trkpt lat="47.26053" lon="-2.27409">
        <ele>8.8000001907349</ele>
        <time>2021-08-22T08:34:27.000Z</time>
      </trkpt>
      <trkpt lat="47.26059" lon="-2.27397">
        <ele>8.8000001907349</ele>
        <time>2021-08-22T08:34:29.000Z</time>
      </trkpt>
      <trkpt lat="47.26068" lon="-2.27383">
        <ele>8.8000001907349</ele>
        <time>2021-08-22T08:34:31.000Z</time>
      </trkpt>
      <trkpt lat="47.26076" lon="-2.27374">
        <ele>8.8000001907349</ele>
        <time>2021-08-22T08:34:32.000Z</time>
      </trkpt>
      <trkpt lat="47.26127" lon="-2.27328">
        <ele>8.8000001907349</ele>
        <time>2021-08-22T08:34:38.000Z</time>
      </trkpt>
      <trkpt lat="47.26133" lon="-2.27323">
        <ele>8.8000001907349</ele>
        <time>2021-08-22T08:34:39.000Z</time>
      </trkpt>
      <trkpt lat="47.26148" lon="-2.27319">
        <ele>8.8000001907349</ele>
        <time>2021-08-22T08:34:41.000Z</time>
      </trkpt>
      <trkpt lat="47.26162" lon="-2.27319">
        <ele>8.8000001907349</ele>
        <time>2021-08-22T08:34:43.000Z</time>
      </trkpt>
      <trkpt lat="47.26183" lon="-2.27316">
        <ele>8.8000001907349</ele>
        <time>2021-08-22T08:34:46.000Z</time>
      </trkpt>
      <trkpt lat="47.26204" lon="-2.27313">
        <ele>8.8000001907349</ele>
        <time>2021-08-22T08:34:49.000Z</time>
      </trkpt>
      <trkpt lat="47.26217" lon="-2.27315">
        <ele>8.8000001907349</ele>
        <time>2021-08-22T08:34:51.000Z</time>
      </trkpt>
      <trkpt lat="47.26252" lon="-2.2732">
        <ele>8.8000001907349</ele>
        <time>2021-08-22T08:34:56.000Z</time>
      </trkpt>
      <trkpt lat="47.26259" lon="-2.2732">
        <ele>8.8000001907349</ele>
        <time>2021-08-22T08:34:57.000Z</time>
      </trkpt>
      <trkpt lat="47.26302" lon="-2.27324">
        <ele>8.8000001907349</ele>
        <time>2021-08-22T08:35:03.000Z</time>
      </trkpt>
      <trkpt lat="47.26316" lon="-2.27326">
        <ele>8.8000001907349</ele>
        <time>2021-08-22T08:35:05.000Z</time>
      </trkpt>
      <trkpt lat="47.2633" lon="-2.27326">
        <ele>8.8000001907349</ele>
        <time>2021-08-22T08:35:07.000Z</time>
      </trkpt>
      <trkpt lat="47.26344" lon="-2.27328">
        <ele>8.3999996185303</ele>
        <time>2021-08-22T08:35:09.000Z</time>
      </trkpt>
      <trkpt lat="47.2635" lon="-2.27329">
        <ele>7.8000001907349</ele>
        <time>2021-08-22T08:35:10.000Z</time>
      </trkpt>
      <trkpt lat="47.26357" lon="-2.27329">
        <ele>7.4000000953674</ele>
        <time>2021-08-22T08:35:11.000Z</time>
      </trkpt>
      <trkpt lat="47.26364" lon="-2.27329">
        <ele>7</ele>
        <time>2021-08-22T08:35:12.000Z</time>
      </trkpt>
      <trkpt lat="47.26371" lon="-2.27329">
        <ele>6.4000000953674</ele>
        <time>2021-08-22T08:35:13.000Z</time>
      </trkpt>
      <trkpt lat="47.26406" lon="-2.27329">
        <ele>6.4000000953674</ele>
        <time>2021-08-22T08:35:18.000Z</time>
      </trkpt>
      <trkpt lat="47.26424" lon="-2.27335">
        <ele>6.4000000953674</ele>
        <time>2021-08-22T08:35:21.000Z</time>
      </trkpt>
      <trkpt lat="47.26431" lon="-2.27344">
        <ele>6.4000000953674</ele>
        <time>2021-08-22T08:35:23.000Z</time>
      </trkpt>
      <trkpt lat="47.26436" lon="-2.27359">
        <ele>6.4000000953674</ele>
        <time>2021-08-22T08:35:25.000Z</time>
      </trkpt>
      <trkpt lat="47.26445" lon="-2.27384">
        <ele>6</ele>
        <time>2021-08-22T08:35:28.000Z</time>
      </trkpt>
      <trkpt lat="47.26448" lon="-2.27393">
        <ele>5.5999999046326</ele>
        <time>2021-08-22T08:35:29.000Z</time>
      </trkpt>
      <trkpt lat="47.26451" lon="-2.27403">
        <ele>5.1999998092651</ele>
        <time>2021-08-22T08:35:30.000Z</time>
      </trkpt>
      <trkpt lat="47.26454" lon="-2.27412">
        <ele>4.8000001907349</ele>
        <time>2021-08-22T08:35:31.000Z</time>
      </trkpt>
      <trkpt lat="47.26457" lon="-2.27423">
        <ele>4.4000000953674</ele>
        <time>2021-08-22T08:35:32.000Z</time>
      </trkpt>
      <trkpt lat="47.26465" lon="-2.27456">
        <ele>4.4000000953674</ele>
        <time>2021-08-22T08:35:35.000Z</time>
      </trkpt>
      <trkpt lat="47.26476" lon="-2.27496">
        <ele>4</ele>
        <time>2021-08-22T08:35:39.000Z</time>
      </trkpt>
      <trkpt lat="47.26479" lon="-2.27506">
        <ele>3.2000000476837</ele>
        <time>2021-08-22T08:35:40.000Z</time>
      </trkpt>
      <trkpt lat="47.26482" lon="-2.27517">
        <ele>2.7999999523163</ele>
        <time>2021-08-22T08:35:41.000Z</time>
      </trkpt>
      <trkpt lat="47.26484" lon="-2.27527">
        <ele>2.4000000953674</ele>
        <time>2021-08-22T08:35:42.000Z</time>
      </trkpt>
      <trkpt lat="47.26491" lon="-2.27566">
        <ele>2.4000000953674</ele>
        <time>2021-08-22T08:35:46.000Z</time>
      </trkpt>
      <trkpt lat="47.26497" lon="-2.27576">
        <ele>2</ele>
        <time>2021-08-22T08:35:48.000Z</time>
      </trkpt>
      <trkpt lat="47.26502" lon="-2.27578">
        <ele>1.3999999761581</ele>
        <time>2021-08-22T08:35:49.000Z</time>
      </trkpt>
      <trkpt lat="47.26507" lon="-2.27579">
        <ele>1</ele>
        <time>2021-08-22T08:35:50.000Z</time>
      </trkpt>
      <trkpt lat="47.26512" lon="-2.27578">
        <ele>0.40000000596046</ele>
        <time>2021-08-22T08:35:51.000Z</time>
      </trkpt>
      <trkpt lat="47.26516" lon="-2.27577">
        <ele>30.6</ele>
        <time>2021-08-22T08:35:52.000Z</time>
      </trkpt>
      <trkpt lat="47.26521" lon="-2.27576">
        <ele>30.5</ele>
        <time>2021-08-22T08:35:53.000Z</time>
      </trkpt>
      <trkpt lat="47.26529" lon="-2.27575">
        <ele>30.3</ele>
        <time>2021-08-22T08:35:55.000Z</time>
      </trkpt>
      <trkpt lat="47.26536" lon="-2.2758">
        <ele>30.4</ele>
        <time>2021-08-22T08:35:57.000Z</time>
      </trkpt>
      <trkpt lat="47.26546" lon="-2.27583">
        <ele>30.7</ele>
        <time>2021-08-22T08:36:01.000Z</time>
      </trkpt>
      <trkpt lat="47.26566" lon="-2.2758">
        <ele>31</ele>
        <time>2021-08-22T08:36:07.000Z</time>
      </trkpt>
      <trkpt lat="47.26583" lon="-2.27583">
        <ele>31</ele>
        <time>2021-08-22T08:36:11.000Z</time>
      </trkpt>
      <trkpt lat="47.26595" lon="-2.27588">
        <ele>31</ele>
        <time>2021-08-22T08:36:14.000Z</time>
      </trkpt>
      <trkpt lat="47.266" lon="-2.2759">
        <ele>31</ele>
        <time>2021-08-22T08:36:15.000Z</time>
      </trkpt>
      <trkpt lat="47.26625" lon="-2.27604">
        <ele>30.6</ele>
        <time>2021-08-22T08:36:20.000Z</time>
      </trkpt>
      <trkpt lat="47.2665" lon="-2.27616">
        <ele>30.1</ele>
        <time>2021-08-22T08:36:26.000Z</time>
      </trkpt>
      <trkpt lat="47.26679" lon="-2.27628">
        <ele>30.2</ele>
        <time>2021-08-22T08:36:33.000Z</time>
      </trkpt>
      <trkpt lat="47.26697" lon="-2.27634">
        <ele>30.2</ele>
        <time>2021-08-22T08:36:37.000Z</time>
      </trkpt>
      <trkpt lat="47.26701" lon="-2.27636">
        <ele>30.1</ele>
        <time>2021-08-22T08:36:38.000Z</time>
      </trkpt>
      <trkpt lat="47.26729" lon="-2.27645">
        <ele>29.7</ele>
        <time>2021-08-22T08:36:44.000Z</time>
      </trkpt>
      <trkpt lat="47.26734" lon="-2.27647">
        <ele>29.6</ele>
        <time>2021-08-22T08:36:45.000Z</time>
      </trkpt>
      <trkpt lat="47.26749" lon="-2.2765">
        <ele>29</ele>
        <time>2021-08-22T08:36:48.000Z</time>
      </trkpt>
      <trkpt lat="47.26753" lon="-2.27649">
        <ele>29</ele>
        <time>2021-08-22T08:36:49.000Z</time>
      </trkpt>
      <trkpt lat="47.2676" lon="-2.27645">
        <ele>-0.40000000596046</ele>
        <time>2021-08-22T08:36:51.000Z</time>
      </trkpt>
      <trkpt lat="47.26761" lon="-2.27641">
        <ele>-0.80000001192093</ele>
        <time>2021-08-22T08:36:52.000Z</time>
      </trkpt>
      <trkpt lat="47.26762" lon="-2.27637">
        <ele>-1.2000000476837</ele>
        <time>2021-08-22T08:36:53.000Z</time>
      </trkpt>
      <trkpt lat="47.26762" lon="-2.27631">
        <ele>-2</ele>
        <time>2021-08-22T08:36:54.000Z</time>
      </trkpt>
      <trkpt lat="47.2676" lon="-2.2762">
        <ele>-2</ele>
        <time>2021-08-22T08:36:56.000Z</time>
      </trkpt>
      <trkpt lat="47.26758" lon="-2.27607">
        <ele>-2</ele>
        <time>2021-08-22T08:36:58.000Z</time>
      </trkpt>
      <trkpt lat="47.26752" lon="-2.27555">
        <ele>-2</ele>
        <time>2021-08-22T08:37:06.000Z</time>
      </trkpt>
      <trkpt lat="47.26751" lon="-2.27515">
        <ele>-1.6000000238419</ele>
        <time>2021-08-22T08:37:12.000Z</time>
      </trkpt>
      <trkpt lat="47.26751" lon="-2.27509">
        <ele>-1.2000000476837</ele>
        <time>2021-08-22T08:37:13.000Z</time>
      </trkpt>
      <trkpt lat="47.26751" lon="-2.27502">
        <ele>-0.80000001192093</ele>
        <time>2021-08-22T08:37:14.000Z</time>
      </trkpt>
      <trkpt lat="47.26752" lon="-2.27496">
        <ele>-0.40000000596046</ele>
        <time>2021-08-22T08:37:15.000Z</time>
      </trkpt>
      <trkpt lat="47.26752" lon="-2.27489">
        <ele>0.20000000298023</ele>
        <time>2021-08-22T08:37:16.000Z</time>
      </trkpt>
      <trkpt lat="47.26752" lon="-2.27453">
        <ele>0.20000000298023</ele>
        <time>2021-08-22T08:37:21.000Z</time>
      </trkpt>
      <trkpt lat="47.26752" lon="-2.27419">
        <ele>0.20000000298023</ele>
        <time>2021-08-22T08:37:26.000Z</time>
      </trkpt>
      <trkpt lat="47.26755" lon="-2.27415">
        <ele>0.20000000298023</ele>
        <time>2021-08-22T08:37:27.000Z</time>
      </trkpt>
      <trkpt lat="47.26768" lon="-2.2741">
        <ele>0.20000000298023</ele>
        <time>2021-08-22T08:37:30.000Z</time>
      </trkpt>
      <trkpt lat="47.26773" lon="-2.2741">
        <ele>0.20000000298023</ele>
        <time>2021-08-22T08:37:31.000Z</time>
      </trkpt>
      <trkpt lat="47.26801" lon="-2.27408">
        <ele>0.20000000298023</ele>
        <time>2021-08-22T08:37:36.000Z</time>
      </trkpt>
      <trkpt lat="47.26824" lon="-2.27406">
        <ele>0.20000000298023</ele>
        <time>2021-08-22T08:37:40.000Z</time>
      </trkpt>
      <trkpt lat="47.26835" lon="-2.27403">
        <ele>0.20000000298023</ele>
        <time>2021-08-22T08:37:42.000Z</time>
      </trkpt>
      <trkpt lat="47.26852" lon="-2.27397">
        <ele>-0.20000000298023</ele>
        <time>2021-08-22T08:37:45.000Z</time>
      </trkpt>
      <trkpt lat="47.26857" lon="-2.27394">
        <ele>-0.80000001192093</ele>
        <time>2021-08-22T08:37:46.000Z</time>
      </trkpt>
      <trkpt lat="47.26863" lon="-2.27391">
        <ele>-1.2000000476837</ele>
        <time>2021-08-22T08:37:47.000Z</time>
      </trkpt>
      <trkpt lat="47.26869" lon="-2.27389">
        <ele>-1.6000000238419</ele>
        <time>2021-08-22T08:37:48.000Z</time>
      </trkpt>
      <trkpt lat="47.26875" lon="-2.27386">
        <ele>-2</ele>
        <time>2021-08-22T08:37:49.000Z</time>
      </trkpt>
      <trkpt lat="47.26896" lon="-2.27374">
        <ele>-2.4000000953674</ele>
        <time>2021-08-22T08:37:53.000Z</time>
      </trkpt>
      <trkpt lat="47.269" lon="-2.27371">
        <ele>-2.7999999523163</ele>
        <time>2021-08-22T08:37:54.000Z</time>
      </trkpt>
      <trkpt lat="47.26904" lon="-2.27367">
        <ele>-3.4000000953674</ele>
        <time>2021-08-22T08:37:55.000Z</time>
      </trkpt>
      <trkpt lat="47.26906" lon="-2.27364">
        <ele>-3.7999999523163</ele>
        <time>2021-08-22T08:37:56.000Z</time>
      </trkpt>
      <trkpt lat="47.26908" lon="-2.2736">
        <ele>-4.1999998092651</ele>
        <time>2021-08-22T08:37:57.000Z</time>
      </trkpt>
      <trkpt lat="47.26909" lon="-2.27356">
        <ele>-4.1999998092651</ele>
        <time>2021-08-22T08:37:58.000Z</time>
      </trkpt>
      <trkpt lat="47.26914" lon="-2.27341">
        <ele>-4.1999998092651</ele>
        <time>2021-08-22T08:38:03.000Z</time>
      </trkpt>
      <trkpt lat="47.26917" lon="-2.2733">
        <ele>-4.5999999046326</ele>
        <time>2021-08-22T08:38:08.000Z</time>
      </trkpt>
      <trkpt lat="47.26918" lon="-2.27328">
        <ele>-5</ele>
        <time>2021-08-22T08:38:09.000Z</time>
      </trkpt>
      <trkpt lat="47.26919" lon="-2.27326">
        <ele>-5.4000000953674</ele>
        <time>2021-08-22T08:38:10.000Z</time>
      </trkpt>
      <trkpt lat="47.2692" lon="-2.27324">
        <ele>-5.8000001907349</ele>
        <time>2021-08-22T08:38:11.000Z</time>
      </trkpt>
      <trkpt lat="47.26921" lon="-2.27321">
        <ele>-6.4000000953674</ele>
        <time>2021-08-22T08:38:12.000Z</time>
      </trkpt>
      <trkpt lat="47.2692" lon="-2.27306">
        <ele>-6.4000000953674</ele>
        <time>2021-08-22T08:38:18.000Z</time>
      </trkpt>
      <trkpt lat="47.2692" lon="-2.27296">
        <ele>-5.8000001907349</ele>
        <time>2021-08-22T08:38:22.000Z</time>
      </trkpt>
      <trkpt lat="47.2692" lon="-2.27291">
        <ele>-5.4000000953674</ele>
        <time>2021-08-22T08:38:23.000Z</time>
      </trkpt>
      <trkpt lat="47.26921" lon="-2.27287">
        <ele>-5</ele>
        <time>2021-08-22T08:38:24.000Z</time>
      </trkpt>
      <trkpt lat="47.26921" lon="-2.27282">
        <ele>-4.5999999046326</ele>
        <time>2021-08-22T08:38:25.000Z</time>
      </trkpt>
      <trkpt lat="47.26922" lon="-2.27278">
        <ele>-4</ele>
        <time>2021-08-22T08:38:26.000Z</time>
      </trkpt>
      <trkpt lat="47.26926" lon="-2.27272">
        <ele>-4</ele>
        <time>2021-08-22T08:38:28.000Z</time>
      </trkpt>
      <trkpt lat="47.26942" lon="-2.27265">
        <ele>-4.4000000953674</ele>
        <time>2021-08-22T08:38:33.000Z</time>
      </trkpt>
      <trkpt lat="47.26946" lon="-2.27265">
        <ele>-4.8000001907349</ele>
        <time>2021-08-22T08:38:34.000Z</time>
      </trkpt>
      <trkpt lat="47.26949" lon="-2.27263">
        <ele>-5.1999998092651</ele>
        <time>2021-08-22T08:38:35.000Z</time>
      </trkpt>
      <trkpt lat="47.26952" lon="-2.27261">
        <ele>-5.5999999046326</ele>
        <time>2021-08-22T08:38:36.000Z</time>
      </trkpt>
      <trkpt lat="47.26954" lon="-2.27258">
        <ele>-6.1999998092651</ele>
        <time>2021-08-22T08:38:37.000Z</time>
      </trkpt>
      <trkpt lat="47.2696" lon="-2.27249">
        <ele>-6.1999998092651</ele>
        <time>2021-08-22T08:38:40.000Z</time>
      </trkpt>
      <trkpt lat="47.26965" lon="-2.27242">
        <ele>-6.1999998092651</ele>
        <time>2021-08-22T08:38:43.000Z</time>
      </trkpt>
      <trkpt lat="47.26967" lon="-2.27235">
        <ele>-6.1999998092651</ele>
        <time>2021-08-22T08:38:47.000Z</time>
      </trkpt>
      <trkpt lat="47.26967" lon="-2.27228">
        <ele>-6.1999998092651</ele>
        <time>2021-08-22T08:38:49.000Z</time>
      </trkpt>
      <trkpt lat="47.26967" lon="-2.27207">
        <ele>-6.1999998092651</ele>
        <time>2021-08-22T08:38:54.000Z</time>
      </trkpt>
      <trkpt lat="47.26969" lon="-2.27201">
        <ele>-6.1999998092651</ele>
        <time>2021-08-22T08:38:56.000Z</time>
      </trkpt>
      <trkpt lat="47.26975" lon="-2.27195">
        <ele>-6.1999998092651</ele>
        <time>2021-08-22T08:38:59.000Z</time>
      </trkpt>
      <trkpt lat="47.26977" lon="-2.2719">
        <ele>-6.1999998092651</ele>
        <time>2021-08-22T08:39:01.000Z</time>
      </trkpt>
      <trkpt lat="47.26979" lon="-2.2718">
        <ele>-6.1999998092651</ele>
        <time>2021-08-22T08:39:04.000Z</time>
      </trkpt>
      <trkpt lat="47.26982" lon="-2.27179">
        <ele>-6.1999998092651</ele>
        <time>2021-08-22T08:39:06.000Z</time>
      </trkpt>
      <trkpt lat="47.26986" lon="-2.27181">
        <ele>-6.1999998092651</ele>
        <time>2021-08-22T08:39:08.000Z</time>
      </trkpt>
      <trkpt lat="47.26992" lon="-2.27176">
        <ele>-6.1999998092651</ele>
        <time>2021-08-22T08:39:12.000Z</time>
      </trkpt>
      <trkpt lat="47.26995" lon="-2.27174">
        <ele>-6.1999998092651</ele>
        <time>2021-08-22T08:39:14.000Z</time>
      </trkpt>
      <trkpt lat="47.27" lon="-2.27168">
        <ele>-6.1999998092651</ele>
        <time>2021-08-22T08:39:17.000Z</time>
      </trkpt>
      <trkpt lat="47.27007" lon="-2.27167">
        <ele>-6.1999998092651</ele>
        <time>2021-08-22T08:39:23.000Z</time>
      </trkpt>
      <trkpt lat="47.27007" lon="-2.27167">
        <ele>-6.1999998092651</ele>
        <time>2021-08-22T08:39:24.000Z</time>
      </trkpt>
      <trkpt lat="47.27016" lon="-2.27162">
        <ele>-6.1999998092651</ele>
        <time>2021-08-22T08:39:43.000Z</time>
      </trkpt>
      <trkpt lat="47.27018" lon="-2.27158">
        <ele>-6.1999998092651</ele>
        <time>2021-08-22T08:39:45.000Z</time>
      </trkpt>
      <trkpt lat="47.27022" lon="-2.27157">
        <ele>-6.5999999046326</ele>
        <time>2021-08-22T08:39:47.000Z</time>
      </trkpt>
      <trkpt lat="47.27023" lon="-2.27155">
        <ele>-7</ele>
        <time>2021-08-22T08:39:48.000Z</time>
      </trkpt>
      <trkpt lat="47.27025" lon="-2.27152">
        <ele>-7.4000000953674</ele>
        <time>2021-08-22T08:39:49.000Z</time>
      </trkpt>
      <trkpt lat="47.27027" lon="-2.27149">
        <ele>-8</ele>
        <time>2021-08-22T08:39:50.000Z</time>
      </trkpt>
      <trkpt lat="47.27029" lon="-2.27147">
        <ele>-8.3999996185303</ele>
        <time>2021-08-22T08:39:51.000Z</time>
      </trkpt>
      <trkpt lat="47.27031" lon="-2.27149">
        <ele>-8.3999996185303</ele>
        <time>2021-08-22T08:39:53.000Z</time>
      </trkpt>
      <trkpt lat="47.27041" lon="-2.27166">
        <ele>-8.3999996185303</ele>
        <time>2021-08-22T08:39:57.000Z</time>
      </trkpt>
      <trkpt lat="47.27058" lon="-2.27194">
        <ele>-8.3999996185303</ele>
        <time>2021-08-22T08:40:03.000Z</time>
      </trkpt>
      <trkpt lat="47.27068" lon="-2.27207">
        <ele>-8</ele>
        <time>2021-08-22T08:40:06.000Z</time>
      </trkpt>
      <trkpt lat="47.27072" lon="-2.27211">
        <ele>-7.5999999046326</ele>
        <time>2021-08-22T08:40:07.000Z</time>
      </trkpt>
      <trkpt lat="47.27075" lon="-2.27216">
        <ele>-7.1999998092651</ele>
        <time>2021-08-22T08:40:08.000Z</time>
      </trkpt>
      <trkpt lat="47.27079" lon="-2.27221">
        <ele>-6.5999999046326</ele>
        <time>2021-08-22T08:40:09.000Z</time>
      </trkpt>
      <trkpt lat="47.27082" lon="-2.27225">
        <ele>-6.1999998092651</ele>
        <time>2021-08-22T08:40:10.000Z</time>
      </trkpt>
      <trkpt lat="47.2709" lon="-2.27237">
        <ele>-5.8000001907349</ele>
        <time>2021-08-22T08:40:13.000Z</time>
      </trkpt>
      <trkpt lat="47.27092" lon="-2.27242">
        <ele>-5.4000000953674</ele>
        <time>2021-08-22T08:40:14.000Z</time>
      </trkpt>
      <trkpt lat="47.27095" lon="-2.27246">
        <ele>-5</ele>
        <time>2021-08-22T08:40:15.000Z</time>
      </trkpt>
      <trkpt lat="47.27097" lon="-2.27251">
        <ele>-4.5999999046326</ele>
        <time>2021-08-22T08:40:16.000Z</time>
      </trkpt>
      <trkpt lat="47.271" lon="-2.27256">
        <ele>-4.1999998092651</ele>
        <time>2021-08-22T08:40:17.000Z</time>
      </trkpt>
      <trkpt lat="47.2711" lon="-2.27275">
        <ele>-4.1999998092651</ele>
        <time>2021-08-22T08:40:21.000Z</time>
      </trkpt>
      <trkpt lat="47.27116" lon="-2.27289">
        <ele>-3.7999999523163</ele>
        <time>2021-08-22T08:40:24.000Z</time>
      </trkpt>
      <trkpt lat="47.27118" lon="-2.27294">
        <ele>-3.4000000953674</ele>
        <time>2021-08-22T08:40:25.000Z</time>
      </trkpt>
      <trkpt lat="47.2712" lon="-2.273">
        <ele>-3</ele>
        <time>2021-08-22T08:40:26.000Z</time>
      </trkpt>
      <trkpt lat="47.27121" lon="-2.27306">
        <ele>-2.5999999046326</ele>
        <time>2021-08-22T08:40:27.000Z</time>
      </trkpt>
      <trkpt lat="47.27122" lon="-2.27313">
        <ele>-2.2000000476837</ele>
        <time>2021-08-22T08:40:28.000Z</time>
      </trkpt>
      <trkpt lat="47.27127" lon="-2.27346">
        <ele>-2.2000000476837</ele>
        <time>2021-08-22T08:40:33.000Z</time>
      </trkpt>
      <trkpt lat="47.27132" lon="-2.27389">
        <ele>-2.2000000476837</ele>
        <time>2021-08-22T08:40:39.000Z</time>
      </trkpt>
      <trkpt lat="47.27136" lon="-2.2741">
        <ele>-1.7999999523163</ele>
        <time>2021-08-22T08:40:42.000Z</time>
      </trkpt>
      <trkpt lat="47.27137" lon="-2.27416">
        <ele>-1.3999999761581</ele>
        <time>2021-08-22T08:40:43.000Z</time>
      </trkpt>
      <trkpt lat="47.27138" lon="-2.27423">
        <ele>-1</ele>
        <time>2021-08-22T08:40:44.000Z</time>
      </trkpt>
      <trkpt lat="47.27139" lon="-2.2743">
        <ele>-0.60000002384186</ele>
        <time>2021-08-22T08:40:45.000Z</time>
      </trkpt>
      <trkpt lat="47.27141" lon="-2.27437">
        <ele>-0.20000000298023</ele>
        <time>2021-08-22T08:40:46.000Z</time>
      </trkpt>
      <trkpt lat="47.27145" lon="-2.27473">
        <ele>-0.20000000298023</ele>
        <time>2021-08-22T08:40:51.000Z</time>
      </trkpt>
      <trkpt lat="47.27149" lon="-2.27522">
        <ele>-0.20000000298023</ele>
        <time>2021-08-22T08:40:58.000Z</time>
      </trkpt>
      <trkpt lat="47.27149" lon="-2.27576">
        <ele>-0.20000000298023</ele>
        <time>2021-08-22T08:41:05.000Z</time>
      </trkpt>
      <trkpt lat="47.27148" lon="-2.27583">
        <ele>-0.20000000298023</ele>
        <time>2021-08-22T08:41:06.000Z</time>
      </trkpt>
      <trkpt lat="47.27145" lon="-2.27597">
        <ele>-0.20000000298023</ele>
        <time>2021-08-22T08:41:08.000Z</time>
      </trkpt>
      <trkpt lat="47.27142" lon="-2.27602">
        <ele>-0.20000000298023</ele>
        <time>2021-08-22T08:41:09.000Z</time>
      </trkpt>
      <trkpt lat="47.27123" lon="-2.27617">
        <ele>-0.20000000298023</ele>
        <time>2021-08-22T08:41:13.000Z</time>
      </trkpt>
      <trkpt lat="47.27117" lon="-2.2762">
        <ele>-0.20000000298023</ele>
        <time>2021-08-22T08:41:14.000Z</time>
      </trkpt>
      <trkpt lat="47.27088" lon="-2.27637">
        <ele>-0.20000000298023</ele>
        <time>2021-08-22T08:41:19.000Z</time>
      </trkpt>
      <trkpt lat="47.27062" lon="-2.27657">
        <ele>-0.20000000298023</ele>
        <time>2021-08-22T08:41:24.000Z</time>
      </trkpt>
      <trkpt lat="47.27053" lon="-2.27666">
        <ele>-0.20000000298023</ele>
        <time>2021-08-22T08:41:26.000Z</time>
      </trkpt>
      <trkpt lat="47.27029" lon="-2.27696">
        <ele>-0.20000000298023</ele>
        <time>2021-08-22T08:41:32.000Z</time>
      </trkpt>
      <trkpt lat="47.27023" lon="-2.27708">
        <ele>-0.20000000298023</ele>
        <time>2021-08-22T08:41:34.000Z</time>
      </trkpt>
      <trkpt lat="47.27023" lon="-2.27719">
        <ele>-0.20000000298023</ele>
        <time>2021-08-22T08:41:36.000Z</time>
      </trkpt>
      <trkpt lat="47.27034" lon="-2.27728">
        <ele>-0.20000000298023</ele>
        <time>2021-08-22T08:41:39.000Z</time>
      </trkpt>
      <trkpt lat="47.2705" lon="-2.27733">
        <ele>-0.20000000298023</ele>
        <time>2021-08-22T08:41:42.000Z</time>
      </trkpt>
      <trkpt lat="47.27055" lon="-2.27735">
        <ele>0.20000000298023</ele>
        <time>2021-08-22T08:41:43.000Z</time>
      </trkpt>
      <trkpt lat="47.2706" lon="-2.27737">
        <ele>0.60000002384186</ele>
        <time>2021-08-22T08:41:44.000Z</time>
      </trkpt>
      <trkpt lat="47.27065" lon="-2.27738">
        <ele>1.3999999761581</ele>
        <time>2021-08-22T08:41:45.000Z</time>
      </trkpt>
      <trkpt lat="47.27071" lon="-2.2774">
        <ele>1.7999999523163</ele>
        <time>2021-08-22T08:41:46.000Z</time>
      </trkpt>
      <trkpt lat="47.27097" lon="-2.27756">
        <ele>1.7999999523163</ele>
        <time>2021-08-22T08:41:52.000Z</time>
      </trkpt>
      <trkpt lat="47.2711" lon="-2.27772">
        <ele>1.7999999523163</ele>
        <time>2021-08-22T08:41:56.000Z</time>
      </trkpt>
      <trkpt lat="47.27115" lon="-2.27781">
        <ele>1.7999999523163</ele>
        <time>2021-08-22T08:41:58.000Z</time>
      </trkpt>
      <trkpt lat="47.27118" lon="-2.27786">
        <ele>1.7999999523163</ele>
        <time>2021-08-22T08:41:59.000Z</time>
      </trkpt>
      <trkpt lat="47.27118" lon="-2.27805">
        <ele>1.7999999523163</ele>
        <time>2021-08-22T08:42:02.000Z</time>
      </trkpt>
      <trkpt lat="47.27113" lon="-2.27824">
        <ele>2.2000000476837</ele>
        <time>2021-08-22T08:42:05.000Z</time>
      </trkpt>
      <trkpt lat="47.27111" lon="-2.27831">
        <ele>2.7999999523163</ele>
        <time>2021-08-22T08:42:06.000Z</time>
      </trkpt>
      <trkpt lat="47.2711" lon="-2.27837">
        <ele>3.2000000476837</ele>
        <time>2021-08-22T08:42:07.000Z</time>
      </trkpt>
      <trkpt lat="47.27108" lon="-2.27843">
        <ele>3.5999999046326</ele>
        <time>2021-08-22T08:42:08.000Z</time>
      </trkpt>
      <trkpt lat="47.27106" lon="-2.27849">
        <ele>4</ele>
        <time>2021-08-22T08:42:09.000Z</time>
      </trkpt>
      <trkpt lat="47.27102" lon="-2.27861">
        <ele>4</ele>
        <time>2021-08-22T08:42:11.000Z</time>
      </trkpt>
      <trkpt lat="47.27098" lon="-2.27877">
        <ele>4</ele>
        <time>2021-08-22T08:42:14.000Z</time>
      </trkpt>
      <trkpt lat="47.27096" lon="-2.27881">
        <ele>4.4000000953674</ele>
        <time>2021-08-22T08:42:15.000Z</time>
      </trkpt>
      <trkpt lat="47.27093" lon="-2.27884">
        <ele>4.8000001907349</ele>
        <time>2021-08-22T08:42:16.000Z</time>
      </trkpt>
      <trkpt lat="47.2709" lon="-2.27887">
        <ele>5.4000000953674</ele>
        <time>2021-08-22T08:42:17.000Z</time>
      </trkpt>
      <trkpt lat="47.27087" lon="-2.27891">
        <ele>5.8000001907349</ele>
        <time>2021-08-22T08:42:18.000Z</time>
      </trkpt>
      <trkpt lat="47.27083" lon="-2.27895">
        <ele>6.1999998092651</ele>
        <time>2021-08-22T08:42:19.000Z</time>
      </trkpt>
      <trkpt lat="47.27071" lon="-2.27918">
        <ele>6.1999998092651</ele>
        <time>2021-08-22T08:42:24.000Z</time>
      </trkpt>
      <trkpt lat="47.27067" lon="-2.2794">
        <ele>6.5999999046326</ele>
        <time>2021-08-22T08:42:28.000Z</time>
      </trkpt>
      <trkpt lat="47.27067" lon="-2.27946">
        <ele>7</ele>
        <time>2021-08-22T08:42:29.000Z</time>
      </trkpt>
      <trkpt lat="47.27068" lon="-2.27951">
        <ele>7.5999999046326</ele>
        <time>2021-08-22T08:42:30.000Z</time>
      </trkpt>
      <trkpt lat="47.27069" lon="-2.27957">
        <ele>8</ele>
        <time>2021-08-22T08:42:31.000Z</time>
      </trkpt>
      <trkpt lat="47.2707" lon="-2.27962">
        <ele>8.3999996185303</ele>
        <time>2021-08-22T08:42:32.000Z</time>
      </trkpt>
      <trkpt lat="47.27074" lon="-2.27972">
        <ele>8.3999996185303</ele>
        <time>2021-08-22T08:42:34.000Z</time>
      </trkpt>
      <trkpt lat="47.27089" lon="-2.27987">
        <ele>8.3999996185303</ele>
        <time>2021-08-22T08:42:38.000Z</time>
      </trkpt>
      <trkpt lat="47.27104" lon="-2.27991">
        <ele>8.3999996185303</ele>
        <time>2021-08-22T08:42:41.000Z</time>
      </trkpt>
      <trkpt lat="47.27108" lon="-2.27994">
        <ele>8.3999996185303</ele>
        <time>2021-08-22T08:42:42.000Z</time>
      </trkpt>
      <trkpt lat="47.27112" lon="-2.27999">
        <ele>8.3999996185303</ele>
        <time>2021-08-22T08:42:43.000Z</time>
      </trkpt>
      <trkpt lat="47.27117" lon="-2.28022">
        <ele>8.3999996185303</ele>
        <time>2021-08-22T08:42:46.000Z</time>
      </trkpt>
      <trkpt lat="47.27123" lon="-2.28062">
        <ele>8.3999996185303</ele>
        <time>2021-08-22T08:42:51.000Z</time>
      </trkpt>
      <trkpt lat="47.27123" lon="-2.28079">
        <ele>8.3999996185303</ele>
        <time>2021-08-22T08:42:53.000Z</time>
      </trkpt>
      <trkpt lat="47.27122" lon="-2.28112">
        <ele>8</ele>
        <time>2021-08-22T08:42:57.000Z</time>
      </trkpt>
      <trkpt lat="47.27123" lon="-2.2812">
        <ele>7.5999999046326</ele>
        <time>2021-08-22T08:42:58.000Z</time>
      </trkpt>
      <trkpt lat="47.27123" lon="-2.28127">
        <ele>6.8000001907349</ele>
        <time>2021-08-22T08:42:59.000Z</time>
      </trkpt>
      <trkpt lat="47.27124" lon="-2.28136">
        <ele>6.4000000953674</ele>
        <time>2021-08-22T08:43:00.000Z</time>
      </trkpt>
      <trkpt lat="47.27126" lon="-2.28168">
        <ele>6.4000000953674</ele>
        <time>2021-08-22T08:43:04.000Z</time>
      </trkpt>
      <trkpt lat="47.27125" lon="-2.28177">
        <ele>6.4000000953674</ele>
        <time>2021-08-22T08:43:05.000Z</time>
      </trkpt>
      <trkpt lat="47.27118" lon="-2.28235">
        <ele>6.4000000953674</ele>
        <time>2021-08-22T08:43:11.000Z</time>
      </trkpt>
      <trkpt lat="47.27118" lon="-2.28245">
        <ele>6.4000000953674</ele>
        <time>2021-08-22T08:43:12.000Z</time>
      </trkpt>
      <trkpt lat="47.27123" lon="-2.2827">
        <ele>6.4000000953674</ele>
        <time>2021-08-22T08:43:15.000Z</time>
      </trkpt>
      <trkpt lat="47.27131" lon="-2.28294">
        <ele>6.4000000953674</ele>
        <time>2021-08-22T08:43:18.000Z</time>
      </trkpt>
      <trkpt lat="47.27136" lon="-2.28313">
        <ele>6.4000000953674</ele>
        <time>2021-08-22T08:43:20.000Z</time>
      </trkpt>
      <trkpt lat="47.27138" lon="-2.28323">
        <ele>6</ele>
        <time>2021-08-22T08:43:21.000Z</time>
      </trkpt>
      <trkpt lat="47.2714" lon="-2.28332">
        <ele>5.1999998092651</ele>
        <time>2021-08-22T08:43:22.000Z</time>
      </trkpt>
      <trkpt lat="47.27142" lon="-2.28341">
        <ele>4.8000001907349</ele>
        <time>2021-08-22T08:43:23.000Z</time>
      </trkpt>
      <trkpt lat="47.27143" lon="-2.2835">
        <ele>4.4000000953674</ele>
        <time>2021-08-22T08:43:24.000Z</time>
      </trkpt>
      <trkpt lat="47.27145" lon="-2.28368">
        <ele>4.4000000953674</ele>
        <time>2021-08-22T08:43:26.000Z</time>
      </trkpt>
      <trkpt lat="47.27152" lon="-2.28429">
        <ele>4.4000000953674</ele>
        <time>2021-08-22T08:43:33.000Z</time>
      </trkpt>
      <trkpt lat="47.27161" lon="-2.28485">
        <ele>4.4000000953674</ele>
        <time>2021-08-22T08:43:39.000Z</time>
      </trkpt>
      <trkpt lat="47.27171" lon="-2.28546">
        <ele>4.4000000953674</ele>
        <time>2021-08-22T08:43:45.000Z</time>
      </trkpt>
      <trkpt lat="47.27175" lon="-2.28564">
        <ele>3.4000000953674</ele>
        <time>2021-08-22T08:43:47.000Z</time>
      </trkpt>
      <trkpt lat="47.27177" lon="-2.28573">
        <ele>3</ele>
        <time>2021-08-22T08:43:48.000Z</time>
      </trkpt>
      <trkpt lat="47.2718" lon="-2.28579">
        <ele>2.5999999046326</ele>
        <time>2021-08-22T08:43:49.000Z</time>
      </trkpt>
      <trkpt lat="47.27184" lon="-2.28585">
        <ele>2</ele>
        <time>2021-08-22T08:43:50.000Z</time>
      </trkpt>
      <trkpt lat="47.27199" lon="-2.28587">
        <ele>2</ele>
        <time>2021-08-22T08:43:53.000Z</time>
      </trkpt>
      <trkpt lat="47.2721" lon="-2.28584">
        <ele>2</ele>
        <time>2021-08-22T08:43:55.000Z</time>
      </trkpt>
      <trkpt lat="47.27228" lon="-2.28581">
        <ele>2</ele>
        <time>2021-08-22T08:43:58.000Z</time>
      </trkpt>
      <trkpt lat="47.27234" lon="-2.28581">
        <ele>2</ele>
        <time>2021-08-22T08:43:59.000Z</time>
      </trkpt>
      <trkpt lat="47.27247" lon="-2.2858">
        <ele>1.6000000238419</ele>
        <time>2021-08-22T08:44:01.000Z</time>
      </trkpt>
      <trkpt lat="47.27254" lon="-2.28579">
        <ele>1.2000000476837</ele>
        <time>2021-08-22T08:44:02.000Z</time>
      </trkpt>
      <trkpt lat="47.2726" lon="-2.2858">
        <ele>0.80000001192093</ele>
        <time>2021-08-22T08:44:03.000Z</time>
      </trkpt>
      <trkpt lat="47.27266" lon="-2.28581">
        <ele>0.40000000596046</ele>
        <time>2021-08-22T08:44:04.000Z</time>
      </trkpt>
      <trkpt lat="47.27272" lon="-2.28582">
        <ele>30</ele>
        <time>2021-08-22T08:44:05.000Z</time>
      </trkpt>
      <trkpt lat="47.27296" lon="-2.28588">
        <ele>30</ele>
        <time>2021-08-22T08:44:09.000Z</time>
      </trkpt>
      <trkpt lat="47.27323" lon="-2.28597">
        <ele>29.7</ele>
        <time>2021-08-22T08:44:14.000Z</time>
      </trkpt>
      <trkpt lat="47.2736" lon="-2.28611">
        <ele>-0.40000000596046</ele>
        <time>2021-08-22T08:44:20.000Z</time>
      </trkpt>
      <trkpt lat="47.27367" lon="-2.28613">
        <ele>-0.80000001192093</ele>
        <time>2021-08-22T08:44:21.000Z</time>
      </trkpt>
      <trkpt lat="47.27373" lon="-2.28616">
        <ele>-1.2000000476837</ele>
        <time>2021-08-22T08:44:22.000Z</time>
      </trkpt>
      <trkpt lat="47.27378" lon="-2.28618">
        <ele>-1.6000000238419</ele>
        <time>2021-08-22T08:44:23.000Z</time>
      </trkpt>
      <trkpt lat="47.27384" lon="-2.28621">
        <ele>-2</ele>
        <time>2021-08-22T08:44:24.000Z</time>
      </trkpt>
      <trkpt lat="47.27399" lon="-2.28628">
        <ele>-2</ele>
        <time>2021-08-22T08:44:27.000Z</time>
      </trkpt>
      <trkpt lat="47.2743" lon="-2.28634">
        <ele>-2</ele>
        <time>2021-08-22T08:44:32.000Z</time>
      </trkpt>
      <trkpt lat="47.27448" lon="-2.28625">
        <ele>-2</ele>
        <time>2021-08-22T08:44:35.000Z</time>
      </trkpt>
      <trkpt lat="47.27461" lon="-2.28606">
        <ele>-2</ele>
        <time>2021-08-22T08:44:38.000Z</time>
      </trkpt>
      <trkpt lat="47.27464" lon="-2.286">
        <ele>-2</ele>
        <time>2021-08-22T08:44:39.000Z</time>
      </trkpt>
      <trkpt lat="47.27473" lon="-2.28579">
        <ele>-2</ele>
        <time>2021-08-22T08:44:42.000Z</time>
      </trkpt>
      <trkpt lat="47.27481" lon="-2.28557">
        <ele>-2</ele>
        <time>2021-08-22T08:44:45.000Z</time>
      </trkpt>
      <trkpt lat="47.27493" lon="-2.28528">
        <ele>-2</ele>
        <time>2021-08-22T08:44:49.000Z</time>
      </trkpt>
      <trkpt lat="47.27499" lon="-2.28515">
        <ele>-2</ele>
        <time>2021-08-22T08:44:51.000Z</time>
      </trkpt>
      <trkpt lat="47.27508" lon="-2.28494">
        <ele>-2</ele>
        <time>2021-08-22T08:44:54.000Z</time>
      </trkpt>
      <trkpt lat="47.27513" lon="-2.28482">
        <ele>-2</ele>
        <time>2021-08-22T08:44:56.000Z</time>
      </trkpt>
      <trkpt lat="47.27517" lon="-2.28469">
        <ele>-2</ele>
        <time>2021-08-22T08:44:58.000Z</time>
      </trkpt>
      <trkpt lat="47.2752" lon="-2.28461">
        <ele>-2</ele>
        <time>2021-08-22T08:44:59.000Z</time>
      </trkpt>
      <trkpt lat="47.27526" lon="-2.28447">
        <ele>-2</ele>
        <time>2021-08-22T08:45:01.000Z</time>
      </trkpt>
      <trkpt lat="47.27545" lon="-2.28415">
        <ele>-2</ele>
        <time>2021-08-22T08:45:06.000Z</time>
      </trkpt>
      <trkpt lat="47.2757" lon="-2.2838">
        <ele>-2</ele>
        <time>2021-08-22T08:45:12.000Z</time>
      </trkpt>
      <trkpt lat="47.27587" lon="-2.2836">
        <ele>-2</ele>
        <time>2021-08-22T08:45:16.000Z</time>
      </trkpt>
      <trkpt lat="47.27596" lon="-2.28349">
        <ele>-2</ele>
        <time>2021-08-22T08:45:18.000Z</time>
      </trkpt>
      <trkpt lat="47.27631" lon="-2.28311">
        <ele>-2</ele>
        <time>2021-08-22T08:45:25.000Z</time>
      </trkpt>
      <trkpt lat="47.27652" lon="-2.28291">
        <ele>-2</ele>
        <time>2021-08-22T08:45:30.000Z</time>
      </trkpt>
      <trkpt lat="47.27662" lon="-2.28274">
        <ele>-2</ele>
        <time>2021-08-22T08:45:34.000Z</time>
      </trkpt>
      <trkpt lat="47.27669" lon="-2.28263">
        <ele>-2</ele>
        <time>2021-08-22T08:45:36.000Z</time>
      </trkpt>
      <trkpt lat="47.27689" lon="-2.28235">
        <ele>-2</ele>
        <time>2021-08-22T08:45:41.000Z</time>
      </trkpt>
      <trkpt lat="47.27697" lon="-2.28224">
        <ele>-2</ele>
        <time>2021-08-22T08:45:43.000Z</time>
      </trkpt>
      <trkpt lat="47.2771" lon="-2.282">
        <ele>-2</ele>
        <time>2021-08-22T08:45:47.000Z</time>
      </trkpt>
      <trkpt lat="47.27731" lon="-2.28157">
        <ele>-2</ele>
        <time>2021-08-22T08:45:54.000Z</time>
      </trkpt>
      <trkpt lat="47.27733" lon="-2.28149">
        <ele>-2</ele>
        <time>2021-08-22T08:45:55.000Z</time>
      </trkpt>
      <trkpt lat="47.27738" lon="-2.28122">
        <ele>-2</ele>
        <time>2021-08-22T08:45:58.000Z</time>
      </trkpt>
      <trkpt lat="47.27747" lon="-2.28067">
        <ele>-2</ele>
        <time>2021-08-22T08:46:04.000Z</time>
      </trkpt>
      <trkpt lat="47.27751" lon="-2.28027">
        <ele>-2</ele>
        <time>2021-08-22T08:46:09.000Z</time>
      </trkpt>
      <trkpt lat="47.27759" lon="-2.27978">
        <ele>-2</ele>
        <time>2021-08-22T08:46:15.000Z</time>
      </trkpt>
      <trkpt lat="47.27765" lon="-2.27956">
        <ele>-2</ele>
        <time>2021-08-22T08:46:18.000Z</time>
      </trkpt>
      <trkpt lat="47.27769" lon="-2.27941">
        <ele>-2</ele>
        <time>2021-08-22T08:46:20.000Z</time>
      </trkpt>
      <trkpt lat="47.27781" lon="-2.279">
        <ele>-2</ele>
        <time>2021-08-22T08:46:25.000Z</time>
      </trkpt>
      <trkpt lat="47.27785" lon="-2.27891">
        <ele>-2</ele>
        <time>2021-08-22T08:46:26.000Z</time>
      </trkpt>
      <trkpt lat="47.27801" lon="-2.2786">
        <ele>-2</ele>
        <time>2021-08-22T08:46:30.000Z</time>
      </trkpt>
      <trkpt lat="47.27828" lon="-2.27808">
        <ele>-2</ele>
        <time>2021-08-22T08:46:37.000Z</time>
      </trkpt>
      <trkpt lat="47.27853" lon="-2.27752">
        <ele>-2</ele>
        <time>2021-08-22T08:46:44.000Z</time>
      </trkpt>
      <trkpt lat="47.27885" lon="-2.27688">
        <ele>-2</ele>
        <time>2021-08-22T08:46:52.000Z</time>
      </trkpt>
      <trkpt lat="47.27901" lon="-2.27639">
        <ele>-2</ele>
        <time>2021-08-22T08:46:57.000Z</time>
      </trkpt>
      <trkpt lat="47.27924" lon="-2.27573">
        <ele>-2</ele>
        <time>2021-08-22T08:47:04.000Z</time>
      </trkpt>
      <trkpt lat="47.27941" lon="-2.2756">
        <ele>-2</ele>
        <time>2021-08-22T08:47:07.000Z</time>
      </trkpt>
      <trkpt lat="47.27951" lon="-2.27551">
        <ele>-2</ele>
        <time>2021-08-22T08:47:11.000Z</time>
      </trkpt>
      <trkpt lat="47.27953" lon="-2.2755">
        <ele>-2</ele>
        <time>2021-08-22T08:47:14.000Z</time>
      </trkpt>
      <trkpt lat="47.27959" lon="-2.27549">
        <ele>-2</ele>
        <time>2021-08-22T08:47:16.000Z</time>
      </trkpt>
      <trkpt lat="47.27971" lon="-2.27554">
        <ele>-2</ele>
        <time>2021-08-22T08:47:20.000Z</time>
      </trkpt>
      <trkpt lat="47.27988" lon="-2.27555">
        <ele>-2</ele>
        <time>2021-08-22T08:47:24.000Z</time>
      </trkpt>
      <trkpt lat="47.2801" lon="-2.27556">
        <ele>-1.6000000238419</ele>
        <time>2021-08-22T08:47:29.000Z</time>
      </trkpt>
      <trkpt lat="47.28014" lon="-2.27556">
        <ele>-1.2000000476837</ele>
        <time>2021-08-22T08:47:30.000Z</time>
      </trkpt>
      <trkpt lat="47.28018" lon="-2.27555">
        <ele>-0.80000001192093</ele>
        <time>2021-08-22T08:47:31.000Z</time>
      </trkpt>
      <trkpt lat="47.28023" lon="-2.27554">
        <ele>-0.40000000596046</ele>
        <time>2021-08-22T08:47:32.000Z</time>
      </trkpt>
      <trkpt lat="47.28027" lon="-2.27552">
        <ele>0.20000000298023</ele>
        <time>2021-08-22T08:47:33.000Z</time>
      </trkpt>
      <trkpt lat="47.28041" lon="-2.27548">
        <ele>0.20000000298023</ele>
        <time>2021-08-22T08:47:36.000Z</time>
      </trkpt>
      <trkpt lat="47.28051" lon="-2.27544">
        <ele>0.60000002384186</ele>
        <time>2021-08-22T08:47:38.000Z</time>
      </trkpt>
      <trkpt lat="47.28055" lon="-2.27541">
        <ele>1</ele>
        <time>2021-08-22T08:47:39.000Z</time>
      </trkpt>
      <trkpt lat="47.28059" lon="-2.27538">
        <ele>1.3999999761581</ele>
        <time>2021-08-22T08:47:40.000Z</time>
      </trkpt>
      <trkpt lat="47.28064" lon="-2.27534">
        <ele>1.7999999523163</ele>
        <time>2021-08-22T08:47:41.000Z</time>
      </trkpt>
      <trkpt lat="47.28067" lon="-2.27529">
        <ele>2.2000000476837</ele>
        <time>2021-08-22T08:47:42.000Z</time>
      </trkpt>
      <trkpt lat="47.2808" lon="-2.27507">
        <ele>2.2000000476837</ele>
        <time>2021-08-22T08:47:46.000Z</time>
      </trkpt>
      <trkpt lat="47.28089" lon="-2.27487">
        <ele>2.5999999046326</ele>
        <time>2021-08-22T08:47:49.000Z</time>
      </trkpt>
      <trkpt lat="47.28092" lon="-2.27481">
        <ele>3</ele>
        <time>2021-08-22T08:47:50.000Z</time>
      </trkpt>
      <trkpt lat="47.28095" lon="-2.27475">
        <ele>3.5999999046326</ele>
        <time>2021-08-22T08:47:51.000Z</time>
      </trkpt>
      <trkpt lat="47.28097" lon="-2.27469">
        <ele>4</ele>
        <time>2021-08-22T08:47:52.000Z</time>
      </trkpt>
      <trkpt lat="47.281" lon="-2.27462">
        <ele>4.4000000953674</ele>
        <time>2021-08-22T08:47:53.000Z</time>
      </trkpt>
      <trkpt lat="47.28102" lon="-2.27454">
        <ele>4.8000001907349</ele>
        <time>2021-08-22T08:47:54.000Z</time>
      </trkpt>
      <trkpt lat="47.28105" lon="-2.27448">
        <ele>5.1999998092651</ele>
        <time>2021-08-22T08:47:55.000Z</time>
      </trkpt>
      <trkpt lat="47.28107" lon="-2.27442">
        <ele>5.5999999046326</ele>
        <time>2021-08-22T08:47:56.000Z</time>
      </trkpt>
      <trkpt lat="47.2811" lon="-2.27434">
        <ele>6</ele>
        <time>2021-08-22T08:47:57.000Z</time>
      </trkpt>
      <trkpt lat="47.28112" lon="-2.27427">
        <ele>6.5999999046326</ele>
        <time>2021-08-22T08:47:58.000Z</time>
      </trkpt>
      <trkpt lat="47.28116" lon="-2.27413">
        <ele>6.5999999046326</ele>
        <time>2021-08-22T08:48:00.000Z</time>
      </trkpt>
      <trkpt lat="47.28124" lon="-2.27386">
        <ele>6.5999999046326</ele>
        <time>2021-08-22T08:48:04.000Z</time>
      </trkpt>
      <trkpt lat="47.28127" lon="-2.2738">
        <ele>6.5999999046326</ele>
        <time>2021-08-22T08:48:05.000Z</time>
      </trkpt>
      <trkpt lat="47.2813" lon="-2.27376">
        <ele>7</ele>
        <time>2021-08-22T08:48:06.000Z</time>
      </trkpt>
      <trkpt lat="47.28135" lon="-2.27374">
        <ele>7.4000000953674</ele>
        <time>2021-08-22T08:48:07.000Z</time>
      </trkpt>
      <trkpt lat="47.2814" lon="-2.27373">
        <ele>7.8000001907349</ele>
        <time>2021-08-22T08:48:08.000Z</time>
      </trkpt>
      <trkpt lat="47.28146" lon="-2.27372">
        <ele>8.1999998092651</ele>
        <time>2021-08-22T08:48:09.000Z</time>
      </trkpt>
      <trkpt lat="47.28151" lon="-2.27371">
        <ele>8.6000003814697</ele>
        <time>2021-08-22T08:48:10.000Z</time>
      </trkpt>
      <trkpt lat="47.28174" lon="-2.27368">
        <ele>8.6000003814697</ele>
        <time>2021-08-22T08:48:14.000Z</time>
      </trkpt>
      <trkpt lat="47.28212" lon="-2.27356">
        <ele>8.6000003814697</ele>
        <time>2021-08-22T08:48:21.000Z</time>
      </trkpt>
      <trkpt lat="47.28257" lon="-2.27347">
        <ele>8.6000003814697</ele>
        <time>2021-08-22T08:48:28.000Z</time>
      </trkpt>
      <trkpt lat="47.28272" lon="-2.27348">
        <ele>8.6000003814697</ele>
        <time>2021-08-22T08:48:30.000Z</time>
      </trkpt>
      <trkpt lat="47.28296" lon="-2.27349">
        <ele>8.6000003814697</ele>
        <time>2021-08-22T08:48:33.000Z</time>
      </trkpt>
      <trkpt lat="47.28305" lon="-2.27349">
        <ele>8.1999998092651</ele>
        <time>2021-08-22T08:48:34.000Z</time>
      </trkpt>
      <trkpt lat="47.28313" lon="-2.27349">
        <ele>7.8000001907349</ele>
        <time>2021-08-22T08:48:35.000Z</time>
      </trkpt>
      <trkpt lat="47.28322" lon="-2.27348">
        <ele>7.4000000953674</ele>
        <time>2021-08-22T08:48:36.000Z</time>
      </trkpt>
      <trkpt lat="47.28331" lon="-2.27348">
        <ele>7</ele>
        <time>2021-08-22T08:48:37.000Z</time>
      </trkpt>
      <trkpt lat="47.28341" lon="-2.27347">
        <ele>6.5999999046326</ele>
        <time>2021-08-22T08:48:38.000Z</time>
      </trkpt>
      <trkpt lat="47.28349" lon="-2.27347">
        <ele>6.5999999046326</ele>
        <time>2021-08-22T08:48:39.000Z</time>
      </trkpt>
      <trkpt lat="47.28357" lon="-2.27348">
        <ele>6</ele>
        <time>2021-08-22T08:48:40.000Z</time>
      </trkpt>
      <trkpt lat="47.28364" lon="-2.27349">
        <ele>5.4000000953674</ele>
        <time>2021-08-22T08:48:41.000Z</time>
      </trkpt>
      <trkpt lat="47.28371" lon="-2.2735">
        <ele>4.5999999046326</ele>
        <time>2021-08-22T08:48:42.000Z</time>
      </trkpt>
      <trkpt lat="47.28376" lon="-2.27351">
        <ele>2.7999999523163</ele>
        <time>2021-08-22T08:48:43.000Z</time>
      </trkpt>
      <trkpt lat="47.28381" lon="-2.27354">
        <ele>1.7999999523163</ele>
        <time>2021-08-22T08:48:44.000Z</time>
      </trkpt>
      <trkpt lat="47.28383" lon="-2.27358">
        <ele>1</ele>
        <time>2021-08-22T08:48:45.000Z</time>
      </trkpt>
      <trkpt lat="47.28385" lon="-2.27363">
        <ele>0.20000000298023</ele>
        <time>2021-08-22T08:48:46.000Z</time>
      </trkpt>
      <trkpt lat="47.28386" lon="-2.27369">
        <ele>-0.60000002384186</ele>
        <time>2021-08-22T08:48:47.000Z</time>
      </trkpt>
      <trkpt lat="47.28386" lon="-2.27374">
        <ele>-1.3999999761581</ele>
        <time>2021-08-22T08:48:48.000Z</time>
      </trkpt>
      <trkpt lat="47.28386" lon="-2.27379">
        <ele>-2.2000000476837</ele>
        <time>2021-08-22T08:48:49.000Z</time>
      </trkpt>
      <trkpt lat="47.28386" lon="-2.27384">
        <ele>-3</ele>
        <time>2021-08-22T08:48:50.000Z</time>
      </trkpt>
      <trkpt lat="47.2838" lon="-2.27406">
        <ele>-3</ele>
        <time>2021-08-22T08:48:55.000Z</time>
      </trkpt>
      <trkpt lat="47.28379" lon="-2.2741">
        <ele>-2.5999999046326</ele>
        <time>2021-08-22T08:48:56.000Z</time>
      </trkpt>
      <trkpt lat="47.28378" lon="-2.27415">
        <ele>-2.2000000476837</ele>
        <time>2021-08-22T08:48:57.000Z</time>
      </trkpt>
      <trkpt lat="47.28377" lon="-2.2742">
        <ele>-1.6000000238419</ele>
        <time>2021-08-22T08:48:58.000Z</time>
      </trkpt>
      <trkpt lat="47.28376" lon="-2.27426">
        <ele>-1.2000000476837</ele>
        <time>2021-08-22T08:48:59.000Z</time>
      </trkpt>
      <trkpt lat="47.28375" lon="-2.27432">
        <ele>-0.80000001192093</ele>
        <time>2021-08-22T08:49:00.000Z</time>
      </trkpt>
      <trkpt lat="47.2837" lon="-2.27462">
        <ele>-0.40000000596046</ele>
        <time>2021-08-22T08:49:04.000Z</time>
      </trkpt>
      <trkpt lat="47.28369" lon="-2.2747">
        <ele>31.1</ele>
        <time>2021-08-22T08:49:05.000Z</time>
      </trkpt>
      <trkpt lat="47.28368" lon="-2.27477">
        <ele>0.40000000596046</ele>
        <time>2021-08-22T08:49:06.000Z</time>
      </trkpt>
      <trkpt lat="47.28367" lon="-2.27486">
        <ele>0.80000001192093</ele>
        <time>2021-08-22T08:49:07.000Z</time>
      </trkpt>
      <trkpt lat="47.28366" lon="-2.27493">
        <ele>1.2000000476837</ele>
        <time>2021-08-22T08:49:08.000Z</time>
      </trkpt>
      <trkpt lat="47.28357" lon="-2.27547">
        <ele>1.2000000476837</ele>
        <time>2021-08-22T08:49:15.000Z</time>
      </trkpt>
      <trkpt lat="47.28351" lon="-2.27594">
        <ele>1.2000000476837</ele>
        <time>2021-08-22T08:49:22.000Z</time>
      </trkpt>
      <trkpt lat="47.28351" lon="-2.27641">
        <ele>1.2000000476837</ele>
        <time>2021-08-22T08:49:29.000Z</time>
      </trkpt>
      <trkpt lat="47.28348" lon="-2.27662">
        <ele>1.2000000476837</ele>
        <time>2021-08-22T08:49:32.000Z</time>
      </trkpt>
      <trkpt lat="47.28345" lon="-2.27684">
        <ele>1.2000000476837</ele>
        <time>2021-08-22T08:49:35.000Z</time>
      </trkpt>
      <trkpt lat="47.28342" lon="-2.27713">
        <ele>1.2000000476837</ele>
        <time>2021-08-22T08:49:39.000Z</time>
      </trkpt>
      <trkpt lat="47.28341" lon="-2.27736">
        <ele>0.80000001192093</ele>
        <time>2021-08-22T08:49:42.000Z</time>
      </trkpt>
      <trkpt lat="47.28341" lon="-2.27742">
        <ele>0.40000000596046</ele>
        <time>2021-08-22T08:49:43.000Z</time>
      </trkpt>
      <trkpt lat="47.2834" lon="-2.27747">
        <ele>28.8</ele>
        <time>2021-08-22T08:49:44.000Z</time>
      </trkpt>
      <trkpt lat="47.2834" lon="-2.27753">
        <ele>-0.40000000596046</ele>
        <time>2021-08-22T08:49:45.000Z</time>
      </trkpt>
      <trkpt lat="47.2834" lon="-2.2776">
        <ele>-0.80000001192093</ele>
        <time>2021-08-22T08:49:46.000Z</time>
      </trkpt>
      <trkpt lat="47.28339" lon="-2.27766">
        <ele>-0.80000001192093</ele>
        <time>2021-08-22T08:49:47.000Z</time>
      </trkpt>
      <trkpt lat="47.28335" lon="-2.27818">
        <ele>-0.80000001192093</ele>
        <time>2021-08-22T08:49:55.000Z</time>
      </trkpt>
      <trkpt lat="47.28331" lon="-2.2787">
        <ele>-0.80000001192093</ele>
        <time>2021-08-22T08:50:03.000Z</time>
      </trkpt>
      <trkpt lat="47.28328" lon="-2.2792">
        <ele>-0.80000001192093</ele>
        <time>2021-08-22T08:50:10.000Z</time>
      </trkpt>
      <trkpt lat="47.28325" lon="-2.27975">
        <ele>-0.80000001192093</ele>
        <time>2021-08-22T08:50:19.000Z</time>
      </trkpt>
      <trkpt lat="47.28322" lon="-2.27985">
        <ele>-0.80000001192093</ele>
        <time>2021-08-22T08:50:21.000Z</time>
      </trkpt>
      <trkpt lat="47.28325" lon="-2.27997">
        <ele>-0.80000001192093</ele>
        <time>2021-08-22T08:50:23.000Z</time>
      </trkpt>
      <trkpt lat="47.28327" lon="-2.28017">
        <ele>-0.80000001192093</ele>
        <time>2021-08-22T08:50:26.000Z</time>
      </trkpt>
      <trkpt lat="47.28328" lon="-2.28026">
        <ele>-0.80000001192093</ele>
        <time>2021-08-22T08:50:27.000Z</time>
      </trkpt>
      <trkpt lat="47.28328" lon="-2.28034">
        <ele>-1.2000000476837</ele>
        <time>2021-08-22T08:50:28.000Z</time>
      </trkpt>
      <trkpt lat="47.28328" lon="-2.28041">
        <ele>-1.6000000238419</ele>
        <time>2021-08-22T08:50:29.000Z</time>
      </trkpt>
      <trkpt lat="47.28329" lon="-2.28049">
        <ele>-2</ele>
        <time>2021-08-22T08:50:30.000Z</time>
      </trkpt>
      <trkpt lat="47.28329" lon="-2.28056">
        <ele>-2.4000000953674</ele>
        <time>2021-08-22T08:50:31.000Z</time>
      </trkpt>
      <trkpt lat="47.2833" lon="-2.28062">
        <ele>-3</ele>
        <time>2021-08-22T08:50:32.000Z</time>
      </trkpt>
      <trkpt lat="47.2833" lon="-2.28069">
        <ele>-3.4000000953674</ele>
        <time>2021-08-22T08:50:33.000Z</time>
      </trkpt>
      <trkpt lat="47.28331" lon="-2.28075">
        <ele>-4</ele>
        <time>2021-08-22T08:50:34.000Z</time>
      </trkpt>
      <trkpt lat="47.28331" lon="-2.2808">
        <ele>-4.5999999046326</ele>
        <time>2021-08-22T08:50:35.000Z</time>
      </trkpt>
      <trkpt lat="47.28331" lon="-2.28083">
        <ele>-5</ele>
        <time>2021-08-22T08:50:36.000Z</time>
      </trkpt>
      <trkpt lat="47.28332" lon="-2.28086">
        <ele>-5</ele>
        <time>2021-08-22T08:50:37.000Z</time>
      </trkpt>
      <trkpt lat="47.28333" lon="-2.28089">
        <ele>-5.4000000953674</ele>
        <time>2021-08-22T08:50:38.000Z</time>
      </trkpt>
      <trkpt lat="47.28334" lon="-2.2809">
        <ele>-5.8000001907349</ele>
        <time>2021-08-22T08:50:39.000Z</time>
      </trkpt>
      <trkpt lat="47.28336" lon="-2.28091">
        <ele>-6.4000000953674</ele>
        <time>2021-08-22T08:50:40.000Z</time>
      </trkpt>
      <trkpt lat="47.28337" lon="-2.28092">
        <ele>-6.8000001907349</ele>
        <time>2021-08-22T08:50:41.000Z</time>
      </trkpt>
      <trkpt lat="47.28339" lon="-2.28093">
        <ele>-7.1999998092651</ele>
        <time>2021-08-22T08:50:42.000Z</time>
      </trkpt>
      <trkpt lat="47.28351" lon="-2.28095">
        <ele>-7.1999998092651</ele>
        <time>2021-08-22T08:50:50.000Z</time>
      </trkpt>
      <trkpt lat="47.28356" lon="-2.28087">
        <ele>-7.1999998092651</ele>
        <time>2021-08-22T08:50:52.000Z</time>
      </trkpt>
      <trkpt lat="47.28361" lon="-2.2808">
        <ele>-7.1999998092651</ele>
        <time>2021-08-22T08:50:56.000Z</time>
      </trkpt>
      <trkpt lat="47.28362" lon="-2.28075">
        <ele>-7.1999998092651</ele>
        <time>2021-08-22T08:50:58.000Z</time>
      </trkpt>
      <trkpt lat="47.28365" lon="-2.28063">
        <ele>-6.8000001907349</ele>
        <time>2021-08-22T08:51:04.000Z</time>
      </trkpt>
      <trkpt lat="47.28365" lon="-2.28062">
        <ele>-6.4000000953674</ele>
        <time>2021-08-22T08:51:05.000Z</time>
      </trkpt>
      <trkpt lat="47.28365" lon="-2.28062">
        <ele>-6</ele>
        <time>2021-08-22T08:51:06.000Z</time>
      </trkpt>
      <trkpt lat="47.28366" lon="-2.28063">
        <ele>-5.5999999046326</ele>
        <time>2021-08-22T08:51:07.000Z</time>
      </trkpt>
      <trkpt lat="47.28366" lon="-2.28064">
        <ele>-5.1999998092651</ele>
        <time>2021-08-22T08:51:08.000Z</time>
      </trkpt>
      <trkpt lat="47.28367" lon="-2.28065">
        <ele>-5.1999998092651</ele>
        <time>2021-08-22T08:51:09.000Z</time>
      </trkpt>
      <trkpt lat="47.28368" lon="-2.28067">
        <ele>-5.1999998092651</ele>
        <time>2021-08-22T08:51:14.000Z</time>
      </trkpt>
      <trkpt lat="47.2837" lon="-2.28068">
        <ele>-5.1999998092651</ele>
        <time>2021-08-22T08:51:41.000Z</time>
      </trkpt>
      <trkpt lat="47.28371" lon="-2.28069">
        <ele>-5.1999998092651</ele>
        <time>2021-08-22T08:51:42.000Z</time>
      </trkpt>
      <trkpt lat="47.28379" lon="-2.28072">
        <ele>-5.1999998092651</ele>
        <time>2021-08-22T08:51:47.000Z</time>
      </trkpt>
      <trkpt lat="47.28381" lon="-2.28072">
        <ele>-5.1999998092651</ele>
        <time>2021-08-22T08:51:48.000Z</time>
      </trkpt>
      <trkpt lat="47.28398" lon="-2.28076">
        <ele>-5.1999998092651</ele>
        <time>2021-08-22T08:51:54.000Z</time>
      </trkpt>
      <trkpt lat="47.28411" lon="-2.28077">
        <ele>-5.1999998092651</ele>
        <time>2021-08-22T08:51:59.000Z</time>
      </trkpt>
      <trkpt lat="47.28426" lon="-2.28079">
        <ele>-5.1999998092651</ele>
        <time>2021-08-22T08:52:04.000Z</time>
      </trkpt>
      <trkpt lat="47.28437" lon="-2.28084">
        <ele>-5.1999998092651</ele>
        <time>2021-08-22T08:52:08.000Z</time>
      </trkpt>
      <trkpt lat="47.28441" lon="-2.28085">
        <ele>-5.1999998092651</ele>
        <time>2021-08-22T08:52:10.000Z</time>
      </trkpt>
      <trkpt lat="47.2845" lon="-2.28092">
        <ele>-5.1999998092651</ele>
        <time>2021-08-22T08:52:13.000Z</time>
      </trkpt>
      <trkpt lat="47.28453" lon="-2.28093">
        <ele>-5.1999998092651</ele>
        <time>2021-08-22T08:52:14.000Z</time>
      </trkpt>
      <trkpt lat="47.28467" lon="-2.28088">
        <ele>-5.1999998092651</ele>
        <time>2021-08-22T08:52:18.000Z</time>
      </trkpt>
      <trkpt lat="47.28474" lon="-2.28085">
        <ele>-5.1999998092651</ele>
        <time>2021-08-22T08:52:20.000Z</time>
      </trkpt>
      <trkpt lat="47.28481" lon="-2.28078">
        <ele>-5.1999998092651</ele>
        <time>2021-08-22T08:52:23.000Z</time>
      </trkpt>
      <trkpt lat="47.2848" lon="-2.28069">
        <ele>-5.1999998092651</ele>
        <time>2021-08-22T08:52:26.000Z</time>
      </trkpt>
      <trkpt lat="47.28477" lon="-2.28063">
        <ele>-5.1999998092651</ele>
        <time>2021-08-22T08:52:28.000Z</time>
      </trkpt>
      <trkpt lat="47.28474" lon="-2.28054">
        <ele>-4.5999999046326</ele>
        <time>2021-08-22T08:52:31.000Z</time>
      </trkpt>
      <trkpt lat="47.28474" lon="-2.28052">
        <ele>-4.1999998092651</ele>
        <time>2021-08-22T08:52:32.000Z</time>
      </trkpt>
      <trkpt lat="47.28474" lon="-2.2805">
        <ele>-3.7999999523163</ele>
        <time>2021-08-22T08:52:33.000Z</time>
      </trkpt>
      <trkpt lat="47.28475" lon="-2.28047">
        <ele>-3.4000000953674</ele>
        <time>2021-08-22T08:52:34.000Z</time>
      </trkpt>
      <trkpt lat="47.28476" lon="-2.28045">
        <ele>-3</ele>
        <time>2021-08-22T08:52:35.000Z</time>
      </trkpt>
      <trkpt lat="47.28478" lon="-2.28044">
        <ele>-3</ele>
        <time>2021-08-22T08:52:36.000Z</time>
      </trkpt>
      <trkpt lat="47.28488" lon="-2.28037">
        <ele>-3</ele>
        <time>2021-08-22T08:52:39.000Z</time>
      </trkpt>
      <trkpt lat="47.28501" lon="-2.28042">
        <ele>-3</ele>
        <time>2021-08-22T08:52:43.000Z</time>
      </trkpt>
      <trkpt lat="47.28518" lon="-2.28044">
        <ele>-3.4000000953674</ele>
        <time>2021-08-22T08:52:48.000Z</time>
      </trkpt>
      <trkpt lat="47.28523" lon="-2.28043">
        <ele>-3.7999999523163</ele>
        <time>2021-08-22T08:52:49.000Z</time>
      </trkpt>
      <trkpt lat="47.28526" lon="-2.28043">
        <ele>-4.5999999046326</ele>
        <time>2021-08-22T08:52:50.000Z</time>
      </trkpt>
      <trkpt lat="47.28531" lon="-2.28045">
        <ele>-5.1999998092651</ele>
        <time>2021-08-22T08:52:51.000Z</time>
      </trkpt>
      <trkpt lat="47.28535" lon="-2.28044">
        <ele>-5.8000001907349</ele>
        <time>2021-08-22T08:52:52.000Z</time>
      </trkpt>
      <trkpt lat="47.28539" lon="-2.28043">
        <ele>-6.1999998092651</ele>
        <time>2021-08-22T08:52:53.000Z</time>
      </trkpt>
      <trkpt lat="47.28542" lon="-2.28046">
        <ele>-6.8000001907349</ele>
        <time>2021-08-22T08:52:54.000Z</time>
      </trkpt>
      <trkpt lat="47.28545" lon="-2.28049">
        <ele>-7.4000000953674</ele>
        <time>2021-08-22T08:52:55.000Z</time>
      </trkpt>
      <trkpt lat="47.28551" lon="-2.28051">
        <ele>-7.8000001907349</ele>
        <time>2021-08-22T08:52:56.000Z</time>
      </trkpt>
      <trkpt lat="47.28555" lon="-2.28049">
        <ele>-8.1999998092651</ele>
        <time>2021-08-22T08:52:57.000Z</time>
      </trkpt>
      <trkpt lat="47.2856" lon="-2.28046">
        <ele>-8.6000003814697</ele>
        <time>2021-08-22T08:52:58.000Z</time>
      </trkpt>
      <trkpt lat="47.28565" lon="-2.28045">
        <ele>-9</ele>
        <time>2021-08-22T08:52:59.000Z</time>
      </trkpt>
      <trkpt lat="47.28568" lon="-2.28045">
        <ele>-9.3999996185303</ele>
        <time>2021-08-22T08:53:00.000Z</time>
      </trkpt>
      <trkpt lat="47.2858" lon="-2.28034">
        <ele>-9.3999996185303</ele>
        <time>2021-08-22T08:53:04.000Z</time>
      </trkpt>
      <trkpt lat="47.28598" lon="-2.28014">
        <ele>-9.3999996185303</ele>
        <time>2021-08-22T08:53:10.000Z</time>
      </trkpt>
      <trkpt lat="47.28613" lon="-2.27983">
        <ele>-9.3999996185303</ele>
        <time>2021-08-22T08:53:15.000Z</time>
      </trkpt>
      <trkpt lat="47.28615" lon="-2.27976">
        <ele>-9.3999996185303</ele>
        <time>2021-08-22T08:53:16.000Z</time>
      </trkpt>
      <trkpt lat="47.28625" lon="-2.27952">
        <ele>-9.8000001907349</ele>
        <time>2021-08-22T08:53:21.000Z</time>
      </trkpt>
      <trkpt lat="47.28625" lon="-2.27951">
        <ele>-10.199999809265</ele>
        <time>2021-08-22T08:53:22.000Z</time>
      </trkpt>
      <trkpt lat="47.28626" lon="-2.2795">
        <ele>-10.60000038147</ele>
        <time>2021-08-22T08:53:23.000Z</time>
      </trkpt>
      <trkpt lat="47.28627" lon="-2.27949">
        <ele>-11</ele>
        <time>2021-08-22T08:53:24.000Z</time>
      </trkpt>
      <trkpt lat="47.28626" lon="-2.27948">
        <ele>-11.39999961853</ele>
        <time>2021-08-22T08:53:25.000Z</time>
      </trkpt>
      <trkpt lat="47.28627" lon="-2.27942">
        <ele>-11.39999961853</ele>
        <time>2021-08-22T08:55:48.000Z</time>
      </trkpt>
      <trkpt lat="47.28628" lon="-2.27937">
        <ele>-11.39999961853</ele>
        <time>2021-08-22T08:55:49.000Z</time>
      </trkpt>
      <trkpt lat="47.2863" lon="-2.27906">
        <ele>-11.39999961853</ele>
        <time>2021-08-22T08:55:54.000Z</time>
      </trkpt>
      <trkpt lat="47.28632" lon="-2.27898">
        <ele>-11.39999961853</ele>
        <time>2021-08-22T08:55:55.000Z</time>
      </trkpt>
      <trkpt lat="47.28637" lon="-2.27859">
        <ele>-11.39999961853</ele>
        <time>2021-08-22T08:56:00.000Z</time>
      </trkpt>
      <trkpt lat="47.28644" lon="-2.27817">
        <ele>-11.39999961853</ele>
        <time>2021-08-22T08:56:05.000Z</time>
      </trkpt>
      <trkpt lat="47.28646" lon="-2.27801">
        <ele>-11.39999961853</ele>
        <time>2021-08-22T08:56:07.000Z</time>
      </trkpt>
      <trkpt lat="47.2866" lon="-2.27754">
        <ele>-11.39999961853</ele>
        <time>2021-08-22T08:56:13.000Z</time>
      </trkpt>
      <trkpt lat="47.28663" lon="-2.27747">
        <ele>-11.39999961853</ele>
        <time>2021-08-22T08:56:14.000Z</time>
      </trkpt>
      <trkpt lat="47.2869" lon="-2.27697">
        <ele>-11.39999961853</ele>
        <time>2021-08-22T08:56:21.000Z</time>
      </trkpt>
      <trkpt lat="47.28698" lon="-2.27685">
        <ele>-11.39999961853</ele>
        <time>2021-08-22T08:56:23.000Z</time>
      </trkpt>
      <trkpt lat="47.28716" lon="-2.27661">
        <ele>-11.39999961853</ele>
        <time>2021-08-22T08:56:27.000Z</time>
      </trkpt>
      <trkpt lat="47.2873" lon="-2.2764">
        <ele>-11.800000190735</ele>
        <time>2021-08-22T08:56:30.000Z</time>
      </trkpt>
      <trkpt lat="47.28735" lon="-2.27633">
        <ele>-12.199999809265</ele>
        <time>2021-08-22T08:56:31.000Z</time>
      </trkpt>
      <trkpt lat="47.2874" lon="-2.27626">
        <ele>-12.800000190735</ele>
        <time>2021-08-22T08:56:32.000Z</time>
      </trkpt>
      <trkpt lat="47.28745" lon="-2.27618">
        <ele>-13.60000038147</ele>
        <time>2021-08-22T08:56:33.000Z</time>
      </trkpt>
      <trkpt lat="47.28778" lon="-2.27578">
        <ele>-13.60000038147</ele>
        <time>2021-08-22T08:56:39.000Z</time>
      </trkpt>
      <trkpt lat="47.28795" lon="-2.27559">
        <ele>-13.60000038147</ele>
        <time>2021-08-22T08:56:42.000Z</time>
      </trkpt>
      <trkpt lat="47.28804" lon="-2.27545">
        <ele>-13.60000038147</ele>
        <time>2021-08-22T08:56:44.000Z</time>
      </trkpt>
      <trkpt lat="47.28822" lon="-2.27536">
        <ele>-13.60000038147</ele>
        <time>2021-08-22T08:56:47.000Z</time>
      </trkpt>
      <trkpt lat="47.28854" lon="-2.27529">
        <ele>-13.60000038147</ele>
        <time>2021-08-22T08:56:52.000Z</time>
      </trkpt>
      <trkpt lat="47.28902" lon="-2.27521">
        <ele>-13.60000038147</ele>
        <time>2021-08-22T08:56:59.000Z</time>
      </trkpt>
      <trkpt lat="47.28955" lon="-2.27517">
        <ele>-13.60000038147</ele>
        <time>2021-08-22T08:57:06.000Z</time>
      </trkpt>
      <trkpt lat="47.29004" lon="-2.27516">
        <ele>-13.60000038147</ele>
        <time>2021-08-22T08:57:13.000Z</time>
      </trkpt>
      <trkpt lat="47.29032" lon="-2.27515">
        <ele>-13.60000038147</ele>
        <time>2021-08-22T08:57:17.000Z</time>
      </trkpt>
      <trkpt lat="47.29038" lon="-2.27516">
        <ele>-13.60000038147</ele>
        <time>2021-08-22T08:57:18.000Z</time>
      </trkpt>
      <trkpt lat="47.29084" lon="-2.27523">
        <ele>-13.60000038147</ele>
        <time>2021-08-22T08:57:25.000Z</time>
      </trkpt>
      <trkpt lat="47.29099" lon="-2.27524">
        <ele>-13.60000038147</ele>
        <time>2021-08-22T08:57:28.000Z</time>
      </trkpt>
      <trkpt lat="47.29102" lon="-2.27521">
        <ele>-13.60000038147</ele>
        <time>2021-08-22T08:57:29.000Z</time>
      </trkpt>
      <trkpt lat="47.29105" lon="-2.27505">
        <ele>-13.60000038147</ele>
        <time>2021-08-22T08:57:32.000Z</time>
      </trkpt>
      <trkpt lat="47.29107" lon="-2.27468">
        <ele>-13.60000038147</ele>
        <time>2021-08-22T08:57:37.000Z</time>
      </trkpt>
      <trkpt lat="47.2911" lon="-2.27431">
        <ele>-13.60000038147</ele>
        <time>2021-08-22T08:57:42.000Z</time>
      </trkpt>
      <trkpt lat="47.2911" lon="-2.27415">
        <ele>-13.60000038147</ele>
        <time>2021-08-22T08:57:44.000Z</time>
      </trkpt>
      <trkpt lat="47.29106" lon="-2.27392">
        <ele>-14.39999961853</ele>
        <time>2021-08-22T08:57:47.000Z</time>
      </trkpt>
      <trkpt lat="47.29105" lon="-2.27384">
        <ele>-14.800000190735</ele>
        <time>2021-08-22T08:57:48.000Z</time>
      </trkpt>
      <trkpt lat="47.29104" lon="-2.27377">
        <ele>-15.199999809265</ele>
        <time>2021-08-22T08:57:49.000Z</time>
      </trkpt>
      <trkpt lat="47.29104" lon="-2.2737">
        <ele>-15.60000038147</ele>
        <time>2021-08-22T08:57:50.000Z</time>
      </trkpt>
      <trkpt lat="47.29099" lon="-2.27357">
        <ele>-15.60000038147</ele>
        <time>2021-08-22T08:57:53.000Z</time>
      </trkpt>
      <trkpt lat="47.29097" lon="-2.27347">
        <ele>-15.60000038147</ele>
        <time>2021-08-22T08:57:56.000Z</time>
      </trkpt>
      <trkpt lat="47.291" lon="-2.27319">
        <ele>-15.60000038147</ele>
        <time>2021-08-22T08:58:02.000Z</time>
      </trkpt>
      <trkpt lat="47.29103" lon="-2.27301">
        <ele>-15.60000038147</ele>
        <time>2021-08-22T08:58:06.000Z</time>
      </trkpt>
      <trkpt lat="47.29105" lon="-2.27268">
        <ele>-15.60000038147</ele>
        <time>2021-08-22T08:58:13.000Z</time>
      </trkpt>
      <trkpt lat="47.2911" lon="-2.27242">
        <ele>-15.60000038147</ele>
        <time>2021-08-22T08:58:18.000Z</time>
      </trkpt>
      <trkpt lat="47.29114" lon="-2.27223">
        <ele>-15.60000038147</ele>
        <time>2021-08-22T08:58:23.000Z</time>
      </trkpt>
      <trkpt lat="47.29116" lon="-2.27216">
        <ele>-15.60000038147</ele>
        <time>2021-08-22T08:58:27.000Z</time>
      </trkpt>
      <trkpt lat="47.29116" lon="-2.27216">
        <ele>-15.60000038147</ele>
        <time>2021-08-22T08:58:29.000Z</time>
      </trkpt>
      <trkpt lat="47.29108" lon="-2.27211">
        <ele>-15.60000038147</ele>
        <time>2021-08-22T08:58:34.000Z</time>
      </trkpt>
      <trkpt lat="47.29094" lon="-2.2721">
        <ele>-15.60000038147</ele>
        <time>2021-08-22T08:58:38.000Z</time>
      </trkpt>
      <trkpt lat="47.29081" lon="-2.27201">
        <ele>-15.60000038147</ele>
        <time>2021-08-22T08:58:42.000Z</time>
      </trkpt>
      <trkpt lat="47.29072" lon="-2.27188">
        <ele>-15.60000038147</ele>
        <time>2021-08-22T08:58:46.000Z</time>
      </trkpt>
      <trkpt lat="47.29071" lon="-2.27172">
        <ele>-15.60000038147</ele>
        <time>2021-08-22T08:58:51.000Z</time>
      </trkpt>
      <trkpt lat="47.2907" lon="-2.27155">
        <ele>-15.60000038147</ele>
        <time>2021-08-22T08:58:56.000Z</time>
      </trkpt>
      <trkpt lat="47.29071" lon="-2.27129">
        <ele>-15.60000038147</ele>
        <time>2021-08-22T08:59:02.000Z</time>
      </trkpt>
      <trkpt lat="47.29072" lon="-2.27106">
        <ele>-15.60000038147</ele>
        <time>2021-08-22T08:59:08.000Z</time>
      </trkpt>
      <trkpt lat="47.29066" lon="-2.27087">
        <ele>-15.60000038147</ele>
        <time>2021-08-22T08:59:13.000Z</time>
      </trkpt>
      <trkpt lat="47.29064" lon="-2.27079">
        <ele>-15.60000038147</ele>
        <time>2021-08-22T08:59:15.000Z</time>
      </trkpt>
      <trkpt lat="47.29064" lon="-2.27069">
        <ele>-15.60000038147</ele>
        <time>2021-08-22T08:59:17.000Z</time>
      </trkpt>
      <trkpt lat="47.29063" lon="-2.27049">
        <ele>-15.60000038147</ele>
        <time>2021-08-22T08:59:21.000Z</time>
      </trkpt>
      <trkpt lat="47.29055" lon="-2.27036">
        <ele>-15.60000038147</ele>
        <time>2021-08-22T08:59:25.000Z</time>
      </trkpt>
      <trkpt lat="47.29055" lon="-2.27015">
        <ele>-15.60000038147</ele>
        <time>2021-08-22T08:59:28.000Z</time>
      </trkpt>
      <trkpt lat="47.29059" lon="-2.26959">
        <ele>-15.60000038147</ele>
        <time>2021-08-22T08:59:34.000Z</time>
      </trkpt>
      <trkpt lat="47.29061" lon="-2.2691">
        <ele>-15.60000038147</ele>
        <time>2021-08-22T08:59:39.000Z</time>
      </trkpt>
      <trkpt lat="47.29065" lon="-2.26834">
        <ele>-15.60000038147</ele>
        <time>2021-08-22T08:59:47.000Z</time>
      </trkpt>
      <trkpt lat="47.29064" lon="-2.26791">
        <ele>-15.60000038147</ele>
        <time>2021-08-22T08:59:52.000Z</time>
      </trkpt>
      <trkpt lat="47.29064" lon="-2.26783">
        <ele>-15.60000038147</ele>
        <time>2021-08-22T08:59:53.000Z</time>
      </trkpt>
      <trkpt lat="47.29057" lon="-2.2673">
        <ele>-15.60000038147</ele>
        <time>2021-08-22T09:00:00.000Z</time>
      </trkpt>
      <trkpt lat="47.29054" lon="-2.26706">
        <ele>-15.199999809265</ele>
        <time>2021-08-22T09:00:03.000Z</time>
      </trkpt>
      <trkpt lat="47.29052" lon="-2.26698">
        <ele>-14.60000038147</ele>
        <time>2021-08-22T09:00:04.000Z</time>
      </trkpt>
      <trkpt lat="47.29051" lon="-2.2669">
        <ele>-14.199999809265</ele>
        <time>2021-08-22T09:00:05.000Z</time>
      </trkpt>
      <trkpt lat="47.2905" lon="-2.26682">
        <ele>-13.800000190735</ele>
        <time>2021-08-22T09:00:06.000Z</time>
      </trkpt>
      <trkpt lat="47.2905" lon="-2.26674">
        <ele>-13.199999809265</ele>
        <time>2021-08-22T09:00:07.000Z</time>
      </trkpt>
      <trkpt lat="47.29049" lon="-2.26659">
        <ele>-12.800000190735</ele>
        <time>2021-08-22T09:00:09.000Z</time>
      </trkpt>
      <trkpt lat="47.29049" lon="-2.2665">
        <ele>-12.39999961853</ele>
        <time>2021-08-22T09:00:10.000Z</time>
      </trkpt>
      <trkpt lat="47.29048" lon="-2.26643">
        <ele>-12</ele>
        <time>2021-08-22T09:00:11.000Z</time>
      </trkpt>
      <trkpt lat="47.29047" lon="-2.26635">
        <ele>-11.39999961853</ele>
        <time>2021-08-22T09:00:12.000Z</time>
      </trkpt>
      <trkpt lat="47.29047" lon="-2.26627">
        <ele>-11</ele>
        <time>2021-08-22T09:00:13.000Z</time>
      </trkpt>
      <trkpt lat="47.29043" lon="-2.26596">
        <ele>-11</ele>
        <time>2021-08-22T09:00:18.000Z</time>
      </trkpt>
      <trkpt lat="47.29043" lon="-2.26586">
        <ele>-11</ele>
        <time>2021-08-22T09:00:22.000Z</time>
      </trkpt>
      <trkpt lat="47.29039" lon="-2.26569">
        <ele>-11</ele>
        <time>2021-08-22T09:00:26.000Z</time>
      </trkpt>
      <trkpt lat="47.29032" lon="-2.26538">
        <ele>-11</ele>
        <time>2021-08-22T09:00:31.000Z</time>
      </trkpt>
      <trkpt lat="47.2903" lon="-2.26532">
        <ele>-11</ele>
        <time>2021-08-22T09:00:32.000Z</time>
      </trkpt>
      <trkpt lat="47.29024" lon="-2.26513">
        <ele>-11</ele>
        <time>2021-08-22T09:00:35.000Z</time>
      </trkpt>
      <trkpt lat="47.29023" lon="-2.26506">
        <ele>-11</ele>
        <time>2021-08-22T09:00:36.000Z</time>
      </trkpt>
      <trkpt lat="47.29017" lon="-2.26467">
        <ele>-10.60000038147</ele>
        <time>2021-08-22T09:00:41.000Z</time>
      </trkpt>
      <trkpt lat="47.29017" lon="-2.26459">
        <ele>-10</ele>
        <time>2021-08-22T09:00:42.000Z</time>
      </trkpt>
      <trkpt lat="47.29016" lon="-2.26452">
        <ele>-9.6000003814697</ele>
        <time>2021-08-22T09:00:43.000Z</time>
      </trkpt>
      <trkpt lat="47.29015" lon="-2.26445">
        <ele>-9.1999998092651</ele>
        <time>2021-08-22T09:00:44.000Z</time>
      </trkpt>
      <trkpt lat="47.29014" lon="-2.26438">
        <ele>-8.8000001907349</ele>
        <time>2021-08-22T09:00:45.000Z</time>
      </trkpt>
      <trkpt lat="47.29013" lon="-2.26432">
        <ele>-8.8000001907349</ele>
        <time>2021-08-22T09:00:46.000Z</time>
      </trkpt>
      <trkpt lat="47.29011" lon="-2.26405">
        <ele>-8.3999996185303</ele>
        <time>2021-08-22T09:00:50.000Z</time>
      </trkpt>
      <trkpt lat="47.2901" lon="-2.26397">
        <ele>-7.8000001907349</ele>
        <time>2021-08-22T09:00:51.000Z</time>
      </trkpt>
      <trkpt lat="47.29011" lon="-2.26389">
        <ele>-7.4000000953674</ele>
        <time>2021-08-22T09:00:52.000Z</time>
      </trkpt>
      <trkpt lat="47.29012" lon="-2.26382">
        <ele>-7</ele>
        <time>2021-08-22T09:00:53.000Z</time>
      </trkpt>
      <trkpt lat="47.29014" lon="-2.26374">
        <ele>-6.5999999046326</ele>
        <time>2021-08-22T09:00:54.000Z</time>
      </trkpt>
      <trkpt lat="47.29021" lon="-2.26361">
        <ele>-6.5999999046326</ele>
        <time>2021-08-22T09:00:56.000Z</time>
      </trkpt>
      <trkpt lat="47.2903" lon="-2.26352">
        <ele>-6.5999999046326</ele>
        <time>2021-08-22T09:00:58.000Z</time>
      </trkpt>
      <trkpt lat="47.29045" lon="-2.26338">
        <ele>-6.5999999046326</ele>
        <time>2021-08-22T09:01:01.000Z</time>
      </trkpt>
      <trkpt lat="47.29058" lon="-2.26321">
        <ele>-6.5999999046326</ele>
        <time>2021-08-22T09:01:04.000Z</time>
      </trkpt>
      <trkpt lat="47.29065" lon="-2.26308">
        <ele>-6.5999999046326</ele>
        <time>2021-08-22T09:01:06.000Z</time>
      </trkpt>
      <trkpt lat="47.2907" lon="-2.26292">
        <ele>-6.5999999046326</ele>
        <time>2021-08-22T09:01:08.000Z</time>
      </trkpt>
      <trkpt lat="47.29075" lon="-2.26268">
        <ele>-6.5999999046326</ele>
        <time>2021-08-22T09:01:11.000Z</time>
      </trkpt>
      <trkpt lat="47.29085" lon="-2.26215">
        <ele>-6.5999999046326</ele>
        <time>2021-08-22T09:01:18.000Z</time>
      </trkpt>
      <trkpt lat="47.29095" lon="-2.26152">
        <ele>-6.5999999046326</ele>
        <time>2021-08-22T09:01:27.000Z</time>
      </trkpt>
      <trkpt lat="47.29099" lon="-2.26127">
        <ele>-6.5999999046326</ele>
        <time>2021-08-22T09:01:31.000Z</time>
      </trkpt>
      <trkpt lat="47.29101" lon="-2.26123">
        <ele>-6.5999999046326</ele>
        <time>2021-08-22T09:01:32.000Z</time>
      </trkpt>
      <trkpt lat="47.29106" lon="-2.26109">
        <ele>-6.5999999046326</ele>
        <time>2021-08-22T09:01:36.000Z</time>
      </trkpt>
      <trkpt lat="47.29106" lon="-2.26093">
        <ele>-6.5999999046326</ele>
        <time>2021-08-22T09:01:39.000Z</time>
      </trkpt>
      <trkpt lat="47.29105" lon="-2.26081">
        <ele>-6.5999999046326</ele>
        <time>2021-08-22T09:01:41.000Z</time>
      </trkpt>
      <trkpt lat="47.29103" lon="-2.26069">
        <ele>-6.5999999046326</ele>
        <time>2021-08-22T09:01:43.000Z</time>
      </trkpt>
      <trkpt lat="47.29097" lon="-2.26045">
        <ele>-6.5999999046326</ele>
        <time>2021-08-22T09:01:47.000Z</time>
      </trkpt>
      <trkpt lat="47.29096" lon="-2.26039">
        <ele>-7</ele>
        <time>2021-08-22T09:01:48.000Z</time>
      </trkpt>
      <trkpt lat="47.29094" lon="-2.26034">
        <ele>-7.4000000953674</ele>
        <time>2021-08-22T09:01:49.000Z</time>
      </trkpt>
      <trkpt lat="47.29093" lon="-2.2603">
        <ele>-7.8000001907349</ele>
        <time>2021-08-22T09:01:50.000Z</time>
      </trkpt>
      <trkpt lat="47.29092" lon="-2.26027">
        <ele>-8.1999998092651</ele>
        <time>2021-08-22T09:01:51.000Z</time>
      </trkpt>
      <trkpt lat="47.29091" lon="-2.26023">
        <ele>-8.6000003814697</ele>
        <time>2021-08-22T09:01:52.000Z</time>
      </trkpt>
      <trkpt lat="47.29087" lon="-2.26007">
        <ele>-8.6000003814697</ele>
        <time>2021-08-22T09:01:55.000Z</time>
      </trkpt>
      <trkpt lat="47.29095" lon="-2.25992">
        <ele>-8.6000003814697</ele>
        <time>2021-08-22T09:01:58.000Z</time>
      </trkpt>
      <trkpt lat="47.29103" lon="-2.25983">
        <ele>-8.6000003814697</ele>
        <time>2021-08-22T09:02:00.000Z</time>
      </trkpt>
      <trkpt lat="47.29112" lon="-2.2598">
        <ele>-8.6000003814697</ele>
        <time>2021-08-22T09:02:02.000Z</time>
      </trkpt>
      <trkpt lat="47.29124" lon="-2.25979">
        <ele>-8.6000003814697</ele>
        <time>2021-08-22T09:02:05.000Z</time>
      </trkpt>
      <trkpt lat="47.29133" lon="-2.25978">
        <ele>-8.6000003814697</ele>
        <time>2021-08-22T09:02:07.000Z</time>
      </trkpt>
      <trkpt lat="47.29161" lon="-2.2598">
        <ele>-8.6000003814697</ele>
        <time>2021-08-22T09:02:13.000Z</time>
      </trkpt>
      <trkpt lat="47.29165" lon="-2.2598">
        <ele>-8.6000003814697</ele>
        <time>2021-08-22T09:02:14.000Z</time>
      </trkpt>
      <trkpt lat="47.29187" lon="-2.25977">
        <ele>-8.6000003814697</ele>
        <time>2021-08-22T09:02:20.000Z</time>
      </trkpt>
      <trkpt lat="47.292" lon="-2.25975">
        <ele>-8.6000003814697</ele>
        <time>2021-08-22T09:02:24.000Z</time>
      </trkpt>
      <trkpt lat="47.29206" lon="-2.25974">
        <ele>-8.6000003814697</ele>
        <time>2021-08-22T09:02:29.000Z</time>
      </trkpt>
      <trkpt lat="47.29208" lon="-2.25972">
        <ele>-8.6000003814697</ele>
        <time>2021-08-22T09:02:34.000Z</time>
      </trkpt>
      <trkpt lat="47.29213" lon="-2.25969">
        <ele>-8.6000003814697</ele>
        <time>2021-08-22T09:02:36.000Z</time>
      </trkpt>
      <trkpt lat="47.29232" lon="-2.25957">
        <ele>-8.6000003814697</ele>
        <time>2021-08-22T09:02:42.000Z</time>
      </trkpt>
      <trkpt lat="47.29254" lon="-2.25946">
        <ele>-8.6000003814697</ele>
        <time>2021-08-22T09:02:48.000Z</time>
      </trkpt>
      <trkpt lat="47.29279" lon="-2.2593">
        <ele>-8.6000003814697</ele>
        <time>2021-08-22T09:02:55.000Z</time>
      </trkpt>
      <trkpt lat="47.29293" lon="-2.25921">
        <ele>-8.6000003814697</ele>
        <time>2021-08-22T09:03:00.000Z</time>
      </trkpt>
      <trkpt lat="47.2931" lon="-2.25907">
        <ele>-8.6000003814697</ele>
        <time>2021-08-22T09:03:04.000Z</time>
      </trkpt>
      <trkpt lat="47.29311" lon="-2.25902">
        <ele>-9</ele>
        <time>2021-08-22T09:03:05.000Z</time>
      </trkpt>
      <trkpt lat="47.29311" lon="-2.25898">
        <ele>-9.8000001907349</ele>
        <time>2021-08-22T09:03:06.000Z</time>
      </trkpt>
      <trkpt lat="47.2931" lon="-2.25893">
        <ele>-10.199999809265</ele>
        <time>2021-08-22T09:03:07.000Z</time>
      </trkpt>
      <trkpt lat="47.29308" lon="-2.25889">
        <ele>-10.60000038147</ele>
        <time>2021-08-22T09:03:08.000Z</time>
      </trkpt>
      <trkpt lat="47.29306" lon="-2.25885">
        <ele>-10.60000038147</ele>
        <time>2021-08-22T09:03:09.000Z</time>
      </trkpt>
      <trkpt lat="47.29297" lon="-2.2587">
        <ele>-10.60000038147</ele>
        <time>2021-08-22T09:03:13.000Z</time>
      </trkpt>
      <trkpt lat="47.29291" lon="-2.25862">
        <ele>-10.60000038147</ele>
        <time>2021-08-22T09:03:15.000Z</time>
      </trkpt>
      <trkpt lat="47.29288" lon="-2.25855">
        <ele>-10.60000038147</ele>
        <time>2021-08-22T09:03:17.000Z</time>
      </trkpt>
      <trkpt lat="47.29289" lon="-2.25855">
        <ele>-10.60000038147</ele>
        <time>2021-08-22T09:03:19.000Z</time>
      </trkpt>
      <trkpt lat="47.2929" lon="-2.25858">
        <ele>-10.60000038147</ele>
        <time>2021-08-22T09:03:20.000Z</time>
      </trkpt>
      <trkpt lat="47.29299" lon="-2.25875">
        <ele>-10.60000038147</ele>
        <time>2021-08-22T09:03:24.000Z</time>
      </trkpt>
      <trkpt lat="47.29308" lon="-2.25882">
        <ele>-10.60000038147</ele>
        <time>2021-08-22T09:03:28.000Z</time>
      </trkpt>
      <trkpt lat="47.29311" lon="-2.25879">
        <ele>-10.60000038147</ele>
        <time>2021-08-22T09:03:31.000Z</time>
      </trkpt>
      <trkpt lat="47.29311" lon="-2.25874">
        <ele>-10.60000038147</ele>
        <time>2021-08-22T09:03:33.000Z</time>
      </trkpt>
      <trkpt lat="47.29307" lon="-2.25858">
        <ele>-10.60000038147</ele>
        <time>2021-08-22T09:03:40.000Z</time>
      </trkpt>
      <trkpt lat="47.29305" lon="-2.25846">
        <ele>-10.60000038147</ele>
        <time>2021-08-22T09:03:45.000Z</time>
      </trkpt>
      <trkpt lat="47.29309" lon="-2.25845">
        <ele>-10.60000038147</ele>
        <time>2021-08-22T09:03:50.000Z</time>
      </trkpt>
      <trkpt lat="47.29319" lon="-2.25856">
        <ele>-10.60000038147</ele>
        <time>2021-08-22T09:03:58.000Z</time>
      </trkpt>
      <trkpt lat="47.29319" lon="-2.25859">
        <ele>-10.60000038147</ele>
        <time>2021-08-22T09:03:59.000Z</time>
      </trkpt>
      <trkpt lat="47.29325" lon="-2.2587">
        <ele>-10.60000038147</ele>
        <time>2021-08-22T09:04:03.000Z</time>
      </trkpt>
      <trkpt lat="47.29333" lon="-2.25869">
        <ele>-10.60000038147</ele>
        <time>2021-08-22T09:04:06.000Z</time>
      </trkpt>
      <trkpt lat="47.29337" lon="-2.25867">
        <ele>-10.60000038147</ele>
        <time>2021-08-22T09:04:07.000Z</time>
      </trkpt>
      <trkpt lat="47.2936" lon="-2.25862">
        <ele>-10.60000038147</ele>
        <time>2021-08-22T09:04:13.000Z</time>
      </trkpt>
      <trkpt lat="47.29369" lon="-2.25865">
        <ele>-10.60000038147</ele>
        <time>2021-08-22T09:04:19.000Z</time>
      </trkpt>
      <trkpt lat="47.2937" lon="-2.25867">
        <ele>-10.60000038147</ele>
        <time>2021-08-22T09:04:20.000Z</time>
      </trkpt>
      <trkpt lat="47.29373" lon="-2.25871">
        <ele>-10.60000038147</ele>
        <time>2021-08-22T09:04:22.000Z</time>
      </trkpt>
      <trkpt lat="47.29375" lon="-2.25876">
        <ele>-10.60000038147</ele>
        <time>2021-08-22T09:04:24.000Z</time>
      </trkpt>
      <trkpt lat="47.29378" lon="-2.25887">
        <ele>-10.60000038147</ele>
        <time>2021-08-22T09:04:30.000Z</time>
      </trkpt>
      <trkpt lat="47.29378" lon="-2.25904">
        <ele>-10.60000038147</ele>
        <time>2021-08-22T09:04:36.000Z</time>
      </trkpt>
      <trkpt lat="47.29383" lon="-2.25926">
        <ele>-10.60000038147</ele>
        <time>2021-08-22T09:04:42.000Z</time>
      </trkpt>
      <trkpt lat="47.29383" lon="-2.25934">
        <ele>-10.60000038147</ele>
        <time>2021-08-22T09:04:44.000Z</time>
      </trkpt>
      <trkpt lat="47.29379" lon="-2.25942">
        <ele>-10.60000038147</ele>
        <time>2021-08-22T09:04:46.000Z</time>
      </trkpt>
      <trkpt lat="47.29375" lon="-2.25953">
        <ele>-10.60000038147</ele>
        <time>2021-08-22T09:04:48.000Z</time>
      </trkpt>
      <trkpt lat="47.29368" lon="-2.25965">
        <ele>-10.60000038147</ele>
        <time>2021-08-22T09:04:50.000Z</time>
      </trkpt>
      <trkpt lat="47.29363" lon="-2.25969">
        <ele>-10.60000038147</ele>
        <time>2021-08-22T09:04:51.000Z</time>
      </trkpt>
      <trkpt lat="47.29354" lon="-2.2597">
        <ele>-10.60000038147</ele>
        <time>2021-08-22T09:04:53.000Z</time>
      </trkpt>
      <trkpt lat="47.29339" lon="-2.25962">
        <ele>-10.60000038147</ele>
        <time>2021-08-22T09:04:57.000Z</time>
      </trkpt>
      <trkpt lat="47.29323" lon="-2.25965">
        <ele>-10.60000038147</ele>
        <time>2021-08-22T09:05:01.000Z</time>
      </trkpt>
      <trkpt lat="47.29302" lon="-2.2597">
        <ele>-10.60000038147</ele>
        <time>2021-08-22T09:05:06.000Z</time>
      </trkpt>
      <trkpt lat="47.29281" lon="-2.25979">
        <ele>-10.60000038147</ele>
        <time>2021-08-22T09:05:12.000Z</time>
      </trkpt>
      <trkpt lat="47.29267" lon="-2.25976">
        <ele>-10.60000038147</ele>
        <time>2021-08-22T09:05:17.000Z</time>
      </trkpt>
      <trkpt lat="47.29249" lon="-2.25975">
        <ele>-10.199999809265</ele>
        <time>2021-08-22T09:05:22.000Z</time>
      </trkpt>
      <trkpt lat="47.29248" lon="-2.25978">
        <ele>-9.8000001907349</ele>
        <time>2021-08-22T09:05:23.000Z</time>
      </trkpt>
      <trkpt lat="47.29246" lon="-2.2598">
        <ele>-9.3999996185303</ele>
        <time>2021-08-22T09:05:24.000Z</time>
      </trkpt>
      <trkpt lat="47.29245" lon="-2.25981">
        <ele>-9</ele>
        <time>2021-08-22T09:05:25.000Z</time>
      </trkpt>
      <trkpt lat="47.29243" lon="-2.25982">
        <ele>-8.3999996185303</ele>
        <time>2021-08-22T09:05:26.000Z</time>
      </trkpt>
      <trkpt lat="47.29237" lon="-2.25986">
        <ele>-8.3999996185303</ele>
        <time>2021-08-22T09:05:29.000Z</time>
      </trkpt>
      <trkpt lat="47.29224" lon="-2.25992">
        <ele>-8.3999996185303</ele>
        <time>2021-08-22T09:05:34.000Z</time>
      </trkpt>
      <trkpt lat="47.29211" lon="-2.26005">
        <ele>-8.3999996185303</ele>
        <time>2021-08-22T09:05:41.000Z</time>
      </trkpt>
      <trkpt lat="47.29205" lon="-2.26024">
        <ele>-8.3999996185303</ele>
        <time>2021-08-22T09:05:47.000Z</time>
      </trkpt>
      <trkpt lat="47.29206" lon="-2.26029">
        <ele>-8.3999996185303</ele>
        <time>2021-08-22T09:05:48.000Z</time>
      </trkpt>
      <trkpt lat="47.29211" lon="-2.26038">
        <ele>-8.3999996185303</ele>
        <time>2021-08-22T09:05:50.000Z</time>
      </trkpt>
      <trkpt lat="47.29216" lon="-2.26047">
        <ele>-8</ele>
        <time>2021-08-22T09:05:52.000Z</time>
      </trkpt>
      <trkpt lat="47.29218" lon="-2.26051">
        <ele>-7.5999999046326</ele>
        <time>2021-08-22T09:05:53.000Z</time>
      </trkpt>
      <trkpt lat="47.2922" lon="-2.26056">
        <ele>-7.1999998092651</ele>
        <time>2021-08-22T09:05:54.000Z</time>
      </trkpt>
      <trkpt lat="47.29221" lon="-2.2606">
        <ele>-6.8000001907349</ele>
        <time>2021-08-22T09:05:55.000Z</time>
      </trkpt>
      <trkpt lat="47.29224" lon="-2.26065">
        <ele>-6.4000000953674</ele>
        <time>2021-08-22T09:05:56.000Z</time>
      </trkpt>
      <trkpt lat="47.29234" lon="-2.26083">
        <ele>-6.4000000953674</ele>
        <time>2021-08-22T09:06:01.000Z</time>
      </trkpt>
      <trkpt lat="47.2924" lon="-2.26099">
        <ele>-6.4000000953674</ele>
        <time>2021-08-22T09:06:07.000Z</time>
      </trkpt>
      <trkpt lat="47.29248" lon="-2.26124">
        <ele>-6.4000000953674</ele>
        <time>2021-08-22T09:06:13.000Z</time>
      </trkpt>
      <trkpt lat="47.29257" lon="-2.26145">
        <ele>-6.4000000953674</ele>
        <time>2021-08-22T09:06:18.000Z</time>
      </trkpt>
      <trkpt lat="47.29262" lon="-2.26163">
        <ele>-6.4000000953674</ele>
        <time>2021-08-22T09:06:21.000Z</time>
      </trkpt>
      <trkpt lat="47.29266" lon="-2.26167">
        <ele>-6.4000000953674</ele>
        <time>2021-08-22T09:06:22.000Z</time>
      </trkpt>
      <trkpt lat="47.29284" lon="-2.26173">
        <ele>-6.4000000953674</ele>
        <time>2021-08-22T09:06:27.000Z</time>
      </trkpt>
      <trkpt lat="47.29307" lon="-2.26177">
        <ele>-6.4000000953674</ele>
        <time>2021-08-22T09:06:33.000Z</time>
      </trkpt>
      <trkpt lat="47.29314" lon="-2.26179">
        <ele>-6.4000000953674</ele>
        <time>2021-08-22T09:06:36.000Z</time>
      </trkpt>
      <trkpt lat="47.29315" lon="-2.26176">
        <ele>-6.4000000953674</ele>
        <time>2021-08-22T09:06:37.000Z</time>
      </trkpt>
      <trkpt lat="47.29316" lon="-2.26164">
        <ele>-6.4000000953674</ele>
        <time>2021-08-22T09:06:42.000Z</time>
      </trkpt>
      <trkpt lat="47.29316" lon="-2.26164">
        <ele>-6.4000000953674</ele>
        <time>2021-08-22T09:06:43.000Z</time>
      </trkpt>
      <trkpt lat="47.29319" lon="-2.26165">
        <ele>-6.4000000953674</ele>
        <time>2021-08-22T09:06:46.000Z</time>
      </trkpt>
      <trkpt lat="47.29323" lon="-2.26164">
        <ele>-6.4000000953674</ele>
        <time>2021-08-22T09:06:48.000Z</time>
      </trkpt>
      <trkpt lat="47.29329" lon="-2.2616">
        <ele>-6.8000001907349</ele>
        <time>2021-08-22T09:06:51.000Z</time>
      </trkpt>
      <trkpt lat="47.29333" lon="-2.2616">
        <ele>-7.1999998092651</ele>
        <time>2021-08-22T09:06:52.000Z</time>
      </trkpt>
      <trkpt lat="47.29336" lon="-2.26158">
        <ele>-7.5999999046326</ele>
        <time>2021-08-22T09:06:53.000Z</time>
      </trkpt>
      <trkpt lat="47.29341" lon="-2.26156">
        <ele>-8.1999998092651</ele>
        <time>2021-08-22T09:06:54.000Z</time>
      </trkpt>
      <trkpt lat="47.29346" lon="-2.26155">
        <ele>-8.6000003814697</ele>
        <time>2021-08-22T09:06:55.000Z</time>
      </trkpt>
      <trkpt lat="47.29351" lon="-2.26154">
        <ele>-8.6000003814697</ele>
        <time>2021-08-22T09:06:56.000Z</time>
      </trkpt>
      <trkpt lat="47.29356" lon="-2.26154">
        <ele>-8.6000003814697</ele>
        <time>2021-08-22T09:06:57.000Z</time>
      </trkpt>
      <trkpt lat="47.29368" lon="-2.26159">
        <ele>-8.6000003814697</ele>
        <time>2021-08-22T09:07:00.000Z</time>
      </trkpt>
      <trkpt lat="47.29382" lon="-2.26165">
        <ele>-9</ele>
        <time>2021-08-22T09:07:03.000Z</time>
      </trkpt>
      <trkpt lat="47.29386" lon="-2.26168">
        <ele>-9.3999996185303</ele>
        <time>2021-08-22T09:07:04.000Z</time>
      </trkpt>
      <trkpt lat="47.29389" lon="-2.26171">
        <ele>-9.8000001907349</ele>
        <time>2021-08-22T09:07:05.000Z</time>
      </trkpt>
      <trkpt lat="47.29392" lon="-2.26175">
        <ele>-10.199999809265</ele>
        <time>2021-08-22T09:07:06.000Z</time>
      </trkpt>
      <trkpt lat="47.29395" lon="-2.26178">
        <ele>-10.60000038147</ele>
        <time>2021-08-22T09:07:07.000Z</time>
      </trkpt>
      <trkpt lat="47.29399" lon="-2.26183">
        <ele>-10.60000038147</ele>
        <time>2021-08-22T09:07:09.000Z</time>
      </trkpt>
      <trkpt lat="47.29401" lon="-2.26185">
        <ele>-10.60000038147</ele>
        <time>2021-08-22T09:07:10.000Z</time>
      </trkpt>
      <trkpt lat="47.29406" lon="-2.26186">
        <ele>-10.60000038147</ele>
        <time>2021-08-22T09:07:14.000Z</time>
      </trkpt>
      <trkpt lat="47.29414" lon="-2.26187">
        <ele>-10.60000038147</ele>
        <time>2021-08-22T09:07:19.000Z</time>
      </trkpt>
      <trkpt lat="47.29417" lon="-2.26183">
        <ele>-10.60000038147</ele>
        <time>2021-08-22T09:20:14.000Z</time>
      </trkpt>
      <trkpt lat="47.29416" lon="-2.26181">
        <ele>-10.60000038147</ele>
        <time>2021-08-22T09:20:15.000Z</time>
      </trkpt>
      <trkpt lat="47.29413" lon="-2.26175">
        <ele>-10.60000038147</ele>
        <time>2021-08-22T09:20:20.000Z</time>
      </trkpt>
      <trkpt lat="47.29413" lon="-2.26168">
        <ele>-10.60000038147</ele>
        <time>2021-08-22T09:20:29.000Z</time>
      </trkpt>
      <trkpt lat="47.29418" lon="-2.26143">
        <ele>-10.60000038147</ele>
        <time>2021-08-22T09:20:35.000Z</time>
      </trkpt>
      <trkpt lat="47.29422" lon="-2.26116">
        <ele>-11</ele>
        <time>2021-08-22T09:20:40.000Z</time>
      </trkpt>
      <trkpt lat="47.29422" lon="-2.26109">
        <ele>-11.60000038147</ele>
        <time>2021-08-22T09:20:41.000Z</time>
      </trkpt>
      <trkpt lat="47.29422" lon="-2.26103">
        <ele>-12</ele>
        <time>2021-08-22T09:20:42.000Z</time>
      </trkpt>
      <trkpt lat="47.29422" lon="-2.26098">
        <ele>-12.39999961853</ele>
        <time>2021-08-22T09:20:43.000Z</time>
      </trkpt>
      <trkpt lat="47.29422" lon="-2.26093">
        <ele>-12.800000190735</ele>
        <time>2021-08-22T09:20:44.000Z</time>
      </trkpt>
      <trkpt lat="47.29421" lon="-2.26088">
        <ele>-12.800000190735</ele>
        <time>2021-08-22T09:20:45.000Z</time>
      </trkpt>
      <trkpt lat="47.29419" lon="-2.26084">
        <ele>-12.800000190735</ele>
        <time>2021-08-22T09:20:46.000Z</time>
      </trkpt>
      <trkpt lat="47.29413" lon="-2.26069">
        <ele>-12.800000190735</ele>
        <time>2021-08-22T09:20:50.000Z</time>
      </trkpt>
      <trkpt lat="47.29398" lon="-2.26042">
        <ele>-12.800000190735</ele>
        <time>2021-08-22T09:20:56.000Z</time>
      </trkpt>
      <trkpt lat="47.29396" lon="-2.26017">
        <ele>-12.800000190735</ele>
        <time>2021-08-22T09:21:01.000Z</time>
      </trkpt>
      <trkpt lat="47.29397" lon="-2.25987">
        <ele>-12.800000190735</ele>
        <time>2021-08-22T09:21:07.000Z</time>
      </trkpt>
      <trkpt lat="47.29394" lon="-2.25968">
        <ele>-12.800000190735</ele>
        <time>2021-08-22T09:21:12.000Z</time>
      </trkpt>
      <trkpt lat="47.29393" lon="-2.25965">
        <ele>-12.39999961853</ele>
        <time>2021-08-22T09:21:13.000Z</time>
      </trkpt>
      <trkpt lat="47.29394" lon="-2.25963">
        <ele>-12</ele>
        <time>2021-08-22T09:21:14.000Z</time>
      </trkpt>
      <trkpt lat="47.29395" lon="-2.25962">
        <ele>-11.60000038147</ele>
        <time>2021-08-22T09:21:15.000Z</time>
      </trkpt>
      <trkpt lat="47.29396" lon="-2.25961">
        <ele>-11.199999809265</ele>
        <time>2021-08-22T09:21:16.000Z</time>
      </trkpt>
      <trkpt lat="47.29398" lon="-2.25961">
        <ele>-10.800000190735</ele>
        <time>2021-08-22T09:21:17.000Z</time>
      </trkpt>
      <trkpt lat="47.29405" lon="-2.2596">
        <ele>-10.800000190735</ele>
        <time>2021-08-22T09:21:20.000Z</time>
      </trkpt>
      <trkpt lat="47.2942" lon="-2.25951">
        <ele>-10.800000190735</ele>
        <time>2021-08-22T09:21:25.000Z</time>
      </trkpt>
      <trkpt lat="47.29428" lon="-2.25939">
        <ele>-11.199999809265</ele>
        <time>2021-08-22T09:21:27.000Z</time>
      </trkpt>
      <trkpt lat="47.29431" lon="-2.25933">
        <ele>-11.60000038147</ele>
        <time>2021-08-22T09:21:28.000Z</time>
      </trkpt>
      <trkpt lat="47.29433" lon="-2.25928">
        <ele>-12</ele>
        <time>2021-08-22T09:21:29.000Z</time>
      </trkpt>
      <trkpt lat="47.29434" lon="-2.25923">
        <ele>-12.60000038147</ele>
        <time>2021-08-22T09:21:30.000Z</time>
      </trkpt>
      <trkpt lat="47.29435" lon="-2.25919">
        <ele>-13</ele>
        <time>2021-08-22T09:21:31.000Z</time>
      </trkpt>
      <trkpt lat="47.29435" lon="-2.25903">
        <ele>-13</ele>
        <time>2021-08-22T09:21:34.000Z</time>
      </trkpt>
      <trkpt lat="47.29428" lon="-2.25873">
        <ele>-13</ele>
        <time>2021-08-22T09:21:40.000Z</time>
      </trkpt>
      <trkpt lat="47.29427" lon="-2.25867">
        <ele>-13</ele>
        <time>2021-08-22T09:21:42.000Z</time>
      </trkpt>
      <trkpt lat="47.29427" lon="-2.2586">
        <ele>-13</ele>
        <time>2021-08-22T09:21:44.000Z</time>
      </trkpt>
      <trkpt lat="47.29431" lon="-2.25834">
        <ele>-13</ele>
        <time>2021-08-22T09:21:49.000Z</time>
      </trkpt>
      <trkpt lat="47.29431" lon="-2.25816">
        <ele>-13</ele>
        <time>2021-08-22T09:21:53.000Z</time>
      </trkpt>
      <trkpt lat="47.29434" lon="-2.25793">
        <ele>-13</ele>
        <time>2021-08-22T09:21:58.000Z</time>
      </trkpt>
      <trkpt lat="47.29432" lon="-2.2579">
        <ele>-13</ele>
        <time>2021-08-22T09:21:59.000Z</time>
      </trkpt>
      <trkpt lat="47.29423" lon="-2.25776">
        <ele>-13</ele>
        <time>2021-08-22T09:22:03.000Z</time>
      </trkpt>
      <trkpt lat="47.29422" lon="-2.25772">
        <ele>-13</ele>
        <time>2021-08-22T09:22:04.000Z</time>
      </trkpt>
      <trkpt lat="47.2942" lon="-2.25769">
        <ele>-12.60000038147</ele>
        <time>2021-08-22T09:22:05.000Z</time>
      </trkpt>
      <trkpt lat="47.29417" lon="-2.25765">
        <ele>-12.199999809265</ele>
        <time>2021-08-22T09:22:06.000Z</time>
      </trkpt>
      <trkpt lat="47.29414" lon="-2.25763">
        <ele>-11.800000190735</ele>
        <time>2021-08-22T09:22:07.000Z</time>
      </trkpt>
      <trkpt lat="47.29411" lon="-2.25761">
        <ele>-11.199999809265</ele>
        <time>2021-08-22T09:22:08.000Z</time>
      </trkpt>
      <trkpt lat="47.29408" lon="-2.2576">
        <ele>-10.800000190735</ele>
        <time>2021-08-22T09:22:09.000Z</time>
      </trkpt>
      <trkpt lat="47.29396" lon="-2.25753">
        <ele>-10.800000190735</ele>
        <time>2021-08-22T09:22:14.000Z</time>
      </trkpt>
      <trkpt lat="47.29387" lon="-2.2576">
        <ele>-10.800000190735</ele>
        <time>2021-08-22T09:22:18.000Z</time>
      </trkpt>
      <trkpt lat="47.29385" lon="-2.25762">
        <ele>-10.800000190735</ele>
        <time>2021-08-22T09:22:19.000Z</time>
      </trkpt>
      <trkpt lat="47.29377" lon="-2.25767">
        <ele>-10.800000190735</ele>
        <time>2021-08-22T09:22:23.000Z</time>
      </trkpt>
      <trkpt lat="47.29377" lon="-2.25769">
        <ele>-10.800000190735</ele>
        <time>2021-08-22T09:22:24.000Z</time>
      </trkpt>
      <trkpt lat="47.29376" lon="-2.25773">
        <ele>-10.39999961853</ele>
        <time>2021-08-22T09:22:25.000Z</time>
      </trkpt>
      <trkpt lat="47.29375" lon="-2.25776">
        <ele>-9.6000003814697</ele>
        <time>2021-08-22T09:22:26.000Z</time>
      </trkpt>
      <trkpt lat="47.29374" lon="-2.25779">
        <ele>-9.1999998092651</ele>
        <time>2021-08-22T09:22:27.000Z</time>
      </trkpt>
      <trkpt lat="47.29374" lon="-2.25782">
        <ele>-8.8000001907349</ele>
        <time>2021-08-22T09:22:28.000Z</time>
      </trkpt>
      <trkpt lat="47.29373" lon="-2.25785">
        <ele>-8.8000001907349</ele>
        <time>2021-08-22T09:22:29.000Z</time>
      </trkpt>
      <trkpt lat="47.29368" lon="-2.25793">
        <ele>-8.8000001907349</ele>
        <time>2021-08-22T09:22:33.000Z</time>
      </trkpt>
      <trkpt lat="47.29364" lon="-2.25793">
        <ele>-8.8000001907349</ele>
        <time>2021-08-22T09:22:34.000Z</time>
      </trkpt>
      <trkpt lat="47.2935" lon="-2.25792">
        <ele>-8.8000001907349</ele>
        <time>2021-08-22T09:22:38.000Z</time>
      </trkpt>
      <trkpt lat="47.29346" lon="-2.25791">
        <ele>-8.8000001907349</ele>
        <time>2021-08-22T09:22:39.000Z</time>
      </trkpt>
      <trkpt lat="47.29335" lon="-2.25784">
        <ele>-8.8000001907349</ele>
        <time>2021-08-22T09:22:44.000Z</time>
      </trkpt>
      <trkpt lat="47.29335" lon="-2.25781">
        <ele>-8.8000001907349</ele>
        <time>2021-08-22T09:22:45.000Z</time>
      </trkpt>
      <trkpt lat="47.29341" lon="-2.25771">
        <ele>-8.8000001907349</ele>
        <time>2021-08-22T09:22:49.000Z</time>
      </trkpt>
      <trkpt lat="47.29355" lon="-2.25755">
        <ele>-8.8000001907349</ele>
        <time>2021-08-22T09:22:55.000Z</time>
      </trkpt>
      <trkpt lat="47.29362" lon="-2.25742">
        <ele>-8.3999996185303</ele>
        <time>2021-08-22T09:22:58.000Z</time>
      </trkpt>
      <trkpt lat="47.29364" lon="-2.25737">
        <ele>-8</ele>
        <time>2021-08-22T09:22:59.000Z</time>
      </trkpt>
      <trkpt lat="47.29367" lon="-2.25732">
        <ele>-7.5999999046326</ele>
        <time>2021-08-22T09:23:00.000Z</time>
      </trkpt>
      <trkpt lat="47.2937" lon="-2.25726">
        <ele>-7.1999998092651</ele>
        <time>2021-08-22T09:23:01.000Z</time>
      </trkpt>
      <trkpt lat="47.29373" lon="-2.2572">
        <ele>-6.8000001907349</ele>
        <time>2021-08-22T09:23:02.000Z</time>
      </trkpt>
      <trkpt lat="47.29382" lon="-2.25689">
        <ele>-6.8000001907349</ele>
        <time>2021-08-22T09:23:07.000Z</time>
      </trkpt>
      <trkpt lat="47.29386" lon="-2.25653">
        <ele>-6.8000001907349</ele>
        <time>2021-08-22T09:23:14.000Z</time>
      </trkpt>
      <trkpt lat="47.29386" lon="-2.25644">
        <ele>-6.8000001907349</ele>
        <time>2021-08-22T09:23:19.000Z</time>
      </trkpt>
      <trkpt lat="47.29386" lon="-2.25642">
        <ele>-6.8000001907349</ele>
        <time>2021-08-22T09:23:21.000Z</time>
      </trkpt>
      <trkpt lat="47.29392" lon="-2.25636">
        <ele>-6.8000001907349</ele>
        <time>2021-08-22T09:23:51.000Z</time>
      </trkpt>
      <trkpt lat="47.29394" lon="-2.25633">
        <ele>-6.8000001907349</ele>
        <time>2021-08-22T09:23:53.000Z</time>
      </trkpt>
      <trkpt lat="47.29399" lon="-2.2563">
        <ele>-6.8000001907349</ele>
        <time>2021-08-22T09:23:55.000Z</time>
      </trkpt>
      <trkpt lat="47.29408" lon="-2.25623">
        <ele>-6.8000001907349</ele>
        <time>2021-08-22T09:23:58.000Z</time>
      </trkpt>
      <trkpt lat="47.29431" lon="-2.25613">
        <ele>-6.8000001907349</ele>
        <time>2021-08-22T09:24:03.000Z</time>
      </trkpt>
      <trkpt lat="47.2947" lon="-2.25597">
        <ele>-6.8000001907349</ele>
        <time>2021-08-22T09:24:10.000Z</time>
      </trkpt>
      <trkpt lat="47.29517" lon="-2.25569">
        <ele>-6.8000001907349</ele>
        <time>2021-08-22T09:24:18.000Z</time>
      </trkpt>
      <trkpt lat="47.29563" lon="-2.25538">
        <ele>-7.1999998092651</ele>
        <time>2021-08-22T09:24:25.000Z</time>
      </trkpt>
      <trkpt lat="47.29569" lon="-2.25532">
        <ele>-7.8000001907349</ele>
        <time>2021-08-22T09:24:26.000Z</time>
      </trkpt>
      <trkpt lat="47.29575" lon="-2.25524">
        <ele>-8.1999998092651</ele>
        <time>2021-08-22T09:24:27.000Z</time>
      </trkpt>
      <trkpt lat="47.29579" lon="-2.25515">
        <ele>-8.6000003814697</ele>
        <time>2021-08-22T09:24:28.000Z</time>
      </trkpt>
      <trkpt lat="47.29582" lon="-2.25505">
        <ele>-9</ele>
        <time>2021-08-22T09:24:29.000Z</time>
      </trkpt>
      <trkpt lat="47.29586" lon="-2.25473">
        <ele>-9</ele>
        <time>2021-08-22T09:24:32.000Z</time>
      </trkpt>
      <trkpt lat="47.29585" lon="-2.25452">
        <ele>-9</ele>
        <time>2021-08-22T09:24:34.000Z</time>
      </trkpt>
      <trkpt lat="47.29583" lon="-2.25432">
        <ele>-9</ele>
        <time>2021-08-22T09:24:36.000Z</time>
      </trkpt>
      <trkpt lat="47.29575" lon="-2.25378">
        <ele>-9</ele>
        <time>2021-08-22T09:24:41.000Z</time>
      </trkpt>
      <trkpt lat="47.29572" lon="-2.25368">
        <ele>-9</ele>
        <time>2021-08-22T09:24:42.000Z</time>
      </trkpt>
      <trkpt lat="47.29561" lon="-2.2534">
        <ele>-9.3999996185303</ele>
        <time>2021-08-22T09:24:45.000Z</time>
      </trkpt>
      <trkpt lat="47.29556" lon="-2.25331">
        <ele>-9.8000001907349</ele>
        <time>2021-08-22T09:24:46.000Z</time>
      </trkpt>
      <trkpt lat="47.29552" lon="-2.25322">
        <ele>-10.199999809265</ele>
        <time>2021-08-22T09:24:47.000Z</time>
      </trkpt>
      <trkpt lat="47.29548" lon="-2.25312">
        <ele>-10.60000038147</ele>
        <time>2021-08-22T09:24:48.000Z</time>
      </trkpt>
      <trkpt lat="47.29544" lon="-2.25302">
        <ele>-11</ele>
        <time>2021-08-22T09:24:49.000Z</time>
      </trkpt>
      <trkpt lat="47.29541" lon="-2.25292">
        <ele>-11</ele>
        <time>2021-08-22T09:24:50.000Z</time>
      </trkpt>
      <trkpt lat="47.29538" lon="-2.2527">
        <ele>-11</ele>
        <time>2021-08-22T09:24:52.000Z</time>
      </trkpt>
      <trkpt lat="47.29539" lon="-2.25236">
        <ele>-11</ele>
        <time>2021-08-22T09:24:55.000Z</time>
      </trkpt>
      <trkpt lat="47.2954" lon="-2.25226">
        <ele>-11</ele>
        <time>2021-08-22T09:24:56.000Z</time>
      </trkpt>
      <trkpt lat="47.29543" lon="-2.25207">
        <ele>-11.60000038147</ele>
        <time>2021-08-22T09:24:58.000Z</time>
      </trkpt>
      <trkpt lat="47.29545" lon="-2.252">
        <ele>-12</ele>
        <time>2021-08-22T09:24:59.000Z</time>
      </trkpt>
      <trkpt lat="47.29548" lon="-2.25194">
        <ele>-12.39999961853</ele>
        <time>2021-08-22T09:25:00.000Z</time>
      </trkpt>
      <trkpt lat="47.2955" lon="-2.25188">
        <ele>-13</ele>
        <time>2021-08-22T09:25:01.000Z</time>
      </trkpt>
      <trkpt lat="47.29549" lon="-2.25183">
        <ele>-13.39999961853</ele>
        <time>2021-08-22T09:25:02.000Z</time>
      </trkpt>
      <trkpt lat="47.29546" lon="-2.25179">
        <ele>-13.39999961853</ele>
        <time>2021-08-22T09:25:03.000Z</time>
      </trkpt>
      <trkpt lat="47.29535" lon="-2.25179">
        <ele>-13.39999961853</ele>
        <time>2021-08-22T09:25:06.000Z</time>
      </trkpt>
      <trkpt lat="47.29531" lon="-2.25181">
        <ele>-13.39999961853</ele>
        <time>2021-08-22T09:25:07.000Z</time>
      </trkpt>
      <trkpt lat="47.29511" lon="-2.25187">
        <ele>-13.39999961853</ele>
        <time>2021-08-22T09:25:11.000Z</time>
      </trkpt>
      <trkpt lat="47.29506" lon="-2.25189">
        <ele>-13.39999961853</ele>
        <time>2021-08-22T09:25:12.000Z</time>
      </trkpt>
      <trkpt lat="47.29484" lon="-2.25196">
        <ele>-13.800000190735</ele>
        <time>2021-08-22T09:25:16.000Z</time>
      </trkpt>
      <trkpt lat="47.29478" lon="-2.25198">
        <ele>-14.199999809265</ele>
        <time>2021-08-22T09:25:17.000Z</time>
      </trkpt>
      <trkpt lat="47.29471" lon="-2.252">
        <ele>-14.60000038147</ele>
        <time>2021-08-22T09:25:18.000Z</time>
      </trkpt>
      <trkpt lat="47.29463" lon="-2.252">
        <ele>-15.60000038147</ele>
        <time>2021-08-22T09:25:19.000Z</time>
      </trkpt>
      <trkpt lat="47.2945" lon="-2.25203">
        <ele>-15.60000038147</ele>
        <time>2021-08-22T09:25:21.000Z</time>
      </trkpt>
      <trkpt lat="47.29414" lon="-2.25214">
        <ele>-15.60000038147</ele>
        <time>2021-08-22T09:25:26.000Z</time>
      </trkpt>
      <trkpt lat="47.29407" lon="-2.25213">
        <ele>-15.60000038147</ele>
        <time>2021-08-22T09:25:27.000Z</time>
      </trkpt>
      <trkpt lat="47.29394" lon="-2.25211">
        <ele>-16</ele>
        <time>2021-08-22T09:25:29.000Z</time>
      </trkpt>
      <trkpt lat="47.29387" lon="-2.25209">
        <ele>-16.39999961853</ele>
        <time>2021-08-22T09:25:30.000Z</time>
      </trkpt>
      <trkpt lat="47.2938" lon="-2.25207">
        <ele>-16.799999237061</ele>
        <time>2021-08-22T09:25:31.000Z</time>
      </trkpt>
      <trkpt lat="47.29374" lon="-2.25205">
        <ele>-17.200000762939</ele>
        <time>2021-08-22T09:25:32.000Z</time>
      </trkpt>
      <trkpt lat="47.29367" lon="-2.25203">
        <ele>-17.60000038147</ele>
        <time>2021-08-22T09:25:33.000Z</time>
      </trkpt>
      <trkpt lat="47.29334" lon="-2.25195">
        <ele>-17.60000038147</ele>
        <time>2021-08-22T09:25:38.000Z</time>
      </trkpt>
      <trkpt lat="47.29328" lon="-2.25195">
        <ele>-17.60000038147</ele>
        <time>2021-08-22T09:25:39.000Z</time>
      </trkpt>
      <trkpt lat="47.29317" lon="-2.25197">
        <ele>-17.60000038147</ele>
        <time>2021-08-22T09:25:41.000Z</time>
      </trkpt>
      <trkpt lat="47.29311" lon="-2.25197">
        <ele>-17.60000038147</ele>
        <time>2021-08-22T09:25:42.000Z</time>
      </trkpt>
      <trkpt lat="47.29299" lon="-2.25186">
        <ele>-17.60000038147</ele>
        <time>2021-08-22T09:25:45.000Z</time>
      </trkpt>
      <trkpt lat="47.29297" lon="-2.25159">
        <ele>-17.60000038147</ele>
        <time>2021-08-22T09:25:48.000Z</time>
      </trkpt>
      <trkpt lat="47.29292" lon="-2.25104">
        <ele>-17.60000038147</ele>
        <time>2021-08-22T09:25:55.000Z</time>
      </trkpt>
      <trkpt lat="47.29287" lon="-2.25075">
        <ele>-17.60000038147</ele>
        <time>2021-08-22T09:25:59.000Z</time>
      </trkpt>
      <trkpt lat="47.29283" lon="-2.25061">
        <ele>-17.60000038147</ele>
        <time>2021-08-22T09:26:01.000Z</time>
      </trkpt>
      <trkpt lat="47.29278" lon="-2.2504">
        <ele>-17.200000762939</ele>
        <time>2021-08-22T09:26:04.000Z</time>
      </trkpt>
      <trkpt lat="47.29276" lon="-2.25033">
        <ele>-16.799999237061</ele>
        <time>2021-08-22T09:26:05.000Z</time>
      </trkpt>
      <trkpt lat="47.29275" lon="-2.25025">
        <ele>-16.39999961853</ele>
        <time>2021-08-22T09:26:06.000Z</time>
      </trkpt>
      <trkpt lat="47.29273" lon="-2.25018">
        <ele>-15.800000190735</ele>
        <time>2021-08-22T09:26:07.000Z</time>
      </trkpt>
      <trkpt lat="47.29272" lon="-2.2501">
        <ele>-15.39999961853</ele>
        <time>2021-08-22T09:26:08.000Z</time>
      </trkpt>
      <trkpt lat="47.29262" lon="-2.24958">
        <ele>-15.39999961853</ele>
        <time>2021-08-22T09:26:15.000Z</time>
      </trkpt>
      <trkpt lat="47.2926" lon="-2.24936">
        <ele>-15.39999961853</ele>
        <time>2021-08-22T09:26:18.000Z</time>
      </trkpt>
      <trkpt lat="47.29263" lon="-2.24925">
        <ele>-15.39999961853</ele>
        <time>2021-08-22T09:26:20.000Z</time>
      </trkpt>
      <trkpt lat="47.29274" lon="-2.24919">
        <ele>-15.39999961853</ele>
        <time>2021-08-22T09:26:23.000Z</time>
      </trkpt>
      <trkpt lat="47.29283" lon="-2.24917">
        <ele>-15.39999961853</ele>
        <time>2021-08-22T09:26:25.000Z</time>
      </trkpt>
      <trkpt lat="47.29288" lon="-2.24917">
        <ele>-15.39999961853</ele>
        <time>2021-08-22T09:26:26.000Z</time>
      </trkpt>
      <trkpt lat="47.29298" lon="-2.24917">
        <ele>-15.39999961853</ele>
        <time>2021-08-22T09:26:28.000Z</time>
      </trkpt>
      <trkpt lat="47.29326" lon="-2.24919">
        <ele>-15.39999961853</ele>
        <time>2021-08-22T09:26:34.000Z</time>
      </trkpt>
      <trkpt lat="47.2933" lon="-2.24915">
        <ele>-15.39999961853</ele>
        <time>2021-08-22T09:26:35.000Z</time>
      </trkpt>
      <trkpt lat="47.29338" lon="-2.24898">
        <ele>-15.39999961853</ele>
        <time>2021-08-22T09:26:38.000Z</time>
      </trkpt>
      <trkpt lat="47.29343" lon="-2.24871">
        <ele>-15.39999961853</ele>
        <time>2021-08-22T09:26:42.000Z</time>
      </trkpt>
      <trkpt lat="47.29344" lon="-2.24865">
        <ele>-15.39999961853</ele>
        <time>2021-08-22T09:26:43.000Z</time>
      </trkpt>
      <trkpt lat="47.29344" lon="-2.24858">
        <ele>-15.39999961853</ele>
        <time>2021-08-22T09:26:44.000Z</time>
      </trkpt>
      <trkpt lat="47.29341" lon="-2.24829">
        <ele>-15.39999961853</ele>
        <time>2021-08-22T09:26:48.000Z</time>
      </trkpt>
      <trkpt lat="47.29331" lon="-2.24785">
        <ele>-15.39999961853</ele>
        <time>2021-08-22T09:26:54.000Z</time>
      </trkpt>
      <trkpt lat="47.29328" lon="-2.24779">
        <ele>-15.39999961853</ele>
        <time>2021-08-22T09:26:55.000Z</time>
      </trkpt>
      <trkpt lat="47.29322" lon="-2.24763">
        <ele>-15.39999961853</ele>
        <time>2021-08-22T09:26:57.000Z</time>
      </trkpt>
      <trkpt lat="47.2932" lon="-2.24754">
        <ele>-15.39999961853</ele>
        <time>2021-08-22T09:26:58.000Z</time>
      </trkpt>
      <trkpt lat="47.29308" lon="-2.247">
        <ele>-15.39999961853</ele>
        <time>2021-08-22T09:27:04.000Z</time>
      </trkpt>
      <trkpt lat="47.29301" lon="-2.24669">
        <ele>-15.39999961853</ele>
        <time>2021-08-22T09:27:07.000Z</time>
      </trkpt>
      <trkpt lat="47.29299" lon="-2.2465">
        <ele>-16</ele>
        <time>2021-08-22T09:27:09.000Z</time>
      </trkpt>
      <trkpt lat="47.29298" lon="-2.24639">
        <ele>-16.39999961853</ele>
        <time>2021-08-22T09:27:10.000Z</time>
      </trkpt>
      <trkpt lat="47.29297" lon="-2.24629">
        <ele>-16.799999237061</ele>
        <time>2021-08-22T09:27:11.000Z</time>
      </trkpt>
      <trkpt lat="47.29297" lon="-2.2462">
        <ele>-17.200000762939</ele>
        <time>2021-08-22T09:27:12.000Z</time>
      </trkpt>
      <trkpt lat="47.29297" lon="-2.2461">
        <ele>-17.799999237061</ele>
        <time>2021-08-22T09:27:13.000Z</time>
      </trkpt>
      <trkpt lat="47.29297" lon="-2.24601">
        <ele>-17.799999237061</ele>
        <time>2021-08-22T09:27:14.000Z</time>
      </trkpt>
      <trkpt lat="47.29296" lon="-2.24549">
        <ele>-17.799999237061</ele>
        <time>2021-08-22T09:27:20.000Z</time>
      </trkpt>
      <trkpt lat="47.29295" lon="-2.245">
        <ele>-17.799999237061</ele>
        <time>2021-08-22T09:27:27.000Z</time>
      </trkpt>
      <trkpt lat="47.29296" lon="-2.24461">
        <ele>-17.799999237061</ele>
        <time>2021-08-22T09:27:33.000Z</time>
      </trkpt>
      <trkpt lat="47.29312" lon="-2.24441">
        <ele>-17.799999237061</ele>
        <time>2021-08-22T09:27:37.000Z</time>
      </trkpt>
      <trkpt lat="47.29316" lon="-2.24437">
        <ele>-17.799999237061</ele>
        <time>2021-08-22T09:27:38.000Z</time>
      </trkpt>
      <trkpt lat="47.29344" lon="-2.24407">
        <ele>-17.799999237061</ele>
        <time>2021-08-22T09:27:44.000Z</time>
      </trkpt>
      <trkpt lat="47.29376" lon="-2.24372">
        <ele>-17.799999237061</ele>
        <time>2021-08-22T09:27:51.000Z</time>
      </trkpt>
      <trkpt lat="47.2941" lon="-2.24338">
        <ele>-17.799999237061</ele>
        <time>2021-08-22T09:27:58.000Z</time>
      </trkpt>
      <trkpt lat="47.29443" lon="-2.24313">
        <ele>-17.799999237061</ele>
        <time>2021-08-22T09:28:04.000Z</time>
      </trkpt>
      <trkpt lat="47.29449" lon="-2.24312">
        <ele>-17.799999237061</ele>
        <time>2021-08-22T09:28:05.000Z</time>
      </trkpt>
      <trkpt lat="47.29456" lon="-2.2431">
        <ele>-18.200000762939</ele>
        <time>2021-08-22T09:28:06.000Z</time>
      </trkpt>
      <trkpt lat="47.29462" lon="-2.24308">
        <ele>-18.60000038147</ele>
        <time>2021-08-22T09:28:07.000Z</time>
      </trkpt>
      <trkpt lat="47.29469" lon="-2.24306">
        <ele>-19</ele>
        <time>2021-08-22T09:28:08.000Z</time>
      </trkpt>
      <trkpt lat="47.29476" lon="-2.24303">
        <ele>-19.39999961853</ele>
        <time>2021-08-22T09:28:09.000Z</time>
      </trkpt>
      <trkpt lat="47.29483" lon="-2.24301">
        <ele>-19.799999237061</ele>
        <time>2021-08-22T09:28:10.000Z</time>
      </trkpt>
      <trkpt lat="47.2952" lon="-2.24285">
        <ele>-20.200000762939</ele>
        <time>2021-08-22T09:28:15.000Z</time>
      </trkpt>
      <trkpt lat="47.29528" lon="-2.24283">
        <ele>-20.60000038147</ele>
        <time>2021-08-22T09:28:16.000Z</time>
      </trkpt>
      <trkpt lat="47.29535" lon="-2.24281">
        <ele>-21</ele>
        <time>2021-08-22T09:28:17.000Z</time>
      </trkpt>
      <trkpt lat="47.29541" lon="-2.24282">
        <ele>-21.39999961853</ele>
        <time>2021-08-22T09:28:18.000Z</time>
      </trkpt>
      <trkpt lat="47.29545" lon="-2.24281">
        <ele>-22</ele>
        <time>2021-08-22T09:28:19.000Z</time>
      </trkpt>
      <trkpt lat="47.2955" lon="-2.24282">
        <ele>-22.60000038147</ele>
        <time>2021-08-22T09:28:20.000Z</time>
      </trkpt>
      <trkpt lat="47.29554" lon="-2.24283">
        <ele>-23.200000762939</ele>
        <time>2021-08-22T09:28:21.000Z</time>
      </trkpt>
      <trkpt lat="47.29559" lon="-2.24288">
        <ele>-23.799999237061</ele>
        <time>2021-08-22T09:28:22.000Z</time>
      </trkpt>
      <trkpt lat="47.29562" lon="-2.24295">
        <ele>-24.39999961853</ele>
        <time>2021-08-22T09:28:23.000Z</time>
      </trkpt>
      <trkpt lat="47.29565" lon="-2.243">
        <ele>-24.39999961853</ele>
        <time>2021-08-22T09:28:24.000Z</time>
      </trkpt>
      <trkpt lat="47.29569" lon="-2.24305">
        <ele>-24.39999961853</ele>
        <time>2021-08-22T09:28:25.000Z</time>
      </trkpt>
      <trkpt lat="47.29578" lon="-2.24312">
        <ele>-24.39999961853</ele>
        <time>2021-08-22T09:28:27.000Z</time>
      </trkpt>
      <trkpt lat="47.29592" lon="-2.24312">
        <ele>-24.39999961853</ele>
        <time>2021-08-22T09:28:30.000Z</time>
      </trkpt>
      <trkpt lat="47.29597" lon="-2.24311">
        <ele>-24.39999961853</ele>
        <time>2021-08-22T09:28:31.000Z</time>
      </trkpt>
      <trkpt lat="47.29629" lon="-2.24305">
        <ele>-24.39999961853</ele>
        <time>2021-08-22T09:28:37.000Z</time>
      </trkpt>
      <trkpt lat="47.29634" lon="-2.24303">
        <ele>-24</ele>
        <time>2021-08-22T09:28:38.000Z</time>
      </trkpt>
      <trkpt lat="47.2964" lon="-2.24301">
        <ele>-23.60000038147</ele>
        <time>2021-08-22T09:28:39.000Z</time>
      </trkpt>
      <trkpt lat="47.29645" lon="-2.24298">
        <ele>-23.200000762939</ele>
        <time>2021-08-22T09:28:40.000Z</time>
      </trkpt>
      <trkpt lat="47.2965" lon="-2.24294">
        <ele>-22.799999237061</ele>
        <time>2021-08-22T09:28:41.000Z</time>
      </trkpt>
      <trkpt lat="47.29655" lon="-2.24291">
        <ele>-22.200000762939</ele>
        <time>2021-08-22T09:28:42.000Z</time>
      </trkpt>
      <trkpt lat="47.2966" lon="-2.24288">
        <ele>-22.200000762939</ele>
        <time>2021-08-22T09:28:43.000Z</time>
      </trkpt>
      <trkpt lat="47.2969" lon="-2.24271">
        <ele>-22.200000762939</ele>
        <time>2021-08-22T09:28:49.000Z</time>
      </trkpt>
      <trkpt lat="47.29704" lon="-2.24262">
        <ele>-21.799999237061</ele>
        <time>2021-08-22T09:28:52.000Z</time>
      </trkpt>
      <trkpt lat="47.29709" lon="-2.2426">
        <ele>-21.39999961853</ele>
        <time>2021-08-22T09:28:53.000Z</time>
      </trkpt>
      <trkpt lat="47.29714" lon="-2.24257">
        <ele>-21</ele>
        <time>2021-08-22T09:28:54.000Z</time>
      </trkpt>
      <trkpt lat="47.29718" lon="-2.24255">
        <ele>-20.60000038147</ele>
        <time>2021-08-22T09:28:55.000Z</time>
      </trkpt>
      <trkpt lat="47.29723" lon="-2.24253">
        <ele>-20.200000762939</ele>
        <time>2021-08-22T09:28:56.000Z</time>
      </trkpt>
      <trkpt lat="47.29748" lon="-2.24241">
        <ele>-20.200000762939</ele>
        <time>2021-08-22T09:29:01.000Z</time>
      </trkpt>
      <trkpt lat="47.29757" lon="-2.24236">
        <ele>-19.799999237061</ele>
        <time>2021-08-22T09:29:03.000Z</time>
      </trkpt>
      <trkpt lat="47.29762" lon="-2.24234">
        <ele>-19.39999961853</ele>
        <time>2021-08-22T09:29:04.000Z</time>
      </trkpt>
      <trkpt lat="47.29766" lon="-2.24231">
        <ele>-19</ele>
        <time>2021-08-22T09:29:05.000Z</time>
      </trkpt>
      <trkpt lat="47.2977" lon="-2.24229">
        <ele>-18.39999961853</ele>
        <time>2021-08-22T09:29:06.000Z</time>
      </trkpt>
      <trkpt lat="47.29775" lon="-2.24227">
        <ele>-18</ele>
        <time>2021-08-22T09:29:07.000Z</time>
      </trkpt>
      <trkpt lat="47.29783" lon="-2.24222">
        <ele>-18</ele>
        <time>2021-08-22T09:29:09.000Z</time>
      </trkpt>
      <trkpt lat="47.29797" lon="-2.24217">
        <ele>-18</ele>
        <time>2021-08-22T09:29:12.000Z</time>
      </trkpt>
      <trkpt lat="47.29801" lon="-2.24217">
        <ele>-17.60000038147</ele>
        <time>2021-08-22T09:29:13.000Z</time>
      </trkpt>
      <trkpt lat="47.29806" lon="-2.24216">
        <ele>-17.200000762939</ele>
        <time>2021-08-22T09:29:14.000Z</time>
      </trkpt>
      <trkpt lat="47.2981" lon="-2.24218">
        <ele>-16.799999237061</ele>
        <time>2021-08-22T09:29:15.000Z</time>
      </trkpt>
      <trkpt lat="47.29814" lon="-2.24222">
        <ele>-16.39999961853</ele>
        <time>2021-08-22T09:29:16.000Z</time>
      </trkpt>
      <trkpt lat="47.29819" lon="-2.24224">
        <ele>-15.800000190735</ele>
        <time>2021-08-22T09:29:17.000Z</time>
      </trkpt>
      <trkpt lat="47.29838" lon="-2.24233">
        <ele>-15.800000190735</ele>
        <time>2021-08-22T09:29:22.000Z</time>
      </trkpt>
      <trkpt lat="47.29842" lon="-2.24235">
        <ele>-15.39999961853</ele>
        <time>2021-08-22T09:29:23.000Z</time>
      </trkpt>
      <trkpt lat="47.29846" lon="-2.24236">
        <ele>-15</ele>
        <time>2021-08-22T09:29:24.000Z</time>
      </trkpt>
      <trkpt lat="47.2985" lon="-2.24238">
        <ele>-14.60000038147</ele>
        <time>2021-08-22T09:29:25.000Z</time>
      </trkpt>
      <trkpt lat="47.29854" lon="-2.2424">
        <ele>-14.199999809265</ele>
        <time>2021-08-22T09:29:26.000Z</time>
      </trkpt>
      <trkpt lat="47.29858" lon="-2.24242">
        <ele>-13.800000190735</ele>
        <time>2021-08-22T09:29:27.000Z</time>
      </trkpt>
      <trkpt lat="47.29866" lon="-2.24246">
        <ele>-13.800000190735</ele>
        <time>2021-08-22T09:29:29.000Z</time>
      </trkpt>
      <trkpt lat="47.29875" lon="-2.24251">
        <ele>-13.800000190735</ele>
        <time>2021-08-22T09:29:31.000Z</time>
      </trkpt>
      <trkpt lat="47.29894" lon="-2.24265">
        <ele>-13.800000190735</ele>
        <time>2021-08-22T09:29:35.000Z</time>
      </trkpt>
      <trkpt lat="47.29908" lon="-2.24277">
        <ele>-13.800000190735</ele>
        <time>2021-08-22T09:29:38.000Z</time>
      </trkpt>
      <trkpt lat="47.29919" lon="-2.24284">
        <ele>-13.800000190735</ele>
        <time>2021-08-22T09:29:40.000Z</time>
      </trkpt>
      <trkpt lat="47.29939" lon="-2.24299">
        <ele>-13.800000190735</ele>
        <time>2021-08-22T09:29:44.000Z</time>
      </trkpt>
      <trkpt lat="47.29943" lon="-2.24306">
        <ele>-13.800000190735</ele>
        <time>2021-08-22T09:29:45.000Z</time>
      </trkpt>
      <trkpt lat="47.29958" lon="-2.24325">
        <ele>-13.800000190735</ele>
        <time>2021-08-22T09:29:49.000Z</time>
      </trkpt>
      <trkpt lat="47.29965" lon="-2.24332">
        <ele>-13.800000190735</ele>
        <time>2021-08-22T09:29:51.000Z</time>
      </trkpt>
      <trkpt lat="47.29979" lon="-2.24347">
        <ele>-13.800000190735</ele>
        <time>2021-08-22T09:29:55.000Z</time>
      </trkpt>
      <trkpt lat="47.29986" lon="-2.24354">
        <ele>-13.800000190735</ele>
        <time>2021-08-22T09:29:57.000Z</time>
      </trkpt>
      <trkpt lat="47.29995" lon="-2.2436">
        <ele>-13.800000190735</ele>
        <time>2021-08-22T09:30:00.000Z</time>
      </trkpt>
      <trkpt lat="47.29998" lon="-2.24358">
        <ele>-13.800000190735</ele>
        <time>2021-08-22T09:30:01.000Z</time>
      </trkpt>
      <trkpt lat="47.30002" lon="-2.24345">
        <ele>-13.800000190735</ele>
        <time>2021-08-22T09:30:04.000Z</time>
      </trkpt>
      <trkpt lat="47.30009" lon="-2.24316">
        <ele>-13.800000190735</ele>
        <time>2021-08-22T09:30:11.000Z</time>
      </trkpt>
      <trkpt lat="47.30016" lon="-2.24301">
        <ele>-13.800000190735</ele>
        <time>2021-08-22T09:30:15.000Z</time>
      </trkpt>
      <trkpt lat="47.30021" lon="-2.24285">
        <ele>-13.800000190735</ele>
        <time>2021-08-22T09:30:20.000Z</time>
      </trkpt>
      <trkpt lat="47.30027" lon="-2.24266">
        <ele>-13.800000190735</ele>
        <time>2021-08-22T09:30:25.000Z</time>
      </trkpt>
      <trkpt lat="47.30026" lon="-2.24243">
        <ele>-14.199999809265</ele>
        <time>2021-08-22T09:30:29.000Z</time>
      </trkpt>
      <trkpt lat="47.30026" lon="-2.24235">
        <ele>-14.60000038147</ele>
        <time>2021-08-22T09:30:30.000Z</time>
      </trkpt>
      <trkpt lat="47.30026" lon="-2.24226">
        <ele>-15.199999809265</ele>
        <time>2021-08-22T09:30:31.000Z</time>
      </trkpt>
      <trkpt lat="47.30027" lon="-2.2422">
        <ele>-15.60000038147</ele>
        <time>2021-08-22T09:30:32.000Z</time>
      </trkpt>
      <trkpt lat="47.30028" lon="-2.24214">
        <ele>-16</ele>
        <time>2021-08-22T09:30:33.000Z</time>
      </trkpt>
      <trkpt lat="47.30029" lon="-2.242">
        <ele>-16</ele>
        <time>2021-08-22T09:30:35.000Z</time>
      </trkpt>
      <trkpt lat="47.3003" lon="-2.24192">
        <ele>-16.39999961853</ele>
        <time>2021-08-22T09:30:36.000Z</time>
      </trkpt>
      <trkpt lat="47.3003" lon="-2.24186">
        <ele>-16.799999237061</ele>
        <time>2021-08-22T09:30:37.000Z</time>
      </trkpt>
      <trkpt lat="47.30031" lon="-2.2418">
        <ele>-17.39999961853</ele>
        <time>2021-08-22T09:30:38.000Z</time>
      </trkpt>
      <trkpt lat="47.3003" lon="-2.24174">
        <ele>-17.799999237061</ele>
        <time>2021-08-22T09:30:39.000Z</time>
      </trkpt>
      <trkpt lat="47.3003" lon="-2.24169">
        <ele>-18.200000762939</ele>
        <time>2021-08-22T09:30:40.000Z</time>
      </trkpt>
      <trkpt lat="47.30028" lon="-2.24166">
        <ele>-19.200000762939</ele>
        <time>2021-08-22T09:30:41.000Z</time>
      </trkpt>
      <trkpt lat="47.30027" lon="-2.24161">
        <ele>-19.799999237061</ele>
        <time>2021-08-22T09:30:42.000Z</time>
      </trkpt>
      <trkpt lat="47.30026" lon="-2.24158">
        <ele>-20.200000762939</ele>
        <time>2021-08-22T09:30:43.000Z</time>
      </trkpt>
      <trkpt lat="47.30025" lon="-2.24155">
        <ele>-20.200000762939</ele>
        <time>2021-08-22T09:30:44.000Z</time>
      </trkpt>
      <trkpt lat="47.30026" lon="-2.24153">
        <ele>-20.200000762939</ele>
        <time>2021-08-22T09:30:45.000Z</time>
      </trkpt>
      <trkpt lat="47.3003" lon="-2.24146">
        <ele>-20.200000762939</ele>
        <time>2021-08-22T09:30:49.000Z</time>
      </trkpt>
      <trkpt lat="47.30047" lon="-2.24128">
        <ele>-20.200000762939</ele>
        <time>2021-08-22T09:30:56.000Z</time>
      </trkpt>
      <trkpt lat="47.30066" lon="-2.24113">
        <ele>-20.200000762939</ele>
        <time>2021-08-22T09:31:02.000Z</time>
      </trkpt>
      <trkpt lat="47.30074" lon="-2.24108">
        <ele>-19.799999237061</ele>
        <time>2021-08-22T09:31:04.000Z</time>
      </trkpt>
      <trkpt lat="47.30077" lon="-2.24107">
        <ele>-19.39999961853</ele>
        <time>2021-08-22T09:31:05.000Z</time>
      </trkpt>
      <trkpt lat="47.3008" lon="-2.24105">
        <ele>-18.60000038147</ele>
        <time>2021-08-22T09:31:06.000Z</time>
      </trkpt>
      <trkpt lat="47.30084" lon="-2.24103">
        <ele>-18.200000762939</ele>
        <time>2021-08-22T09:31:07.000Z</time>
      </trkpt>
      <trkpt lat="47.30088" lon="-2.24101">
        <ele>-18.200000762939</ele>
        <time>2021-08-22T09:31:08.000Z</time>
      </trkpt>
      <trkpt lat="47.30115" lon="-2.24086">
        <ele>-18.200000762939</ele>
        <time>2021-08-22T09:31:13.000Z</time>
      </trkpt>
      <trkpt lat="47.3013" lon="-2.24079">
        <ele>-18.200000762939</ele>
        <time>2021-08-22T09:31:16.000Z</time>
      </trkpt>
      <trkpt lat="47.30135" lon="-2.24078">
        <ele>-18.200000762939</ele>
        <time>2021-08-22T09:31:17.000Z</time>
      </trkpt>
      <trkpt lat="47.3014" lon="-2.24075">
        <ele>-18.200000762939</ele>
        <time>2021-08-22T09:31:18.000Z</time>
      </trkpt>
      <trkpt lat="47.30157" lon="-2.24065">
        <ele>-18.200000762939</ele>
        <time>2021-08-22T09:31:21.000Z</time>
      </trkpt>
      <trkpt lat="47.3017" lon="-2.2406">
        <ele>-18.200000762939</ele>
        <time>2021-08-22T09:31:23.000Z</time>
      </trkpt>
      <trkpt lat="47.30181" lon="-2.24058">
        <ele>-18.200000762939</ele>
        <time>2021-08-22T09:31:25.000Z</time>
      </trkpt>
      <trkpt lat="47.30192" lon="-2.24057">
        <ele>-18.200000762939</ele>
        <time>2021-08-22T09:31:27.000Z</time>
      </trkpt>
      <trkpt lat="47.30218" lon="-2.24057">
        <ele>-18.200000762939</ele>
        <time>2021-08-22T09:31:31.000Z</time>
      </trkpt>
      <trkpt lat="47.30229" lon="-2.24058">
        <ele>-18.200000762939</ele>
        <time>2021-08-22T09:31:33.000Z</time>
      </trkpt>
      <trkpt lat="47.30269" lon="-2.24061">
        <ele>-18.200000762939</ele>
        <time>2021-08-22T09:31:40.000Z</time>
      </trkpt>
      <trkpt lat="47.3028" lon="-2.24047">
        <ele>-18.60000038147</ele>
        <time>2021-08-22T09:31:43.000Z</time>
      </trkpt>
      <trkpt lat="47.30283" lon="-2.24041">
        <ele>-19</ele>
        <time>2021-08-22T09:31:44.000Z</time>
      </trkpt>
      <trkpt lat="47.30283" lon="-2.24034">
        <ele>-19.39999961853</ele>
        <time>2021-08-22T09:31:45.000Z</time>
      </trkpt>
      <trkpt lat="47.30283" lon="-2.24024">
        <ele>-20</ele>
        <time>2021-08-22T09:31:46.000Z</time>
      </trkpt>
      <trkpt lat="47.30283" lon="-2.24015">
        <ele>-20.39999961853</ele>
        <time>2021-08-22T09:31:47.000Z</time>
      </trkpt>
      <trkpt lat="47.30281" lon="-2.24005">
        <ele>-20.39999961853</ele>
        <time>2021-08-22T09:31:48.000Z</time>
      </trkpt>
      <trkpt lat="47.30274" lon="-2.23973">
        <ele>-20.39999961853</ele>
        <time>2021-08-22T09:31:51.000Z</time>
      </trkpt>
      <trkpt lat="47.30271" lon="-2.23962">
        <ele>-20.799999237061</ele>
        <time>2021-08-22T09:31:52.000Z</time>
      </trkpt>
      <trkpt lat="47.30268" lon="-2.23951">
        <ele>-21.200000762939</ele>
        <time>2021-08-22T09:31:53.000Z</time>
      </trkpt>
      <trkpt lat="47.30265" lon="-2.23941">
        <ele>-21.60000038147</ele>
        <time>2021-08-22T09:31:54.000Z</time>
      </trkpt>
      <trkpt lat="47.30263" lon="-2.23931">
        <ele>-22.39999961853</ele>
        <time>2021-08-22T09:31:55.000Z</time>
      </trkpt>
      <trkpt lat="47.30262" lon="-2.23921">
        <ele>-22.39999961853</ele>
        <time>2021-08-22T09:31:56.000Z</time>
      </trkpt>
      <trkpt lat="47.30263" lon="-2.23911">
        <ele>-23</ele>
        <time>2021-08-22T09:31:57.000Z</time>
      </trkpt>
      <trkpt lat="47.30264" lon="-2.23902">
        <ele>-23.39999961853</ele>
        <time>2021-08-22T09:31:58.000Z</time>
      </trkpt>
      <trkpt lat="47.30266" lon="-2.23894">
        <ele>-23.799999237061</ele>
        <time>2021-08-22T09:31:59.000Z</time>
      </trkpt>
      <trkpt lat="47.3027" lon="-2.23888">
        <ele>-24.39999961853</ele>
        <time>2021-08-22T09:32:00.000Z</time>
      </trkpt>
      <trkpt lat="47.30272" lon="-2.23886">
        <ele>-24.799999237061</ele>
        <time>2021-08-22T09:32:01.000Z</time>
      </trkpt>
      <trkpt lat="47.30274" lon="-2.23885">
        <ele>-24.799999237061</ele>
        <time>2021-08-22T09:32:02.000Z</time>
      </trkpt>
      <trkpt lat="47.30289" lon="-2.23883">
        <ele>-24.799999237061</ele>
        <time>2021-08-22T09:32:08.000Z</time>
      </trkpt>
      <trkpt lat="47.30307" lon="-2.23877">
        <ele>-24.799999237061</ele>
        <time>2021-08-22T09:32:13.000Z</time>
      </trkpt>
      <trkpt lat="47.30333" lon="-2.23864">
        <ele>-24.799999237061</ele>
        <time>2021-08-22T09:32:20.000Z</time>
      </trkpt>
      <trkpt lat="47.30358" lon="-2.23856">
        <ele>-24.799999237061</ele>
        <time>2021-08-22T09:32:26.000Z</time>
      </trkpt>
      <trkpt lat="47.30376" lon="-2.2385">
        <ele>-24.799999237061</ele>
        <time>2021-08-22T09:32:31.000Z</time>
      </trkpt>
      <trkpt lat="47.3039" lon="-2.23848">
        <ele>-25.200000762939</ele>
        <time>2021-08-22T09:32:35.000Z</time>
      </trkpt>
      <trkpt lat="47.30393" lon="-2.23848">
        <ele>-25.60000038147</ele>
        <time>2021-08-22T09:32:36.000Z</time>
      </trkpt>
      <trkpt lat="47.30396" lon="-2.23847">
        <ele>-26</ele>
        <time>2021-08-22T09:32:37.000Z</time>
      </trkpt>
      <trkpt lat="47.30399" lon="-2.23847">
        <ele>-26.39999961853</ele>
        <time>2021-08-22T09:32:38.000Z</time>
      </trkpt>
      <trkpt lat="47.30402" lon="-2.23847">
        <ele>-26.799999237061</ele>
        <time>2021-08-22T09:32:39.000Z</time>
      </trkpt>
      <trkpt lat="47.30415" lon="-2.23844">
        <ele>-26.799999237061</ele>
        <time>2021-08-22T09:32:44.000Z</time>
      </trkpt>
      <trkpt lat="47.30435" lon="-2.23843">
        <ele>-26.799999237061</ele>
        <time>2021-08-22T09:32:53.000Z</time>
      </trkpt>
      <trkpt lat="47.30452" lon="-2.2384">
        <ele>-26.799999237061</ele>
        <time>2021-08-22T09:33:01.000Z</time>
      </trkpt>
      <trkpt lat="47.30463" lon="-2.23838">
        <ele>-26.799999237061</ele>
        <time>2021-08-22T09:33:07.000Z</time>
      </trkpt>
      <trkpt lat="47.30465" lon="-2.23838">
        <ele>-26.799999237061</ele>
        <time>2021-08-22T09:33:09.000Z</time>
      </trkpt>
      <trkpt lat="47.30468" lon="-2.23837">
        <ele>-26.799999237061</ele>
        <time>2021-08-22T09:33:23.000Z</time>
      </trkpt>
      <trkpt lat="47.3047" lon="-2.23837">
        <ele>-26.799999237061</ele>
        <time>2021-08-22T09:33:24.000Z</time>
      </trkpt>
      <trkpt lat="47.30476" lon="-2.23835">
        <ele>-26.799999237061</ele>
        <time>2021-08-22T09:33:27.000Z</time>
      </trkpt>
      <trkpt lat="47.30481" lon="-2.23837">
        <ele>-26.799999237061</ele>
        <time>2021-08-22T09:33:29.000Z</time>
      </trkpt>
      <trkpt lat="47.3049" lon="-2.23843">
        <ele>-26.799999237061</ele>
        <time>2021-08-22T09:33:35.000Z</time>
      </trkpt>
      <trkpt lat="47.30498" lon="-2.2385">
        <ele>-26.799999237061</ele>
        <time>2021-08-22T09:33:41.000Z</time>
      </trkpt>
      <trkpt lat="47.3051" lon="-2.23866">
        <ele>-26.799999237061</ele>
        <time>2021-08-22T09:33:48.000Z</time>
      </trkpt>
      <trkpt lat="47.3052" lon="-2.23883">
        <ele>-26.799999237061</ele>
        <time>2021-08-22T09:33:53.000Z</time>
      </trkpt>
      <trkpt lat="47.30534" lon="-2.23902">
        <ele>-26.799999237061</ele>
        <time>2021-08-22T09:34:00.000Z</time>
      </trkpt>
      <trkpt lat="47.30549" lon="-2.23925">
        <ele>-26.799999237061</ele>
        <time>2021-08-22T09:34:07.000Z</time>
      </trkpt>
      <trkpt lat="47.30549" lon="-2.23943">
        <ele>-26.799999237061</ele>
        <time>2021-08-22T09:34:11.000Z</time>
      </trkpt>
      <trkpt lat="47.3054" lon="-2.23956">
        <ele>-26.799999237061</ele>
        <time>2021-08-22T09:34:15.000Z</time>
      </trkpt>
      <trkpt lat="47.30528" lon="-2.23973">
        <ele>-26.799999237061</ele>
        <time>2021-08-22T09:34:20.000Z</time>
      </trkpt>
      <trkpt lat="47.3052" lon="-2.23982">
        <ele>-26.39999961853</ele>
        <time>2021-08-22T09:34:23.000Z</time>
      </trkpt>
      <trkpt lat="47.30517" lon="-2.23986">
        <ele>-25.39999961853</ele>
        <time>2021-08-22T09:34:24.000Z</time>
      </trkpt>
      <trkpt lat="47.30514" lon="-2.23989">
        <ele>-25</ele>
        <time>2021-08-22T09:34:25.000Z</time>
      </trkpt>
      <trkpt lat="47.30511" lon="-2.23992">
        <ele>-24.60000038147</ele>
        <time>2021-08-22T09:34:26.000Z</time>
      </trkpt>
      <trkpt lat="47.30498" lon="-2.24012">
        <ele>-24.60000038147</ele>
        <time>2021-08-22T09:34:31.000Z</time>
      </trkpt>
      <trkpt lat="47.30494" lon="-2.24015">
        <ele>-24.200000762939</ele>
        <time>2021-08-22T09:34:32.000Z</time>
      </trkpt>
      <trkpt lat="47.30491" lon="-2.24018">
        <ele>-23.799999237061</ele>
        <time>2021-08-22T09:34:33.000Z</time>
      </trkpt>
      <trkpt lat="47.30488" lon="-2.24021">
        <ele>-23.200000762939</ele>
        <time>2021-08-22T09:34:34.000Z</time>
      </trkpt>
      <trkpt lat="47.30485" lon="-2.24024">
        <ele>-22.799999237061</ele>
        <time>2021-08-22T09:34:35.000Z</time>
      </trkpt>
      <trkpt lat="47.30482" lon="-2.24027">
        <ele>-22.39999961853</ele>
        <time>2021-08-22T09:34:36.000Z</time>
      </trkpt>
      <trkpt lat="47.30476" lon="-2.24032">
        <ele>-22</ele>
        <time>2021-08-22T09:34:38.000Z</time>
      </trkpt>
      <trkpt lat="47.30473" lon="-2.24034">
        <ele>-21.60000038147</ele>
        <time>2021-08-22T09:34:39.000Z</time>
      </trkpt>
      <trkpt lat="47.3047" lon="-2.24035">
        <ele>-21.200000762939</ele>
        <time>2021-08-22T09:34:40.000Z</time>
      </trkpt>
      <trkpt lat="47.30467" lon="-2.24036">
        <ele>-20.799999237061</ele>
        <time>2021-08-22T09:34:41.000Z</time>
      </trkpt>
      <trkpt lat="47.30463" lon="-2.24038">
        <ele>-20.200000762939</ele>
        <time>2021-08-22T09:34:42.000Z</time>
      </trkpt>
      <trkpt lat="47.3046" lon="-2.2404">
        <ele>-20.200000762939</ele>
        <time>2021-08-22T09:34:43.000Z</time>
      </trkpt>
      <trkpt lat="47.3045" lon="-2.24049">
        <ele>-19.799999237061</ele>
        <time>2021-08-22T09:34:46.000Z</time>
      </trkpt>
      <trkpt lat="47.30447" lon="-2.24053">
        <ele>-19.39999961853</ele>
        <time>2021-08-22T09:34:47.000Z</time>
      </trkpt>
      <trkpt lat="47.30444" lon="-2.24056">
        <ele>-19</ele>
        <time>2021-08-22T09:34:48.000Z</time>
      </trkpt>
      <trkpt lat="47.30441" lon="-2.2406">
        <ele>-18</ele>
        <time>2021-08-22T09:34:49.000Z</time>
      </trkpt>
      <trkpt lat="47.30421" lon="-2.24085">
        <ele>-18</ele>
        <time>2021-08-22T09:34:56.000Z</time>
      </trkpt>
      <trkpt lat="47.30415" lon="-2.2409">
        <ele>-17.60000038147</ele>
        <time>2021-08-22T09:34:58.000Z</time>
      </trkpt>
      <trkpt lat="47.30413" lon="-2.24093">
        <ele>-17.200000762939</ele>
        <time>2021-08-22T09:34:59.000Z</time>
      </trkpt>
      <trkpt lat="47.3041" lon="-2.24096">
        <ele>-16.60000038147</ele>
        <time>2021-08-22T09:35:00.000Z</time>
      </trkpt>
      <trkpt lat="47.30407" lon="-2.24099">
        <ele>-16.200000762939</ele>
        <time>2021-08-22T09:35:01.000Z</time>
      </trkpt>
      <trkpt lat="47.30405" lon="-2.24103">
        <ele>-15.800000190735</ele>
        <time>2021-08-22T09:35:02.000Z</time>
      </trkpt>
      <trkpt lat="47.30389" lon="-2.24121">
        <ele>-15.39999961853</ele>
        <time>2021-08-22T09:35:08.000Z</time>
      </trkpt>
      <trkpt lat="47.30385" lon="-2.24124">
        <ele>-15</ele>
        <time>2021-08-22T09:35:09.000Z</time>
      </trkpt>
      <trkpt lat="47.30381" lon="-2.24127">
        <ele>-14.60000038147</ele>
        <time>2021-08-22T09:35:10.000Z</time>
      </trkpt>
      <trkpt lat="47.30378" lon="-2.2413">
        <ele>-14</ele>
        <time>2021-08-22T09:35:11.000Z</time>
      </trkpt>
      <trkpt lat="47.30374" lon="-2.24135">
        <ele>-13.60000038147</ele>
        <time>2021-08-22T09:35:12.000Z</time>
      </trkpt>
      <trkpt lat="47.30366" lon="-2.24144">
        <ele>-13.60000038147</ele>
        <time>2021-08-22T09:35:14.000Z</time>
      </trkpt>
      <trkpt lat="47.30362" lon="-2.24149">
        <ele>-13.60000038147</ele>
        <time>2021-08-22T09:35:15.000Z</time>
      </trkpt>
      <trkpt lat="47.30349" lon="-2.24174">
        <ele>-13.60000038147</ele>
        <time>2021-08-22T09:35:19.000Z</time>
      </trkpt>
      <trkpt lat="47.3035" lon="-2.24195">
        <ele>-14</ele>
        <time>2021-08-22T09:35:22.000Z</time>
      </trkpt>
      <trkpt lat="47.30352" lon="-2.242">
        <ele>-14.60000038147</ele>
        <time>2021-08-22T09:35:23.000Z</time>
      </trkpt>
      <trkpt lat="47.30355" lon="-2.24205">
        <ele>-15</ele>
        <time>2021-08-22T09:35:24.000Z</time>
      </trkpt>
      <trkpt lat="47.30359" lon="-2.2421">
        <ele>-15.39999961853</ele>
        <time>2021-08-22T09:35:25.000Z</time>
      </trkpt>
      <trkpt lat="47.30363" lon="-2.24214">
        <ele>-15.800000190735</ele>
        <time>2021-08-22T09:35:26.000Z</time>
      </trkpt>
      <trkpt lat="47.30368" lon="-2.24219">
        <ele>-15.800000190735</ele>
        <time>2021-08-22T09:35:27.000Z</time>
      </trkpt>
      <trkpt lat="47.30386" lon="-2.24238">
        <ele>-15.800000190735</ele>
        <time>2021-08-22T09:35:31.000Z</time>
      </trkpt>
      <trkpt lat="47.30414" lon="-2.24266">
        <ele>-15.800000190735</ele>
        <time>2021-08-22T09:35:37.000Z</time>
      </trkpt>
      <trkpt lat="47.30419" lon="-2.24269">
        <ele>-15.800000190735</ele>
        <time>2021-08-22T09:35:38.000Z</time>
      </trkpt>
      <trkpt lat="47.30437" lon="-2.24275">
        <ele>-15.800000190735</ele>
        <time>2021-08-22T09:35:41.000Z</time>
      </trkpt>
      <trkpt lat="47.30442" lon="-2.24276">
        <ele>-15.800000190735</ele>
        <time>2021-08-22T09:35:42.000Z</time>
      </trkpt>
      <trkpt lat="47.30466" lon="-2.24283">
        <ele>-15.800000190735</ele>
        <time>2021-08-22T09:35:46.000Z</time>
      </trkpt>
      <trkpt lat="47.30481" lon="-2.2429">
        <ele>-15.800000190735</ele>
        <time>2021-08-22T09:35:49.000Z</time>
      </trkpt>
      <trkpt lat="47.30496" lon="-2.24298">
        <ele>-15.800000190735</ele>
        <time>2021-08-22T09:35:52.000Z</time>
      </trkpt>
      <trkpt lat="47.30509" lon="-2.2431">
        <ele>-15.800000190735</ele>
        <time>2021-08-22T09:35:55.000Z</time>
      </trkpt>
      <trkpt lat="47.30534" lon="-2.24336">
        <ele>-15.800000190735</ele>
        <time>2021-08-22T09:36:01.000Z</time>
      </trkpt>
      <trkpt lat="47.30569" lon="-2.24374">
        <ele>-15.800000190735</ele>
        <time>2021-08-22T09:36:09.000Z</time>
      </trkpt>
      <trkpt lat="47.30599" lon="-2.24408">
        <ele>-15.800000190735</ele>
        <time>2021-08-22T09:36:15.000Z</time>
      </trkpt>
      <trkpt lat="47.30604" lon="-2.24412">
        <ele>-15.800000190735</ele>
        <time>2021-08-22T09:36:16.000Z</time>
      </trkpt>
      <trkpt lat="47.3062" lon="-2.24419">
        <ele>-15.800000190735</ele>
        <time>2021-08-22T09:36:19.000Z</time>
      </trkpt>
      <trkpt lat="47.30634" lon="-2.2443">
        <ele>-16.200000762939</ele>
        <time>2021-08-22T09:36:23.000Z</time>
      </trkpt>
      <trkpt lat="47.30636" lon="-2.24435">
        <ele>-16.60000038147</ele>
        <time>2021-08-22T09:36:24.000Z</time>
      </trkpt>
      <trkpt lat="47.30637" lon="-2.24441">
        <ele>-17</ele>
        <time>2021-08-22T09:36:25.000Z</time>
      </trkpt>
      <trkpt lat="47.30637" lon="-2.24448">
        <ele>-17.39999961853</ele>
        <time>2021-08-22T09:36:26.000Z</time>
      </trkpt>
      <trkpt lat="47.30636" lon="-2.24455">
        <ele>-17.799999237061</ele>
        <time>2021-08-22T09:36:27.000Z</time>
      </trkpt>
      <trkpt lat="47.30634" lon="-2.24473">
        <ele>-18.39999961853</ele>
        <time>2021-08-22T09:36:29.000Z</time>
      </trkpt>
      <trkpt lat="47.30633" lon="-2.24484">
        <ele>-18.799999237061</ele>
        <time>2021-08-22T09:36:30.000Z</time>
      </trkpt>
      <trkpt lat="47.30631" lon="-2.24494">
        <ele>-19.200000762939</ele>
        <time>2021-08-22T09:36:31.000Z</time>
      </trkpt>
      <trkpt lat="47.30629" lon="-2.24505">
        <ele>-19.60000038147</ele>
        <time>2021-08-22T09:36:32.000Z</time>
      </trkpt>
      <trkpt lat="47.30627" lon="-2.24517">
        <ele>-20</ele>
        <time>2021-08-22T09:36:33.000Z</time>
      </trkpt>
      <trkpt lat="47.30621" lon="-2.24553">
        <ele>-20.60000038147</ele>
        <time>2021-08-22T09:36:36.000Z</time>
      </trkpt>
      <trkpt lat="47.3062" lon="-2.24567">
        <ele>-21</ele>
        <time>2021-08-22T09:36:37.000Z</time>
      </trkpt>
      <trkpt lat="47.30618" lon="-2.24581">
        <ele>-21.39999961853</ele>
        <time>2021-08-22T09:36:38.000Z</time>
      </trkpt>
      <trkpt lat="47.30617" lon="-2.24595">
        <ele>-22</ele>
        <time>2021-08-22T09:36:39.000Z</time>
      </trkpt>
      <trkpt lat="47.30617" lon="-2.24608">
        <ele>-22.39999961853</ele>
        <time>2021-08-22T09:36:40.000Z</time>
      </trkpt>
      <trkpt lat="47.3062" lon="-2.24634">
        <ele>-22.39999961853</ele>
        <time>2021-08-22T09:36:42.000Z</time>
      </trkpt>
      <trkpt lat="47.30628" lon="-2.24668">
        <ele>-22.799999237061</ele>
        <time>2021-08-22T09:36:45.000Z</time>
      </trkpt>
      <trkpt lat="47.30632" lon="-2.24678">
        <ele>-23.200000762939</ele>
        <time>2021-08-22T09:36:46.000Z</time>
      </trkpt>
      <trkpt lat="47.30635" lon="-2.24687">
        <ele>-23.799999237061</ele>
        <time>2021-08-22T09:36:47.000Z</time>
      </trkpt>
      <trkpt lat="47.30638" lon="-2.24696">
        <ele>-24.200000762939</ele>
        <time>2021-08-22T09:36:48.000Z</time>
      </trkpt>
      <trkpt lat="47.3064" lon="-2.24704">
        <ele>-24.60000038147</ele>
        <time>2021-08-22T09:36:49.000Z</time>
      </trkpt>
      <trkpt lat="47.30644" lon="-2.24718">
        <ele>-25</ele>
        <time>2021-08-22T09:36:51.000Z</time>
      </trkpt>
      <trkpt lat="47.30646" lon="-2.24725">
        <ele>-26</ele>
        <time>2021-08-22T09:36:52.000Z</time>
      </trkpt>
      <trkpt lat="47.30649" lon="-2.24732">
        <ele>-26.39999961853</ele>
        <time>2021-08-22T09:36:53.000Z</time>
      </trkpt>
      <trkpt lat="47.30651" lon="-2.24737">
        <ele>-26.799999237061</ele>
        <time>2021-08-22T09:36:54.000Z</time>
      </trkpt>
      <trkpt lat="47.30653" lon="-2.24753">
        <ele>-26.799999237061</ele>
        <time>2021-08-22T09:36:57.000Z</time>
      </trkpt>
      <trkpt lat="47.30644" lon="-2.24769">
        <ele>-26.799999237061</ele>
        <time>2021-08-22T09:37:01.000Z</time>
      </trkpt>
      <trkpt lat="47.30642" lon="-2.24773">
        <ele>-26.799999237061</ele>
        <time>2021-08-22T09:37:02.000Z</time>
      </trkpt>
      <trkpt lat="47.30635" lon="-2.24786">
        <ele>-26.799999237061</ele>
        <time>2021-08-22T09:37:05.000Z</time>
      </trkpt>
      <trkpt lat="47.30617" lon="-2.24812">
        <ele>-26.799999237061</ele>
        <time>2021-08-22T09:37:11.000Z</time>
      </trkpt>
      <trkpt lat="47.30597" lon="-2.2485">
        <ele>-26.799999237061</ele>
        <time>2021-08-22T09:37:18.000Z</time>
      </trkpt>
      <trkpt lat="47.30583" lon="-2.24888">
        <ele>-26.799999237061</ele>
        <time>2021-08-22T09:37:24.000Z</time>
      </trkpt>
      <trkpt lat="47.30574" lon="-2.24926">
        <ele>-26.799999237061</ele>
        <time>2021-08-22T09:37:29.000Z</time>
      </trkpt>
      <trkpt lat="47.30572" lon="-2.24942">
        <ele>-26.799999237061</ele>
        <time>2021-08-22T09:37:31.000Z</time>
      </trkpt>
      <trkpt lat="47.30572" lon="-2.2495">
        <ele>-26.799999237061</ele>
        <time>2021-08-22T09:37:32.000Z</time>
      </trkpt>
      <trkpt lat="47.30573" lon="-2.2499">
        <ele>-26.799999237061</ele>
        <time>2021-08-22T09:37:37.000Z</time>
      </trkpt>
      <trkpt lat="47.30576" lon="-2.25031">
        <ele>-26.799999237061</ele>
        <time>2021-08-22T09:37:42.000Z</time>
      </trkpt>
      <trkpt lat="47.3058" lon="-2.25047">
        <ele>-26.799999237061</ele>
        <time>2021-08-22T09:37:44.000Z</time>
      </trkpt>
      <trkpt lat="47.30586" lon="-2.25091">
        <ele>-26.799999237061</ele>
        <time>2021-08-22T09:37:50.000Z</time>
      </trkpt>
      <trkpt lat="47.30595" lon="-2.2513">
        <ele>-26.799999237061</ele>
        <time>2021-08-22T09:37:57.000Z</time>
      </trkpt>
      <trkpt lat="47.30597" lon="-2.25135">
        <ele>-26.799999237061</ele>
        <time>2021-08-22T09:37:58.000Z</time>
      </trkpt>
      <trkpt lat="47.30618" lon="-2.25182">
        <ele>-26.799999237061</ele>
        <time>2021-08-22T09:38:07.000Z</time>
      </trkpt>
      <trkpt lat="47.30632" lon="-2.25216">
        <ele>-26.799999237061</ele>
        <time>2021-08-22T09:38:14.000Z</time>
      </trkpt>
      <trkpt lat="47.3064" lon="-2.25245">
        <ele>-26.799999237061</ele>
        <time>2021-08-22T09:38:21.000Z</time>
      </trkpt>
      <trkpt lat="47.30647" lon="-2.25277">
        <ele>-26.799999237061</ele>
        <time>2021-08-22T09:38:27.000Z</time>
      </trkpt>
      <trkpt lat="47.30655" lon="-2.25312">
        <ele>-26.799999237061</ele>
        <time>2021-08-22T09:38:33.000Z</time>
      </trkpt>
      <trkpt lat="47.3066" lon="-2.25349">
        <ele>-26.799999237061</ele>
        <time>2021-08-22T09:38:40.000Z</time>
      </trkpt>
      <trkpt lat="47.30665" lon="-2.25393">
        <ele>-26.799999237061</ele>
        <time>2021-08-22T09:38:48.000Z</time>
      </trkpt>
      <trkpt lat="47.30667" lon="-2.25407">
        <ele>-26.799999237061</ele>
        <time>2021-08-22T09:38:52.000Z</time>
      </trkpt>
      <trkpt lat="47.30668" lon="-2.25409">
        <ele>-26.799999237061</ele>
        <time>2021-08-22T09:38:53.000Z</time>
      </trkpt>
      <trkpt lat="47.3068" lon="-2.25424">
        <ele>-26.799999237061</ele>
        <time>2021-08-22T09:38:58.000Z</time>
      </trkpt>
      <trkpt lat="47.30702" lon="-2.2543">
        <ele>-26.799999237061</ele>
        <time>2021-08-22T09:39:03.000Z</time>
      </trkpt>
      <trkpt lat="47.30713" lon="-2.25429">
        <ele>-26.799999237061</ele>
        <time>2021-08-22T09:39:05.000Z</time>
      </trkpt>
      <trkpt lat="47.30732" lon="-2.25431">
        <ele>-26.799999237061</ele>
        <time>2021-08-22T09:39:08.000Z</time>
      </trkpt>
      <trkpt lat="47.30759" lon="-2.25426">
        <ele>-26.799999237061</ele>
        <time>2021-08-22T09:39:13.000Z</time>
      </trkpt>
      <trkpt lat="47.30799" lon="-2.25419">
        <ele>-26</ele>
        <time>2021-08-22T09:39:21.000Z</time>
      </trkpt>
      <trkpt lat="47.30804" lon="-2.25419">
        <ele>-25.39999961853</ele>
        <time>2021-08-22T09:39:22.000Z</time>
      </trkpt>
      <trkpt lat="47.30808" lon="-2.25418">
        <ele>-25</ele>
        <time>2021-08-22T09:39:23.000Z</time>
      </trkpt>
      <trkpt lat="47.30813" lon="-2.25417">
        <ele>-24.60000038147</ele>
        <time>2021-08-22T09:39:24.000Z</time>
      </trkpt>
      <trkpt lat="47.30831" lon="-2.25413">
        <ele>-24.200000762939</ele>
        <time>2021-08-22T09:39:28.000Z</time>
      </trkpt>
      <trkpt lat="47.30835" lon="-2.25413">
        <ele>-23.799999237061</ele>
        <time>2021-08-22T09:39:29.000Z</time>
      </trkpt>
      <trkpt lat="47.30838" lon="-2.25412">
        <ele>-23.39999961853</ele>
        <time>2021-08-22T09:39:30.000Z</time>
      </trkpt>
      <trkpt lat="47.30841" lon="-2.25413">
        <ele>-23</ele>
        <time>2021-08-22T09:39:31.000Z</time>
      </trkpt>
      <trkpt lat="47.30844" lon="-2.25414">
        <ele>-22.60000038147</ele>
        <time>2021-08-22T09:39:32.000Z</time>
      </trkpt>
      <trkpt lat="47.30849" lon="-2.25417">
        <ele>-22.60000038147</ele>
        <time>2021-08-22T09:39:34.000Z</time>
      </trkpt>
      <trkpt lat="47.30854" lon="-2.25435">
        <ele>-22.60000038147</ele>
        <time>2021-08-22T09:39:39.000Z</time>
      </trkpt>
      <trkpt lat="47.30857" lon="-2.25478">
        <ele>-22.60000038147</ele>
        <time>2021-08-22T09:39:46.000Z</time>
      </trkpt>
      <trkpt lat="47.3086" lon="-2.25513">
        <ele>-22.200000762939</ele>
        <time>2021-08-22T09:39:51.000Z</time>
      </trkpt>
      <trkpt lat="47.30861" lon="-2.2552">
        <ele>-21.799999237061</ele>
        <time>2021-08-22T09:39:52.000Z</time>
      </trkpt>
      <trkpt lat="47.30862" lon="-2.25527">
        <ele>-21.39999961853</ele>
        <time>2021-08-22T09:39:53.000Z</time>
      </trkpt>
      <trkpt lat="47.30863" lon="-2.25535">
        <ele>-21</ele>
        <time>2021-08-22T09:39:54.000Z</time>
      </trkpt>
      <trkpt lat="47.30864" lon="-2.25544">
        <ele>-20.39999961853</ele>
        <time>2021-08-22T09:39:55.000Z</time>
      </trkpt>
      <trkpt lat="47.3087" lon="-2.25583">
        <ele>-20.39999961853</ele>
        <time>2021-08-22T09:40:00.000Z</time>
      </trkpt>
      <trkpt lat="47.30875" lon="-2.25653">
        <ele>-20.39999961853</ele>
        <time>2021-08-22T09:40:09.000Z</time>
      </trkpt>
      <trkpt lat="47.30877" lon="-2.25675">
        <ele>-20.39999961853</ele>
        <time>2021-08-22T09:40:12.000Z</time>
      </trkpt>
      <trkpt lat="47.30878" lon="-2.25696">
        <ele>-20</ele>
        <time>2021-08-22T09:40:15.000Z</time>
      </trkpt>
      <trkpt lat="47.30878" lon="-2.25704">
        <ele>-19.60000038147</ele>
        <time>2021-08-22T09:40:16.000Z</time>
      </trkpt>
      <trkpt lat="47.30878" lon="-2.25711">
        <ele>-19.200000762939</ele>
        <time>2021-08-22T09:40:17.000Z</time>
      </trkpt>
      <trkpt lat="47.30878" lon="-2.25719">
        <ele>-18.799999237061</ele>
        <time>2021-08-22T09:40:18.000Z</time>
      </trkpt>
      <trkpt lat="47.30877" lon="-2.25726">
        <ele>-18.39999961853</ele>
        <time>2021-08-22T09:40:19.000Z</time>
      </trkpt>
      <trkpt lat="47.30878" lon="-2.2574">
        <ele>-18.39999961853</ele>
        <time>2021-08-22T09:40:21.000Z</time>
      </trkpt>
      <trkpt lat="47.30878" lon="-2.25748">
        <ele>-18.39999961853</ele>
        <time>2021-08-22T09:40:22.000Z</time>
      </trkpt>
      <trkpt lat="47.30887" lon="-2.25791">
        <ele>-18.39999961853</ele>
        <time>2021-08-22T09:40:28.000Z</time>
      </trkpt>
      <trkpt lat="47.309" lon="-2.2583">
        <ele>-18.39999961853</ele>
        <time>2021-08-22T09:40:34.000Z</time>
      </trkpt>
      <trkpt lat="47.30913" lon="-2.25866">
        <ele>-18.39999961853</ele>
        <time>2021-08-22T09:40:40.000Z</time>
      </trkpt>
      <trkpt lat="47.30913" lon="-2.25888">
        <ele>-18.39999961853</ele>
        <time>2021-08-22T09:40:44.000Z</time>
      </trkpt>
      <trkpt lat="47.30908" lon="-2.25898">
        <ele>-18.39999961853</ele>
        <time>2021-08-22T09:40:46.000Z</time>
      </trkpt>
      <trkpt lat="47.309" lon="-2.25908">
        <ele>-18.39999961853</ele>
        <time>2021-08-22T09:40:48.000Z</time>
      </trkpt>
      <trkpt lat="47.30874" lon="-2.2594">
        <ele>-18.39999961853</ele>
        <time>2021-08-22T09:40:54.000Z</time>
      </trkpt>
      <trkpt lat="47.30837" lon="-2.25984">
        <ele>-18.39999961853</ele>
        <time>2021-08-22T09:41:02.000Z</time>
      </trkpt>
      <trkpt lat="47.30812" lon="-2.26009">
        <ele>-18.39999961853</ele>
        <time>2021-08-22T09:41:07.000Z</time>
      </trkpt>
      <trkpt lat="47.30802" lon="-2.26018">
        <ele>-18.39999961853</ele>
        <time>2021-08-22T09:41:09.000Z</time>
      </trkpt>
      <trkpt lat="47.30797" lon="-2.26023">
        <ele>-18.39999961853</ele>
        <time>2021-08-22T09:41:10.000Z</time>
      </trkpt>
      <trkpt lat="47.30767" lon="-2.26042">
        <ele>-18.39999961853</ele>
        <time>2021-08-22T09:41:15.000Z</time>
      </trkpt>
      <trkpt lat="47.30721" lon="-2.26067">
        <ele>-18.39999961853</ele>
        <time>2021-08-22T09:41:22.000Z</time>
      </trkpt>
      <trkpt lat="47.3067" lon="-2.26093">
        <ele>-18.39999961853</ele>
        <time>2021-08-22T09:41:30.000Z</time>
      </trkpt>
      <trkpt lat="47.30629" lon="-2.26118">
        <ele>-18.39999961853</ele>
        <time>2021-08-22T09:41:37.000Z</time>
      </trkpt>
      <trkpt lat="47.30617" lon="-2.26138">
        <ele>-18.39999961853</ele>
        <time>2021-08-22T09:41:40.000Z</time>
      </trkpt>
      <trkpt lat="47.30597" lon="-2.26177">
        <ele>-18.39999961853</ele>
        <time>2021-08-22T09:41:45.000Z</time>
      </trkpt>
      <trkpt lat="47.30583" lon="-2.26221">
        <ele>-18.39999961853</ele>
        <time>2021-08-22T09:41:50.000Z</time>
      </trkpt>
      <trkpt lat="47.30576" lon="-2.26246">
        <ele>-18.799999237061</ele>
        <time>2021-08-22T09:41:53.000Z</time>
      </trkpt>
      <trkpt lat="47.30574" lon="-2.26254">
        <ele>-19.200000762939</ele>
        <time>2021-08-22T09:41:54.000Z</time>
      </trkpt>
      <trkpt lat="47.30571" lon="-2.26263">
        <ele>-19.799999237061</ele>
        <time>2021-08-22T09:41:55.000Z</time>
      </trkpt>
      <trkpt lat="47.30569" lon="-2.26271">
        <ele>-20.200000762939</ele>
        <time>2021-08-22T09:41:56.000Z</time>
      </trkpt>
      <trkpt lat="47.30567" lon="-2.2628">
        <ele>-20.60000038147</ele>
        <time>2021-08-22T09:41:57.000Z</time>
      </trkpt>
      <trkpt lat="47.30554" lon="-2.2633">
        <ele>-20.60000038147</ele>
        <time>2021-08-22T09:42:03.000Z</time>
      </trkpt>
      <trkpt lat="47.30543" lon="-2.2638">
        <ele>-20.60000038147</ele>
        <time>2021-08-22T09:42:09.000Z</time>
      </trkpt>
      <trkpt lat="47.30525" lon="-2.26426">
        <ele>-20.60000038147</ele>
        <time>2021-08-22T09:42:15.000Z</time>
      </trkpt>
      <trkpt lat="47.305" lon="-2.2648">
        <ele>-20.60000038147</ele>
        <time>2021-08-22T09:42:22.000Z</time>
      </trkpt>
      <trkpt lat="47.3049" lon="-2.26501">
        <ele>-20.60000038147</ele>
        <time>2021-08-22T09:42:26.000Z</time>
      </trkpt>
      <trkpt lat="47.30474" lon="-2.26537">
        <ele>-20.60000038147</ele>
        <time>2021-08-22T09:42:32.000Z</time>
      </trkpt>
      <trkpt lat="47.30471" lon="-2.26543">
        <ele>-20.60000038147</ele>
        <time>2021-08-22T09:42:33.000Z</time>
      </trkpt>
      <trkpt lat="47.30459" lon="-2.26569">
        <ele>-20.60000038147</ele>
        <time>2021-08-22T09:42:37.000Z</time>
      </trkpt>
      <trkpt lat="47.30451" lon="-2.26583">
        <ele>-20.60000038147</ele>
        <time>2021-08-22T09:42:39.000Z</time>
      </trkpt>
      <trkpt lat="47.30428" lon="-2.26628">
        <ele>-20.60000038147</ele>
        <time>2021-08-22T09:42:45.000Z</time>
      </trkpt>
      <trkpt lat="47.30425" lon="-2.26636">
        <ele>-20.60000038147</ele>
        <time>2021-08-22T09:42:46.000Z</time>
      </trkpt>
      <trkpt lat="47.30411" lon="-2.26665">
        <ele>-20.60000038147</ele>
        <time>2021-08-22T09:42:50.000Z</time>
      </trkpt>
      <trkpt lat="47.30391" lon="-2.26709">
        <ele>-20.60000038147</ele>
        <time>2021-08-22T09:42:56.000Z</time>
      </trkpt>
      <trkpt lat="47.3037" lon="-2.26745">
        <ele>-20.60000038147</ele>
        <time>2021-08-22T09:43:01.000Z</time>
      </trkpt>
      <trkpt lat="47.30365" lon="-2.26752">
        <ele>-20.60000038147</ele>
        <time>2021-08-22T09:43:02.000Z</time>
      </trkpt>
      <trkpt lat="47.3035" lon="-2.26781">
        <ele>-20.60000038147</ele>
        <time>2021-08-22T09:43:06.000Z</time>
      </trkpt>
      <trkpt lat="47.30348" lon="-2.26789">
        <ele>-20.60000038147</ele>
        <time>2021-08-22T09:43:07.000Z</time>
      </trkpt>
      <trkpt lat="47.30347" lon="-2.26814">
        <ele>-20.60000038147</ele>
        <time>2021-08-22T09:43:10.000Z</time>
      </trkpt>
      <trkpt lat="47.30351" lon="-2.26866">
        <ele>-20.60000038147</ele>
        <time>2021-08-22T09:43:16.000Z</time>
      </trkpt>
      <trkpt lat="47.30362" lon="-2.2692">
        <ele>-20.60000038147</ele>
        <time>2021-08-22T09:43:22.000Z</time>
      </trkpt>
      <trkpt lat="47.3037" lon="-2.26958">
        <ele>-20.60000038147</ele>
        <time>2021-08-22T09:43:26.000Z</time>
      </trkpt>
      <trkpt lat="47.30377" lon="-2.27026">
        <ele>-20.60000038147</ele>
        <time>2021-08-22T09:43:33.000Z</time>
      </trkpt>
      <trkpt lat="47.30377" lon="-2.27047">
        <ele>-21</ele>
        <time>2021-08-22T09:43:36.000Z</time>
      </trkpt>
      <trkpt lat="47.30379" lon="-2.27053">
        <ele>-21.39999961853</ele>
        <time>2021-08-22T09:43:37.000Z</time>
      </trkpt>
      <trkpt lat="47.30381" lon="-2.27057">
        <ele>-21.799999237061</ele>
        <time>2021-08-22T09:43:38.000Z</time>
      </trkpt>
      <trkpt lat="47.30384" lon="-2.27059">
        <ele>-22.200000762939</ele>
        <time>2021-08-22T09:43:39.000Z</time>
      </trkpt>
      <trkpt lat="47.30388" lon="-2.2706">
        <ele>-22.60000038147</ele>
        <time>2021-08-22T09:43:40.000Z</time>
      </trkpt>
      <trkpt lat="47.30393" lon="-2.27063">
        <ele>-22.60000038147</ele>
        <time>2021-08-22T09:43:41.000Z</time>
      </trkpt>
      <trkpt lat="47.30402" lon="-2.27074">
        <ele>-22.60000038147</ele>
        <time>2021-08-22T09:43:43.000Z</time>
      </trkpt>
      <trkpt lat="47.30413" lon="-2.271">
        <ele>-22.60000038147</ele>
        <time>2021-08-22T09:43:46.000Z</time>
      </trkpt>
      <trkpt lat="47.30417" lon="-2.27119">
        <ele>-22.60000038147</ele>
        <time>2021-08-22T09:43:48.000Z</time>
      </trkpt>
      <trkpt lat="47.3042" lon="-2.27135">
        <ele>-22.60000038147</ele>
        <time>2021-08-22T09:43:50.000Z</time>
      </trkpt>
      <trkpt lat="47.3042" lon="-2.27142">
        <ele>-22.60000038147</ele>
        <time>2021-08-22T09:43:51.000Z</time>
      </trkpt>
      <trkpt lat="47.30414" lon="-2.27159">
        <ele>-22.60000038147</ele>
        <time>2021-08-22T09:43:54.000Z</time>
      </trkpt>
      <trkpt lat="47.30396" lon="-2.27163">
        <ele>-22.60000038147</ele>
        <time>2021-08-22T09:43:58.000Z</time>
      </trkpt>
      <trkpt lat="47.30384" lon="-2.27165">
        <ele>-22.60000038147</ele>
        <time>2021-08-22T09:44:01.000Z</time>
      </trkpt>
      <trkpt lat="47.30374" lon="-2.27168">
        <ele>-22.60000038147</ele>
        <time>2021-08-22T09:44:03.000Z</time>
      </trkpt>
      <trkpt lat="47.30369" lon="-2.27169">
        <ele>-22.60000038147</ele>
        <time>2021-08-22T09:44:04.000Z</time>
      </trkpt>
      <trkpt lat="47.30346" lon="-2.27174">
        <ele>-22.60000038147</ele>
        <time>2021-08-22T09:44:08.000Z</time>
      </trkpt>
      <trkpt lat="47.30301" lon="-2.27184">
        <ele>-22.60000038147</ele>
        <time>2021-08-22T09:44:16.000Z</time>
      </trkpt>
      <trkpt lat="47.30275" lon="-2.27183">
        <ele>-22.60000038147</ele>
        <time>2021-08-22T09:44:21.000Z</time>
      </trkpt>
      <trkpt lat="47.30269" lon="-2.27181">
        <ele>-22.60000038147</ele>
        <time>2021-08-22T09:44:22.000Z</time>
      </trkpt>
      <trkpt lat="47.30238" lon="-2.27167">
        <ele>-22.60000038147</ele>
        <time>2021-08-22T09:44:28.000Z</time>
      </trkpt>
      <trkpt lat="47.30228" lon="-2.2716">
        <ele>-22.200000762939</ele>
        <time>2021-08-22T09:44:30.000Z</time>
      </trkpt>
      <trkpt lat="47.30223" lon="-2.27159">
        <ele>-21.799999237061</ele>
        <time>2021-08-22T09:44:31.000Z</time>
      </trkpt>
      <trkpt lat="47.30218" lon="-2.27157">
        <ele>-21.39999961853</ele>
        <time>2021-08-22T09:44:32.000Z</time>
      </trkpt>
      <trkpt lat="47.30213" lon="-2.27158">
        <ele>-21</ele>
        <time>2021-08-22T09:44:33.000Z</time>
      </trkpt>
      <trkpt lat="47.30208" lon="-2.2716">
        <ele>-20.60000038147</ele>
        <time>2021-08-22T09:44:34.000Z</time>
      </trkpt>
      <trkpt lat="47.30191" lon="-2.27173">
        <ele>-20.60000038147</ele>
        <time>2021-08-22T09:44:37.000Z</time>
      </trkpt>
      <trkpt lat="47.30186" lon="-2.27179">
        <ele>-20.60000038147</ele>
        <time>2021-08-22T09:44:38.000Z</time>
      </trkpt>
      <trkpt lat="47.30159" lon="-2.27214">
        <ele>-20.60000038147</ele>
        <time>2021-08-22T09:44:43.000Z</time>
      </trkpt>
      <trkpt lat="47.30117" lon="-2.27268">
        <ele>-20.60000038147</ele>
        <time>2021-08-22T09:44:51.000Z</time>
      </trkpt>
      <trkpt lat="47.30095" lon="-2.27302">
        <ele>-20.60000038147</ele>
        <time>2021-08-22T09:44:56.000Z</time>
      </trkpt>
      <trkpt lat="47.30092" lon="-2.2731">
        <ele>-20.60000038147</ele>
        <time>2021-08-22T09:44:57.000Z</time>
      </trkpt>
      <trkpt lat="47.30079" lon="-2.27341">
        <ele>-20.60000038147</ele>
        <time>2021-08-22T09:45:01.000Z</time>
      </trkpt>
      <trkpt lat="47.30073" lon="-2.27357">
        <ele>-20.60000038147</ele>
        <time>2021-08-22T09:45:03.000Z</time>
      </trkpt>
      <trkpt lat="47.30059" lon="-2.2739">
        <ele>-20.60000038147</ele>
        <time>2021-08-22T09:45:07.000Z</time>
      </trkpt>
      <trkpt lat="47.30038" lon="-2.27422">
        <ele>-20.60000038147</ele>
        <time>2021-08-22T09:45:12.000Z</time>
      </trkpt>
      <trkpt lat="47.30005" lon="-2.27474">
        <ele>-20.60000038147</ele>
        <time>2021-08-22T09:45:20.000Z</time>
      </trkpt>
      <trkpt lat="47.29999" lon="-2.27489">
        <ele>-20.60000038147</ele>
        <time>2021-08-22T09:45:22.000Z</time>
      </trkpt>
      <trkpt lat="47.29993" lon="-2.27513">
        <ele>-20.60000038147</ele>
        <time>2021-08-22T09:45:25.000Z</time>
      </trkpt>
      <trkpt lat="47.29992" lon="-2.2752">
        <ele>-20.60000038147</ele>
        <time>2021-08-22T09:45:26.000Z</time>
      </trkpt>
      <trkpt lat="47.29985" lon="-2.27552">
        <ele>-20.60000038147</ele>
        <time>2021-08-22T09:45:30.000Z</time>
      </trkpt>
      <trkpt lat="47.29971" lon="-2.27601">
        <ele>-20.60000038147</ele>
        <time>2021-08-22T09:45:36.000Z</time>
      </trkpt>
      <trkpt lat="47.29961" lon="-2.27652">
        <ele>-20.60000038147</ele>
        <time>2021-08-22T09:45:42.000Z</time>
      </trkpt>
      <trkpt lat="47.29955" lon="-2.27717">
        <ele>-20.60000038147</ele>
        <time>2021-08-22T09:45:49.000Z</time>
      </trkpt>
      <trkpt lat="47.29953" lon="-2.27736">
        <ele>-20.200000762939</ele>
        <time>2021-08-22T09:45:51.000Z</time>
      </trkpt>
      <trkpt lat="47.29952" lon="-2.27745">
        <ele>-19.799999237061</ele>
        <time>2021-08-22T09:45:52.000Z</time>
      </trkpt>
      <trkpt lat="47.29951" lon="-2.27755">
        <ele>-19.39999961853</ele>
        <time>2021-08-22T09:45:53.000Z</time>
      </trkpt>
      <trkpt lat="47.29951" lon="-2.27764">
        <ele>-19</ele>
        <time>2021-08-22T09:45:54.000Z</time>
      </trkpt>
      <trkpt lat="47.2995" lon="-2.27773">
        <ele>-18.60000038147</ele>
        <time>2021-08-22T09:45:55.000Z</time>
      </trkpt>
      <trkpt lat="47.29948" lon="-2.2779">
        <ele>-18.60000038147</ele>
        <time>2021-08-22T09:45:57.000Z</time>
      </trkpt>
      <trkpt lat="47.29942" lon="-2.27842">
        <ele>-18.60000038147</ele>
        <time>2021-08-22T09:46:03.000Z</time>
      </trkpt>
      <trkpt lat="47.29937" lon="-2.27911">
        <ele>-18.60000038147</ele>
        <time>2021-08-22T09:46:11.000Z</time>
      </trkpt>
      <trkpt lat="47.29933" lon="-2.27962">
        <ele>-18.60000038147</ele>
        <time>2021-08-22T09:46:17.000Z</time>
      </trkpt>
      <trkpt lat="47.29934" lon="-2.28009">
        <ele>-18.60000038147</ele>
        <time>2021-08-22T09:46:23.000Z</time>
      </trkpt>
      <trkpt lat="47.29937" lon="-2.28024">
        <ele>-18.60000038147</ele>
        <time>2021-08-22T09:46:25.000Z</time>
      </trkpt>
      <trkpt lat="47.29946" lon="-2.28043">
        <ele>-18.60000038147</ele>
        <time>2021-08-22T09:46:28.000Z</time>
      </trkpt>
      <trkpt lat="47.29958" lon="-2.2805">
        <ele>-18.60000038147</ele>
        <time>2021-08-22T09:46:31.000Z</time>
      </trkpt>
      <trkpt lat="47.29969" lon="-2.28045">
        <ele>-18.60000038147</ele>
        <time>2021-08-22T09:46:34.000Z</time>
      </trkpt>
      <trkpt lat="47.29975" lon="-2.28041">
        <ele>-18.60000038147</ele>
        <time>2021-08-22T09:46:35.000Z</time>
      </trkpt>
      <trkpt lat="47.29985" lon="-2.28037">
        <ele>-18.60000038147</ele>
        <time>2021-08-22T09:46:37.000Z</time>
      </trkpt>
      <trkpt lat="47.2999" lon="-2.28042">
        <ele>-18.60000038147</ele>
        <time>2021-08-22T09:46:39.000Z</time>
      </trkpt>
      <trkpt lat="47.29987" lon="-2.28056">
        <ele>-18.60000038147</ele>
        <time>2021-08-22T09:46:42.000Z</time>
      </trkpt>
      <trkpt lat="47.29986" lon="-2.28062">
        <ele>-18.60000038147</ele>
        <time>2021-08-22T09:46:43.000Z</time>
      </trkpt>
      <trkpt lat="47.29979" lon="-2.28087">
        <ele>-18.60000038147</ele>
        <time>2021-08-22T09:46:47.000Z</time>
      </trkpt>
      <trkpt lat="47.29965" lon="-2.28139">
        <ele>-18.60000038147</ele>
        <time>2021-08-22T09:46:54.000Z</time>
      </trkpt>
      <trkpt lat="47.29958" lon="-2.28161">
        <ele>-18.60000038147</ele>
        <time>2021-08-22T09:46:57.000Z</time>
      </trkpt>
      <trkpt lat="47.29954" lon="-2.28175">
        <ele>-18.60000038147</ele>
        <time>2021-08-22T09:46:59.000Z</time>
      </trkpt>
      <trkpt lat="47.29947" lon="-2.28198">
        <ele>-18.60000038147</ele>
        <time>2021-08-22T09:47:02.000Z</time>
      </trkpt>
      <trkpt lat="47.29947" lon="-2.28214">
        <ele>-18.60000038147</ele>
        <time>2021-08-22T09:47:04.000Z</time>
      </trkpt>
      <trkpt lat="47.29948" lon="-2.28271">
        <ele>-18.60000038147</ele>
        <time>2021-08-22T09:47:11.000Z</time>
      </trkpt>
      <trkpt lat="47.29949" lon="-2.2832">
        <ele>-18.60000038147</ele>
        <time>2021-08-22T09:47:17.000Z</time>
      </trkpt>
      <trkpt lat="47.29948" lon="-2.28329">
        <ele>-18.60000038147</ele>
        <time>2021-08-22T09:47:18.000Z</time>
      </trkpt>
      <trkpt lat="47.29945" lon="-2.28356">
        <ele>-18.60000038147</ele>
        <time>2021-08-22T09:47:21.000Z</time>
      </trkpt>
      <trkpt lat="47.29945" lon="-2.28364">
        <ele>-18.60000038147</ele>
        <time>2021-08-22T09:47:22.000Z</time>
      </trkpt>
      <trkpt lat="47.29943" lon="-2.28398">
        <ele>-18.60000038147</ele>
        <time>2021-08-22T09:47:26.000Z</time>
      </trkpt>
      <trkpt lat="47.29941" lon="-2.28421">
        <ele>-18.60000038147</ele>
        <time>2021-08-22T09:47:29.000Z</time>
      </trkpt>
      <trkpt lat="47.29938" lon="-2.28427">
        <ele>-18.60000038147</ele>
        <time>2021-08-22T09:47:30.000Z</time>
      </trkpt>
      <trkpt lat="47.29929" lon="-2.28452">
        <ele>-18.60000038147</ele>
        <time>2021-08-22T09:47:34.000Z</time>
      </trkpt>
      <trkpt lat="47.2993" lon="-2.28484">
        <ele>-18.60000038147</ele>
        <time>2021-08-22T09:47:38.000Z</time>
      </trkpt>
      <trkpt lat="47.29929" lon="-2.28494">
        <ele>-18.60000038147</ele>
        <time>2021-08-22T09:47:39.000Z</time>
      </trkpt>
      <trkpt lat="47.29926" lon="-2.28512">
        <ele>-18.60000038147</ele>
        <time>2021-08-22T09:47:41.000Z</time>
      </trkpt>
      <trkpt lat="47.29922" lon="-2.28539">
        <ele>-18.60000038147</ele>
        <time>2021-08-22T09:47:44.000Z</time>
      </trkpt>
      <trkpt lat="47.29931" lon="-2.2856">
        <ele>-18.60000038147</ele>
        <time>2021-08-22T09:47:47.000Z</time>
      </trkpt>
      <trkpt lat="47.29938" lon="-2.28582">
        <ele>-18.60000038147</ele>
        <time>2021-08-22T09:47:50.000Z</time>
      </trkpt>
      <trkpt lat="47.29933" lon="-2.28606">
        <ele>-18.60000038147</ele>
        <time>2021-08-22T09:47:53.000Z</time>
      </trkpt>
      <trkpt lat="47.29922" lon="-2.28665">
        <ele>-18.60000038147</ele>
        <time>2021-08-22T09:48:00.000Z</time>
      </trkpt>
      <trkpt lat="47.29919" lon="-2.28673">
        <ele>-19</ele>
        <time>2021-08-22T09:48:01.000Z</time>
      </trkpt>
      <trkpt lat="47.29916" lon="-2.28682">
        <ele>-19.39999961853</ele>
        <time>2021-08-22T09:48:02.000Z</time>
      </trkpt>
      <trkpt lat="47.29914" lon="-2.28691">
        <ele>-19.799999237061</ele>
        <time>2021-08-22T09:48:03.000Z</time>
      </trkpt>
      <trkpt lat="47.29912" lon="-2.287">
        <ele>-20.200000762939</ele>
        <time>2021-08-22T09:48:04.000Z</time>
      </trkpt>
      <trkpt lat="47.29911" lon="-2.28709">
        <ele>-20.60000038147</ele>
        <time>2021-08-22T09:48:05.000Z</time>
      </trkpt>
      <trkpt lat="47.29909" lon="-2.28718">
        <ele>-20.60000038147</ele>
        <time>2021-08-22T09:48:06.000Z</time>
      </trkpt>
      <trkpt lat="47.29908" lon="-2.28728">
        <ele>-20.60000038147</ele>
        <time>2021-08-22T09:48:07.000Z</time>
      </trkpt>
      <trkpt lat="47.29901" lon="-2.28769">
        <ele>-20.60000038147</ele>
        <time>2021-08-22T09:48:11.000Z</time>
      </trkpt>
      <trkpt lat="47.29893" lon="-2.2882">
        <ele>-20.60000038147</ele>
        <time>2021-08-22T09:48:17.000Z</time>
      </trkpt>
      <trkpt lat="47.29882" lon="-2.28883">
        <ele>-20.60000038147</ele>
        <time>2021-08-22T09:48:25.000Z</time>
      </trkpt>
      <trkpt lat="47.29874" lon="-2.28902">
        <ele>-20.60000038147</ele>
        <time>2021-08-22T09:48:28.000Z</time>
      </trkpt>
      <trkpt lat="47.29872" lon="-2.28922">
        <ele>-20.60000038147</ele>
        <time>2021-08-22T09:48:31.000Z</time>
      </trkpt>
      <trkpt lat="47.29873" lon="-2.28935">
        <ele>-20.60000038147</ele>
        <time>2021-08-22T09:48:33.000Z</time>
      </trkpt>
      <trkpt lat="47.2988" lon="-2.28943">
        <ele>-20.60000038147</ele>
        <time>2021-08-22T09:48:35.000Z</time>
      </trkpt>
      <trkpt lat="47.29894" lon="-2.28945">
        <ele>-21</ele>
        <time>2021-08-22T09:48:38.000Z</time>
      </trkpt>
      <trkpt lat="47.299" lon="-2.28945">
        <ele>-21.39999961853</ele>
        <time>2021-08-22T09:48:39.000Z</time>
      </trkpt>
      <trkpt lat="47.29905" lon="-2.28946">
        <ele>-21.799999237061</ele>
        <time>2021-08-22T09:48:40.000Z</time>
      </trkpt>
      <trkpt lat="47.2991" lon="-2.28947">
        <ele>-22.200000762939</ele>
        <time>2021-08-22T09:48:41.000Z</time>
      </trkpt>
      <trkpt lat="47.29914" lon="-2.28949">
        <ele>-22.60000038147</ele>
        <time>2021-08-22T09:48:42.000Z</time>
      </trkpt>
      <trkpt lat="47.29922" lon="-2.28957">
        <ele>-22.60000038147</ele>
        <time>2021-08-22T09:48:44.000Z</time>
      </trkpt>
      <trkpt lat="47.29929" lon="-2.28969">
        <ele>-22.60000038147</ele>
        <time>2021-08-22T09:48:46.000Z</time>
      </trkpt>
      <trkpt lat="47.29937" lon="-2.2898">
        <ele>-22.60000038147</ele>
        <time>2021-08-22T09:48:48.000Z</time>
      </trkpt>
      <trkpt lat="47.29942" lon="-2.28986">
        <ele>-22.60000038147</ele>
        <time>2021-08-22T09:48:49.000Z</time>
      </trkpt>
      <trkpt lat="47.29965" lon="-2.29028">
        <ele>-22.60000038147</ele>
        <time>2021-08-22T09:48:55.000Z</time>
      </trkpt>
      <trkpt lat="47.29989" lon="-2.29068">
        <ele>-22.60000038147</ele>
        <time>2021-08-22T09:49:01.000Z</time>
      </trkpt>
      <trkpt lat="47.3" lon="-2.29086">
        <ele>-22.60000038147</ele>
        <time>2021-08-22T09:49:04.000Z</time>
      </trkpt>
      <trkpt lat="47.30005" lon="-2.2909">
        <ele>-22.60000038147</ele>
        <time>2021-08-22T09:49:05.000Z</time>
      </trkpt>
      <trkpt lat="47.30036" lon="-2.29117">
        <ele>-22.60000038147</ele>
        <time>2021-08-22T09:49:11.000Z</time>
      </trkpt>
      <trkpt lat="47.30041" lon="-2.2912">
        <ele>-22.60000038147</ele>
        <time>2021-08-22T09:49:12.000Z</time>
      </trkpt>
      <trkpt lat="47.30058" lon="-2.29131">
        <ele>-22.60000038147</ele>
        <time>2021-08-22T09:49:16.000Z</time>
      </trkpt>
      <trkpt lat="47.30064" lon="-2.29141">
        <ele>-23</ele>
        <time>2021-08-22T09:49:18.000Z</time>
      </trkpt>
      <trkpt lat="47.30067" lon="-2.29147">
        <ele>-23.39999961853</ele>
        <time>2021-08-22T09:49:19.000Z</time>
      </trkpt>
      <trkpt lat="47.30071" lon="-2.29153">
        <ele>-23.799999237061</ele>
        <time>2021-08-22T09:49:20.000Z</time>
      </trkpt>
      <trkpt lat="47.30075" lon="-2.29159">
        <ele>-24.39999961853</ele>
        <time>2021-08-22T09:49:21.000Z</time>
      </trkpt>
      <trkpt lat="47.30079" lon="-2.29166">
        <ele>-24.799999237061</ele>
        <time>2021-08-22T09:49:22.000Z</time>
      </trkpt>
      <trkpt lat="47.30099" lon="-2.29198">
        <ele>-24.799999237061</ele>
        <time>2021-08-22T09:49:27.000Z</time>
      </trkpt>
      <trkpt lat="47.30122" lon="-2.29235">
        <ele>-24.799999237061</ele>
        <time>2021-08-22T09:49:33.000Z</time>
      </trkpt>
      <trkpt lat="47.30157" lon="-2.29287">
        <ele>-24.799999237061</ele>
        <time>2021-08-22T09:49:41.000Z</time>
      </trkpt>
      <trkpt lat="47.30179" lon="-2.29317">
        <ele>-25.200000762939</ele>
        <time>2021-08-22T09:49:47.000Z</time>
      </trkpt>
      <trkpt lat="47.30182" lon="-2.29323">
        <ele>-25.60000038147</ele>
        <time>2021-08-22T09:49:48.000Z</time>
      </trkpt>
      <trkpt lat="47.30185" lon="-2.29328">
        <ele>-26</ele>
        <time>2021-08-22T09:49:49.000Z</time>
      </trkpt>
      <trkpt lat="47.30186" lon="-2.29333">
        <ele>-26.39999961853</ele>
        <time>2021-08-22T09:49:50.000Z</time>
      </trkpt>
      <trkpt lat="47.30188" lon="-2.29337">
        <ele>-26.799999237061</ele>
        <time>2021-08-22T09:49:51.000Z</time>
      </trkpt>
      <trkpt lat="47.30197" lon="-2.29351">
        <ele>-26.799999237061</ele>
        <time>2021-08-22T09:49:56.000Z</time>
      </trkpt>
      <trkpt lat="47.30198" lon="-2.29353">
        <ele>-26.799999237061</ele>
        <time>2021-08-22T09:49:59.000Z</time>
      </trkpt>
      <trkpt lat="47.30199" lon="-2.29355">
        <ele>-26.799999237061</ele>
        <time>2021-08-22T09:50:19.000Z</time>
      </trkpt>
      <trkpt lat="47.30203" lon="-2.2937">
        <ele>-26.799999237061</ele>
        <time>2021-08-22T09:50:24.000Z</time>
      </trkpt>
      <trkpt lat="47.30211" lon="-2.29393">
        <ele>-26.799999237061</ele>
        <time>2021-08-22T09:50:29.000Z</time>
      </trkpt>
      <trkpt lat="47.30221" lon="-2.29419">
        <ele>-26.799999237061</ele>
        <time>2021-08-22T09:50:35.000Z</time>
      </trkpt>
      <trkpt lat="47.3022" lon="-2.29423">
        <ele>-26.799999237061</ele>
        <time>2021-08-22T09:50:36.000Z</time>
      </trkpt>
      <trkpt lat="47.30215" lon="-2.2944">
        <ele>-26.799999237061</ele>
        <time>2021-08-22T09:50:39.000Z</time>
      </trkpt>
      <trkpt lat="47.30212" lon="-2.29447">
        <ele>-26.799999237061</ele>
        <time>2021-08-22T09:50:40.000Z</time>
      </trkpt>
      <trkpt lat="47.30191" lon="-2.2948">
        <ele>-26.799999237061</ele>
        <time>2021-08-22T09:50:45.000Z</time>
      </trkpt>
      <trkpt lat="47.30171" lon="-2.29518">
        <ele>-26.799999237061</ele>
        <time>2021-08-22T09:50:51.000Z</time>
      </trkpt>
      <trkpt lat="47.30169" lon="-2.29525">
        <ele>-26.799999237061</ele>
        <time>2021-08-22T09:50:52.000Z</time>
      </trkpt>
      <trkpt lat="47.30149" lon="-2.29564">
        <ele>-26.799999237061</ele>
        <time>2021-08-22T09:50:58.000Z</time>
      </trkpt>
      <trkpt lat="47.30147" lon="-2.29596">
        <ele>-26.799999237061</ele>
        <time>2021-08-22T09:51:02.000Z</time>
      </trkpt>
      <trkpt lat="47.30144" lon="-2.29641">
        <ele>-26.799999237061</ele>
        <time>2021-08-22T09:51:08.000Z</time>
      </trkpt>
      <trkpt lat="47.30142" lon="-2.29647">
        <ele>-26.799999237061</ele>
        <time>2021-08-22T09:51:09.000Z</time>
      </trkpt>
      <trkpt lat="47.30131" lon="-2.29654">
        <ele>-26.799999237061</ele>
        <time>2021-08-22T09:51:12.000Z</time>
      </trkpt>
      <trkpt lat="47.30111" lon="-2.29652">
        <ele>-26.799999237061</ele>
        <time>2021-08-22T09:51:16.000Z</time>
      </trkpt>
      <trkpt lat="47.30107" lon="-2.29651">
        <ele>-26.799999237061</ele>
        <time>2021-08-22T09:51:17.000Z</time>
      </trkpt>
      <trkpt lat="47.30086" lon="-2.29645">
        <ele>-26.799999237061</ele>
        <time>2021-08-22T09:51:22.000Z</time>
      </trkpt>
      <trkpt lat="47.30081" lon="-2.29644">
        <ele>-26.799999237061</ele>
        <time>2021-08-22T09:51:23.000Z</time>
      </trkpt>
      <trkpt lat="47.30063" lon="-2.29639">
        <ele>-26.799999237061</ele>
        <time>2021-08-22T09:51:27.000Z</time>
      </trkpt>
      <trkpt lat="47.30035" lon="-2.29632">
        <ele>-26.799999237061</ele>
        <time>2021-08-22T09:51:33.000Z</time>
      </trkpt>
      <trkpt lat="47.30026" lon="-2.29632">
        <ele>-26.799999237061</ele>
        <time>2021-08-22T09:51:35.000Z</time>
      </trkpt>
      <trkpt lat="47.29993" lon="-2.29634">
        <ele>-26.799999237061</ele>
        <time>2021-08-22T09:51:42.000Z</time>
      </trkpt>
      <trkpt lat="47.29966" lon="-2.29637">
        <ele>-26.799999237061</ele>
        <time>2021-08-22T09:51:48.000Z</time>
      </trkpt>
      <trkpt lat="47.29948" lon="-2.29642">
        <ele>-26.799999237061</ele>
        <time>2021-08-22T09:51:52.000Z</time>
      </trkpt>
      <trkpt lat="47.29936" lon="-2.29651">
        <ele>-26.799999237061</ele>
        <time>2021-08-22T09:51:55.000Z</time>
      </trkpt>
      <trkpt lat="47.29925" lon="-2.29662">
        <ele>-26.799999237061</ele>
        <time>2021-08-22T09:51:58.000Z</time>
      </trkpt>
      <trkpt lat="47.29919" lon="-2.29667">
        <ele>-26.799999237061</ele>
        <time>2021-08-22T09:52:00.000Z</time>
      </trkpt>
      <trkpt lat="47.29916" lon="-2.29675">
        <ele>-26.799999237061</ele>
        <time>2021-08-22T09:52:02.000Z</time>
      </trkpt>
      <trkpt lat="47.29917" lon="-2.2968">
        <ele>-26.799999237061</ele>
        <time>2021-08-22T09:52:03.000Z</time>
      </trkpt>
      <trkpt lat="47.29918" lon="-2.29691">
        <ele>-26.799999237061</ele>
        <time>2021-08-22T09:52:05.000Z</time>
      </trkpt>
      <trkpt lat="47.29923" lon="-2.29703">
        <ele>-26.39999961853</ele>
        <time>2021-08-22T09:52:07.000Z</time>
      </trkpt>
      <trkpt lat="47.29925" lon="-2.2971">
        <ele>-25.60000038147</ele>
        <time>2021-08-22T09:52:08.000Z</time>
      </trkpt>
      <trkpt lat="47.29928" lon="-2.29716">
        <ele>-25.200000762939</ele>
        <time>2021-08-22T09:52:09.000Z</time>
      </trkpt>
      <trkpt lat="47.2993" lon="-2.29723">
        <ele>-24.799999237061</ele>
        <time>2021-08-22T09:52:10.000Z</time>
      </trkpt>
      <trkpt lat="47.29941" lon="-2.29755">
        <ele>-24.799999237061</ele>
        <time>2021-08-22T09:52:15.000Z</time>
      </trkpt>
      <trkpt lat="47.29952" lon="-2.29794">
        <ele>-24.799999237061</ele>
        <time>2021-08-22T09:52:22.000Z</time>
      </trkpt>
      <trkpt lat="47.29942" lon="-2.29807">
        <ele>-24.799999237061</ele>
        <time>2021-08-22T09:52:26.000Z</time>
      </trkpt>
      <trkpt lat="47.29929" lon="-2.29819">
        <ele>-24.799999237061</ele>
        <time>2021-08-22T09:52:31.000Z</time>
      </trkpt>
      <trkpt lat="47.29912" lon="-2.29833">
        <ele>-24.799999237061</ele>
        <time>2021-08-22T09:52:37.000Z</time>
      </trkpt>
      <trkpt lat="47.29903" lon="-2.29847">
        <ele>-24.799999237061</ele>
        <time>2021-08-22T09:52:40.000Z</time>
      </trkpt>
      <trkpt lat="47.29902" lon="-2.29854">
        <ele>-24.799999237061</ele>
        <time>2021-08-22T09:52:41.000Z</time>
      </trkpt>
      <trkpt lat="47.29905" lon="-2.29887">
        <ele>-24.799999237061</ele>
        <time>2021-08-22T09:52:45.000Z</time>
      </trkpt>
      <trkpt lat="47.29908" lon="-2.29924">
        <ele>-24.799999237061</ele>
        <time>2021-08-22T09:52:49.000Z</time>
      </trkpt>
      <trkpt lat="47.29906" lon="-2.29931">
        <ele>-24.799999237061</ele>
        <time>2021-08-22T09:52:50.000Z</time>
      </trkpt>
      <trkpt lat="47.29897" lon="-2.2994">
        <ele>-24.799999237061</ele>
        <time>2021-08-22T09:52:52.000Z</time>
      </trkpt>
      <trkpt lat="47.29885" lon="-2.29942">
        <ele>-24.799999237061</ele>
        <time>2021-08-22T09:52:54.000Z</time>
      </trkpt>
      <trkpt lat="47.29873" lon="-2.29945">
        <ele>-24.799999237061</ele>
        <time>2021-08-22T09:52:56.000Z</time>
      </trkpt>
      <trkpt lat="47.29844" lon="-2.29951">
        <ele>-24.799999237061</ele>
        <time>2021-08-22T09:53:01.000Z</time>
      </trkpt>
      <trkpt lat="47.29832" lon="-2.29953">
        <ele>-24.799999237061</ele>
        <time>2021-08-22T09:53:03.000Z</time>
      </trkpt>
      <trkpt lat="47.29809" lon="-2.29952">
        <ele>-24.799999237061</ele>
        <time>2021-08-22T09:53:07.000Z</time>
      </trkpt>
      <trkpt lat="47.29785" lon="-2.29952">
        <ele>-24.799999237061</ele>
        <time>2021-08-22T09:53:11.000Z</time>
      </trkpt>
      <trkpt lat="47.29779" lon="-2.29955">
        <ele>-24.799999237061</ele>
        <time>2021-08-22T09:53:12.000Z</time>
      </trkpt>
      <trkpt lat="47.2976" lon="-2.2997">
        <ele>-24.799999237061</ele>
        <time>2021-08-22T09:53:16.000Z</time>
      </trkpt>
      <trkpt lat="47.29745" lon="-2.29981">
        <ele>-24.799999237061</ele>
        <time>2021-08-22T09:53:19.000Z</time>
      </trkpt>
      <trkpt lat="47.2971" lon="-2.29997">
        <ele>-24.799999237061</ele>
        <time>2021-08-22T09:53:25.000Z</time>
      </trkpt>
      <trkpt lat="47.29674" lon="-2.29997">
        <ele>-24.799999237061</ele>
        <time>2021-08-22T09:53:31.000Z</time>
      </trkpt>
      <trkpt lat="47.29668" lon="-2.29995">
        <ele>-24.799999237061</ele>
        <time>2021-08-22T09:53:32.000Z</time>
      </trkpt>
      <trkpt lat="47.29654" lon="-2.29986">
        <ele>-24.799999237061</ele>
        <time>2021-08-22T09:53:35.000Z</time>
      </trkpt>
      <trkpt lat="47.29645" lon="-2.29981">
        <ele>-24.799999237061</ele>
        <time>2021-08-22T09:53:37.000Z</time>
      </trkpt>
      <trkpt lat="47.29636" lon="-2.29987">
        <ele>-24.799999237061</ele>
        <time>2021-08-22T09:53:39.000Z</time>
      </trkpt>
      <trkpt lat="47.29625" lon="-2.29995">
        <ele>-24.799999237061</ele>
        <time>2021-08-22T09:53:41.000Z</time>
      </trkpt>
      <trkpt lat="47.29612" lon="-2.3">
        <ele>-24.799999237061</ele>
        <time>2021-08-22T09:53:43.000Z</time>
      </trkpt>
      <trkpt lat="47.29564" lon="-2.30015">
        <ele>-24.799999237061</ele>
        <time>2021-08-22T09:53:50.000Z</time>
      </trkpt>
      <trkpt lat="47.29525" lon="-2.30028">
        <ele>-24.799999237061</ele>
        <time>2021-08-22T09:53:56.000Z</time>
      </trkpt>
      <trkpt lat="47.29519" lon="-2.30026">
        <ele>-24.799999237061</ele>
        <time>2021-08-22T09:53:57.000Z</time>
      </trkpt>
      <trkpt lat="47.29497" lon="-2.30024">
        <ele>-24.799999237061</ele>
        <time>2021-08-22T09:54:01.000Z</time>
      </trkpt>
      <trkpt lat="47.29492" lon="-2.30025">
        <ele>-24.799999237061</ele>
        <time>2021-08-22T09:54:02.000Z</time>
      </trkpt>
      <trkpt lat="47.29462" lon="-2.30027">
        <ele>-24.799999237061</ele>
        <time>2021-08-22T09:54:07.000Z</time>
      </trkpt>
      <trkpt lat="47.29421" lon="-2.30028">
        <ele>-24.799999237061</ele>
        <time>2021-08-22T09:54:14.000Z</time>
      </trkpt>
      <trkpt lat="47.29399" lon="-2.30024">
        <ele>-24.799999237061</ele>
        <time>2021-08-22T09:54:18.000Z</time>
      </trkpt>
      <trkpt lat="47.29389" lon="-2.30021">
        <ele>-24.799999237061</ele>
        <time>2021-08-22T09:54:20.000Z</time>
      </trkpt>
      <trkpt lat="47.29374" lon="-2.30015">
        <ele>-24.799999237061</ele>
        <time>2021-08-22T09:54:23.000Z</time>
      </trkpt>
      <trkpt lat="47.29361" lon="-2.30009">
        <ele>-24.799999237061</ele>
        <time>2021-08-22T09:54:26.000Z</time>
      </trkpt>
      <trkpt lat="47.29346" lon="-2.30004">
        <ele>-24.799999237061</ele>
        <time>2021-08-22T09:54:31.000Z</time>
      </trkpt>
      <trkpt lat="47.29345" lon="-2.30007">
        <ele>-24.799999237061</ele>
        <time>2021-08-22T09:54:32.000Z</time>
      </trkpt>
      <trkpt lat="47.29345" lon="-2.30015">
        <ele>-24.799999237061</ele>
        <time>2021-08-22T09:54:34.000Z</time>
      </trkpt>
      <trkpt lat="47.29343" lon="-2.30026">
        <ele>-24.799999237061</ele>
        <time>2021-08-22T09:54:36.000Z</time>
      </trkpt>
      <trkpt lat="47.29342" lon="-2.30045">
        <ele>-24.799999237061</ele>
        <time>2021-08-22T09:54:39.000Z</time>
      </trkpt>
      <trkpt lat="47.29334" lon="-2.30114">
        <ele>-24.799999237061</ele>
        <time>2021-08-22T09:54:49.000Z</time>
      </trkpt>
      <trkpt lat="47.29321" lon="-2.30138">
        <ele>-24.799999237061</ele>
        <time>2021-08-22T09:54:54.000Z</time>
      </trkpt>
      <trkpt lat="47.29309" lon="-2.30138">
        <ele>-24.799999237061</ele>
        <time>2021-08-22T09:54:57.000Z</time>
      </trkpt>
      <trkpt lat="47.29305" lon="-2.30137">
        <ele>-24.799999237061</ele>
        <time>2021-08-22T09:54:58.000Z</time>
      </trkpt>
      <trkpt lat="47.29301" lon="-2.30136">
        <ele>-24.799999237061</ele>
        <time>2021-08-22T09:54:59.000Z</time>
      </trkpt>
      <trkpt lat="47.29287" lon="-2.30134">
        <ele>-24.799999237061</ele>
        <time>2021-08-22T09:55:03.000Z</time>
      </trkpt>
      <trkpt lat="47.29266" lon="-2.30137">
        <ele>-24.799999237061</ele>
        <time>2021-08-22T09:55:09.000Z</time>
      </trkpt>
      <trkpt lat="47.29249" lon="-2.30141">
        <ele>-24.799999237061</ele>
        <time>2021-08-22T09:55:14.000Z</time>
      </trkpt>
      <trkpt lat="47.2922" lon="-2.3015">
        <ele>-24.799999237061</ele>
        <time>2021-08-22T09:55:22.000Z</time>
      </trkpt>
      <trkpt lat="47.29199" lon="-2.30162">
        <ele>-24.799999237061</ele>
        <time>2021-08-22T09:55:28.000Z</time>
      </trkpt>
      <trkpt lat="47.29165" lon="-2.30183">
        <ele>-24.799999237061</ele>
        <time>2021-08-22T09:55:37.000Z</time>
      </trkpt>
      <trkpt lat="47.29162" lon="-2.30186">
        <ele>-24.39999961853</ele>
        <time>2021-08-22T09:55:38.000Z</time>
      </trkpt>
      <trkpt lat="47.29158" lon="-2.30188">
        <ele>-24</ele>
        <time>2021-08-22T09:55:39.000Z</time>
      </trkpt>
      <trkpt lat="47.29154" lon="-2.3019">
        <ele>-23.39999961853</ele>
        <time>2021-08-22T09:55:40.000Z</time>
      </trkpt>
      <trkpt lat="47.2915" lon="-2.30192">
        <ele>-23</ele>
        <time>2021-08-22T09:55:41.000Z</time>
      </trkpt>
      <trkpt lat="47.29146" lon="-2.30194">
        <ele>-22.60000038147</ele>
        <time>2021-08-22T09:55:42.000Z</time>
      </trkpt>
      <trkpt lat="47.29134" lon="-2.30199">
        <ele>-22.60000038147</ele>
        <time>2021-08-22T09:55:45.000Z</time>
      </trkpt>
      <trkpt lat="47.29116" lon="-2.30209">
        <ele>-22.60000038147</ele>
        <time>2021-08-22T09:55:49.000Z</time>
      </trkpt>
      <trkpt lat="47.29112" lon="-2.30211">
        <ele>-22.60000038147</ele>
        <time>2021-08-22T09:55:50.000Z</time>
      </trkpt>
      <trkpt lat="47.29077" lon="-2.3023">
        <ele>-22.60000038147</ele>
        <time>2021-08-22T09:55:57.000Z</time>
      </trkpt>
      <trkpt lat="47.2903" lon="-2.30247">
        <ele>-22.60000038147</ele>
        <time>2021-08-22T09:56:06.000Z</time>
      </trkpt>
      <trkpt lat="47.29006" lon="-2.30254">
        <ele>-22.60000038147</ele>
        <time>2021-08-22T09:56:11.000Z</time>
      </trkpt>
      <trkpt lat="47.28991" lon="-2.30257">
        <ele>-22.60000038147</ele>
        <time>2021-08-22T09:56:14.000Z</time>
      </trkpt>
      <trkpt lat="47.28986" lon="-2.30256">
        <ele>-22.60000038147</ele>
        <time>2021-08-22T09:56:15.000Z</time>
      </trkpt>
      <trkpt lat="47.28978" lon="-2.30258">
        <ele>-22.60000038147</ele>
        <time>2021-08-22T09:56:17.000Z</time>
      </trkpt>
      <trkpt lat="47.28975" lon="-2.30263">
        <ele>-22.60000038147</ele>
        <time>2021-08-22T09:56:18.000Z</time>
      </trkpt>
      <trkpt lat="47.28971" lon="-2.30283">
        <ele>-22.60000038147</ele>
        <time>2021-08-22T09:56:21.000Z</time>
      </trkpt>
      <trkpt lat="47.28973" lon="-2.303">
        <ele>-22.60000038147</ele>
        <time>2021-08-22T09:56:24.000Z</time>
      </trkpt>
      <trkpt lat="47.28974" lon="-2.30308">
        <ele>-22.60000038147</ele>
        <time>2021-08-22T09:56:26.000Z</time>
      </trkpt>
      <trkpt lat="47.28974" lon="-2.30311">
        <ele>-22.60000038147</ele>
        <time>2021-08-22T09:56:27.000Z</time>
      </trkpt>
      <trkpt lat="47.28974" lon="-2.30317">
        <ele>-22.60000038147</ele>
        <time>2021-08-22T09:56:30.000Z</time>
      </trkpt>
      <trkpt lat="47.28974" lon="-2.30317">
        <ele>-22.60000038147</ele>
        <time>2021-08-22T09:56:31.000Z</time>
      </trkpt>
      <trkpt lat="47.28975" lon="-2.3032">
        <ele>-22.60000038147</ele>
        <time>2021-08-22T09:56:48.000Z</time>
      </trkpt>
      <trkpt lat="47.28975" lon="-2.30323">
        <ele>-22.60000038147</ele>
        <time>2021-08-22T09:56:49.000Z</time>
      </trkpt>
      <trkpt lat="47.28977" lon="-2.30343">
        <ele>-22.60000038147</ele>
        <time>2021-08-22T09:56:54.000Z</time>
      </trkpt>
      <trkpt lat="47.28976" lon="-2.30355">
        <ele>-22.60000038147</ele>
        <time>2021-08-22T09:56:56.000Z</time>
      </trkpt>
      <trkpt lat="47.28976" lon="-2.30362">
        <ele>-22.200000762939</ele>
        <time>2021-08-22T09:56:57.000Z</time>
      </trkpt>
      <trkpt lat="47.28975" lon="-2.30369">
        <ele>-21.799999237061</ele>
        <time>2021-08-22T09:56:58.000Z</time>
      </trkpt>
      <trkpt lat="47.28975" lon="-2.30376">
        <ele>-21.39999961853</ele>
        <time>2021-08-22T09:56:59.000Z</time>
      </trkpt>
      <trkpt lat="47.28975" lon="-2.30384">
        <ele>-21</ele>
        <time>2021-08-22T09:57:00.000Z</time>
      </trkpt>
      <trkpt lat="47.28976" lon="-2.30392">
        <ele>-20.60000038147</ele>
        <time>2021-08-22T09:57:01.000Z</time>
      </trkpt>
      <trkpt lat="47.28977" lon="-2.30408">
        <ele>-20.60000038147</ele>
        <time>2021-08-22T09:57:03.000Z</time>
      </trkpt>
      <trkpt lat="47.28982" lon="-2.3046">
        <ele>-20.60000038147</ele>
        <time>2021-08-22T09:57:09.000Z</time>
      </trkpt>
      <trkpt lat="47.28983" lon="-2.30468">
        <ele>-20.60000038147</ele>
        <time>2021-08-22T09:57:10.000Z</time>
      </trkpt>
      <trkpt lat="47.28992" lon="-2.3052">
        <ele>-20.200000762939</ele>
        <time>2021-08-22T09:57:16.000Z</time>
      </trkpt>
      <trkpt lat="47.28994" lon="-2.30528">
        <ele>-19.799999237061</ele>
        <time>2021-08-22T09:57:17.000Z</time>
      </trkpt>
      <trkpt lat="47.28996" lon="-2.30536">
        <ele>-19.39999961853</ele>
        <time>2021-08-22T09:57:18.000Z</time>
      </trkpt>
      <trkpt lat="47.28997" lon="-2.30543">
        <ele>-19</ele>
        <time>2021-08-22T09:57:19.000Z</time>
      </trkpt>
      <trkpt lat="47.28998" lon="-2.30552">
        <ele>-18.60000038147</ele>
        <time>2021-08-22T09:57:20.000Z</time>
      </trkpt>
      <trkpt lat="47.29002" lon="-2.30585">
        <ele>-18.60000038147</ele>
        <time>2021-08-22T09:57:24.000Z</time>
      </trkpt>
      <trkpt lat="47.29005" lon="-2.30644">
        <ele>-18.60000038147</ele>
        <time>2021-08-22T09:57:31.000Z</time>
      </trkpt>
      <trkpt lat="47.29006" lon="-2.30681">
        <ele>-18.60000038147</ele>
        <time>2021-08-22T09:57:35.000Z</time>
      </trkpt>
      <trkpt lat="47.29007" lon="-2.3069">
        <ele>-18.60000038147</ele>
        <time>2021-08-22T09:57:36.000Z</time>
      </trkpt>
      <trkpt lat="47.29006" lon="-2.30739">
        <ele>-18.60000038147</ele>
        <time>2021-08-22T09:57:41.000Z</time>
      </trkpt>
      <trkpt lat="47.29006" lon="-2.30748">
        <ele>-18.60000038147</ele>
        <time>2021-08-22T09:57:42.000Z</time>
      </trkpt>
      <trkpt lat="47.29008" lon="-2.30758">
        <ele>-18.60000038147</ele>
        <time>2021-08-22T09:57:43.000Z</time>
      </trkpt>
      <trkpt lat="47.29014" lon="-2.30785">
        <ele>-18.60000038147</ele>
        <time>2021-08-22T09:57:46.000Z</time>
      </trkpt>
      <trkpt lat="47.29024" lon="-2.30839">
        <ele>-18.60000038147</ele>
        <time>2021-08-22T09:57:52.000Z</time>
      </trkpt>
      <trkpt lat="47.29031" lon="-2.30917">
        <ele>-18.60000038147</ele>
        <time>2021-08-22T09:58:01.000Z</time>
      </trkpt>
      <trkpt lat="47.29031" lon="-2.30925">
        <ele>-18.200000762939</ele>
        <time>2021-08-22T09:58:02.000Z</time>
      </trkpt>
      <trkpt lat="47.29031" lon="-2.30933">
        <ele>-17.799999237061</ele>
        <time>2021-08-22T09:58:03.000Z</time>
      </trkpt>
      <trkpt lat="47.29032" lon="-2.30941">
        <ele>-17.39999961853</ele>
        <time>2021-08-22T09:58:04.000Z</time>
      </trkpt>
      <trkpt lat="47.29032" lon="-2.30949">
        <ele>-17</ele>
        <time>2021-08-22T09:58:05.000Z</time>
      </trkpt>
      <trkpt lat="47.29032" lon="-2.30957">
        <ele>-16.39999961853</ele>
        <time>2021-08-22T09:58:06.000Z</time>
      </trkpt>
      <trkpt lat="47.29032" lon="-2.30973">
        <ele>-16.39999961853</ele>
        <time>2021-08-22T09:58:08.000Z</time>
      </trkpt>
      <trkpt lat="47.29033" lon="-2.30998">
        <ele>-16</ele>
        <time>2021-08-22T09:58:11.000Z</time>
      </trkpt>
      <trkpt lat="47.29033" lon="-2.31006">
        <ele>-15.60000038147</ele>
        <time>2021-08-22T09:58:12.000Z</time>
      </trkpt>
      <trkpt lat="47.29033" lon="-2.31014">
        <ele>-15.199999809265</ele>
        <time>2021-08-22T09:58:13.000Z</time>
      </trkpt>
      <trkpt lat="47.29032" lon="-2.31022">
        <ele>-14.800000190735</ele>
        <time>2021-08-22T09:58:14.000Z</time>
      </trkpt>
      <trkpt lat="47.29032" lon="-2.3103">
        <ele>-14.39999961853</ele>
        <time>2021-08-22T09:58:15.000Z</time>
      </trkpt>
      <trkpt lat="47.29032" lon="-2.31038">
        <ele>-14.39999961853</ele>
        <time>2021-08-22T09:58:16.000Z</time>
      </trkpt>
      <trkpt lat="47.29032" lon="-2.31071">
        <ele>-14</ele>
        <time>2021-08-22T09:58:20.000Z</time>
      </trkpt>
      <trkpt lat="47.29032" lon="-2.31079">
        <ele>-13.60000038147</ele>
        <time>2021-08-22T09:58:21.000Z</time>
      </trkpt>
      <trkpt lat="47.29033" lon="-2.31087">
        <ele>-13.199999809265</ele>
        <time>2021-08-22T09:58:22.000Z</time>
      </trkpt>
      <trkpt lat="47.29033" lon="-2.31094">
        <ele>-12.800000190735</ele>
        <time>2021-08-22T09:58:23.000Z</time>
      </trkpt>
      <trkpt lat="47.29034" lon="-2.31102">
        <ele>-12.39999961853</ele>
        <time>2021-08-22T09:58:24.000Z</time>
      </trkpt>
      <trkpt lat="47.29037" lon="-2.31141">
        <ele>-11.800000190735</ele>
        <time>2021-08-22T09:58:29.000Z</time>
      </trkpt>
      <trkpt lat="47.29037" lon="-2.31149">
        <ele>-11.199999809265</ele>
        <time>2021-08-22T09:58:30.000Z</time>
      </trkpt>
      <trkpt lat="47.29038" lon="-2.31157">
        <ele>-10.800000190735</ele>
        <time>2021-08-22T09:58:31.000Z</time>
      </trkpt>
      <trkpt lat="47.29039" lon="-2.31165">
        <ele>-10.199999809265</ele>
        <time>2021-08-22T09:58:32.000Z</time>
      </trkpt>
      <trkpt lat="47.29039" lon="-2.31172">
        <ele>-9.6000003814697</ele>
        <time>2021-08-22T09:58:33.000Z</time>
      </trkpt>
      <trkpt lat="47.29044" lon="-2.31209">
        <ele>-9.6000003814697</ele>
        <time>2021-08-22T09:58:38.000Z</time>
      </trkpt>
      <trkpt lat="47.29043" lon="-2.31215">
        <ele>-9.6000003814697</ele>
        <time>2021-08-22T09:58:39.000Z</time>
      </trkpt>
      <trkpt lat="47.29039" lon="-2.31234">
        <ele>-9.6000003814697</ele>
        <time>2021-08-22T09:58:42.000Z</time>
      </trkpt>
      <trkpt lat="47.29031" lon="-2.31253">
        <ele>-9.6000003814697</ele>
        <time>2021-08-22T09:58:45.000Z</time>
      </trkpt>
      <trkpt lat="47.29024" lon="-2.31266">
        <ele>-9.6000003814697</ele>
        <time>2021-08-22T09:58:47.000Z</time>
      </trkpt>
      <trkpt lat="47.29005" lon="-2.31311">
        <ele>-9.6000003814697</ele>
        <time>2021-08-22T09:58:53.000Z</time>
      </trkpt>
      <trkpt lat="47.28979" lon="-2.31359">
        <ele>-9.6000003814697</ele>
        <time>2021-08-22T09:59:00.000Z</time>
      </trkpt>
      <trkpt lat="47.28955" lon="-2.31384">
        <ele>-9.1999998092651</ele>
        <time>2021-08-22T09:59:05.000Z</time>
      </trkpt>
      <trkpt lat="47.28949" lon="-2.31388">
        <ele>-8.3999996185303</ele>
        <time>2021-08-22T09:59:06.000Z</time>
      </trkpt>
      <trkpt lat="47.28943" lon="-2.3139">
        <ele>-8</ele>
        <time>2021-08-22T09:59:07.000Z</time>
      </trkpt>
      <trkpt lat="47.28936" lon="-2.31392">
        <ele>-7.5999999046326</ele>
        <time>2021-08-22T09:59:08.000Z</time>
      </trkpt>
      <trkpt lat="47.28923" lon="-2.31393">
        <ele>-7.5999999046326</ele>
        <time>2021-08-22T09:59:10.000Z</time>
      </trkpt>
      <trkpt lat="47.28876" lon="-2.31397">
        <ele>-7.5999999046326</ele>
        <time>2021-08-22T09:59:17.000Z</time>
      </trkpt>
      <trkpt lat="47.28839" lon="-2.31414">
        <ele>-7.5999999046326</ele>
        <time>2021-08-22T09:59:23.000Z</time>
      </trkpt>
      <trkpt lat="47.28802" lon="-2.31436">
        <ele>-7.1999998092651</ele>
        <time>2021-08-22T09:59:29.000Z</time>
      </trkpt>
      <trkpt lat="47.28796" lon="-2.31441">
        <ele>-6.8000001907349</ele>
        <time>2021-08-22T09:59:30.000Z</time>
      </trkpt>
      <trkpt lat="47.28791" lon="-2.31445">
        <ele>-5.8000001907349</ele>
        <time>2021-08-22T09:59:31.000Z</time>
      </trkpt>
      <trkpt lat="47.28785" lon="-2.31449">
        <ele>-5.4000000953674</ele>
        <time>2021-08-22T09:59:32.000Z</time>
      </trkpt>
      <trkpt lat="47.28746" lon="-2.31473">
        <ele>-5.4000000953674</ele>
        <time>2021-08-22T09:59:38.000Z</time>
      </trkpt>
      <trkpt lat="47.28696" lon="-2.31496">
        <ele>-5.4000000953674</ele>
        <time>2021-08-22T09:59:45.000Z</time>
      </trkpt>
      <trkpt lat="47.28676" lon="-2.31482">
        <ele>-5.4000000953674</ele>
        <time>2021-08-22T09:59:48.000Z</time>
      </trkpt>
      <trkpt lat="47.28669" lon="-2.31456">
        <ele>-5.4000000953674</ele>
        <time>2021-08-22T09:59:51.000Z</time>
      </trkpt>
      <trkpt lat="47.2866" lon="-2.31453">
        <ele>-5.4000000953674</ele>
        <time>2021-08-22T09:59:53.000Z</time>
      </trkpt>
      <trkpt lat="47.28646" lon="-2.31461">
        <ele>-5.4000000953674</ele>
        <time>2021-08-22T09:59:56.000Z</time>
      </trkpt>
      <trkpt lat="47.28642" lon="-2.31463">
        <ele>-5.4000000953674</ele>
        <time>2021-08-22T09:59:57.000Z</time>
      </trkpt>
      <trkpt lat="47.28628" lon="-2.31469">
        <ele>-5.4000000953674</ele>
        <time>2021-08-22T10:00:01.000Z</time>
      </trkpt>
      <trkpt lat="47.28619" lon="-2.31479">
        <ele>-5.4000000953674</ele>
        <time>2021-08-22T10:00:04.000Z</time>
      </trkpt>
      <trkpt lat="47.2862" lon="-2.31493">
        <ele>-5.4000000953674</ele>
        <time>2021-08-22T10:00:06.000Z</time>
      </trkpt>
      <trkpt lat="47.28623" lon="-2.31507">
        <ele>-5.4000000953674</ele>
        <time>2021-08-22T10:00:08.000Z</time>
      </trkpt>
      <trkpt lat="47.28625" lon="-2.31531">
        <ele>-5.4000000953674</ele>
        <time>2021-08-22T10:00:11.000Z</time>
      </trkpt>
      <trkpt lat="47.28624" lon="-2.31589">
        <ele>-5.4000000953674</ele>
        <time>2021-08-22T10:00:18.000Z</time>
      </trkpt>
      <trkpt lat="47.28625" lon="-2.31666">
        <ele>-5.4000000953674</ele>
        <time>2021-08-22T10:00:27.000Z</time>
      </trkpt>
      <trkpt lat="47.28634" lon="-2.31731">
        <ele>-5.4000000953674</ele>
        <time>2021-08-22T10:00:35.000Z</time>
      </trkpt>
      <trkpt lat="47.28645" lon="-2.31811">
        <ele>-5.4000000953674</ele>
        <time>2021-08-22T10:00:45.000Z</time>
      </trkpt>
      <trkpt lat="47.28653" lon="-2.31886">
        <ele>-5.4000000953674</ele>
        <time>2021-08-22T10:00:53.000Z</time>
      </trkpt>
      <trkpt lat="47.28663" lon="-2.31966">
        <ele>-5.4000000953674</ele>
        <time>2021-08-22T10:01:01.000Z</time>
      </trkpt>
      <trkpt lat="47.28665" lon="-2.31977">
        <ele>-5.4000000953674</ele>
        <time>2021-08-22T10:01:02.000Z</time>
      </trkpt>
      <trkpt lat="47.28678" lon="-2.32045">
        <ele>-5.4000000953674</ele>
        <time>2021-08-22T10:01:08.000Z</time>
      </trkpt>
      <trkpt lat="47.28693" lon="-2.32128">
        <ele>-5.4000000953674</ele>
        <time>2021-08-22T10:01:15.000Z</time>
      </trkpt>
      <trkpt lat="47.28684" lon="-2.32166">
        <ele>-5.4000000953674</ele>
        <time>2021-08-22T10:01:18.000Z</time>
      </trkpt>
      <trkpt lat="47.28668" lon="-2.32198">
        <ele>-5.4000000953674</ele>
        <time>2021-08-22T10:01:21.000Z</time>
      </trkpt>
      <trkpt lat="47.28662" lon="-2.32208">
        <ele>-5.4000000953674</ele>
        <time>2021-08-22T10:01:22.000Z</time>
      </trkpt>
      <trkpt lat="47.28656" lon="-2.32216">
        <ele>-5.4000000953674</ele>
        <time>2021-08-22T10:01:23.000Z</time>
      </trkpt>
      <trkpt lat="47.28632" lon="-2.32236">
        <ele>-5.4000000953674</ele>
        <time>2021-08-22T10:01:26.000Z</time>
      </trkpt>
      <trkpt lat="47.28623" lon="-2.32242">
        <ele>-5.4000000953674</ele>
        <time>2021-08-22T10:01:27.000Z</time>
      </trkpt>
      <trkpt lat="47.28595" lon="-2.3226">
        <ele>-6</ele>
        <time>2021-08-22T10:01:30.000Z</time>
      </trkpt>
      <trkpt lat="47.28586" lon="-2.32266">
        <ele>-6.4000000953674</ele>
        <time>2021-08-22T10:01:31.000Z</time>
      </trkpt>
      <trkpt lat="47.28576" lon="-2.32272">
        <ele>-6.8000001907349</ele>
        <time>2021-08-22T10:01:32.000Z</time>
      </trkpt>
      <trkpt lat="47.28568" lon="-2.32279">
        <ele>-7.1999998092651</ele>
        <time>2021-08-22T10:01:33.000Z</time>
      </trkpt>
      <trkpt lat="47.28558" lon="-2.32286">
        <ele>-7.5999999046326</ele>
        <time>2021-08-22T10:01:34.000Z</time>
      </trkpt>
      <trkpt lat="47.28542" lon="-2.323">
        <ele>-7.5999999046326</ele>
        <time>2021-08-22T10:01:36.000Z</time>
      </trkpt>
      <trkpt lat="47.28506" lon="-2.32339">
        <ele>-8.1999998092651</ele>
        <time>2021-08-22T10:01:41.000Z</time>
      </trkpt>
      <trkpt lat="47.28498" lon="-2.32344">
        <ele>-8.6000003814697</ele>
        <time>2021-08-22T10:01:42.000Z</time>
      </trkpt>
      <trkpt lat="47.2849" lon="-2.32349">
        <ele>-9</ele>
        <time>2021-08-22T10:01:43.000Z</time>
      </trkpt>
      <trkpt lat="47.28482" lon="-2.32355">
        <ele>-9.3999996185303</ele>
        <time>2021-08-22T10:01:44.000Z</time>
      </trkpt>
      <trkpt lat="47.28474" lon="-2.3236">
        <ele>-9.8000001907349</ele>
        <time>2021-08-22T10:01:45.000Z</time>
      </trkpt>
      <trkpt lat="47.28448" lon="-2.32376">
        <ele>-9.8000001907349</ele>
        <time>2021-08-22T10:01:48.000Z</time>
      </trkpt>
      <trkpt lat="47.28394" lon="-2.32411">
        <ele>-10.199999809265</ele>
        <time>2021-08-22T10:01:55.000Z</time>
      </trkpt>
      <trkpt lat="47.28388" lon="-2.32415">
        <ele>-10.800000190735</ele>
        <time>2021-08-22T10:01:56.000Z</time>
      </trkpt>
      <trkpt lat="47.28382" lon="-2.32418">
        <ele>-11.199999809265</ele>
        <time>2021-08-22T10:01:57.000Z</time>
      </trkpt>
      <trkpt lat="47.28378" lon="-2.32422">
        <ele>-12.199999809265</ele>
        <time>2021-08-22T10:01:58.000Z</time>
      </trkpt>
      <trkpt lat="47.28375" lon="-2.32427">
        <ele>-12.60000038147</ele>
        <time>2021-08-22T10:01:59.000Z</time>
      </trkpt>
      <trkpt lat="47.28375" lon="-2.32432">
        <ele>-13</ele>
        <time>2021-08-22T10:02:00.000Z</time>
      </trkpt>
      <trkpt lat="47.28375" lon="-2.32438">
        <ele>-13.60000038147</ele>
        <time>2021-08-22T10:02:01.000Z</time>
      </trkpt>
      <trkpt lat="47.28376" lon="-2.32444">
        <ele>-14</ele>
        <time>2021-08-22T10:02:02.000Z</time>
      </trkpt>
      <trkpt lat="47.28377" lon="-2.32451">
        <ele>-14.39999961853</ele>
        <time>2021-08-22T10:02:03.000Z</time>
      </trkpt>
      <trkpt lat="47.28378" lon="-2.32457">
        <ele>-14.39999961853</ele>
        <time>2021-08-22T10:02:04.000Z</time>
      </trkpt>
      <trkpt lat="47.28383" lon="-2.32478">
        <ele>-14.39999961853</ele>
        <time>2021-08-22T10:02:07.000Z</time>
      </trkpt>
      <trkpt lat="47.28391" lon="-2.32516">
        <ele>-14.39999961853</ele>
        <time>2021-08-22T10:02:13.000Z</time>
      </trkpt>
      <trkpt lat="47.28392" lon="-2.32525">
        <ele>-14.39999961853</ele>
        <time>2021-08-22T10:02:17.000Z</time>
      </trkpt>
      <trkpt lat="47.28382" lon="-2.32526">
        <ele>-14.39999961853</ele>
        <time>2021-08-22T10:02:21.000Z</time>
      </trkpt>
      <trkpt lat="47.28372" lon="-2.32527">
        <ele>-14.39999961853</ele>
        <time>2021-08-22T10:02:24.000Z</time>
      </trkpt>
      <trkpt lat="47.2837" lon="-2.32526">
        <ele>-14.39999961853</ele>
        <time>2021-08-22T10:02:25.000Z</time>
      </trkpt>
      <trkpt lat="47.28367" lon="-2.32526">
        <ele>-14.800000190735</ele>
        <time>2021-08-22T10:02:26.000Z</time>
      </trkpt>
      <trkpt lat="47.28365" lon="-2.32527">
        <ele>-15.199999809265</ele>
        <time>2021-08-22T10:02:27.000Z</time>
      </trkpt>
      <trkpt lat="47.28363" lon="-2.32526">
        <ele>-15.60000038147</ele>
        <time>2021-08-22T10:02:28.000Z</time>
      </trkpt>
      <trkpt lat="47.28362" lon="-2.32526">
        <ele>-16</ele>
        <time>2021-08-22T10:02:29.000Z</time>
      </trkpt>
      <trkpt lat="47.2836" lon="-2.32526">
        <ele>-16.39999961853</ele>
        <time>2021-08-22T10:02:30.000Z</time>
      </trkpt>
      <trkpt lat="47.28347" lon="-2.32524">
        <ele>-16.39999961853</ele>
        <time>2021-08-22T10:02:37.000Z</time>
      </trkpt>
      <trkpt lat="47.28327" lon="-2.32525">
        <ele>-16.39999961853</ele>
        <time>2021-08-22T10:02:45.000Z</time>
      </trkpt>
      <trkpt lat="47.28304" lon="-2.32524">
        <ele>-16.39999961853</ele>
        <time>2021-08-22T10:02:52.000Z</time>
      </trkpt>
      <trkpt lat="47.28288" lon="-2.32522">
        <ele>-16.39999961853</ele>
        <time>2021-08-22T10:02:57.000Z</time>
      </trkpt>
      <trkpt lat="47.28269" lon="-2.32515">
        <ele>-16.39999961853</ele>
        <time>2021-08-22T10:03:03.000Z</time>
      </trkpt>
      <trkpt lat="47.28251" lon="-2.32494">
        <ele>-16.39999961853</ele>
        <time>2021-08-22T10:03:09.000Z</time>
      </trkpt>
      <trkpt lat="47.28234" lon="-2.32476">
        <ele>-16.39999961853</ele>
        <time>2021-08-22T10:03:15.000Z</time>
      </trkpt>
      <trkpt lat="47.28216" lon="-2.32461">
        <ele>-16.39999961853</ele>
        <time>2021-08-22T10:03:21.000Z</time>
      </trkpt>
      <trkpt lat="47.28198" lon="-2.32452">
        <ele>-16.39999961853</ele>
        <time>2021-08-22T10:03:27.000Z</time>
      </trkpt>
      <trkpt lat="47.28184" lon="-2.32449">
        <ele>-16.39999961853</ele>
        <time>2021-08-22T10:03:33.000Z</time>
      </trkpt>
      <trkpt lat="47.28162" lon="-2.32445">
        <ele>-16.39999961853</ele>
        <time>2021-08-22T10:03:40.000Z</time>
      </trkpt>
      <trkpt lat="47.28134" lon="-2.32453">
        <ele>-16.39999961853</ele>
        <time>2021-08-22T10:03:46.000Z</time>
      </trkpt>
      <trkpt lat="47.28106" lon="-2.32446">
        <ele>-16.39999961853</ele>
        <time>2021-08-22T10:03:52.000Z</time>
      </trkpt>
      <trkpt lat="47.28095" lon="-2.32437">
        <ele>-16.39999961853</ele>
        <time>2021-08-22T10:03:55.000Z</time>
      </trkpt>
      <trkpt lat="47.2808" lon="-2.32431">
        <ele>-16.39999961853</ele>
        <time>2021-08-22T10:03:58.000Z</time>
      </trkpt>
      <trkpt lat="47.28067" lon="-2.3243">
        <ele>-16</ele>
        <time>2021-08-22T10:04:00.000Z</time>
      </trkpt>
      <trkpt lat="47.28061" lon="-2.3243">
        <ele>-15</ele>
        <time>2021-08-22T10:04:01.000Z</time>
      </trkpt>
      <trkpt lat="47.28055" lon="-2.3243">
        <ele>-14.60000038147</ele>
        <time>2021-08-22T10:04:02.000Z</time>
      </trkpt>
      <trkpt lat="47.28049" lon="-2.3243">
        <ele>-14.199999809265</ele>
        <time>2021-08-22T10:04:03.000Z</time>
      </trkpt>
      <trkpt lat="47.28015" lon="-2.32427">
        <ele>-14.199999809265</ele>
        <time>2021-08-22T10:04:08.000Z</time>
      </trkpt>
      <trkpt lat="47.28002" lon="-2.32422">
        <ele>-14.199999809265</ele>
        <time>2021-08-22T10:04:10.000Z</time>
      </trkpt>
      <trkpt lat="47.27983" lon="-2.32416">
        <ele>-14.199999809265</ele>
        <time>2021-08-22T10:04:13.000Z</time>
      </trkpt>
      <trkpt lat="47.27972" lon="-2.32412">
        <ele>-14.199999809265</ele>
        <time>2021-08-22T10:04:15.000Z</time>
      </trkpt>
      <trkpt lat="47.27956" lon="-2.32403">
        <ele>-14.199999809265</ele>
        <time>2021-08-22T10:04:18.000Z</time>
      </trkpt>
      <trkpt lat="47.27945" lon="-2.324">
        <ele>-14.199999809265</ele>
        <time>2021-08-22T10:04:20.000Z</time>
      </trkpt>
      <trkpt lat="47.27933" lon="-2.32398">
        <ele>-14.199999809265</ele>
        <time>2021-08-22T10:04:23.000Z</time>
      </trkpt>
      <trkpt lat="47.27921" lon="-2.32396">
        <ele>-14.199999809265</ele>
        <time>2021-08-22T10:04:28.000Z</time>
      </trkpt>
      <trkpt lat="47.27913" lon="-2.32389">
        <ele>-14.199999809265</ele>
        <time>2021-08-22T10:04:34.000Z</time>
      </trkpt>
      <trkpt lat="47.27901" lon="-2.32387">
        <ele>-14.199999809265</ele>
        <time>2021-08-22T10:04:39.000Z</time>
      </trkpt>
      <trkpt lat="47.27889" lon="-2.32389">
        <ele>-14.199999809265</ele>
        <time>2021-08-22T10:04:45.000Z</time>
      </trkpt>
      <trkpt lat="47.27874" lon="-2.32386">
        <ele>-14.199999809265</ele>
        <time>2021-08-22T10:04:50.000Z</time>
      </trkpt>
      <trkpt lat="47.27858" lon="-2.32379">
        <ele>-14.199999809265</ele>
        <time>2021-08-22T10:04:56.000Z</time>
      </trkpt>
      <trkpt lat="47.27846" lon="-2.32374">
        <ele>-13.800000190735</ele>
        <time>2021-08-22T10:05:00.000Z</time>
      </trkpt>
      <trkpt lat="47.27843" lon="-2.32374">
        <ele>-13.39999961853</ele>
        <time>2021-08-22T10:05:01.000Z</time>
      </trkpt>
      <trkpt lat="47.2784" lon="-2.32375">
        <ele>-13</ele>
        <time>2021-08-22T10:05:02.000Z</time>
      </trkpt>
      <trkpt lat="47.27836" lon="-2.32376">
        <ele>-12.60000038147</ele>
        <time>2021-08-22T10:05:03.000Z</time>
      </trkpt>
      <trkpt lat="47.27832" lon="-2.32378">
        <ele>-12.199999809265</ele>
        <time>2021-08-22T10:05:04.000Z</time>
      </trkpt>
      <trkpt lat="47.27814" lon="-2.3238">
        <ele>-12.199999809265</ele>
        <time>2021-08-22T10:05:08.000Z</time>
      </trkpt>
      <trkpt lat="47.27795" lon="-2.32384">
        <ele>-12.199999809265</ele>
        <time>2021-08-22T10:05:13.000Z</time>
      </trkpt>
      <trkpt lat="47.2778" lon="-2.32385">
        <ele>-12.199999809265</ele>
        <time>2021-08-22T10:05:19.000Z</time>
      </trkpt>
      <trkpt lat="47.27774" lon="-2.32385">
        <ele>-12.199999809265</ele>
        <time>2021-08-22T10:05:21.000Z</time>
      </trkpt>
      <trkpt lat="47.27769" lon="-2.32375">
        <ele>-12.199999809265</ele>
        <time>2021-08-22T10:05:23.000Z</time>
      </trkpt>
      <trkpt lat="47.27752" lon="-2.32362">
        <ele>-12.199999809265</ele>
        <time>2021-08-22T10:05:28.000Z</time>
      </trkpt>
      <trkpt lat="47.2773" lon="-2.32351">
        <ele>-12.199999809265</ele>
        <time>2021-08-22T10:05:34.000Z</time>
      </trkpt>
      <trkpt lat="47.27716" lon="-2.32341">
        <ele>-12.199999809265</ele>
        <time>2021-08-22T10:05:40.000Z</time>
      </trkpt>
      <trkpt lat="47.2771" lon="-2.32337">
        <ele>-11.800000190735</ele>
        <time>2021-08-22T10:05:42.000Z</time>
      </trkpt>
      <trkpt lat="47.27707" lon="-2.32335">
        <ele>-11.39999961853</ele>
        <time>2021-08-22T10:05:43.000Z</time>
      </trkpt>
      <trkpt lat="47.27704" lon="-2.32333">
        <ele>-10.800000190735</ele>
        <time>2021-08-22T10:05:44.000Z</time>
      </trkpt>
      <trkpt lat="47.277" lon="-2.32331">
        <ele>-10.39999961853</ele>
        <time>2021-08-22T10:05:45.000Z</time>
      </trkpt>
      <trkpt lat="47.27696" lon="-2.32331">
        <ele>-10</ele>
        <time>2021-08-22T10:05:46.000Z</time>
      </trkpt>
      <trkpt lat="47.27666" lon="-2.3232">
        <ele>-10</ele>
        <time>2021-08-22T10:05:53.000Z</time>
      </trkpt>
      <trkpt lat="47.27658" lon="-2.32316">
        <ele>-10</ele>
        <time>2021-08-22T10:05:57.000Z</time>
      </trkpt>
      <trkpt lat="47.27658" lon="-2.32315">
        <ele>-10</ele>
        <time>2021-08-22T10:05:59.000Z</time>
      </trkpt>
      <trkpt lat="47.27652" lon="-2.32312">
        <ele>-10</ele>
        <time>2021-08-22T10:06:29.000Z</time>
      </trkpt>
      <trkpt lat="47.2765" lon="-2.32312">
        <ele>-10</ele>
        <time>2021-08-22T10:06:30.000Z</time>
      </trkpt>
      <trkpt lat="47.27635" lon="-2.32305">
        <ele>-10</ele>
        <time>2021-08-22T10:06:35.000Z</time>
      </trkpt>
      <trkpt lat="47.27625" lon="-2.32299">
        <ele>-10.60000038147</ele>
        <time>2021-08-22T10:06:39.000Z</time>
      </trkpt>
      <trkpt lat="47.27622" lon="-2.32296">
        <ele>-11</ele>
        <time>2021-08-22T10:06:40.000Z</time>
      </trkpt>
      <trkpt lat="47.2762" lon="-2.32294">
        <ele>-11.39999961853</ele>
        <time>2021-08-22T10:06:41.000Z</time>
      </trkpt>
      <trkpt lat="47.27618" lon="-2.32294">
        <ele>-11.800000190735</ele>
        <time>2021-08-22T10:06:42.000Z</time>
      </trkpt>
      <trkpt lat="47.27616" lon="-2.32294">
        <ele>-12.199999809265</ele>
        <time>2021-08-22T10:06:43.000Z</time>
      </trkpt>
      <trkpt lat="47.2761" lon="-2.32294">
        <ele>-12.199999809265</ele>
        <time>2021-08-22T10:06:45.000Z</time>
      </trkpt>
      <trkpt lat="47.27601" lon="-2.32282">
        <ele>-12.199999809265</ele>
        <time>2021-08-22T10:06:49.000Z</time>
      </trkpt>
      <trkpt lat="47.27594" lon="-2.32276">
        <ele>-12.199999809265</ele>
        <time>2021-08-22T10:06:51.000Z</time>
      </trkpt>
      <trkpt lat="47.27581" lon="-2.32265">
        <ele>-12.199999809265</ele>
        <time>2021-08-22T10:06:54.000Z</time>
      </trkpt>
      <trkpt lat="47.27556" lon="-2.32242">
        <ele>-12.60000038147</ele>
        <time>2021-08-22T10:06:59.000Z</time>
      </trkpt>
      <trkpt lat="47.2755" lon="-2.32237">
        <ele>-13</ele>
        <time>2021-08-22T10:07:00.000Z</time>
      </trkpt>
      <trkpt lat="47.27544" lon="-2.32232">
        <ele>-13.39999961853</ele>
        <time>2021-08-22T10:07:01.000Z</time>
      </trkpt>
      <trkpt lat="47.27538" lon="-2.32226">
        <ele>-13.800000190735</ele>
        <time>2021-08-22T10:07:02.000Z</time>
      </trkpt>
      <trkpt lat="47.27532" lon="-2.32221">
        <ele>-14.39999961853</ele>
        <time>2021-08-22T10:07:03.000Z</time>
      </trkpt>
      <trkpt lat="47.27514" lon="-2.32199">
        <ele>-14.39999961853</ele>
        <time>2021-08-22T10:07:06.000Z</time>
      </trkpt>
      <trkpt lat="47.27496" lon="-2.32176">
        <ele>-14.800000190735</ele>
        <time>2021-08-22T10:07:09.000Z</time>
      </trkpt>
      <trkpt lat="47.2749" lon="-2.32167">
        <ele>-15.199999809265</ele>
        <time>2021-08-22T10:07:10.000Z</time>
      </trkpt>
      <trkpt lat="47.27484" lon="-2.3216">
        <ele>-15.800000190735</ele>
        <time>2021-08-22T10:07:11.000Z</time>
      </trkpt>
      <trkpt lat="47.27479" lon="-2.32154">
        <ele>-16.200000762939</ele>
        <time>2021-08-22T10:07:12.000Z</time>
      </trkpt>
      <trkpt lat="47.27474" lon="-2.32149">
        <ele>-16.799999237061</ele>
        <time>2021-08-22T10:07:13.000Z</time>
      </trkpt>
      <trkpt lat="47.27469" lon="-2.32143">
        <ele>-17.200000762939</ele>
        <time>2021-08-22T10:07:14.000Z</time>
      </trkpt>
      <trkpt lat="47.27465" lon="-2.32138">
        <ele>-17.799999237061</ele>
        <time>2021-08-22T10:07:15.000Z</time>
      </trkpt>
      <trkpt lat="47.27462" lon="-2.32134">
        <ele>-18.200000762939</ele>
        <time>2021-08-22T10:07:16.000Z</time>
      </trkpt>
      <trkpt lat="47.2746" lon="-2.32131">
        <ele>-18.799999237061</ele>
        <time>2021-08-22T10:07:17.000Z</time>
      </trkpt>
      <trkpt lat="47.27457" lon="-2.32126">
        <ele>-18.799999237061</ele>
        <time>2021-08-22T10:07:21.000Z</time>
      </trkpt>
      <trkpt lat="47.27456" lon="-2.32123">
        <ele>-20.799999237061</ele>
        <time>2021-08-22T10:09:04.000Z</time>
      </trkpt>
      <trkpt lat="47.27452" lon="-2.32117">
        <ele>-20.799999237061</ele>
        <time>2021-08-22T10:09:07.000Z</time>
      </trkpt>
      <trkpt lat="47.2744" lon="-2.321">
        <ele>-20.799999237061</ele>
        <time>2021-08-22T10:09:12.000Z</time>
      </trkpt>
      <trkpt lat="47.27421" lon="-2.32074">
        <ele>-20.799999237061</ele>
        <time>2021-08-22T10:09:18.000Z</time>
      </trkpt>
      <trkpt lat="47.27388" lon="-2.3204">
        <ele>-20.799999237061</ele>
        <time>2021-08-22T10:09:25.000Z</time>
      </trkpt>
      <trkpt lat="47.27361" lon="-2.32014">
        <ele>-21.200000762939</ele>
        <time>2021-08-22T10:09:30.000Z</time>
      </trkpt>
      <trkpt lat="47.27358" lon="-2.32014">
        <ele>-21.60000038147</ele>
        <time>2021-08-22T10:09:31.000Z</time>
      </trkpt>
      <trkpt lat="47.27356" lon="-2.32016">
        <ele>-22</ele>
        <time>2021-08-22T10:09:32.000Z</time>
      </trkpt>
      <trkpt lat="47.27356" lon="-2.3202">
        <ele>-22.39999961853</ele>
        <time>2021-08-22T10:09:33.000Z</time>
      </trkpt>
      <trkpt lat="47.27357" lon="-2.32024">
        <ele>-23</ele>
        <time>2021-08-22T10:09:34.000Z</time>
      </trkpt>
      <trkpt lat="47.27359" lon="-2.32028">
        <ele>-23.60000038147</ele>
        <time>2021-08-22T10:09:35.000Z</time>
      </trkpt>
      <trkpt lat="47.27363" lon="-2.3203">
        <ele>-24</ele>
        <time>2021-08-22T10:09:36.000Z</time>
      </trkpt>
      <trkpt lat="47.27367" lon="-2.32033">
        <ele>-24.60000038147</ele>
        <time>2021-08-22T10:09:37.000Z</time>
      </trkpt>
      <trkpt lat="47.2737" lon="-2.32038">
        <ele>-25.200000762939</ele>
        <time>2021-08-22T10:09:38.000Z</time>
      </trkpt>
      <trkpt lat="47.27377" lon="-2.32046">
        <ele>-25.200000762939</ele>
        <time>2021-08-22T10:09:40.000Z</time>
      </trkpt>
      <trkpt lat="47.27385" lon="-2.32057">
        <ele>-25.200000762939</ele>
        <time>2021-08-22T10:09:42.000Z</time>
      </trkpt>
      <trkpt lat="47.27393" lon="-2.32066">
        <ele>-25.200000762939</ele>
        <time>2021-08-22T10:09:44.000Z</time>
      </trkpt>
      <trkpt lat="47.27411" lon="-2.32095">
        <ele>-25.200000762939</ele>
        <time>2021-08-22T10:09:49.000Z</time>
      </trkpt>
      <trkpt lat="47.27412" lon="-2.32102">
        <ele>-25.200000762939</ele>
        <time>2021-08-22T10:09:50.000Z</time>
      </trkpt>
      <trkpt lat="47.27411" lon="-2.32125">
        <ele>-25.200000762939</ele>
        <time>2021-08-22T10:09:53.000Z</time>
      </trkpt>
      <trkpt lat="47.27404" lon="-2.32169">
        <ele>-25.200000762939</ele>
        <time>2021-08-22T10:09:58.000Z</time>
      </trkpt>
      <trkpt lat="47.27393" lon="-2.3224">
        <ele>-25.200000762939</ele>
        <time>2021-08-22T10:10:05.000Z</time>
      </trkpt>
      <trkpt lat="47.27387" lon="-2.32259">
        <ele>-25.200000762939</ele>
        <time>2021-08-22T10:10:07.000Z</time>
      </trkpt>
      <trkpt lat="47.2738" lon="-2.32285">
        <ele>-24.799999237061</ele>
        <time>2021-08-22T10:10:10.000Z</time>
      </trkpt>
      <trkpt lat="47.27378" lon="-2.32293">
        <ele>-24.39999961853</ele>
        <time>2021-08-22T10:10:11.000Z</time>
      </trkpt>
      <trkpt lat="47.27376" lon="-2.323">
        <ele>-24</ele>
        <time>2021-08-22T10:10:12.000Z</time>
      </trkpt>
      <trkpt lat="47.27375" lon="-2.32307">
        <ele>-23.60000038147</ele>
        <time>2021-08-22T10:10:13.000Z</time>
      </trkpt>
      <trkpt lat="47.27374" lon="-2.32315">
        <ele>-23.200000762939</ele>
        <time>2021-08-22T10:10:14.000Z</time>
      </trkpt>
      <trkpt lat="47.27372" lon="-2.32324">
        <ele>-23.200000762939</ele>
        <time>2021-08-22T10:10:15.000Z</time>
      </trkpt>
      <trkpt lat="47.27359" lon="-2.32385">
        <ele>-23.200000762939</ele>
        <time>2021-08-22T10:10:22.000Z</time>
      </trkpt>
      <trkpt lat="47.27341" lon="-2.32444">
        <ele>-23.200000762939</ele>
        <time>2021-08-22T10:10:28.000Z</time>
      </trkpt>
      <trkpt lat="47.27326" lon="-2.32475">
        <ele>-23.200000762939</ele>
        <time>2021-08-22T10:10:32.000Z</time>
      </trkpt>
      <trkpt lat="47.27322" lon="-2.32482">
        <ele>-23.200000762939</ele>
        <time>2021-08-22T10:10:33.000Z</time>
      </trkpt>
      <trkpt lat="47.27311" lon="-2.32502">
        <ele>-23.200000762939</ele>
        <time>2021-08-22T10:10:36.000Z</time>
      </trkpt>
      <trkpt lat="47.27303" lon="-2.32514">
        <ele>-23.200000762939</ele>
        <time>2021-08-22T10:10:38.000Z</time>
      </trkpt>
      <trkpt lat="47.27275" lon="-2.32553">
        <ele>-23.200000762939</ele>
        <time>2021-08-22T10:10:45.000Z</time>
      </trkpt>
      <trkpt lat="47.27244" lon="-2.32589">
        <ele>-23.200000762939</ele>
        <time>2021-08-22T10:10:52.000Z</time>
      </trkpt>
      <trkpt lat="47.27211" lon="-2.32622">
        <ele>-23.200000762939</ele>
        <time>2021-08-22T10:10:59.000Z</time>
      </trkpt>
      <trkpt lat="47.27177" lon="-2.32654">
        <ele>-23.200000762939</ele>
        <time>2021-08-22T10:11:06.000Z</time>
      </trkpt>
      <trkpt lat="47.27142" lon="-2.32688">
        <ele>-23.200000762939</ele>
        <time>2021-08-22T10:11:14.000Z</time>
      </trkpt>
      <trkpt lat="47.27138" lon="-2.32692">
        <ele>-23.200000762939</ele>
        <time>2021-08-22T10:11:15.000Z</time>
      </trkpt>
      <trkpt lat="47.27134" lon="-2.32703">
        <ele>-23.200000762939</ele>
        <time>2021-08-22T10:11:17.000Z</time>
      </trkpt>
      <trkpt lat="47.27131" lon="-2.32707">
        <ele>-23.200000762939</ele>
        <time>2021-08-22T10:11:18.000Z</time>
      </trkpt>
      <trkpt lat="47.27125" lon="-2.32713">
        <ele>-23.200000762939</ele>
        <time>2021-08-22T10:11:20.000Z</time>
      </trkpt>
      <trkpt lat="47.27101" lon="-2.32737">
        <ele>-23.200000762939</ele>
        <time>2021-08-22T10:11:26.000Z</time>
      </trkpt>
      <trkpt lat="47.27068" lon="-2.32766">
        <ele>-23.200000762939</ele>
        <time>2021-08-22T10:11:33.000Z</time>
      </trkpt>
      <trkpt lat="47.2704" lon="-2.32792">
        <ele>-23.200000762939</ele>
        <time>2021-08-22T10:11:39.000Z</time>
      </trkpt>
      <trkpt lat="47.26999" lon="-2.32829">
        <ele>-23.200000762939</ele>
        <time>2021-08-22T10:11:47.000Z</time>
      </trkpt>
      <trkpt lat="47.26978" lon="-2.32847">
        <ele>-23.60000038147</ele>
        <time>2021-08-22T10:11:51.000Z</time>
      </trkpt>
      <trkpt lat="47.26974" lon="-2.32851">
        <ele>-24</ele>
        <time>2021-08-22T10:11:52.000Z</time>
      </trkpt>
      <trkpt lat="47.26969" lon="-2.32856">
        <ele>-24.39999961853</ele>
        <time>2021-08-22T10:11:53.000Z</time>
      </trkpt>
      <trkpt lat="47.26964" lon="-2.32861">
        <ele>-24.799999237061</ele>
        <time>2021-08-22T10:11:54.000Z</time>
      </trkpt>
      <trkpt lat="47.26959" lon="-2.32865">
        <ele>-25.200000762939</ele>
        <time>2021-08-22T10:11:55.000Z</time>
      </trkpt>
      <trkpt lat="47.2693" lon="-2.32893">
        <ele>-25.200000762939</ele>
        <time>2021-08-22T10:12:01.000Z</time>
      </trkpt>
      <trkpt lat="47.26899" lon="-2.32922">
        <ele>-25.200000762939</ele>
        <time>2021-08-22T10:12:08.000Z</time>
      </trkpt>
      <trkpt lat="47.26858" lon="-2.3296">
        <ele>-25.200000762939</ele>
        <time>2021-08-22T10:12:16.000Z</time>
      </trkpt>
      <trkpt lat="47.26824" lon="-2.32994">
        <ele>-25.200000762939</ele>
        <time>2021-08-22T10:12:23.000Z</time>
      </trkpt>
      <trkpt lat="47.26794" lon="-2.33021">
        <ele>-25.200000762939</ele>
        <time>2021-08-22T10:12:29.000Z</time>
      </trkpt>
      <trkpt lat="47.26773" lon="-2.33042">
        <ele>-25.200000762939</ele>
        <time>2021-08-22T10:12:34.000Z</time>
      </trkpt>
      <trkpt lat="47.26761" lon="-2.33053">
        <ele>-25.200000762939</ele>
        <time>2021-08-22T10:12:37.000Z</time>
      </trkpt>
      <trkpt lat="47.26751" lon="-2.33063">
        <ele>-25.200000762939</ele>
        <time>2021-08-22T10:12:40.000Z</time>
      </trkpt>
      <trkpt lat="47.26744" lon="-2.33067">
        <ele>-25.60000038147</ele>
        <time>2021-08-22T10:12:43.000Z</time>
      </trkpt>
      <trkpt lat="47.26741" lon="-2.33066">
        <ele>-26</ele>
        <time>2021-08-22T10:12:44.000Z</time>
      </trkpt>
      <trkpt lat="47.26739" lon="-2.33065">
        <ele>-26.39999961853</ele>
        <time>2021-08-22T10:12:45.000Z</time>
      </trkpt>
      <trkpt lat="47.26738" lon="-2.33061">
        <ele>-27</ele>
        <time>2021-08-22T10:12:46.000Z</time>
      </trkpt>
      <trkpt lat="47.26736" lon="-2.33058">
        <ele>-27.39999961853</ele>
        <time>2021-08-22T10:12:47.000Z</time>
      </trkpt>
      <trkpt lat="47.26732" lon="-2.33057">
        <ele>-27.39999961853</ele>
        <time>2021-08-22T10:12:48.000Z</time>
      </trkpt>
      <trkpt lat="47.26723" lon="-2.3307">
        <ele>-27.39999961853</ele>
        <time>2021-08-22T10:12:51.000Z</time>
      </trkpt>
      <trkpt lat="47.26721" lon="-2.33075">
        <ele>-27.39999961853</ele>
        <time>2021-08-22T10:12:52.000Z</time>
      </trkpt>
      <trkpt lat="47.26709" lon="-2.33088">
        <ele>-27.39999961853</ele>
        <time>2021-08-22T10:12:55.000Z</time>
      </trkpt>
      <trkpt lat="47.26682" lon="-2.33114">
        <ele>-27.39999961853</ele>
        <time>2021-08-22T10:13:01.000Z</time>
      </trkpt>
      <trkpt lat="47.26664" lon="-2.33129">
        <ele>-27.39999961853</ele>
        <time>2021-08-22T10:13:05.000Z</time>
      </trkpt>
      <trkpt lat="47.26652" lon="-2.33139">
        <ele>-27.39999961853</ele>
        <time>2021-08-22T10:13:08.000Z</time>
      </trkpt>
      <trkpt lat="47.26647" lon="-2.33143">
        <ele>-27.39999961853</ele>
        <time>2021-08-22T10:13:09.000Z</time>
      </trkpt>
      <trkpt lat="47.26629" lon="-2.33154">
        <ele>-27.39999961853</ele>
        <time>2021-08-22T10:13:13.000Z</time>
      </trkpt>
      <trkpt lat="47.26618" lon="-2.33153">
        <ele>-27.39999961853</ele>
        <time>2021-08-22T10:13:15.000Z</time>
      </trkpt>
      <trkpt lat="47.26613" lon="-2.33154">
        <ele>-27.39999961853</ele>
        <time>2021-08-22T10:13:16.000Z</time>
      </trkpt>
      <trkpt lat="47.2661" lon="-2.33157">
        <ele>-27.39999961853</ele>
        <time>2021-08-22T10:13:17.000Z</time>
      </trkpt>
      <trkpt lat="47.26598" lon="-2.33181">
        <ele>-27.39999961853</ele>
        <time>2021-08-22T10:13:21.000Z</time>
      </trkpt>
      <trkpt lat="47.26592" lon="-2.33195">
        <ele>-27.39999961853</ele>
        <time>2021-08-22T10:13:24.000Z</time>
      </trkpt>
      <trkpt lat="47.26583" lon="-2.33204">
        <ele>-27.39999961853</ele>
        <time>2021-08-22T10:13:27.000Z</time>
      </trkpt>
      <trkpt lat="47.26555" lon="-2.33225">
        <ele>-27.39999961853</ele>
        <time>2021-08-22T10:13:33.000Z</time>
      </trkpt>
      <trkpt lat="47.26524" lon="-2.33245">
        <ele>-27.39999961853</ele>
        <time>2021-08-22T10:13:39.000Z</time>
      </trkpt>
      <trkpt lat="47.26501" lon="-2.33263">
        <ele>-27.39999961853</ele>
        <time>2021-08-22T10:13:45.000Z</time>
      </trkpt>
      <trkpt lat="47.26492" lon="-2.33278">
        <ele>-27.39999961853</ele>
        <time>2021-08-22T10:13:49.000Z</time>
      </trkpt>
      <trkpt lat="47.26479" lon="-2.33295">
        <ele>-27.39999961853</ele>
        <time>2021-08-22T10:13:54.000Z</time>
      </trkpt>
      <trkpt lat="47.26463" lon="-2.33314">
        <ele>-27.39999961853</ele>
        <time>2021-08-22T10:14:00.000Z</time>
      </trkpt>
      <trkpt lat="47.26439" lon="-2.33332">
        <ele>-27.39999961853</ele>
        <time>2021-08-22T10:14:05.000Z</time>
      </trkpt>
      <trkpt lat="47.26405" lon="-2.33357">
        <ele>-27.39999961853</ele>
        <time>2021-08-22T10:14:12.000Z</time>
      </trkpt>
      <trkpt lat="47.26373" lon="-2.33378">
        <ele>-27.39999961853</ele>
        <time>2021-08-22T10:14:18.000Z</time>
      </trkpt>
      <trkpt lat="47.26368" lon="-2.33381">
        <ele>-27.39999961853</ele>
        <time>2021-08-22T10:14:19.000Z</time>
      </trkpt>
      <trkpt lat="47.26345" lon="-2.3339">
        <ele>-27.39999961853</ele>
        <time>2021-08-22T10:14:23.000Z</time>
      </trkpt>
      <trkpt lat="47.26322" lon="-2.33402">
        <ele>-27.39999961853</ele>
        <time>2021-08-22T10:14:27.000Z</time>
      </trkpt>
      <trkpt lat="47.26313" lon="-2.33412">
        <ele>-27.39999961853</ele>
        <time>2021-08-22T10:14:29.000Z</time>
      </trkpt>
      <trkpt lat="47.26308" lon="-2.33416">
        <ele>-27.39999961853</ele>
        <time>2021-08-22T10:14:30.000Z</time>
      </trkpt>
      <trkpt lat="47.26296" lon="-2.3342">
        <ele>-27.39999961853</ele>
        <time>2021-08-22T10:14:32.000Z</time>
      </trkpt>
      <trkpt lat="47.26258" lon="-2.33428">
        <ele>-27.39999961853</ele>
        <time>2021-08-22T10:14:38.000Z</time>
      </trkpt>
      <trkpt lat="47.26218" lon="-2.33437">
        <ele>-27.39999961853</ele>
        <time>2021-08-22T10:14:45.000Z</time>
      </trkpt>
      <trkpt lat="47.26183" lon="-2.33442">
        <ele>-27.39999961853</ele>
        <time>2021-08-22T10:14:52.000Z</time>
      </trkpt>
      <trkpt lat="47.2617" lon="-2.33441">
        <ele>-27.39999961853</ele>
        <time>2021-08-22T10:14:55.000Z</time>
      </trkpt>
      <trkpt lat="47.26152" lon="-2.33435">
        <ele>-27.39999961853</ele>
        <time>2021-08-22T10:14:59.000Z</time>
      </trkpt>
      <trkpt lat="47.26144" lon="-2.33432">
        <ele>-27.39999961853</ele>
        <time>2021-08-22T10:15:01.000Z</time>
      </trkpt>
      <trkpt lat="47.26138" lon="-2.33435">
        <ele>-27.39999961853</ele>
        <time>2021-08-22T10:15:03.000Z</time>
      </trkpt>
      <trkpt lat="47.26131" lon="-2.33448">
        <ele>-27.39999961853</ele>
        <time>2021-08-22T10:15:06.000Z</time>
      </trkpt>
      <trkpt lat="47.26128" lon="-2.33453">
        <ele>-27.39999961853</ele>
        <time>2021-08-22T10:15:07.000Z</time>
      </trkpt>
      <trkpt lat="47.26121" lon="-2.33472">
        <ele>-27.39999961853</ele>
        <time>2021-08-22T10:15:10.000Z</time>
      </trkpt>
      <trkpt lat="47.26117" lon="-2.33487">
        <ele>-27.39999961853</ele>
        <time>2021-08-22T10:15:12.000Z</time>
      </trkpt>
      <trkpt lat="47.2611" lon="-2.33494">
        <ele>-27.39999961853</ele>
        <time>2021-08-22T10:15:14.000Z</time>
      </trkpt>
      <trkpt lat="47.26102" lon="-2.33492">
        <ele>-27.39999961853</ele>
        <time>2021-08-22T10:15:16.000Z</time>
      </trkpt>
      <trkpt lat="47.26098" lon="-2.3349">
        <ele>-27.39999961853</ele>
        <time>2021-08-22T10:15:17.000Z</time>
      </trkpt>
      <trkpt lat="47.26092" lon="-2.33488">
        <ele>-27.39999961853</ele>
        <time>2021-08-22T10:15:20.000Z</time>
      </trkpt>
      <trkpt lat="47.26087" lon="-2.33486">
        <ele>-27.39999961853</ele>
        <time>2021-08-22T10:15:22.000Z</time>
      </trkpt>
      <trkpt lat="47.26082" lon="-2.33478">
        <ele>-27.39999961853</ele>
        <time>2021-08-22T10:15:24.000Z</time>
      </trkpt>
      <trkpt lat="47.26073" lon="-2.33468">
        <ele>-27.39999961853</ele>
        <time>2021-08-22T10:15:26.000Z</time>
      </trkpt>
      <trkpt lat="47.26064" lon="-2.33457">
        <ele>-27.39999961853</ele>
        <time>2021-08-22T10:15:28.000Z</time>
      </trkpt>
      <trkpt lat="47.26059" lon="-2.33454">
        <ele>-27.39999961853</ele>
        <time>2021-08-22T10:15:29.000Z</time>
      </trkpt>
      <trkpt lat="47.26049" lon="-2.33458">
        <ele>-27.39999961853</ele>
        <time>2021-08-22T10:15:31.000Z</time>
      </trkpt>
      <trkpt lat="47.26042" lon="-2.33471">
        <ele>-27.39999961853</ele>
        <time>2021-08-22T10:15:33.000Z</time>
      </trkpt>
      <trkpt lat="47.26033" lon="-2.33483">
        <ele>-27.39999961853</ele>
        <time>2021-08-22T10:15:35.000Z</time>
      </trkpt>
      <trkpt lat="47.26015" lon="-2.33491">
        <ele>-27.39999961853</ele>
        <time>2021-08-22T10:15:38.000Z</time>
      </trkpt>
      <trkpt lat="47.2601" lon="-2.33492">
        <ele>-27.39999961853</ele>
        <time>2021-08-22T10:15:39.000Z</time>
      </trkpt>
      <trkpt lat="47.25987" lon="-2.33499">
        <ele>-27.39999961853</ele>
        <time>2021-08-22T10:15:43.000Z</time>
      </trkpt>
      <trkpt lat="47.25981" lon="-2.33503">
        <ele>-27.39999961853</ele>
        <time>2021-08-22T10:15:44.000Z</time>
      </trkpt>
      <trkpt lat="47.25964" lon="-2.33509">
        <ele>-27.39999961853</ele>
        <time>2021-08-22T10:15:47.000Z</time>
      </trkpt>
      <trkpt lat="47.25958" lon="-2.33509">
        <ele>-27.39999961853</ele>
        <time>2021-08-22T10:15:48.000Z</time>
      </trkpt>
      <trkpt lat="47.25953" lon="-2.33512">
        <ele>-27.39999961853</ele>
        <time>2021-08-22T10:15:49.000Z</time>
      </trkpt>
      <trkpt lat="47.25948" lon="-2.33517">
        <ele>-27.39999961853</ele>
        <time>2021-08-22T10:15:50.000Z</time>
      </trkpt>
      <trkpt lat="47.25928" lon="-2.33535">
        <ele>-27.39999961853</ele>
        <time>2021-08-22T10:15:54.000Z</time>
      </trkpt>
      <trkpt lat="47.25919" lon="-2.33544">
        <ele>-27.39999961853</ele>
        <time>2021-08-22T10:15:56.000Z</time>
      </trkpt>
      <trkpt lat="47.25899" lon="-2.3356">
        <ele>-27</ele>
        <time>2021-08-22T10:16:00.000Z</time>
      </trkpt>
      <trkpt lat="47.25895" lon="-2.33564">
        <ele>-26.60000038147</ele>
        <time>2021-08-22T10:16:01.000Z</time>
      </trkpt>
      <trkpt lat="47.2589" lon="-2.33568">
        <ele>-26.200000762939</ele>
        <time>2021-08-22T10:16:02.000Z</time>
      </trkpt>
      <trkpt lat="47.25885" lon="-2.33572">
        <ele>-25.799999237061</ele>
        <time>2021-08-22T10:16:03.000Z</time>
      </trkpt>
      <trkpt lat="47.2588" lon="-2.33575">
        <ele>-25.39999961853</ele>
        <time>2021-08-22T10:16:04.000Z</time>
      </trkpt>
      <trkpt lat="47.25875" lon="-2.33578">
        <ele>-25.39999961853</ele>
        <time>2021-08-22T10:16:05.000Z</time>
      </trkpt>
      <trkpt lat="47.25863" lon="-2.33579">
        <ele>-25.39999961853</ele>
        <time>2021-08-22T10:16:07.000Z</time>
      </trkpt>
      <trkpt lat="47.25819" lon="-2.33579">
        <ele>-25.39999961853</ele>
        <time>2021-08-22T10:16:14.000Z</time>
      </trkpt>
      <trkpt lat="47.25781" lon="-2.33583">
        <ele>-25.39999961853</ele>
        <time>2021-08-22T10:16:20.000Z</time>
      </trkpt>
      <trkpt lat="47.25755" lon="-2.33585">
        <ele>-25.39999961853</ele>
        <time>2021-08-22T10:16:24.000Z</time>
      </trkpt>
      <trkpt lat="47.25743" lon="-2.33588">
        <ele>-25.39999961853</ele>
        <time>2021-08-22T10:16:26.000Z</time>
      </trkpt>
      <trkpt lat="47.25718" lon="-2.33586">
        <ele>-25.39999961853</ele>
        <time>2021-08-22T10:16:30.000Z</time>
      </trkpt>
      <trkpt lat="47.25678" lon="-2.33582">
        <ele>-24.799999237061</ele>
        <time>2021-08-22T10:16:36.000Z</time>
      </trkpt>
      <trkpt lat="47.25671" lon="-2.33581">
        <ele>-24.39999961853</ele>
        <time>2021-08-22T10:16:37.000Z</time>
      </trkpt>
      <trkpt lat="47.25665" lon="-2.33579">
        <ele>-24</ele>
        <time>2021-08-22T10:16:38.000Z</time>
      </trkpt>
      <trkpt lat="47.25658" lon="-2.33576">
        <ele>-23.60000038147</ele>
        <time>2021-08-22T10:16:39.000Z</time>
      </trkpt>
      <trkpt lat="47.25652" lon="-2.33574">
        <ele>-23.200000762939</ele>
        <time>2021-08-22T10:16:40.000Z</time>
      </trkpt>
      <trkpt lat="47.25639" lon="-2.33568">
        <ele>-23.200000762939</ele>
        <time>2021-08-22T10:16:42.000Z</time>
      </trkpt>
      <trkpt lat="47.25603" lon="-2.33539">
        <ele>-23.200000762939</ele>
        <time>2021-08-22T10:16:48.000Z</time>
      </trkpt>
      <trkpt lat="47.25571" lon="-2.33499">
        <ele>-23.200000762939</ele>
        <time>2021-08-22T10:16:54.000Z</time>
      </trkpt>
      <trkpt lat="47.25544" lon="-2.33447">
        <ele>-23.200000762939</ele>
        <time>2021-08-22T10:17:00.000Z</time>
      </trkpt>
      <trkpt lat="47.2553" lon="-2.33394">
        <ele>-23.200000762939</ele>
        <time>2021-08-22T10:17:05.000Z</time>
      </trkpt>
      <trkpt lat="47.25524" lon="-2.33362">
        <ele>-23.200000762939</ele>
        <time>2021-08-22T10:17:08.000Z</time>
      </trkpt>
      <trkpt lat="47.25521" lon="-2.33329">
        <ele>-23.200000762939</ele>
        <time>2021-08-22T10:17:11.000Z</time>
      </trkpt>
      <trkpt lat="47.25512" lon="-2.33248">
        <ele>-23.200000762939</ele>
        <time>2021-08-22T10:17:18.000Z</time>
      </trkpt>
      <trkpt lat="47.25509" lon="-2.33226">
        <ele>-23.200000762939</ele>
        <time>2021-08-22T10:17:20.000Z</time>
      </trkpt>
      <trkpt lat="47.25498" lon="-2.33145">
        <ele>-23.200000762939</ele>
        <time>2021-08-22T10:17:27.000Z</time>
      </trkpt>
      <trkpt lat="47.25496" lon="-2.33133">
        <ele>-23.200000762939</ele>
        <time>2021-08-22T10:17:28.000Z</time>
      </trkpt>
      <trkpt lat="47.25492" lon="-2.33101">
        <ele>-23.200000762939</ele>
        <time>2021-08-22T10:17:31.000Z</time>
      </trkpt>
      <trkpt lat="47.2549" lon="-2.33094">
        <ele>-23.200000762939</ele>
        <time>2021-08-22T10:17:32.000Z</time>
      </trkpt>
      <trkpt lat="47.25481" lon="-2.33091">
        <ele>-23.200000762939</ele>
        <time>2021-08-22T10:17:34.000Z</time>
      </trkpt>
      <trkpt lat="47.25471" lon="-2.33096">
        <ele>-23.200000762939</ele>
        <time>2021-08-22T10:17:36.000Z</time>
      </trkpt>
      <trkpt lat="47.25461" lon="-2.33102">
        <ele>-23.200000762939</ele>
        <time>2021-08-22T10:17:38.000Z</time>
      </trkpt>
      <trkpt lat="47.25426" lon="-2.33119">
        <ele>-23.200000762939</ele>
        <time>2021-08-22T10:17:45.000Z</time>
      </trkpt>
      <trkpt lat="47.25421" lon="-2.33121">
        <ele>-23.200000762939</ele>
        <time>2021-08-22T10:17:46.000Z</time>
      </trkpt>
      <trkpt lat="47.2539" lon="-2.33138">
        <ele>-23.200000762939</ele>
        <time>2021-08-22T10:17:53.000Z</time>
      </trkpt>
      <trkpt lat="47.25379" lon="-2.33132">
        <ele>-23.200000762939</ele>
        <time>2021-08-22T10:17:56.000Z</time>
      </trkpt>
      <trkpt lat="47.25374" lon="-2.33119">
        <ele>-23.200000762939</ele>
        <time>2021-08-22T10:18:00.000Z</time>
      </trkpt>
      <trkpt lat="47.25373" lon="-2.33118">
        <ele>-23.200000762939</ele>
        <time>2021-08-22T10:18:01.000Z</time>
      </trkpt>
      <trkpt lat="47.25373" lon="-2.33111">
        <ele>-23.200000762939</ele>
        <time>2021-08-22T10:30:23.000Z</time>
      </trkpt>
      <trkpt lat="47.2537" lon="-2.33106">
        <ele>-23.200000762939</ele>
        <time>2021-08-22T10:30:25.000Z</time>
      </trkpt>
      <trkpt lat="47.25362" lon="-2.33084">
        <ele>-23.200000762939</ele>
        <time>2021-08-22T10:30:31.000Z</time>
      </trkpt>
      <trkpt lat="47.25347" lon="-2.33045">
        <ele>-23.200000762939</ele>
        <time>2021-08-22T10:30:40.000Z</time>
      </trkpt>
      <trkpt lat="47.25332" lon="-2.33007">
        <ele>-23.200000762939</ele>
        <time>2021-08-22T10:30:48.000Z</time>
      </trkpt>
      <trkpt lat="47.25315" lon="-2.32965">
        <ele>-23.200000762939</ele>
        <time>2021-08-22T10:30:56.000Z</time>
      </trkpt>
      <trkpt lat="47.25312" lon="-2.32954">
        <ele>-22.799999237061</ele>
        <time>2021-08-22T10:30:58.000Z</time>
      </trkpt>
      <trkpt lat="47.2531" lon="-2.32949">
        <ele>-22.39999961853</ele>
        <time>2021-08-22T10:30:59.000Z</time>
      </trkpt>
      <trkpt lat="47.25308" lon="-2.32943">
        <ele>-22</ele>
        <time>2021-08-22T10:31:00.000Z</time>
      </trkpt>
      <trkpt lat="47.25306" lon="-2.32938">
        <ele>-21.60000038147</ele>
        <time>2021-08-22T10:31:01.000Z</time>
      </trkpt>
      <trkpt lat="47.25305" lon="-2.32933">
        <ele>-21.200000762939</ele>
        <time>2021-08-22T10:31:02.000Z</time>
      </trkpt>
      <trkpt lat="47.25305" lon="-2.32927">
        <ele>-21.200000762939</ele>
        <time>2021-08-22T10:31:03.000Z</time>
      </trkpt>
      <trkpt lat="47.25308" lon="-2.32921">
        <ele>-21.200000762939</ele>
        <time>2021-08-22T10:31:04.000Z</time>
      </trkpt>
      <trkpt lat="47.25313" lon="-2.32912">
        <ele>-21.200000762939</ele>
        <time>2021-08-22T10:31:06.000Z</time>
      </trkpt>
      <trkpt lat="47.25333" lon="-2.32895">
        <ele>-21.200000762939</ele>
        <time>2021-08-22T10:31:11.000Z</time>
      </trkpt>
      <trkpt lat="47.25358" lon="-2.32869">
        <ele>-21.200000762939</ele>
        <time>2021-08-22T10:31:18.000Z</time>
      </trkpt>
      <trkpt lat="47.25383" lon="-2.32844">
        <ele>-21.200000762939</ele>
        <time>2021-08-22T10:31:25.000Z</time>
      </trkpt>
      <trkpt lat="47.25413" lon="-2.32807">
        <ele>-21.200000762939</ele>
        <time>2021-08-22T10:31:34.000Z</time>
      </trkpt>
      <trkpt lat="47.25426" lon="-2.32781">
        <ele>-21.200000762939</ele>
        <time>2021-08-22T10:31:41.000Z</time>
      </trkpt>
      <trkpt lat="47.2543" lon="-2.32769">
        <ele>-21.200000762939</ele>
        <time>2021-08-22T10:31:45.000Z</time>
      </trkpt>
      <trkpt lat="47.25433" lon="-2.32766">
        <ele>-21.200000762939</ele>
        <time>2021-08-22T10:31:46.000Z</time>
      </trkpt>
      <trkpt lat="47.25448" lon="-2.32744">
        <ele>-21.200000762939</ele>
        <time>2021-08-22T10:31:51.000Z</time>
      </trkpt>
      <trkpt lat="47.25455" lon="-2.32735">
        <ele>-20.799999237061</ele>
        <time>2021-08-22T10:31:53.000Z</time>
      </trkpt>
      <trkpt lat="47.25458" lon="-2.32731">
        <ele>-20.39999961853</ele>
        <time>2021-08-22T10:31:54.000Z</time>
      </trkpt>
      <trkpt lat="47.25461" lon="-2.32726">
        <ele>-19.60000038147</ele>
        <time>2021-08-22T10:31:55.000Z</time>
      </trkpt>
      <trkpt lat="47.25464" lon="-2.32722">
        <ele>-19.200000762939</ele>
        <time>2021-08-22T10:31:56.000Z</time>
      </trkpt>
      <trkpt lat="47.25478" lon="-2.32704">
        <ele>-19.200000762939</ele>
        <time>2021-08-22T10:32:00.000Z</time>
      </trkpt>
      <trkpt lat="47.25481" lon="-2.32699">
        <ele>-19.200000762939</ele>
        <time>2021-08-22T10:32:01.000Z</time>
      </trkpt>
      <trkpt lat="47.25488" lon="-2.32675">
        <ele>-19.200000762939</ele>
        <time>2021-08-22T10:32:05.000Z</time>
      </trkpt>
      <trkpt lat="47.25486" lon="-2.32649">
        <ele>-19.200000762939</ele>
        <time>2021-08-22T10:32:09.000Z</time>
      </trkpt>
      <trkpt lat="47.25485" lon="-2.32642">
        <ele>-19.200000762939</ele>
        <time>2021-08-22T10:32:10.000Z</time>
      </trkpt>
      <trkpt lat="47.25475" lon="-2.32589">
        <ele>-19.200000762939</ele>
        <time>2021-08-22T10:32:18.000Z</time>
      </trkpt>
      <trkpt lat="47.25476" lon="-2.3257">
        <ele>-19.200000762939</ele>
        <time>2021-08-22T10:32:21.000Z</time>
      </trkpt>
      <trkpt lat="47.2548" lon="-2.3256">
        <ele>-19.200000762939</ele>
        <time>2021-08-22T10:32:23.000Z</time>
      </trkpt>
      <trkpt lat="47.25492" lon="-2.32548">
        <ele>-19.200000762939</ele>
        <time>2021-08-22T10:32:26.000Z</time>
      </trkpt>
      <trkpt lat="47.25497" lon="-2.32543">
        <ele>-19.200000762939</ele>
        <time>2021-08-22T10:32:27.000Z</time>
      </trkpt>
      <trkpt lat="47.25532" lon="-2.32512">
        <ele>-19.200000762939</ele>
        <time>2021-08-22T10:32:34.000Z</time>
      </trkpt>
      <trkpt lat="47.25562" lon="-2.32486">
        <ele>-19.200000762939</ele>
        <time>2021-08-22T10:32:39.000Z</time>
      </trkpt>
      <trkpt lat="47.2558" lon="-2.32468">
        <ele>-19.60000038147</ele>
        <time>2021-08-22T10:32:42.000Z</time>
      </trkpt>
      <trkpt lat="47.25587" lon="-2.32461">
        <ele>-20</ele>
        <time>2021-08-22T10:32:43.000Z</time>
      </trkpt>
      <trkpt lat="47.25593" lon="-2.32454">
        <ele>-20.39999961853</ele>
        <time>2021-08-22T10:32:44.000Z</time>
      </trkpt>
      <trkpt lat="47.256" lon="-2.32447">
        <ele>-21.200000762939</ele>
        <time>2021-08-22T10:32:45.000Z</time>
      </trkpt>
      <trkpt lat="47.25606" lon="-2.32439">
        <ele>-21.200000762939</ele>
        <time>2021-08-22T10:32:46.000Z</time>
      </trkpt>
      <trkpt lat="47.25637" lon="-2.32407">
        <ele>-21.60000038147</ele>
        <time>2021-08-22T10:32:51.000Z</time>
      </trkpt>
      <trkpt lat="47.25643" lon="-2.32403">
        <ele>-22.200000762939</ele>
        <time>2021-08-22T10:32:52.000Z</time>
      </trkpt>
      <trkpt lat="47.25648" lon="-2.32401">
        <ele>-22.60000038147</ele>
        <time>2021-08-22T10:32:53.000Z</time>
      </trkpt>
      <trkpt lat="47.25652" lon="-2.32401">
        <ele>-23</ele>
        <time>2021-08-22T10:32:54.000Z</time>
      </trkpt>
      <trkpt lat="47.25655" lon="-2.32402">
        <ele>-23.60000038147</ele>
        <time>2021-08-22T10:32:55.000Z</time>
      </trkpt>
      <trkpt lat="47.25658" lon="-2.32402">
        <ele>-23.60000038147</ele>
        <time>2021-08-22T10:32:56.000Z</time>
      </trkpt>
      <trkpt lat="47.25666" lon="-2.32404">
        <ele>-23.60000038147</ele>
        <time>2021-08-22T10:32:58.000Z</time>
      </trkpt>
      <trkpt lat="47.25673" lon="-2.32413">
        <ele>-23.60000038147</ele>
        <time>2021-08-22T10:33:00.000Z</time>
      </trkpt>
      <trkpt lat="47.25689" lon="-2.3242">
        <ele>-23.60000038147</ele>
        <time>2021-08-22T10:33:03.000Z</time>
      </trkpt>
      <trkpt lat="47.25701" lon="-2.3242">
        <ele>-23.60000038147</ele>
        <time>2021-08-22T10:33:05.000Z</time>
      </trkpt>
      <trkpt lat="47.25719" lon="-2.32422">
        <ele>-23.60000038147</ele>
        <time>2021-08-22T10:33:08.000Z</time>
      </trkpt>
      <trkpt lat="47.25754" lon="-2.32423">
        <ele>-23.60000038147</ele>
        <time>2021-08-22T10:33:14.000Z</time>
      </trkpt>
      <trkpt lat="47.25758" lon="-2.32422">
        <ele>-23.60000038147</ele>
        <time>2021-08-22T10:33:15.000Z</time>
      </trkpt>
      <trkpt lat="47.25767" lon="-2.32418">
        <ele>-23.60000038147</ele>
        <time>2021-08-22T10:33:18.000Z</time>
      </trkpt>
      <trkpt lat="47.25785" lon="-2.32416">
        <ele>-23.60000038147</ele>
        <time>2021-08-22T10:33:23.000Z</time>
      </trkpt>
      <trkpt lat="47.25794" lon="-2.32434">
        <ele>-23.60000038147</ele>
        <time>2021-08-22T10:33:26.000Z</time>
      </trkpt>
      <trkpt lat="47.25796" lon="-2.32441">
        <ele>-23.60000038147</ele>
        <time>2021-08-22T10:33:27.000Z</time>
      </trkpt>
      <trkpt lat="47.258" lon="-2.32447">
        <ele>-23.60000038147</ele>
        <time>2021-08-22T10:33:28.000Z</time>
      </trkpt>
      <trkpt lat="47.25815" lon="-2.32458">
        <ele>-23.60000038147</ele>
        <time>2021-08-22T10:33:31.000Z</time>
      </trkpt>
      <trkpt lat="47.2582" lon="-2.32461">
        <ele>-23.60000038147</ele>
        <time>2021-08-22T10:33:32.000Z</time>
      </trkpt>
      <trkpt lat="47.25848" lon="-2.32474">
        <ele>-23.60000038147</ele>
        <time>2021-08-22T10:33:37.000Z</time>
      </trkpt>
      <trkpt lat="47.25865" lon="-2.32475">
        <ele>-23.60000038147</ele>
        <time>2021-08-22T10:33:40.000Z</time>
      </trkpt>
      <trkpt lat="47.25876" lon="-2.32473">
        <ele>-23.60000038147</ele>
        <time>2021-08-22T10:33:42.000Z</time>
      </trkpt>
      <trkpt lat="47.25898" lon="-2.32463">
        <ele>-23.60000038147</ele>
        <time>2021-08-22T10:33:46.000Z</time>
      </trkpt>
      <trkpt lat="47.25908" lon="-2.32452">
        <ele>-24</ele>
        <time>2021-08-22T10:33:48.000Z</time>
      </trkpt>
      <trkpt lat="47.25913" lon="-2.32446">
        <ele>-24.39999961853</ele>
        <time>2021-08-22T10:33:49.000Z</time>
      </trkpt>
      <trkpt lat="47.25917" lon="-2.32439">
        <ele>-24.799999237061</ele>
        <time>2021-08-22T10:33:50.000Z</time>
      </trkpt>
      <trkpt lat="47.25922" lon="-2.32433">
        <ele>-25.200000762939</ele>
        <time>2021-08-22T10:33:51.000Z</time>
      </trkpt>
      <trkpt lat="47.25927" lon="-2.32427">
        <ele>-25.60000038147</ele>
        <time>2021-08-22T10:33:52.000Z</time>
      </trkpt>
      <trkpt lat="47.2594" lon="-2.32408">
        <ele>-25.60000038147</ele>
        <time>2021-08-22T10:33:55.000Z</time>
      </trkpt>
      <trkpt lat="47.25976" lon="-2.32361">
        <ele>-25.60000038147</ele>
        <time>2021-08-22T10:34:03.000Z</time>
      </trkpt>
      <trkpt lat="47.26007" lon="-2.3232">
        <ele>-25.60000038147</ele>
        <time>2021-08-22T10:34:10.000Z</time>
      </trkpt>
      <trkpt lat="47.26043" lon="-2.32279">
        <ele>-25.60000038147</ele>
        <time>2021-08-22T10:34:18.000Z</time>
      </trkpt>
      <trkpt lat="47.26073" lon="-2.32245">
        <ele>-25.60000038147</ele>
        <time>2021-08-22T10:34:25.000Z</time>
      </trkpt>
      <trkpt lat="47.26089" lon="-2.32221">
        <ele>-25.60000038147</ele>
        <time>2021-08-22T10:34:29.000Z</time>
      </trkpt>
      <trkpt lat="47.26096" lon="-2.32209">
        <ele>-25.60000038147</ele>
        <time>2021-08-22T10:34:31.000Z</time>
      </trkpt>
      <trkpt lat="47.26117" lon="-2.32162">
        <ele>-25.60000038147</ele>
        <time>2021-08-22T10:34:38.000Z</time>
      </trkpt>
      <trkpt lat="47.26135" lon="-2.32104">
        <ele>-25.60000038147</ele>
        <time>2021-08-22T10:34:46.000Z</time>
      </trkpt>
      <trkpt lat="47.26148" lon="-2.32062">
        <ele>-25.60000038147</ele>
        <time>2021-08-22T10:34:52.000Z</time>
      </trkpt>
      <trkpt lat="47.26164" lon="-2.32022">
        <ele>-25.60000038147</ele>
        <time>2021-08-22T10:34:58.000Z</time>
      </trkpt>
      <trkpt lat="47.26168" lon="-2.32019">
        <ele>-25.60000038147</ele>
        <time>2021-08-22T10:34:59.000Z</time>
      </trkpt>
      <trkpt lat="47.2618" lon="-2.32022">
        <ele>-25.60000038147</ele>
        <time>2021-08-22T10:35:02.000Z</time>
      </trkpt>
      <trkpt lat="47.26191" lon="-2.32026">
        <ele>-25.60000038147</ele>
        <time>2021-08-22T10:35:07.000Z</time>
      </trkpt>
      <trkpt lat="47.26194" lon="-2.32026">
        <ele>-25.60000038147</ele>
        <time>2021-08-22T10:35:09.000Z</time>
      </trkpt>
      <trkpt lat="47.26195" lon="-2.32021">
        <ele>-25.60000038147</ele>
        <time>2021-08-22T10:35:11.000Z</time>
      </trkpt>
      <trkpt lat="47.26202" lon="-2.32002">
        <ele>-25.60000038147</ele>
        <time>2021-08-22T10:35:16.000Z</time>
      </trkpt>
      <trkpt lat="47.26222" lon="-2.31978">
        <ele>-25.60000038147</ele>
        <time>2021-08-22T10:35:23.000Z</time>
      </trkpt>
      <trkpt lat="47.26235" lon="-2.3197">
        <ele>-25.60000038147</ele>
        <time>2021-08-22T10:35:27.000Z</time>
      </trkpt>
      <trkpt lat="47.26238" lon="-2.31965">
        <ele>-25.60000038147</ele>
        <time>2021-08-22T10:35:28.000Z</time>
      </trkpt>
      <trkpt lat="47.26246" lon="-2.31949">
        <ele>-25.60000038147</ele>
        <time>2021-08-22T10:35:31.000Z</time>
      </trkpt>
      <trkpt lat="47.26251" lon="-2.31941">
        <ele>-25.60000038147</ele>
        <time>2021-08-22T10:35:33.000Z</time>
      </trkpt>
      <trkpt lat="47.26266" lon="-2.31915">
        <ele>-25.60000038147</ele>
        <time>2021-08-22T10:35:40.000Z</time>
      </trkpt>
      <trkpt lat="47.26289" lon="-2.31895">
        <ele>-25.60000038147</ele>
        <time>2021-08-22T10:35:47.000Z</time>
      </trkpt>
      <trkpt lat="47.26292" lon="-2.3189">
        <ele>-25.60000038147</ele>
        <time>2021-08-22T10:35:48.000Z</time>
      </trkpt>
      <trkpt lat="47.26293" lon="-2.31879">
        <ele>-25.60000038147</ele>
        <time>2021-08-22T10:35:50.000Z</time>
      </trkpt>
      <trkpt lat="47.26297" lon="-2.31838">
        <ele>-25.60000038147</ele>
        <time>2021-08-22T10:35:57.000Z</time>
      </trkpt>
      <trkpt lat="47.26303" lon="-2.31793">
        <ele>-25.60000038147</ele>
        <time>2021-08-22T10:36:04.000Z</time>
      </trkpt>
      <trkpt lat="47.26302" lon="-2.31755">
        <ele>-25.60000038147</ele>
        <time>2021-08-22T10:36:10.000Z</time>
      </trkpt>
      <trkpt lat="47.26301" lon="-2.31724">
        <ele>-25.60000038147</ele>
        <time>2021-08-22T10:36:15.000Z</time>
      </trkpt>
      <trkpt lat="47.26303" lon="-2.31719">
        <ele>-25.60000038147</ele>
        <time>2021-08-22T10:36:16.000Z</time>
      </trkpt>
      <trkpt lat="47.26307" lon="-2.31717">
        <ele>-25.60000038147</ele>
        <time>2021-08-22T10:36:17.000Z</time>
      </trkpt>
      <trkpt lat="47.26314" lon="-2.31712">
        <ele>-25.60000038147</ele>
        <time>2021-08-22T10:36:19.000Z</time>
      </trkpt>
      <trkpt lat="47.26331" lon="-2.31699">
        <ele>-25.60000038147</ele>
        <time>2021-08-22T10:36:24.000Z</time>
      </trkpt>
      <trkpt lat="47.26332" lon="-2.31694">
        <ele>-25.60000038147</ele>
        <time>2021-08-22T10:36:25.000Z</time>
      </trkpt>
      <trkpt lat="47.26337" lon="-2.31688">
        <ele>-25.200000762939</ele>
        <time>2021-08-22T10:36:27.000Z</time>
      </trkpt>
      <trkpt lat="47.26339" lon="-2.31687">
        <ele>-24.799999237061</ele>
        <time>2021-08-22T10:36:28.000Z</time>
      </trkpt>
      <trkpt lat="47.26342" lon="-2.31686">
        <ele>-24.39999961853</ele>
        <time>2021-08-22T10:36:29.000Z</time>
      </trkpt>
      <trkpt lat="47.26345" lon="-2.31684">
        <ele>-24</ele>
        <time>2021-08-22T10:36:30.000Z</time>
      </trkpt>
      <trkpt lat="47.26348" lon="-2.31683">
        <ele>-23.60000038147</ele>
        <time>2021-08-22T10:36:31.000Z</time>
      </trkpt>
      <trkpt lat="47.26356" lon="-2.31678">
        <ele>-23.60000038147</ele>
        <time>2021-08-22T10:36:34.000Z</time>
      </trkpt>
      <trkpt lat="47.26377" lon="-2.31669">
        <ele>-23.200000762939</ele>
        <time>2021-08-22T10:36:40.000Z</time>
      </trkpt>
      <trkpt lat="47.2638" lon="-2.31667">
        <ele>-22.799999237061</ele>
        <time>2021-08-22T10:36:41.000Z</time>
      </trkpt>
      <trkpt lat="47.26383" lon="-2.31665">
        <ele>-22.39999961853</ele>
        <time>2021-08-22T10:36:42.000Z</time>
      </trkpt>
      <trkpt lat="47.26386" lon="-2.31663">
        <ele>-22</ele>
        <time>2021-08-22T10:36:43.000Z</time>
      </trkpt>
      <trkpt lat="47.26389" lon="-2.31661">
        <ele>-21.60000038147</ele>
        <time>2021-08-22T10:36:44.000Z</time>
      </trkpt>
      <trkpt lat="47.26396" lon="-2.31658">
        <ele>-21.60000038147</ele>
        <time>2021-08-22T10:36:47.000Z</time>
      </trkpt>
      <trkpt lat="47.26408" lon="-2.31649">
        <ele>-21.60000038147</ele>
        <time>2021-08-22T10:36:53.000Z</time>
      </trkpt>
      <trkpt lat="47.26409" lon="-2.31646">
        <ele>-21.60000038147</ele>
        <time>2021-08-22T10:36:54.000Z</time>
      </trkpt>
      <trkpt lat="47.2641" lon="-2.31637">
        <ele>-21.60000038147</ele>
        <time>2021-08-22T10:36:56.000Z</time>
      </trkpt>
      <trkpt lat="47.2641" lon="-2.31602">
        <ele>-21.60000038147</ele>
        <time>2021-08-22T10:37:03.000Z</time>
      </trkpt>
      <trkpt lat="47.26411" lon="-2.31576">
        <ele>-21.60000038147</ele>
        <time>2021-08-22T10:37:10.000Z</time>
      </trkpt>
      <trkpt lat="47.26411" lon="-2.31554">
        <ele>-21.60000038147</ele>
        <time>2021-08-22T10:37:16.000Z</time>
      </trkpt>
      <trkpt lat="47.26412" lon="-2.31552">
        <ele>-21.60000038147</ele>
        <time>2021-08-22T10:37:17.000Z</time>
      </trkpt>
      <trkpt lat="47.26417" lon="-2.31551">
        <ele>-21.60000038147</ele>
        <time>2021-08-22T10:37:20.000Z</time>
      </trkpt>
      <trkpt lat="47.26418" lon="-2.31552">
        <ele>-21</ele>
        <time>2021-08-22T10:37:21.000Z</time>
      </trkpt>
    </trkseg>
  </trk>
</gpx>